<?xml version="1.0" encoding="UTF-8" standalone="no" ?>
<gpx xmlns="http://www.topografix.com/GPX/1/1" xmlns:xsi="http://www.w3.org/2001/XMLSchema-instance" xsi:schemaLocation="http://www.topografix.com/GPX/1/1 http://www.topografix.com/GPX/1/1/gpx.xsd" version="1.1" creator="VisuGPX - https://www.visugpx.com">
  <metadata>
    <name>Les Planches en Mgne-Les Ruines-Foncine le Bas -La Chevry-Le Lac à la Dame</name>
  </metadata>
  <trk>
    <name><![CDATA[Les Planches en Mgne-Les Ruines-Foncine le Bas -La Chevry-Le Lac à la Dame_1]]></name>
    <extensions>
      <line xmlns="http://www.topografix.com/GPX/gpx_style/0/2">
        <color>0000FF</color>
        <width>4</width>
      </line>
    </extensions>
    <trkseg>
      <trkpt lat="46.65651" lon="6.00967">
        <ele>705</ele>
        <time>2022-03-10T07:56:52Z</time>
      </trkpt>
      <trkpt lat="46.65647" lon="6.00964">
        <ele>720.9</ele>
        <time>2022-03-10T07:57:00Z</time>
      </trkpt>
      <trkpt lat="46.65642" lon="6.00965">
        <ele>725</ele>
        <time>2022-03-10T07:57:05Z</time>
      </trkpt>
      <trkpt lat="46.65637" lon="6.00966">
        <ele>727.5</ele>
        <time>2022-03-10T07:57:10Z</time>
      </trkpt>
      <trkpt lat="46.65633" lon="6.00965">
        <ele>728.2</ele>
        <time>2022-03-10T07:57:18Z</time>
      </trkpt>
      <trkpt lat="46.65628" lon="6.00965">
        <ele>728.1</ele>
        <time>2022-03-10T07:57:22Z</time>
      </trkpt>
      <trkpt lat="46.65623" lon="6.00968">
        <ele>728.6</ele>
        <time>2022-03-10T07:57:26Z</time>
      </trkpt>
      <trkpt lat="46.65619" lon="6.00969">
        <ele>728.2</ele>
        <time>2022-03-10T07:57:30Z</time>
      </trkpt>
      <trkpt lat="46.65614" lon="6.00969">
        <ele>727.4</ele>
        <time>2022-03-10T07:57:34Z</time>
      </trkpt>
      <trkpt lat="46.65609" lon="6.0097">
        <ele>726.6</ele>
        <time>2022-03-10T07:57:39Z</time>
      </trkpt>
      <trkpt lat="46.65604" lon="6.00973">
        <ele>725.8</ele>
        <time>2022-03-10T07:57:43Z</time>
      </trkpt>
      <trkpt lat="46.65599" lon="6.00974">
        <ele>725.5</ele>
        <time>2022-03-10T07:57:47Z</time>
      </trkpt>
      <trkpt lat="46.65594" lon="6.00976">
        <ele>725.1</ele>
        <time>2022-03-10T07:57:52Z</time>
      </trkpt>
      <trkpt lat="46.65589" lon="6.00978">
        <ele>725.4</ele>
        <time>2022-03-10T07:57:58Z</time>
      </trkpt>
      <trkpt lat="46.65584" lon="6.00978">
        <ele>726</ele>
        <time>2022-03-10T07:58:05Z</time>
      </trkpt>
      <trkpt lat="46.65579" lon="6.00978">
        <ele>726.6</ele>
        <time>2022-03-10T07:58:13Z</time>
      </trkpt>
      <trkpt lat="46.65573" lon="6.00978">
        <ele>727.2</ele>
        <time>2022-03-10T07:58:19Z</time>
      </trkpt>
      <trkpt lat="46.65568" lon="6.00979">
        <ele>728</ele>
        <time>2022-03-10T07:58:24Z</time>
      </trkpt>
      <trkpt lat="46.65563" lon="6.00981">
        <ele>728.6</ele>
        <time>2022-03-10T07:58:28Z</time>
      </trkpt>
      <trkpt lat="46.65558" lon="6.00982">
        <ele>729.5</ele>
        <time>2022-03-10T07:58:32Z</time>
      </trkpt>
      <trkpt lat="46.65554" lon="6.00984">
        <ele>729.5</ele>
        <time>2022-03-10T07:58:36Z</time>
      </trkpt>
      <trkpt lat="46.65549" lon="6.00985">
        <ele>729.3</ele>
        <time>2022-03-10T07:58:40Z</time>
      </trkpt>
      <trkpt lat="46.65544" lon="6.00987">
        <ele>729.2</ele>
        <time>2022-03-10T07:58:45Z</time>
      </trkpt>
      <trkpt lat="46.65539" lon="6.00988">
        <ele>729.1</ele>
        <time>2022-03-10T07:58:50Z</time>
      </trkpt>
      <trkpt lat="46.65534" lon="6.00989">
        <ele>728</ele>
        <time>2022-03-10T07:58:56Z</time>
      </trkpt>
      <trkpt lat="46.6553" lon="6.0099">
        <ele>726.9</ele>
        <time>2022-03-10T07:59:01Z</time>
      </trkpt>
      <trkpt lat="46.65525" lon="6.00991">
        <ele>726.2</ele>
        <time>2022-03-10T07:59:05Z</time>
      </trkpt>
      <trkpt lat="46.65521" lon="6.00993">
        <ele>725.6</ele>
        <time>2022-03-10T07:59:09Z</time>
      </trkpt>
      <trkpt lat="46.65515" lon="6.00993">
        <ele>725.8</ele>
        <time>2022-03-10T07:59:15Z</time>
      </trkpt>
      <trkpt lat="46.65511" lon="6.00996">
        <ele>726.1</ele>
        <time>2022-03-10T07:59:20Z</time>
      </trkpt>
      <trkpt lat="46.65506" lon="6.00998">
        <ele>726</ele>
        <time>2022-03-10T07:59:24Z</time>
      </trkpt>
      <trkpt lat="46.65502" lon="6.01002">
        <ele>725.8</ele>
        <time>2022-03-10T07:59:28Z</time>
      </trkpt>
      <trkpt lat="46.65498" lon="6.01005">
        <ele>725.8</ele>
        <time>2022-03-10T07:59:32Z</time>
      </trkpt>
      <trkpt lat="46.65494" lon="6.01007">
        <ele>725.7</ele>
        <time>2022-03-10T07:59:36Z</time>
      </trkpt>
      <trkpt lat="46.65489" lon="6.01011">
        <ele>725.6</ele>
        <time>2022-03-10T07:59:41Z</time>
      </trkpt>
      <trkpt lat="46.65485" lon="6.01015">
        <ele>725.8</ele>
        <time>2022-03-10T07:59:45Z</time>
      </trkpt>
      <trkpt lat="46.65481" lon="6.0102">
        <ele>726.1</ele>
        <time>2022-03-10T07:59:50Z</time>
      </trkpt>
      <trkpt lat="46.65477" lon="6.01025">
        <ele>726.9</ele>
        <time>2022-03-10T07:59:54Z</time>
      </trkpt>
      <trkpt lat="46.65472" lon="6.01029">
        <ele>728.1</ele>
        <time>2022-03-10T07:59:58Z</time>
      </trkpt>
      <trkpt lat="46.65468" lon="6.01034">
        <ele>729.4</ele>
        <time>2022-03-10T08:00:03Z</time>
      </trkpt>
      <trkpt lat="46.65465" lon="6.0104">
        <ele>729.5</ele>
        <time>2022-03-10T08:00:09Z</time>
      </trkpt>
      <trkpt lat="46.65462" lon="6.01047">
        <ele>728.3</ele>
        <time>2022-03-10T08:00:15Z</time>
      </trkpt>
      <trkpt lat="46.6546" lon="6.01053">
        <ele>727.5</ele>
        <time>2022-03-10T08:00:20Z</time>
      </trkpt>
      <trkpt lat="46.65459" lon="6.01059">
        <ele>726.8</ele>
        <time>2022-03-10T08:00:25Z</time>
      </trkpt>
      <trkpt lat="46.65457" lon="6.01067">
        <ele>727</ele>
        <time>2022-03-10T08:00:31Z</time>
      </trkpt>
      <trkpt lat="46.65455" lon="6.01073">
        <ele>727.2</ele>
        <time>2022-03-10T08:00:35Z</time>
      </trkpt>
      <trkpt lat="46.65452" lon="6.01078">
        <ele>727.2</ele>
        <time>2022-03-10T08:00:39Z</time>
      </trkpt>
      <trkpt lat="46.6545" lon="6.01086">
        <ele>726.9</ele>
        <time>2022-03-10T08:00:44Z</time>
      </trkpt>
      <trkpt lat="46.6545" lon="6.01093">
        <ele>726.2</ele>
        <time>2022-03-10T08:00:49Z</time>
      </trkpt>
      <trkpt lat="46.65449" lon="6.011">
        <ele>725.8</ele>
        <time>2022-03-10T08:00:55Z</time>
      </trkpt>
      <trkpt lat="46.65448" lon="6.01108">
        <ele>725.9</ele>
        <time>2022-03-10T08:01:01Z</time>
      </trkpt>
      <trkpt lat="46.65449" lon="6.01115">
        <ele>725.5</ele>
        <time>2022-03-10T08:01:06Z</time>
      </trkpt>
      <trkpt lat="46.6545" lon="6.01122">
        <ele>725.3</ele>
        <time>2022-03-10T08:01:14Z</time>
      </trkpt>
      <trkpt lat="46.6545" lon="6.01129">
        <ele>725.2</ele>
        <time>2022-03-10T08:01:18Z</time>
      </trkpt>
      <trkpt lat="46.6545" lon="6.01135">
        <ele>724.8</ele>
        <time>2022-03-10T08:01:21Z</time>
      </trkpt>
      <trkpt lat="46.65449" lon="6.01142">
        <ele>724.5</ele>
        <time>2022-03-10T08:01:24Z</time>
      </trkpt>
      <trkpt lat="46.65448" lon="6.01149">
        <ele>723.9</ele>
        <time>2022-03-10T08:01:28Z</time>
      </trkpt>
      <trkpt lat="46.65448" lon="6.01157">
        <ele>723.6</ele>
        <time>2022-03-10T08:01:33Z</time>
      </trkpt>
      <trkpt lat="46.65448" lon="6.01163">
        <ele>723.3</ele>
        <time>2022-03-10T08:01:37Z</time>
      </trkpt>
      <trkpt lat="46.65448" lon="6.01171">
        <ele>722.7</ele>
        <time>2022-03-10T08:01:42Z</time>
      </trkpt>
      <trkpt lat="46.65447" lon="6.01178">
        <ele>722.3</ele>
        <time>2022-03-10T08:01:47Z</time>
      </trkpt>
      <trkpt lat="46.65445" lon="6.01184">
        <ele>722.1</ele>
        <time>2022-03-10T08:01:51Z</time>
      </trkpt>
      <trkpt lat="46.65444" lon="6.0119">
        <ele>721.6</ele>
        <time>2022-03-10T08:01:55Z</time>
      </trkpt>
      <trkpt lat="46.65444" lon="6.01199">
        <ele>721.5</ele>
        <time>2022-03-10T08:01:59Z</time>
      </trkpt>
      <trkpt lat="46.65445" lon="6.01207">
        <ele>722.1</ele>
        <time>2022-03-10T08:02:03Z</time>
      </trkpt>
      <trkpt lat="46.65446" lon="6.01214">
        <ele>722.8</ele>
        <time>2022-03-10T08:02:07Z</time>
      </trkpt>
      <trkpt lat="46.65446" lon="6.0122">
        <ele>723.4</ele>
        <time>2022-03-10T08:02:11Z</time>
      </trkpt>
      <trkpt lat="46.65444" lon="6.01228">
        <ele>724.1</ele>
        <time>2022-03-10T08:02:16Z</time>
      </trkpt>
      <trkpt lat="46.65444" lon="6.01235">
        <ele>724.1</ele>
        <time>2022-03-10T08:02:21Z</time>
      </trkpt>
      <trkpt lat="46.65443" lon="6.01242">
        <ele>723.8</ele>
        <time>2022-03-10T08:02:25Z</time>
      </trkpt>
      <trkpt lat="46.65442" lon="6.01249">
        <ele>723.7</ele>
        <time>2022-03-10T08:02:29Z</time>
      </trkpt>
      <trkpt lat="46.65441" lon="6.01256">
        <ele>723.9</ele>
        <time>2022-03-10T08:02:33Z</time>
      </trkpt>
      <trkpt lat="46.65441" lon="6.01263">
        <ele>723.8</ele>
        <time>2022-03-10T08:02:37Z</time>
      </trkpt>
      <trkpt lat="46.65441" lon="6.01271">
        <ele>723.2</ele>
        <time>2022-03-10T08:02:42Z</time>
      </trkpt>
      <trkpt lat="46.65441" lon="6.01279">
        <ele>722.4</ele>
        <time>2022-03-10T08:02:47Z</time>
      </trkpt>
      <trkpt lat="46.65439" lon="6.01285">
        <ele>721.7</ele>
        <time>2022-03-10T08:02:51Z</time>
      </trkpt>
      <trkpt lat="46.65435" lon="6.01291">
        <ele>721.1</ele>
        <time>2022-03-10T08:02:56Z</time>
      </trkpt>
      <trkpt lat="46.65432" lon="6.01295">
        <ele>721.3</ele>
        <time>2022-03-10T08:03:01Z</time>
      </trkpt>
      <trkpt lat="46.6543" lon="6.01303">
        <ele>722</ele>
        <time>2022-03-10T08:03:06Z</time>
      </trkpt>
      <trkpt lat="46.65427" lon="6.0131">
        <ele>722.7</ele>
        <time>2022-03-10T08:03:10Z</time>
      </trkpt>
      <trkpt lat="46.65424" lon="6.01316">
        <ele>723.3</ele>
        <time>2022-03-10T08:03:14Z</time>
      </trkpt>
      <trkpt lat="46.65421" lon="6.01321">
        <ele>724.2</ele>
        <time>2022-03-10T08:03:18Z</time>
      </trkpt>
      <trkpt lat="46.65417" lon="6.01326">
        <ele>725</ele>
        <time>2022-03-10T08:03:23Z</time>
      </trkpt>
      <trkpt lat="46.65415" lon="6.01332">
        <ele>725.6</ele>
        <time>2022-03-10T08:03:30Z</time>
      </trkpt>
      <trkpt lat="46.65411" lon="6.01336">
        <ele>726.2</ele>
        <time>2022-03-10T08:03:35Z</time>
      </trkpt>
      <trkpt lat="46.65407" lon="6.01342">
        <ele>727.1</ele>
        <time>2022-03-10T08:03:40Z</time>
      </trkpt>
      <trkpt lat="46.65404" lon="6.01348">
        <ele>728.2</ele>
        <time>2022-03-10T08:03:46Z</time>
      </trkpt>
      <trkpt lat="46.65403" lon="6.01354">
        <ele>729.4</ele>
        <time>2022-03-10T08:03:51Z</time>
      </trkpt>
      <trkpt lat="46.65399" lon="6.0136">
        <ele>731</ele>
        <time>2022-03-10T08:03:57Z</time>
      </trkpt>
      <trkpt lat="46.65396" lon="6.01365">
        <ele>732</ele>
        <time>2022-03-10T08:04:04Z</time>
      </trkpt>
      <trkpt lat="46.65394" lon="6.01372">
        <ele>732.6</ele>
        <time>2022-03-10T08:04:09Z</time>
      </trkpt>
      <trkpt lat="46.6539" lon="6.01377">
        <ele>733.7</ele>
        <time>2022-03-10T08:04:14Z</time>
      </trkpt>
      <trkpt lat="46.65385" lon="6.0138">
        <ele>734.7</ele>
        <time>2022-03-10T08:04:18Z</time>
      </trkpt>
      <trkpt lat="46.65381" lon="6.01383">
        <ele>735.8</ele>
        <time>2022-03-10T08:04:23Z</time>
      </trkpt>
      <trkpt lat="46.65377" lon="6.01388">
        <ele>736.2</ele>
        <time>2022-03-10T08:04:29Z</time>
      </trkpt>
      <trkpt lat="46.65372" lon="6.01392">
        <ele>736.1</ele>
        <time>2022-03-10T08:04:34Z</time>
      </trkpt>
      <trkpt lat="46.65368" lon="6.01396">
        <ele>736</ele>
        <time>2022-03-10T08:04:39Z</time>
      </trkpt>
      <trkpt lat="46.65364" lon="6.014">
        <ele>736.2</ele>
        <time>2022-03-10T08:04:44Z</time>
      </trkpt>
      <trkpt lat="46.6536" lon="6.01406">
        <ele>736.5</ele>
        <time>2022-03-10T08:04:49Z</time>
      </trkpt>
      <trkpt lat="46.65356" lon="6.0141">
        <ele>736.8</ele>
        <time>2022-03-10T08:04:55Z</time>
      </trkpt>
      <trkpt lat="46.65352" lon="6.01415">
        <ele>737</ele>
        <time>2022-03-10T08:05:01Z</time>
      </trkpt>
      <trkpt lat="46.65348" lon="6.01418">
        <ele>737.5</ele>
        <time>2022-03-10T08:05:06Z</time>
      </trkpt>
      <trkpt lat="46.65344" lon="6.01423">
        <ele>738.7</ele>
        <time>2022-03-10T08:05:11Z</time>
      </trkpt>
      <trkpt lat="46.65341" lon="6.0143">
        <ele>739.7</ele>
        <time>2022-03-10T08:05:16Z</time>
      </trkpt>
      <trkpt lat="46.6534" lon="6.01437">
        <ele>740.3</ele>
        <time>2022-03-10T08:05:21Z</time>
      </trkpt>
      <trkpt lat="46.65336" lon="6.01443">
        <ele>740.7</ele>
        <time>2022-03-10T08:05:27Z</time>
      </trkpt>
      <trkpt lat="46.65333" lon="6.01448">
        <ele>740.5</ele>
        <time>2022-03-10T08:05:33Z</time>
      </trkpt>
      <trkpt lat="46.6533" lon="6.01454">
        <ele>740.4</ele>
        <time>2022-03-10T08:05:38Z</time>
      </trkpt>
      <trkpt lat="46.65327" lon="6.0146">
        <ele>740.8</ele>
        <time>2022-03-10T08:05:43Z</time>
      </trkpt>
      <trkpt lat="46.65322" lon="6.01463">
        <ele>741.3</ele>
        <time>2022-03-10T08:05:48Z</time>
      </trkpt>
      <trkpt lat="46.65319" lon="6.01468">
        <ele>742.2</ele>
        <time>2022-03-10T08:05:54Z</time>
      </trkpt>
      <trkpt lat="46.65315" lon="6.01474">
        <ele>742.8</ele>
        <time>2022-03-10T08:05:59Z</time>
      </trkpt>
      <trkpt lat="46.65312" lon="6.01479">
        <ele>743.4</ele>
        <time>2022-03-10T08:06:04Z</time>
      </trkpt>
      <trkpt lat="46.65308" lon="6.01483">
        <ele>743.9</ele>
        <time>2022-03-10T08:06:10Z</time>
      </trkpt>
      <trkpt lat="46.65304" lon="6.01488">
        <ele>744.4</ele>
        <time>2022-03-10T08:06:15Z</time>
      </trkpt>
      <trkpt lat="46.65301" lon="6.01493">
        <ele>745.6</ele>
        <time>2022-03-10T08:06:21Z</time>
      </trkpt>
      <trkpt lat="46.65298" lon="6.01498">
        <ele>746.8</ele>
        <time>2022-03-10T08:06:27Z</time>
      </trkpt>
      <trkpt lat="46.65294" lon="6.01503">
        <ele>747.7</ele>
        <time>2022-03-10T08:06:32Z</time>
      </trkpt>
      <trkpt lat="46.65291" lon="6.01508">
        <ele>748.4</ele>
        <time>2022-03-10T08:06:37Z</time>
      </trkpt>
      <trkpt lat="46.65288" lon="6.01514">
        <ele>749.1</ele>
        <time>2022-03-10T08:06:43Z</time>
      </trkpt>
      <trkpt lat="46.65284" lon="6.01518">
        <ele>750.4</ele>
        <time>2022-03-10T08:06:49Z</time>
      </trkpt>
      <trkpt lat="46.6528" lon="6.01523">
        <ele>752.4</ele>
        <time>2022-03-10T08:06:55Z</time>
      </trkpt>
      <trkpt lat="46.65275" lon="6.01526">
        <ele>753.5</ele>
        <time>2022-03-10T08:07:00Z</time>
      </trkpt>
      <trkpt lat="46.65271" lon="6.0153">
        <ele>754.5</ele>
        <time>2022-03-10T08:07:05Z</time>
      </trkpt>
      <trkpt lat="46.65268" lon="6.01534">
        <ele>755.3</ele>
        <time>2022-03-10T08:07:10Z</time>
      </trkpt>
      <trkpt lat="46.65264" lon="6.01539">
        <ele>755.9</ele>
        <time>2022-03-10T08:07:15Z</time>
      </trkpt>
      <trkpt lat="46.6526" lon="6.01544">
        <ele>756.9</ele>
        <time>2022-03-10T08:07:20Z</time>
      </trkpt>
      <trkpt lat="46.65256" lon="6.01548">
        <ele>757.9</ele>
        <time>2022-03-10T08:07:26Z</time>
      </trkpt>
      <trkpt lat="46.65253" lon="6.01553">
        <ele>758.8</ele>
        <time>2022-03-10T08:07:32Z</time>
      </trkpt>
      <trkpt lat="46.6525" lon="6.01558">
        <ele>760.1</ele>
        <time>2022-03-10T08:07:38Z</time>
      </trkpt>
      <trkpt lat="46.65249" lon="6.01565">
        <ele>760.3</ele>
        <time>2022-03-10T08:07:43Z</time>
      </trkpt>
      <trkpt lat="46.65247" lon="6.01571">
        <ele>760.1</ele>
        <time>2022-03-10T08:07:49Z</time>
      </trkpt>
      <trkpt lat="46.65245" lon="6.01578">
        <ele>760.2</ele>
        <time>2022-03-10T08:07:56Z</time>
      </trkpt>
      <trkpt lat="46.65244" lon="6.01585">
        <ele>760.1</ele>
        <time>2022-03-10T08:08:02Z</time>
      </trkpt>
      <trkpt lat="46.65242" lon="6.01591">
        <ele>760.6</ele>
        <time>2022-03-10T08:08:08Z</time>
      </trkpt>
      <trkpt lat="46.6524" lon="6.01599">
        <ele>761.2</ele>
        <time>2022-03-10T08:08:13Z</time>
      </trkpt>
      <trkpt lat="46.65238" lon="6.01606">
        <ele>761.4</ele>
        <time>2022-03-10T08:08:18Z</time>
      </trkpt>
      <trkpt lat="46.65237" lon="6.01612">
        <ele>761.7</ele>
        <time>2022-03-10T08:08:23Z</time>
      </trkpt>
      <trkpt lat="46.65237" lon="6.01619">
        <ele>762.3</ele>
        <time>2022-03-10T08:08:28Z</time>
      </trkpt>
      <trkpt lat="46.65237" lon="6.01626">
        <ele>763</ele>
        <time>2022-03-10T08:08:33Z</time>
      </trkpt>
      <trkpt lat="46.65238" lon="6.01634">
        <ele>763.1</ele>
        <time>2022-03-10T08:08:38Z</time>
      </trkpt>
      <trkpt lat="46.6524" lon="6.0164">
        <ele>762.9</ele>
        <time>2022-03-10T08:08:43Z</time>
      </trkpt>
      <trkpt lat="46.6524" lon="6.01647">
        <ele>762.8</ele>
        <time>2022-03-10T08:08:48Z</time>
      </trkpt>
      <trkpt lat="46.65241" lon="6.01654">
        <ele>762.6</ele>
        <time>2022-03-10T08:08:53Z</time>
      </trkpt>
      <trkpt lat="46.6524" lon="6.01662">
        <ele>762.5</ele>
        <time>2022-03-10T08:08:58Z</time>
      </trkpt>
      <trkpt lat="46.65241" lon="6.01669">
        <ele>762.7</ele>
        <time>2022-03-10T08:09:04Z</time>
      </trkpt>
      <trkpt lat="46.65243" lon="6.01676">
        <ele>763.6</ele>
        <time>2022-03-10T08:09:10Z</time>
      </trkpt>
      <trkpt lat="46.65244" lon="6.01682">
        <ele>764.2</ele>
        <time>2022-03-10T08:09:15Z</time>
      </trkpt>
      <trkpt lat="46.65245" lon="6.01689">
        <ele>764.6</ele>
        <time>2022-03-10T08:09:20Z</time>
      </trkpt>
      <trkpt lat="46.65246" lon="6.01696">
        <ele>764.6</ele>
        <time>2022-03-10T08:09:26Z</time>
      </trkpt>
      <trkpt lat="46.65248" lon="6.01703">
        <ele>764.4</ele>
        <time>2022-03-10T08:09:32Z</time>
      </trkpt>
      <trkpt lat="46.65248" lon="6.0171">
        <ele>764</ele>
        <time>2022-03-10T08:09:36Z</time>
      </trkpt>
      <trkpt lat="46.6525" lon="6.01716">
        <ele>763.8</ele>
        <time>2022-03-10T08:09:41Z</time>
      </trkpt>
      <trkpt lat="46.65254" lon="6.01722">
        <ele>764.7</ele>
        <time>2022-03-10T08:09:47Z</time>
      </trkpt>
      <trkpt lat="46.65255" lon="6.01729">
        <ele>764.7</ele>
        <time>2022-03-10T08:09:52Z</time>
      </trkpt>
      <trkpt lat="46.65258" lon="6.01734">
        <ele>765.4</ele>
        <time>2022-03-10T08:09:57Z</time>
      </trkpt>
      <trkpt lat="46.6526" lon="6.0174">
        <ele>766.3</ele>
        <time>2022-03-10T08:10:02Z</time>
      </trkpt>
      <trkpt lat="46.65263" lon="6.01747">
        <ele>767.7</ele>
        <time>2022-03-10T08:10:08Z</time>
      </trkpt>
      <trkpt lat="46.65265" lon="6.01753">
        <ele>769.2</ele>
        <time>2022-03-10T08:10:14Z</time>
      </trkpt>
      <trkpt lat="46.65268" lon="6.01759">
        <ele>770.4</ele>
        <time>2022-03-10T08:10:19Z</time>
      </trkpt>
      <trkpt lat="46.65271" lon="6.01764">
        <ele>771.6</ele>
        <time>2022-03-10T08:10:24Z</time>
      </trkpt>
      <trkpt lat="46.65274" lon="6.01769">
        <ele>772.8</ele>
        <time>2022-03-10T08:10:29Z</time>
      </trkpt>
      <trkpt lat="46.65277" lon="6.01774">
        <ele>773.5</ele>
        <time>2022-03-10T08:10:34Z</time>
      </trkpt>
      <trkpt lat="46.6528" lon="6.01781">
        <ele>774.7</ele>
        <time>2022-03-10T08:10:40Z</time>
      </trkpt>
      <trkpt lat="46.65284" lon="6.01786">
        <ele>775.5</ele>
        <time>2022-03-10T08:10:45Z</time>
      </trkpt>
      <trkpt lat="46.65288" lon="6.01789">
        <ele>776.5</ele>
        <time>2022-03-10T08:10:50Z</time>
      </trkpt>
      <trkpt lat="46.65292" lon="6.01793">
        <ele>776.7</ele>
        <time>2022-03-10T08:10:54Z</time>
      </trkpt>
      <trkpt lat="46.65296" lon="6.01798">
        <ele>776.8</ele>
        <time>2022-03-10T08:10:59Z</time>
      </trkpt>
      <trkpt lat="46.653" lon="6.01802">
        <ele>777</ele>
        <time>2022-03-10T08:11:06Z</time>
      </trkpt>
      <trkpt lat="46.65305" lon="6.01805">
        <ele>777.5</ele>
        <time>2022-03-10T08:11:12Z</time>
      </trkpt>
      <trkpt lat="46.65309" lon="6.01808">
        <ele>777.9</ele>
        <time>2022-03-10T08:11:17Z</time>
      </trkpt>
      <trkpt lat="46.65313" lon="6.01811">
        <ele>778.2</ele>
        <time>2022-03-10T08:11:21Z</time>
      </trkpt>
      <trkpt lat="46.65317" lon="6.01815">
        <ele>778.3</ele>
        <time>2022-03-10T08:11:26Z</time>
      </trkpt>
      <trkpt lat="46.65321" lon="6.01819">
        <ele>778.4</ele>
        <time>2022-03-10T08:11:32Z</time>
      </trkpt>
      <trkpt lat="46.65324" lon="6.01824">
        <ele>778.6</ele>
        <time>2022-03-10T08:11:39Z</time>
      </trkpt>
      <trkpt lat="46.65328" lon="6.01829">
        <ele>779.1</ele>
        <time>2022-03-10T08:11:46Z</time>
      </trkpt>
      <trkpt lat="46.65332" lon="6.01833">
        <ele>780</ele>
        <time>2022-03-10T08:11:52Z</time>
      </trkpt>
      <trkpt lat="46.65336" lon="6.01838">
        <ele>781</ele>
        <time>2022-03-10T08:11:59Z</time>
      </trkpt>
      <trkpt lat="46.65338" lon="6.01843">
        <ele>782.1</ele>
        <time>2022-03-10T08:12:05Z</time>
      </trkpt>
      <trkpt lat="46.65341" lon="6.01849">
        <ele>783.3</ele>
        <time>2022-03-10T08:12:11Z</time>
      </trkpt>
      <trkpt lat="46.65344" lon="6.01854">
        <ele>784.8</ele>
        <time>2022-03-10T08:12:17Z</time>
      </trkpt>
      <trkpt lat="46.65349" lon="6.01857">
        <ele>786.4</ele>
        <time>2022-03-10T08:12:22Z</time>
      </trkpt>
      <trkpt lat="46.65353" lon="6.01861">
        <ele>788.3</ele>
        <time>2022-03-10T08:12:28Z</time>
      </trkpt>
      <trkpt lat="46.65356" lon="6.01866">
        <ele>789.6</ele>
        <time>2022-03-10T08:12:34Z</time>
      </trkpt>
      <trkpt lat="46.65359" lon="6.01871">
        <ele>790.3</ele>
        <time>2022-03-10T08:12:39Z</time>
      </trkpt>
      <trkpt lat="46.65362" lon="6.01876">
        <ele>790.8</ele>
        <time>2022-03-10T08:12:45Z</time>
      </trkpt>
      <trkpt lat="46.65366" lon="6.01881">
        <ele>790.7</ele>
        <time>2022-03-10T08:12:52Z</time>
      </trkpt>
      <trkpt lat="46.6537" lon="6.01886">
        <ele>791.3</ele>
        <time>2022-03-10T08:12:59Z</time>
      </trkpt>
      <trkpt lat="46.65373" lon="6.01892">
        <ele>791.8</ele>
        <time>2022-03-10T08:13:04Z</time>
      </trkpt>
      <trkpt lat="46.65375" lon="6.01897">
        <ele>792.4</ele>
        <time>2022-03-10T08:13:09Z</time>
      </trkpt>
      <trkpt lat="46.65379" lon="6.01902">
        <ele>793</ele>
        <time>2022-03-10T08:13:15Z</time>
      </trkpt>
      <trkpt lat="46.65383" lon="6.01908">
        <ele>793.7</ele>
        <time>2022-03-10T08:13:22Z</time>
      </trkpt>
      <trkpt lat="46.65386" lon="6.01913">
        <ele>794.3</ele>
        <time>2022-03-10T08:13:29Z</time>
      </trkpt>
      <trkpt lat="46.6539" lon="6.01918">
        <ele>795.3</ele>
        <time>2022-03-10T08:13:35Z</time>
      </trkpt>
      <trkpt lat="46.65394" lon="6.01923">
        <ele>795.7</ele>
        <time>2022-03-10T08:13:41Z</time>
      </trkpt>
      <trkpt lat="46.65398" lon="6.01928">
        <ele>795.2</ele>
        <time>2022-03-10T08:13:48Z</time>
      </trkpt>
      <trkpt lat="46.65404" lon="6.01928">
        <ele>795</ele>
        <time>2022-03-10T08:13:53Z</time>
      </trkpt>
      <trkpt lat="46.65409" lon="6.01928">
        <ele>795.1</ele>
        <time>2022-03-10T08:13:58Z</time>
      </trkpt>
      <trkpt lat="46.65413" lon="6.01931">
        <ele>795.5</ele>
        <time>2022-03-10T08:14:04Z</time>
      </trkpt>
      <trkpt lat="46.65417" lon="6.01935">
        <ele>796.1</ele>
        <time>2022-03-10T08:14:11Z</time>
      </trkpt>
      <trkpt lat="46.65422" lon="6.01937">
        <ele>795.9</ele>
        <time>2022-03-10T08:14:17Z</time>
      </trkpt>
      <trkpt lat="46.65427" lon="6.01941">
        <ele>795.2</ele>
        <time>2022-03-10T08:14:23Z</time>
      </trkpt>
      <trkpt lat="46.65431" lon="6.01942">
        <ele>794.4</ele>
        <time>2022-03-10T08:14:29Z</time>
      </trkpt>
      <trkpt lat="46.65437" lon="6.01943">
        <ele>793.8</ele>
        <time>2022-03-10T08:14:35Z</time>
      </trkpt>
      <trkpt lat="46.65441" lon="6.01946">
        <ele>793.7</ele>
        <time>2022-03-10T08:14:41Z</time>
      </trkpt>
      <trkpt lat="46.65445" lon="6.0195">
        <ele>794.1</ele>
        <time>2022-03-10T08:14:46Z</time>
      </trkpt>
      <trkpt lat="46.65446" lon="6.01956">
        <ele>795.4</ele>
        <time>2022-03-10T08:14:52Z</time>
      </trkpt>
      <trkpt lat="46.65449" lon="6.01961">
        <ele>796.4</ele>
        <time>2022-03-10T08:14:58Z</time>
      </trkpt>
      <trkpt lat="46.65453" lon="6.01965">
        <ele>796.8</ele>
        <time>2022-03-10T08:15:04Z</time>
      </trkpt>
      <trkpt lat="46.65457" lon="6.01969">
        <ele>796.9</ele>
        <time>2022-03-10T08:15:10Z</time>
      </trkpt>
      <trkpt lat="46.65462" lon="6.01973">
        <ele>796.7</ele>
        <time>2022-03-10T08:15:17Z</time>
      </trkpt>
      <trkpt lat="46.65467" lon="6.01977">
        <ele>797.1</ele>
        <time>2022-03-10T08:15:21Z</time>
      </trkpt>
      <trkpt lat="46.65472" lon="6.0198">
        <ele>797.9</ele>
        <time>2022-03-10T08:15:25Z</time>
      </trkpt>
      <trkpt lat="46.65475" lon="6.01985">
        <ele>798.7</ele>
        <time>2022-03-10T08:15:29Z</time>
      </trkpt>
      <trkpt lat="46.65479" lon="6.01989">
        <ele>799.8</ele>
        <time>2022-03-10T08:15:33Z</time>
      </trkpt>
      <trkpt lat="46.65483" lon="6.01993">
        <ele>801.5</ele>
        <time>2022-03-10T08:15:40Z</time>
      </trkpt>
      <trkpt lat="46.65487" lon="6.01997">
        <ele>802.3</ele>
        <time>2022-03-10T08:15:47Z</time>
      </trkpt>
      <trkpt lat="46.65491" lon="6.02001">
        <ele>802.6</ele>
        <time>2022-03-10T08:15:52Z</time>
      </trkpt>
      <trkpt lat="46.65494" lon="6.02006">
        <ele>802.8</ele>
        <time>2022-03-10T08:15:57Z</time>
      </trkpt>
      <trkpt lat="46.65498" lon="6.02012">
        <ele>803</ele>
        <time>2022-03-10T08:16:02Z</time>
      </trkpt>
      <trkpt lat="46.655" lon="6.02017">
        <ele>803.1</ele>
        <time>2022-03-10T08:16:07Z</time>
      </trkpt>
      <trkpt lat="46.65503" lon="6.02023">
        <ele>803.2</ele>
        <time>2022-03-10T08:16:12Z</time>
      </trkpt>
      <trkpt lat="46.65508" lon="6.02026">
        <ele>803.3</ele>
        <time>2022-03-10T08:16:17Z</time>
      </trkpt>
      <trkpt lat="46.65512" lon="6.0203">
        <ele>803.2</ele>
        <time>2022-03-10T08:16:22Z</time>
      </trkpt>
      <trkpt lat="46.65515" lon="6.02034">
        <ele>802.7</ele>
        <time>2022-03-10T08:16:28Z</time>
      </trkpt>
      <trkpt lat="46.65519" lon="6.0204">
        <ele>802.4</ele>
        <time>2022-03-10T08:16:33Z</time>
      </trkpt>
      <trkpt lat="46.65522" lon="6.02045">
        <ele>802.2</ele>
        <time>2022-03-10T08:16:37Z</time>
      </trkpt>
      <trkpt lat="46.65526" lon="6.02049">
        <ele>802.7</ele>
        <time>2022-03-10T08:16:44Z</time>
      </trkpt>
      <trkpt lat="46.6553" lon="6.02054">
        <ele>803.2</ele>
        <time>2022-03-10T08:16:50Z</time>
      </trkpt>
      <trkpt lat="46.65535" lon="6.02057">
        <ele>803.7</ele>
        <time>2022-03-10T08:16:55Z</time>
      </trkpt>
      <trkpt lat="46.6554" lon="6.0206">
        <ele>804.7</ele>
        <time>2022-03-10T08:17:01Z</time>
      </trkpt>
      <trkpt lat="46.65545" lon="6.02063">
        <ele>806.2</ele>
        <time>2022-03-10T08:17:06Z</time>
      </trkpt>
      <trkpt lat="46.6555" lon="6.02065">
        <ele>808</ele>
        <time>2022-03-10T08:17:11Z</time>
      </trkpt>
      <trkpt lat="46.65554" lon="6.02069">
        <ele>809.8</ele>
        <time>2022-03-10T08:17:16Z</time>
      </trkpt>
      <trkpt lat="46.65558" lon="6.02072">
        <ele>811.6</ele>
        <time>2022-03-10T08:17:21Z</time>
      </trkpt>
      <trkpt lat="46.65563" lon="6.02076">
        <ele>812.7</ele>
        <time>2022-03-10T08:17:26Z</time>
      </trkpt>
      <trkpt lat="46.65568" lon="6.02076">
        <ele>813.1</ele>
        <time>2022-03-10T08:17:31Z</time>
      </trkpt>
      <trkpt lat="46.65572" lon="6.02078">
        <ele>813.1</ele>
        <time>2022-03-10T08:17:36Z</time>
      </trkpt>
      <trkpt lat="46.65577" lon="6.0208">
        <ele>813.4</ele>
        <time>2022-03-10T08:17:42Z</time>
      </trkpt>
      <trkpt lat="46.65582" lon="6.02078">
        <ele>813.8</ele>
        <time>2022-03-10T08:17:50Z</time>
      </trkpt>
      <trkpt lat="46.65585" lon="6.02081">
        <ele>813.1</ele>
        <time>2022-03-10T08:18:38Z</time>
      </trkpt>
      <trkpt lat="46.6559" lon="6.02083">
        <ele>813.4</ele>
        <time>2022-03-10T08:19:12Z</time>
      </trkpt>
      <trkpt lat="46.65594" lon="6.02086">
        <ele>813</ele>
        <time>2022-03-10T08:19:16Z</time>
      </trkpt>
      <trkpt lat="46.65599" lon="6.02085">
        <ele>812.6</ele>
        <time>2022-03-10T08:19:20Z</time>
      </trkpt>
      <trkpt lat="46.65604" lon="6.02085">
        <ele>812.9</ele>
        <time>2022-03-10T08:19:25Z</time>
      </trkpt>
      <trkpt lat="46.6561" lon="6.02087">
        <ele>813.9</ele>
        <time>2022-03-10T08:19:30Z</time>
      </trkpt>
      <trkpt lat="46.65614" lon="6.02088">
        <ele>815.2</ele>
        <time>2022-03-10T08:19:34Z</time>
      </trkpt>
      <trkpt lat="46.65619" lon="6.02089">
        <ele>816.2</ele>
        <time>2022-03-10T08:19:37Z</time>
      </trkpt>
      <trkpt lat="46.65624" lon="6.02091">
        <ele>817.1</ele>
        <time>2022-03-10T08:19:40Z</time>
      </trkpt>
      <trkpt lat="46.65629" lon="6.02092">
        <ele>818.1</ele>
        <time>2022-03-10T08:19:44Z</time>
      </trkpt>
      <trkpt lat="46.65633" lon="6.02092">
        <ele>819.3</ele>
        <time>2022-03-10T08:19:49Z</time>
      </trkpt>
      <trkpt lat="46.65638" lon="6.02093">
        <ele>819.8</ele>
        <time>2022-03-10T08:19:54Z</time>
      </trkpt>
      <trkpt lat="46.65643" lon="6.02097">
        <ele>819.9</ele>
        <time>2022-03-10T08:19:58Z</time>
      </trkpt>
      <trkpt lat="46.65648" lon="6.02101">
        <ele>819.5</ele>
        <time>2022-03-10T08:20:02Z</time>
      </trkpt>
      <trkpt lat="46.65651" lon="6.02107">
        <ele>819</ele>
        <time>2022-03-10T08:20:06Z</time>
      </trkpt>
      <trkpt lat="46.65655" lon="6.02111">
        <ele>818.6</ele>
        <time>2022-03-10T08:20:10Z</time>
      </trkpt>
      <trkpt lat="46.65659" lon="6.02116">
        <ele>817.6</ele>
        <time>2022-03-10T08:20:15Z</time>
      </trkpt>
      <trkpt lat="46.65662" lon="6.02123">
        <ele>816.1</ele>
        <time>2022-03-10T08:20:21Z</time>
      </trkpt>
      <trkpt lat="46.65664" lon="6.02129">
        <ele>815.5</ele>
        <time>2022-03-10T08:20:25Z</time>
      </trkpt>
      <trkpt lat="46.65665" lon="6.02136">
        <ele>815.2</ele>
        <time>2022-03-10T08:20:29Z</time>
      </trkpt>
      <trkpt lat="46.65667" lon="6.02141">
        <ele>815.1</ele>
        <time>2022-03-10T08:20:33Z</time>
      </trkpt>
      <trkpt lat="46.65669" lon="6.02148">
        <ele>814.8</ele>
        <time>2022-03-10T08:20:37Z</time>
      </trkpt>
      <trkpt lat="46.6567" lon="6.02154">
        <ele>814.8</ele>
        <time>2022-03-10T08:20:41Z</time>
      </trkpt>
      <trkpt lat="46.65673" lon="6.0216">
        <ele>815.2</ele>
        <time>2022-03-10T08:20:45Z</time>
      </trkpt>
      <trkpt lat="46.65674" lon="6.02167">
        <ele>816.4</ele>
        <time>2022-03-10T08:20:50Z</time>
      </trkpt>
      <trkpt lat="46.65676" lon="6.02173">
        <ele>817.3</ele>
        <time>2022-03-10T08:20:54Z</time>
      </trkpt>
      <trkpt lat="46.65679" lon="6.02178">
        <ele>817.9</ele>
        <time>2022-03-10T08:20:58Z</time>
      </trkpt>
      <trkpt lat="46.65683" lon="6.02184">
        <ele>818.2</ele>
        <time>2022-03-10T08:21:03Z</time>
      </trkpt>
      <trkpt lat="46.65686" lon="6.02189">
        <ele>818.2</ele>
        <time>2022-03-10T08:21:08Z</time>
      </trkpt>
      <trkpt lat="46.65688" lon="6.02196">
        <ele>818.3</ele>
        <time>2022-03-10T08:21:13Z</time>
      </trkpt>
      <trkpt lat="46.65691" lon="6.02201">
        <ele>819.1</ele>
        <time>2022-03-10T08:21:18Z</time>
      </trkpt>
      <trkpt lat="46.65693" lon="6.02207">
        <ele>820.3</ele>
        <time>2022-03-10T08:21:23Z</time>
      </trkpt>
      <trkpt lat="46.65696" lon="6.02212">
        <ele>821.4</ele>
        <time>2022-03-10T08:21:28Z</time>
      </trkpt>
      <trkpt lat="46.65699" lon="6.02217">
        <ele>822.4</ele>
        <time>2022-03-10T08:21:32Z</time>
      </trkpt>
      <trkpt lat="46.65702" lon="6.02222">
        <ele>823</ele>
        <time>2022-03-10T08:21:37Z</time>
      </trkpt>
      <trkpt lat="46.65705" lon="6.02228">
        <ele>822.4</ele>
        <time>2022-03-10T08:21:42Z</time>
      </trkpt>
      <trkpt lat="46.65708" lon="6.02234">
        <ele>820.9</ele>
        <time>2022-03-10T08:21:47Z</time>
      </trkpt>
      <trkpt lat="46.65711" lon="6.0224">
        <ele>819.7</ele>
        <time>2022-03-10T08:21:52Z</time>
      </trkpt>
      <trkpt lat="46.65713" lon="6.02246">
        <ele>819.7</ele>
        <time>2022-03-10T08:21:57Z</time>
      </trkpt>
      <trkpt lat="46.65716" lon="6.02252">
        <ele>820.2</ele>
        <time>2022-03-10T08:22:03Z</time>
      </trkpt>
      <trkpt lat="46.65719" lon="6.02259">
        <ele>821.1</ele>
        <time>2022-03-10T08:22:08Z</time>
      </trkpt>
      <trkpt lat="46.65722" lon="6.02264">
        <ele>822</ele>
        <time>2022-03-10T08:22:12Z</time>
      </trkpt>
      <trkpt lat="46.65725" lon="6.02271">
        <ele>823.1</ele>
        <time>2022-03-10T08:22:18Z</time>
      </trkpt>
      <trkpt lat="46.65727" lon="6.02277">
        <ele>824.1</ele>
        <time>2022-03-10T08:22:24Z</time>
      </trkpt>
      <trkpt lat="46.65727" lon="6.02284">
        <ele>825</ele>
        <time>2022-03-10T08:22:39Z</time>
      </trkpt>
      <trkpt lat="46.65728" lon="6.02291">
        <ele>825.1</ele>
        <time>2022-03-10T08:22:44Z</time>
      </trkpt>
      <trkpt lat="46.6573" lon="6.02298">
        <ele>825.5</ele>
        <time>2022-03-10T08:22:48Z</time>
      </trkpt>
      <trkpt lat="46.6573" lon="6.02305">
        <ele>825.3</ele>
        <time>2022-03-10T08:22:53Z</time>
      </trkpt>
      <trkpt lat="46.6573" lon="6.02312">
        <ele>825.5</ele>
        <time>2022-03-10T08:22:58Z</time>
      </trkpt>
      <trkpt lat="46.65728" lon="6.02319">
        <ele>826.2</ele>
        <time>2022-03-10T08:23:04Z</time>
      </trkpt>
      <trkpt lat="46.65729" lon="6.02326">
        <ele>826.9</ele>
        <time>2022-03-10T08:23:08Z</time>
      </trkpt>
      <trkpt lat="46.65729" lon="6.02333">
        <ele>827.2</ele>
        <time>2022-03-10T08:23:12Z</time>
      </trkpt>
      <trkpt lat="46.65727" lon="6.02339">
        <ele>827.4</ele>
        <time>2022-03-10T08:23:17Z</time>
      </trkpt>
      <trkpt lat="46.65724" lon="6.02346">
        <ele>827.2</ele>
        <time>2022-03-10T08:23:23Z</time>
      </trkpt>
      <trkpt lat="46.65722" lon="6.02352">
        <ele>827.5</ele>
        <time>2022-03-10T08:23:28Z</time>
      </trkpt>
      <trkpt lat="46.65721" lon="6.02359">
        <ele>828</ele>
        <time>2022-03-10T08:23:33Z</time>
      </trkpt>
      <trkpt lat="46.65719" lon="6.02366">
        <ele>828.9</ele>
        <time>2022-03-10T08:23:38Z</time>
      </trkpt>
      <trkpt lat="46.65716" lon="6.02371">
        <ele>829.9</ele>
        <time>2022-03-10T08:23:43Z</time>
      </trkpt>
      <trkpt lat="46.65715" lon="6.02378">
        <ele>830.6</ele>
        <time>2022-03-10T08:23:49Z</time>
      </trkpt>
      <trkpt lat="46.65714" lon="6.02385">
        <ele>831.2</ele>
        <time>2022-03-10T08:23:55Z</time>
      </trkpt>
      <trkpt lat="46.65713" lon="6.02392">
        <ele>831.8</ele>
        <time>2022-03-10T08:24:00Z</time>
      </trkpt>
      <trkpt lat="46.65711" lon="6.024">
        <ele>833</ele>
        <time>2022-03-10T08:24:06Z</time>
      </trkpt>
      <trkpt lat="46.6571" lon="6.02406">
        <ele>834.4</ele>
        <time>2022-03-10T08:24:12Z</time>
      </trkpt>
      <trkpt lat="46.65708" lon="6.02412">
        <ele>835.5</ele>
        <time>2022-03-10T08:24:17Z</time>
      </trkpt>
      <trkpt lat="46.65704" lon="6.02418">
        <ele>836.4</ele>
        <time>2022-03-10T08:24:22Z</time>
      </trkpt>
      <trkpt lat="46.65701" lon="6.02423">
        <ele>837</ele>
        <time>2022-03-10T08:24:28Z</time>
      </trkpt>
      <trkpt lat="46.65699" lon="6.0243">
        <ele>837.2</ele>
        <time>2022-03-10T08:24:34Z</time>
      </trkpt>
      <trkpt lat="46.65696" lon="6.02436">
        <ele>837.6</ele>
        <time>2022-03-10T08:24:41Z</time>
      </trkpt>
      <trkpt lat="46.65692" lon="6.02441">
        <ele>838.1</ele>
        <time>2022-03-10T08:24:46Z</time>
      </trkpt>
      <trkpt lat="46.65688" lon="6.02446">
        <ele>838.5</ele>
        <time>2022-03-10T08:24:51Z</time>
      </trkpt>
      <trkpt lat="46.65685" lon="6.02451">
        <ele>839.4</ele>
        <time>2022-03-10T08:24:56Z</time>
      </trkpt>
      <trkpt lat="46.65682" lon="6.02456">
        <ele>840</ele>
        <time>2022-03-10T08:25:02Z</time>
      </trkpt>
      <trkpt lat="46.65679" lon="6.02462">
        <ele>840.1</ele>
        <time>2022-03-10T08:25:09Z</time>
      </trkpt>
      <trkpt lat="46.65679" lon="6.02468">
        <ele>840</ele>
        <time>2022-03-10T08:25:14Z</time>
      </trkpt>
      <trkpt lat="46.65679" lon="6.02475">
        <ele>840.1</ele>
        <time>2022-03-10T08:25:19Z</time>
      </trkpt>
      <trkpt lat="46.65681" lon="6.02482">
        <ele>840</ele>
        <time>2022-03-10T08:25:24Z</time>
      </trkpt>
      <trkpt lat="46.65682" lon="6.02489">
        <ele>839.8</ele>
        <time>2022-03-10T08:25:29Z</time>
      </trkpt>
      <trkpt lat="46.65685" lon="6.02495">
        <ele>839.5</ele>
        <time>2022-03-10T08:25:33Z</time>
      </trkpt>
      <trkpt lat="46.65688" lon="6.02499">
        <ele>839.1</ele>
        <time>2022-03-10T08:25:38Z</time>
      </trkpt>
      <trkpt lat="46.65692" lon="6.02504">
        <ele>838.9</ele>
        <time>2022-03-10T08:25:43Z</time>
      </trkpt>
      <trkpt lat="46.65696" lon="6.02508">
        <ele>839.2</ele>
        <time>2022-03-10T08:25:49Z</time>
      </trkpt>
      <trkpt lat="46.65701" lon="6.0251">
        <ele>839.8</ele>
        <time>2022-03-10T08:25:54Z</time>
      </trkpt>
      <trkpt lat="46.65705" lon="6.02513">
        <ele>840.1</ele>
        <time>2022-03-10T08:25:58Z</time>
      </trkpt>
      <trkpt lat="46.6571" lon="6.02516">
        <ele>840.1</ele>
        <time>2022-03-10T08:26:03Z</time>
      </trkpt>
      <trkpt lat="46.65714" lon="6.02519">
        <ele>840</ele>
        <time>2022-03-10T08:26:08Z</time>
      </trkpt>
      <trkpt lat="46.65718" lon="6.02524">
        <ele>839.8</ele>
        <time>2022-03-10T08:26:13Z</time>
      </trkpt>
      <trkpt lat="46.65722" lon="6.02529">
        <ele>839.7</ele>
        <time>2022-03-10T08:26:19Z</time>
      </trkpt>
      <trkpt lat="46.65726" lon="6.02532">
        <ele>839.6</ele>
        <time>2022-03-10T08:26:24Z</time>
      </trkpt>
      <trkpt lat="46.6573" lon="6.02537">
        <ele>839.6</ele>
        <time>2022-03-10T08:26:29Z</time>
      </trkpt>
      <trkpt lat="46.65733" lon="6.02542">
        <ele>839.8</ele>
        <time>2022-03-10T08:26:34Z</time>
      </trkpt>
      <trkpt lat="46.65737" lon="6.02547">
        <ele>840.4</ele>
        <time>2022-03-10T08:26:39Z</time>
      </trkpt>
      <trkpt lat="46.6574" lon="6.02553">
        <ele>841.2</ele>
        <time>2022-03-10T08:26:44Z</time>
      </trkpt>
      <trkpt lat="46.65743" lon="6.02559">
        <ele>841.9</ele>
        <time>2022-03-10T08:26:50Z</time>
      </trkpt>
      <trkpt lat="46.65744" lon="6.02566">
        <ele>842.6</ele>
        <time>2022-03-10T08:26:55Z</time>
      </trkpt>
      <trkpt lat="46.65747" lon="6.02571">
        <ele>843.1</ele>
        <time>2022-03-10T08:27:00Z</time>
      </trkpt>
      <trkpt lat="46.65749" lon="6.02578">
        <ele>843.9</ele>
        <time>2022-03-10T08:27:05Z</time>
      </trkpt>
      <trkpt lat="46.65751" lon="6.02584">
        <ele>844.3</ele>
        <time>2022-03-10T08:27:10Z</time>
      </trkpt>
      <trkpt lat="46.65755" lon="6.02589">
        <ele>844.3</ele>
        <time>2022-03-10T08:27:15Z</time>
      </trkpt>
      <trkpt lat="46.65758" lon="6.02595">
        <ele>844.6</ele>
        <time>2022-03-10T08:27:20Z</time>
      </trkpt>
      <trkpt lat="46.65763" lon="6.02599">
        <ele>845.2</ele>
        <time>2022-03-10T08:27:25Z</time>
      </trkpt>
      <trkpt lat="46.65767" lon="6.02603">
        <ele>845.8</ele>
        <time>2022-03-10T08:27:29Z</time>
      </trkpt>
      <trkpt lat="46.6577" lon="6.02608">
        <ele>846.5</ele>
        <time>2022-03-10T08:27:34Z</time>
      </trkpt>
      <trkpt lat="46.65774" lon="6.02613">
        <ele>846.8</ele>
        <time>2022-03-10T08:27:39Z</time>
      </trkpt>
      <trkpt lat="46.65778" lon="6.02617">
        <ele>847.4</ele>
        <time>2022-03-10T08:27:44Z</time>
      </trkpt>
      <trkpt lat="46.65782" lon="6.02621">
        <ele>847.8</ele>
        <time>2022-03-10T08:27:49Z</time>
      </trkpt>
      <trkpt lat="46.65786" lon="6.02625">
        <ele>847.8</ele>
        <time>2022-03-10T08:27:54Z</time>
      </trkpt>
      <trkpt lat="46.6579" lon="6.0263">
        <ele>847.4</ele>
        <time>2022-03-10T08:27:59Z</time>
      </trkpt>
      <trkpt lat="46.65794" lon="6.02634">
        <ele>846.7</ele>
        <time>2022-03-10T08:28:05Z</time>
      </trkpt>
      <trkpt lat="46.65798" lon="6.02637">
        <ele>846.2</ele>
        <time>2022-03-10T08:28:10Z</time>
      </trkpt>
      <trkpt lat="46.65803" lon="6.0264">
        <ele>845.6</ele>
        <time>2022-03-10T08:28:16Z</time>
      </trkpt>
      <trkpt lat="46.65808" lon="6.02644">
        <ele>845.2</ele>
        <time>2022-03-10T08:28:21Z</time>
      </trkpt>
      <trkpt lat="46.65812" lon="6.02647">
        <ele>845.2</ele>
        <time>2022-03-10T08:28:28Z</time>
      </trkpt>
      <trkpt lat="46.65817" lon="6.0265">
        <ele>846.1</ele>
        <time>2022-03-10T08:28:34Z</time>
      </trkpt>
      <trkpt lat="46.65822" lon="6.02652">
        <ele>847</ele>
        <time>2022-03-10T08:28:39Z</time>
      </trkpt>
      <trkpt lat="46.65827" lon="6.02653">
        <ele>848</ele>
        <time>2022-03-10T08:28:44Z</time>
      </trkpt>
      <trkpt lat="46.65831" lon="6.02656">
        <ele>849.4</ele>
        <time>2022-03-10T08:28:50Z</time>
      </trkpt>
      <trkpt lat="46.65835" lon="6.02659">
        <ele>850.8</ele>
        <time>2022-03-10T08:28:55Z</time>
      </trkpt>
      <trkpt lat="46.6584" lon="6.02662">
        <ele>852</ele>
        <time>2022-03-10T08:29:00Z</time>
      </trkpt>
      <trkpt lat="46.65845" lon="6.02666">
        <ele>853</ele>
        <time>2022-03-10T08:29:05Z</time>
      </trkpt>
      <trkpt lat="46.6585" lon="6.02669">
        <ele>853.6</ele>
        <time>2022-03-10T08:29:10Z</time>
      </trkpt>
      <trkpt lat="46.65854" lon="6.02673">
        <ele>854.1</ele>
        <time>2022-03-10T08:29:16Z</time>
      </trkpt>
      <trkpt lat="46.65858" lon="6.02678">
        <ele>854.8</ele>
        <time>2022-03-10T08:29:21Z</time>
      </trkpt>
      <trkpt lat="46.65862" lon="6.02682">
        <ele>855.8</ele>
        <time>2022-03-10T08:29:26Z</time>
      </trkpt>
      <trkpt lat="46.65866" lon="6.02686">
        <ele>858.1</ele>
        <time>2022-03-10T08:29:33Z</time>
      </trkpt>
      <trkpt lat="46.65871" lon="6.0269">
        <ele>859.5</ele>
        <time>2022-03-10T08:29:38Z</time>
      </trkpt>
      <trkpt lat="46.65875" lon="6.02694">
        <ele>860.7</ele>
        <time>2022-03-10T08:29:44Z</time>
      </trkpt>
      <trkpt lat="46.65879" lon="6.02699">
        <ele>861.2</ele>
        <time>2022-03-10T08:29:50Z</time>
      </trkpt>
      <trkpt lat="46.65883" lon="6.02703">
        <ele>861.4</ele>
        <time>2022-03-10T08:29:55Z</time>
      </trkpt>
      <trkpt lat="46.65887" lon="6.02706">
        <ele>861.6</ele>
        <time>2022-03-10T08:30:00Z</time>
      </trkpt>
      <trkpt lat="46.65892" lon="6.0271">
        <ele>861.2</ele>
        <time>2022-03-10T08:30:05Z</time>
      </trkpt>
      <trkpt lat="46.65896" lon="6.02714">
        <ele>860.7</ele>
        <time>2022-03-10T08:30:11Z</time>
      </trkpt>
      <trkpt lat="46.65899" lon="6.02719">
        <ele>860.5</ele>
        <time>2022-03-10T08:30:18Z</time>
      </trkpt>
      <trkpt lat="46.65903" lon="6.02724">
        <ele>860.9</ele>
        <time>2022-03-10T08:30:24Z</time>
      </trkpt>
      <trkpt lat="46.65907" lon="6.02727">
        <ele>861.6</ele>
        <time>2022-03-10T08:30:29Z</time>
      </trkpt>
      <trkpt lat="46.65912" lon="6.02729">
        <ele>861.9</ele>
        <time>2022-03-10T08:30:33Z</time>
      </trkpt>
      <trkpt lat="46.65916" lon="6.02733">
        <ele>862.3</ele>
        <time>2022-03-10T08:30:38Z</time>
      </trkpt>
      <trkpt lat="46.65921" lon="6.02735">
        <ele>863</ele>
        <time>2022-03-10T08:30:44Z</time>
      </trkpt>
      <trkpt lat="46.65925" lon="6.02738">
        <ele>863.6</ele>
        <time>2022-03-10T08:30:49Z</time>
      </trkpt>
      <trkpt lat="46.6593" lon="6.02741">
        <ele>863.6</ele>
        <time>2022-03-10T08:30:55Z</time>
      </trkpt>
      <trkpt lat="46.65935" lon="6.02742">
        <ele>863.1</ele>
        <time>2022-03-10T08:31:01Z</time>
      </trkpt>
      <trkpt lat="46.65939" lon="6.02744">
        <ele>862.6</ele>
        <time>2022-03-10T08:31:06Z</time>
      </trkpt>
      <trkpt lat="46.65944" lon="6.02744">
        <ele>862.1</ele>
        <time>2022-03-10T08:31:11Z</time>
      </trkpt>
      <trkpt lat="46.65948" lon="6.02745">
        <ele>861.7</ele>
        <time>2022-03-10T08:31:16Z</time>
      </trkpt>
      <trkpt lat="46.65954" lon="6.02746">
        <ele>861.5</ele>
        <time>2022-03-10T08:31:21Z</time>
      </trkpt>
      <trkpt lat="46.65959" lon="6.02747">
        <ele>860.9</ele>
        <time>2022-03-10T08:31:27Z</time>
      </trkpt>
      <trkpt lat="46.65964" lon="6.0275">
        <ele>861.4</ele>
        <time>2022-03-10T08:31:35Z</time>
      </trkpt>
      <trkpt lat="46.65968" lon="6.02752">
        <ele>861.6</ele>
        <time>2022-03-10T08:31:40Z</time>
      </trkpt>
      <trkpt lat="46.65973" lon="6.02756">
        <ele>861.9</ele>
        <time>2022-03-10T08:31:46Z</time>
      </trkpt>
      <trkpt lat="46.65976" lon="6.02761">
        <ele>862.1</ele>
        <time>2022-03-10T08:31:53Z</time>
      </trkpt>
      <trkpt lat="46.65979" lon="6.02765">
        <ele>861.9</ele>
        <time>2022-03-10T08:32:04Z</time>
      </trkpt>
      <trkpt lat="46.65983" lon="6.02769">
        <ele>862.1</ele>
        <time>2022-03-10T08:32:11Z</time>
      </trkpt>
      <trkpt lat="46.65987" lon="6.02773">
        <ele>862.9</ele>
        <time>2022-03-10T08:32:17Z</time>
      </trkpt>
      <trkpt lat="46.65992" lon="6.02776">
        <ele>863.7</ele>
        <time>2022-03-10T08:32:22Z</time>
      </trkpt>
      <trkpt lat="46.65996" lon="6.02779">
        <ele>864.6</ele>
        <time>2022-03-10T08:32:27Z</time>
      </trkpt>
      <trkpt lat="46.66" lon="6.02784">
        <ele>865.7</ele>
        <time>2022-03-10T08:32:32Z</time>
      </trkpt>
      <trkpt lat="46.66005" lon="6.02785">
        <ele>866.2</ele>
        <time>2022-03-10T08:32:36Z</time>
      </trkpt>
      <trkpt lat="46.6601" lon="6.02787">
        <ele>866.9</ele>
        <time>2022-03-10T08:32:41Z</time>
      </trkpt>
      <trkpt lat="46.66014" lon="6.0279">
        <ele>867.5</ele>
        <time>2022-03-10T08:32:45Z</time>
      </trkpt>
      <trkpt lat="46.66018" lon="6.02794">
        <ele>868.4</ele>
        <time>2022-03-10T08:32:50Z</time>
      </trkpt>
      <trkpt lat="46.66022" lon="6.02797">
        <ele>869.4</ele>
        <time>2022-03-10T08:32:55Z</time>
      </trkpt>
      <trkpt lat="46.66027" lon="6.028">
        <ele>870.3</ele>
        <time>2022-03-10T08:33:00Z</time>
      </trkpt>
      <trkpt lat="46.66032" lon="6.02802">
        <ele>870.9</ele>
        <time>2022-03-10T08:33:06Z</time>
      </trkpt>
      <trkpt lat="46.66037" lon="6.02804">
        <ele>871.4</ele>
        <time>2022-03-10T08:33:12Z</time>
      </trkpt>
      <trkpt lat="46.66041" lon="6.02806">
        <ele>871.7</ele>
        <time>2022-03-10T08:33:18Z</time>
      </trkpt>
      <trkpt lat="46.66046" lon="6.02809">
        <ele>871.9</ele>
        <time>2022-03-10T08:33:23Z</time>
      </trkpt>
      <trkpt lat="46.6605" lon="6.0281">
        <ele>871.6</ele>
        <time>2022-03-10T08:33:28Z</time>
      </trkpt>
      <trkpt lat="46.66055" lon="6.02813">
        <ele>871.2</ele>
        <time>2022-03-10T08:33:34Z</time>
      </trkpt>
      <trkpt lat="46.66059" lon="6.02817">
        <ele>871.2</ele>
        <time>2022-03-10T08:33:40Z</time>
      </trkpt>
      <trkpt lat="46.66064" lon="6.0282">
        <ele>871.5</ele>
        <time>2022-03-10T08:33:46Z</time>
      </trkpt>
      <trkpt lat="46.66069" lon="6.02822">
        <ele>871.9</ele>
        <time>2022-03-10T08:33:51Z</time>
      </trkpt>
      <trkpt lat="46.66074" lon="6.02824">
        <ele>872.6</ele>
        <time>2022-03-10T08:33:57Z</time>
      </trkpt>
      <trkpt lat="46.66079" lon="6.02827">
        <ele>873.5</ele>
        <time>2022-03-10T08:34:04Z</time>
      </trkpt>
      <trkpt lat="46.66084" lon="6.0283">
        <ele>874.4</ele>
        <time>2022-03-10T08:34:09Z</time>
      </trkpt>
      <trkpt lat="46.66089" lon="6.02832">
        <ele>874.7</ele>
        <time>2022-03-10T08:34:13Z</time>
      </trkpt>
      <trkpt lat="46.66092" lon="6.02837">
        <ele>875</ele>
        <time>2022-03-10T08:34:18Z</time>
      </trkpt>
      <trkpt lat="46.66097" lon="6.02841">
        <ele>875.2</ele>
        <time>2022-03-10T08:34:24Z</time>
      </trkpt>
      <trkpt lat="46.661" lon="6.02845">
        <ele>875.2</ele>
        <time>2022-03-10T08:34:30Z</time>
      </trkpt>
      <trkpt lat="46.66103" lon="6.0285">
        <ele>875.4</ele>
        <time>2022-03-10T08:34:35Z</time>
      </trkpt>
      <trkpt lat="46.66107" lon="6.02854">
        <ele>875.7</ele>
        <time>2022-03-10T08:34:40Z</time>
      </trkpt>
      <trkpt lat="46.66112" lon="6.02858">
        <ele>876.4</ele>
        <time>2022-03-10T08:34:45Z</time>
      </trkpt>
      <trkpt lat="46.66116" lon="6.0286">
        <ele>877</ele>
        <time>2022-03-10T08:34:50Z</time>
      </trkpt>
      <trkpt lat="46.6612" lon="6.02864">
        <ele>878</ele>
        <time>2022-03-10T08:34:57Z</time>
      </trkpt>
      <trkpt lat="46.66123" lon="6.02869">
        <ele>879.1</ele>
        <time>2022-03-10T08:35:03Z</time>
      </trkpt>
      <trkpt lat="46.66127" lon="6.02873">
        <ele>880.8</ele>
        <time>2022-03-10T08:35:11Z</time>
      </trkpt>
      <trkpt lat="46.66132" lon="6.02876">
        <ele>881.7</ele>
        <time>2022-03-10T08:35:16Z</time>
      </trkpt>
      <trkpt lat="46.66137" lon="6.02879">
        <ele>882</ele>
        <time>2022-03-10T08:35:21Z</time>
      </trkpt>
      <trkpt lat="46.66141" lon="6.02881">
        <ele>882.2</ele>
        <time>2022-03-10T08:35:26Z</time>
      </trkpt>
      <trkpt lat="46.66147" lon="6.02881">
        <ele>882.1</ele>
        <time>2022-03-10T08:35:32Z</time>
      </trkpt>
      <trkpt lat="46.66151" lon="6.0288">
        <ele>881.7</ele>
        <time>2022-03-10T08:35:39Z</time>
      </trkpt>
      <trkpt lat="46.66156" lon="6.02876">
        <ele>881.8</ele>
        <time>2022-03-10T08:35:44Z</time>
      </trkpt>
      <trkpt lat="46.6616" lon="6.02873">
        <ele>882.1</ele>
        <time>2022-03-10T08:35:50Z</time>
      </trkpt>
      <trkpt lat="46.66164" lon="6.02872">
        <ele>882.3</ele>
        <time>2022-03-10T08:35:55Z</time>
      </trkpt>
      <trkpt lat="46.66169" lon="6.02871">
        <ele>882.5</ele>
        <time>2022-03-10T08:36:01Z</time>
      </trkpt>
      <trkpt lat="46.66174" lon="6.02868">
        <ele>883</ele>
        <time>2022-03-10T08:36:07Z</time>
      </trkpt>
      <trkpt lat="46.66178" lon="6.02866">
        <ele>883.3</ele>
        <time>2022-03-10T08:36:14Z</time>
      </trkpt>
      <trkpt lat="46.66184" lon="6.02864">
        <ele>883.9</ele>
        <time>2022-03-10T08:36:21Z</time>
      </trkpt>
      <trkpt lat="46.66189" lon="6.02862">
        <ele>883.9</ele>
        <time>2022-03-10T08:36:27Z</time>
      </trkpt>
      <trkpt lat="46.66194" lon="6.02866">
        <ele>884.1</ele>
        <time>2022-03-10T08:36:33Z</time>
      </trkpt>
      <trkpt lat="46.66198" lon="6.0287">
        <ele>884.3</ele>
        <time>2022-03-10T08:36:37Z</time>
      </trkpt>
      <trkpt lat="46.66202" lon="6.02874">
        <ele>885.2</ele>
        <time>2022-03-10T08:36:43Z</time>
      </trkpt>
      <trkpt lat="46.66206" lon="6.02878">
        <ele>886.7</ele>
        <time>2022-03-10T08:36:49Z</time>
      </trkpt>
      <trkpt lat="46.66208" lon="6.02885">
        <ele>888.4</ele>
        <time>2022-03-10T08:36:56Z</time>
      </trkpt>
      <trkpt lat="46.66211" lon="6.0289">
        <ele>889.6</ele>
        <time>2022-03-10T08:37:02Z</time>
      </trkpt>
      <trkpt lat="46.66211" lon="6.02897">
        <ele>890.9</ele>
        <time>2022-03-10T08:37:09Z</time>
      </trkpt>
      <trkpt lat="46.66212" lon="6.02905">
        <ele>891.7</ele>
        <time>2022-03-10T08:37:15Z</time>
      </trkpt>
      <trkpt lat="46.66214" lon="6.02911">
        <ele>892.3</ele>
        <time>2022-03-10T08:37:20Z</time>
      </trkpt>
      <trkpt lat="46.66217" lon="6.02917">
        <ele>892.5</ele>
        <time>2022-03-10T08:37:26Z</time>
      </trkpt>
      <trkpt lat="46.66218" lon="6.02924">
        <ele>892.4</ele>
        <time>2022-03-10T08:37:32Z</time>
      </trkpt>
      <trkpt lat="46.66223" lon="6.02928">
        <ele>892.8</ele>
        <time>2022-03-10T08:37:38Z</time>
      </trkpt>
      <trkpt lat="46.66227" lon="6.0293">
        <ele>893.6</ele>
        <time>2022-03-10T08:37:43Z</time>
      </trkpt>
      <trkpt lat="46.66232" lon="6.02932">
        <ele>894.2</ele>
        <time>2022-03-10T08:37:48Z</time>
      </trkpt>
      <trkpt lat="46.66237" lon="6.02935">
        <ele>894.2</ele>
        <time>2022-03-10T08:37:53Z</time>
      </trkpt>
      <trkpt lat="46.6624" lon="6.02939">
        <ele>894.2</ele>
        <time>2022-03-10T08:37:58Z</time>
      </trkpt>
      <trkpt lat="46.66245" lon="6.02943">
        <ele>894.2</ele>
        <time>2022-03-10T08:38:04Z</time>
      </trkpt>
      <trkpt lat="46.66249" lon="6.02946">
        <ele>894</ele>
        <time>2022-03-10T08:38:08Z</time>
      </trkpt>
      <trkpt lat="46.66254" lon="6.02948">
        <ele>893.5</ele>
        <time>2022-03-10T08:38:12Z</time>
      </trkpt>
      <trkpt lat="46.66258" lon="6.02951">
        <ele>892.8</ele>
        <time>2022-03-10T08:38:17Z</time>
      </trkpt>
      <trkpt lat="46.66262" lon="6.02954">
        <ele>892.2</ele>
        <time>2022-03-10T08:38:23Z</time>
      </trkpt>
      <trkpt lat="46.66267" lon="6.02959">
        <ele>892.2</ele>
        <time>2022-03-10T08:38:30Z</time>
      </trkpt>
      <trkpt lat="46.6627" lon="6.02964">
        <ele>892.5</ele>
        <time>2022-03-10T08:38:35Z</time>
      </trkpt>
      <trkpt lat="46.66273" lon="6.02969">
        <ele>892.8</ele>
        <time>2022-03-10T08:38:40Z</time>
      </trkpt>
      <trkpt lat="46.66277" lon="6.02973">
        <ele>893.3</ele>
        <time>2022-03-10T08:38:47Z</time>
      </trkpt>
      <trkpt lat="46.66282" lon="6.02975">
        <ele>893.7</ele>
        <time>2022-03-10T08:38:53Z</time>
      </trkpt>
      <trkpt lat="46.66287" lon="6.02977">
        <ele>894.3</ele>
        <time>2022-03-10T08:38:58Z</time>
      </trkpt>
      <trkpt lat="46.66292" lon="6.0298">
        <ele>895</ele>
        <time>2022-03-10T08:39:04Z</time>
      </trkpt>
      <trkpt lat="46.66297" lon="6.02982">
        <ele>895.3</ele>
        <time>2022-03-10T08:39:10Z</time>
      </trkpt>
      <trkpt lat="46.66301" lon="6.02985">
        <ele>895.2</ele>
        <time>2022-03-10T08:39:16Z</time>
      </trkpt>
      <trkpt lat="46.66306" lon="6.02989">
        <ele>895.1</ele>
        <time>2022-03-10T08:39:21Z</time>
      </trkpt>
      <trkpt lat="46.6631" lon="6.02993">
        <ele>895.3</ele>
        <time>2022-03-10T08:39:26Z</time>
      </trkpt>
      <trkpt lat="46.66314" lon="6.02996">
        <ele>895.6</ele>
        <time>2022-03-10T08:39:31Z</time>
      </trkpt>
      <trkpt lat="46.66318" lon="6.03">
        <ele>896.3</ele>
        <time>2022-03-10T08:39:37Z</time>
      </trkpt>
      <trkpt lat="46.66323" lon="6.03004">
        <ele>897.2</ele>
        <time>2022-03-10T08:39:42Z</time>
      </trkpt>
      <trkpt lat="46.66328" lon="6.03008">
        <ele>897.6</ele>
        <time>2022-03-10T08:39:47Z</time>
      </trkpt>
      <trkpt lat="46.66333" lon="6.03011">
        <ele>897.9</ele>
        <time>2022-03-10T08:39:51Z</time>
      </trkpt>
      <trkpt lat="46.66338" lon="6.03014">
        <ele>898.2</ele>
        <time>2022-03-10T08:39:55Z</time>
      </trkpt>
      <trkpt lat="46.66342" lon="6.03017">
        <ele>898.4</ele>
        <time>2022-03-10T08:39:59Z</time>
      </trkpt>
      <trkpt lat="46.66347" lon="6.03022">
        <ele>898.7</ele>
        <time>2022-03-10T08:40:05Z</time>
      </trkpt>
      <trkpt lat="46.66352" lon="6.03025">
        <ele>898.8</ele>
        <time>2022-03-10T08:40:13Z</time>
      </trkpt>
      <trkpt lat="46.66356" lon="6.03027">
        <ele>898.6</ele>
        <time>2022-03-10T08:40:18Z</time>
      </trkpt>
      <trkpt lat="46.6636" lon="6.03033">
        <ele>898.7</ele>
        <time>2022-03-10T08:40:23Z</time>
      </trkpt>
      <trkpt lat="46.66364" lon="6.03037">
        <ele>898.6</ele>
        <time>2022-03-10T08:40:26Z</time>
      </trkpt>
      <trkpt lat="46.66367" lon="6.03043">
        <ele>898.3</ele>
        <time>2022-03-10T08:40:30Z</time>
      </trkpt>
      <trkpt lat="46.66365" lon="6.0305">
        <ele>897.6</ele>
        <time>2022-03-10T08:40:37Z</time>
      </trkpt>
      <trkpt lat="46.66362" lon="6.03055">
        <ele>897.6</ele>
        <time>2022-03-10T08:40:42Z</time>
      </trkpt>
      <trkpt lat="46.66358" lon="6.03061">
        <ele>898.2</ele>
        <time>2022-03-10T08:40:46Z</time>
      </trkpt>
      <trkpt lat="46.66354" lon="6.03065">
        <ele>898.6</ele>
        <time>2022-03-10T08:40:49Z</time>
      </trkpt>
      <trkpt lat="46.66349" lon="6.03068">
        <ele>899.4</ele>
        <time>2022-03-10T08:40:53Z</time>
      </trkpt>
      <trkpt lat="46.66344" lon="6.0307">
        <ele>901.3</ele>
        <time>2022-03-10T08:40:59Z</time>
      </trkpt>
      <trkpt lat="46.66339" lon="6.03072">
        <ele>902.5</ele>
        <time>2022-03-10T08:41:05Z</time>
      </trkpt>
      <trkpt lat="46.66334" lon="6.03073">
        <ele>903.3</ele>
        <time>2022-03-10T08:41:09Z</time>
      </trkpt>
      <trkpt lat="46.6633" lon="6.03075">
        <ele>904.2</ele>
        <time>2022-03-10T08:41:14Z</time>
      </trkpt>
      <trkpt lat="46.66326" lon="6.03078">
        <ele>904.8</ele>
        <time>2022-03-10T08:41:20Z</time>
      </trkpt>
      <trkpt lat="46.66321" lon="6.03082">
        <ele>905.1</ele>
        <time>2022-03-10T08:41:25Z</time>
      </trkpt>
      <trkpt lat="46.66316" lon="6.03085">
        <ele>905.1</ele>
        <time>2022-03-10T08:41:30Z</time>
      </trkpt>
      <trkpt lat="46.66312" lon="6.03089">
        <ele>905</ele>
        <time>2022-03-10T08:41:35Z</time>
      </trkpt>
      <trkpt lat="46.66308" lon="6.03093">
        <ele>904.8</ele>
        <time>2022-03-10T08:41:40Z</time>
      </trkpt>
      <trkpt lat="46.66304" lon="6.03098">
        <ele>905</ele>
        <time>2022-03-10T08:41:45Z</time>
      </trkpt>
      <trkpt lat="46.66299" lon="6.03101">
        <ele>905.2</ele>
        <time>2022-03-10T08:41:50Z</time>
      </trkpt>
      <trkpt lat="46.66294" lon="6.03102">
        <ele>905.1</ele>
        <time>2022-03-10T08:41:54Z</time>
      </trkpt>
      <trkpt lat="46.66289" lon="6.03104">
        <ele>905</ele>
        <time>2022-03-10T08:41:58Z</time>
      </trkpt>
      <trkpt lat="46.66283" lon="6.03106">
        <ele>904.7</ele>
        <time>2022-03-10T08:42:02Z</time>
      </trkpt>
      <trkpt lat="46.66279" lon="6.0311">
        <ele>904.6</ele>
        <time>2022-03-10T08:42:08Z</time>
      </trkpt>
      <trkpt lat="46.66276" lon="6.03115">
        <ele>904.8</ele>
        <time>2022-03-10T08:42:20Z</time>
      </trkpt>
      <trkpt lat="46.66273" lon="6.03121">
        <ele>905.7</ele>
        <time>2022-03-10T08:42:29Z</time>
      </trkpt>
      <trkpt lat="46.66269" lon="6.03126">
        <ele>905.8</ele>
        <time>2022-03-10T08:42:37Z</time>
      </trkpt>
      <trkpt lat="46.66266" lon="6.03131">
        <ele>905.3</ele>
        <time>2022-03-10T08:42:45Z</time>
      </trkpt>
      <trkpt lat="46.66265" lon="6.03138">
        <ele>905</ele>
        <time>2022-03-10T08:42:54Z</time>
      </trkpt>
      <trkpt lat="46.66262" lon="6.03143">
        <ele>905.7</ele>
        <time>2022-03-10T08:43:26Z</time>
      </trkpt>
      <trkpt lat="46.6626" lon="6.03149">
        <ele>906.6</ele>
        <time>2022-03-10T08:43:30Z</time>
      </trkpt>
      <trkpt lat="46.66265" lon="6.03149">
        <ele>907.8</ele>
        <time>2022-03-10T08:45:31Z</time>
      </trkpt>
      <trkpt lat="46.66267" lon="6.03143">
        <ele>907.9</ele>
        <time>2022-03-10T08:45:35Z</time>
      </trkpt>
      <trkpt lat="46.66263" lon="6.03141">
        <ele>908.4</ele>
        <time>2022-03-10T08:45:58Z</time>
      </trkpt>
      <trkpt lat="46.66272" lon="6.0315">
        <ele>896.6</ele>
        <time>2022-03-10T08:46:25Z</time>
      </trkpt>
      <trkpt lat="46.66269" lon="6.03156">
        <ele>900.7</ele>
        <time>2022-03-10T08:46:34Z</time>
      </trkpt>
      <trkpt lat="46.66267" lon="6.03149">
        <ele>904.5</ele>
        <time>2022-03-10T08:47:12Z</time>
      </trkpt>
      <trkpt lat="46.66266" lon="6.03143">
        <ele>907</ele>
        <time>2022-03-10T08:47:17Z</time>
      </trkpt>
      <trkpt lat="46.66263" lon="6.03136">
        <ele>910</ele>
        <time>2022-03-10T08:49:29Z</time>
      </trkpt>
      <trkpt lat="46.66266" lon="6.03131">
        <ele>910.1</ele>
        <time>2022-03-10T08:49:33Z</time>
      </trkpt>
      <trkpt lat="46.66269" lon="6.03123">
        <ele>910</ele>
        <time>2022-03-10T08:49:37Z</time>
      </trkpt>
      <trkpt lat="46.66273" lon="6.03119">
        <ele>909.7</ele>
        <time>2022-03-10T08:49:41Z</time>
      </trkpt>
      <trkpt lat="46.66276" lon="6.03114">
        <ele>909.4</ele>
        <time>2022-03-10T08:49:45Z</time>
      </trkpt>
      <trkpt lat="46.66281" lon="6.03111">
        <ele>909</ele>
        <time>2022-03-10T08:49:51Z</time>
      </trkpt>
      <trkpt lat="46.6628" lon="6.03118">
        <ele>909.6</ele>
        <time>2022-03-10T08:50:06Z</time>
      </trkpt>
      <trkpt lat="46.66284" lon="6.03123">
        <ele>907.5</ele>
        <time>2022-03-10T08:50:18Z</time>
      </trkpt>
      <trkpt lat="46.66288" lon="6.03127">
        <ele>906.4</ele>
        <time>2022-03-10T08:50:24Z</time>
      </trkpt>
      <trkpt lat="46.66289" lon="6.03134">
        <ele>905.7</ele>
        <time>2022-03-10T08:50:29Z</time>
      </trkpt>
      <trkpt lat="46.66289" lon="6.03141">
        <ele>905</ele>
        <time>2022-03-10T08:50:33Z</time>
      </trkpt>
      <trkpt lat="46.6629" lon="6.03148">
        <ele>903.8</ele>
        <time>2022-03-10T08:50:38Z</time>
      </trkpt>
      <trkpt lat="46.66294" lon="6.03153">
        <ele>902.8</ele>
        <time>2022-03-10T08:50:42Z</time>
      </trkpt>
      <trkpt lat="46.66298" lon="6.03159">
        <ele>902</ele>
        <time>2022-03-10T08:50:46Z</time>
      </trkpt>
      <trkpt lat="46.66303" lon="6.03162">
        <ele>901.1</ele>
        <time>2022-03-10T08:50:51Z</time>
      </trkpt>
      <trkpt lat="46.66307" lon="6.03166">
        <ele>900.5</ele>
        <time>2022-03-10T08:50:57Z</time>
      </trkpt>
      <trkpt lat="46.66311" lon="6.03169">
        <ele>899.7</ele>
        <time>2022-03-10T08:51:04Z</time>
      </trkpt>
      <trkpt lat="46.66317" lon="6.03171">
        <ele>899.3</ele>
        <time>2022-03-10T08:51:10Z</time>
      </trkpt>
      <trkpt lat="46.66321" lon="6.03173">
        <ele>899.3</ele>
        <time>2022-03-10T08:51:15Z</time>
      </trkpt>
      <trkpt lat="46.66326" lon="6.03176">
        <ele>899.7</ele>
        <time>2022-03-10T08:51:20Z</time>
      </trkpt>
      <trkpt lat="46.66331" lon="6.03177">
        <ele>900.3</ele>
        <time>2022-03-10T08:51:24Z</time>
      </trkpt>
      <trkpt lat="46.66336" lon="6.03177">
        <ele>901</ele>
        <time>2022-03-10T08:51:28Z</time>
      </trkpt>
      <trkpt lat="46.66341" lon="6.03179">
        <ele>902.2</ele>
        <time>2022-03-10T08:51:33Z</time>
      </trkpt>
      <trkpt lat="46.66346" lon="6.03181">
        <ele>903.5</ele>
        <time>2022-03-10T08:51:38Z</time>
      </trkpt>
      <trkpt lat="46.6635" lon="6.03184">
        <ele>904.1</ele>
        <time>2022-03-10T08:51:42Z</time>
      </trkpt>
      <trkpt lat="46.66355" lon="6.03186">
        <ele>904.8</ele>
        <time>2022-03-10T08:51:48Z</time>
      </trkpt>
      <trkpt lat="46.66359" lon="6.0319">
        <ele>904.9</ele>
        <time>2022-03-10T08:51:53Z</time>
      </trkpt>
      <trkpt lat="46.66362" lon="6.03195">
        <ele>904.9</ele>
        <time>2022-03-10T08:51:57Z</time>
      </trkpt>
      <trkpt lat="46.66365" lon="6.03201">
        <ele>904.6</ele>
        <time>2022-03-10T08:52:01Z</time>
      </trkpt>
      <trkpt lat="46.66367" lon="6.03208">
        <ele>904.3</ele>
        <time>2022-03-10T08:52:05Z</time>
      </trkpt>
      <trkpt lat="46.66367" lon="6.03215">
        <ele>904.1</ele>
        <time>2022-03-10T08:52:09Z</time>
      </trkpt>
      <trkpt lat="46.66365" lon="6.03223">
        <ele>904.1</ele>
        <time>2022-03-10T08:52:13Z</time>
      </trkpt>
      <trkpt lat="46.66361" lon="6.03229">
        <ele>904.6</ele>
        <time>2022-03-10T08:52:17Z</time>
      </trkpt>
      <trkpt lat="46.66357" lon="6.03232">
        <ele>905.9</ele>
        <time>2022-03-10T08:52:21Z</time>
      </trkpt>
      <trkpt lat="46.66352" lon="6.03236">
        <ele>907.8</ele>
        <time>2022-03-10T08:52:26Z</time>
      </trkpt>
      <trkpt lat="46.66347" lon="6.03238">
        <ele>910.4</ele>
        <time>2022-03-10T08:52:34Z</time>
      </trkpt>
      <trkpt lat="46.66343" lon="6.03243">
        <ele>911.2</ele>
        <time>2022-03-10T08:52:42Z</time>
      </trkpt>
      <trkpt lat="46.6634" lon="6.0325">
        <ele>911.1</ele>
        <time>2022-03-10T08:52:51Z</time>
      </trkpt>
      <trkpt lat="46.66337" lon="6.03256">
        <ele>911.2</ele>
        <time>2022-03-10T08:52:56Z</time>
      </trkpt>
      <trkpt lat="46.66335" lon="6.03262">
        <ele>910.8</ele>
        <time>2022-03-10T08:53:03Z</time>
      </trkpt>
      <trkpt lat="46.66333" lon="6.03269">
        <ele>910.3</ele>
        <time>2022-03-10T08:53:09Z</time>
      </trkpt>
      <trkpt lat="46.6633" lon="6.03274">
        <ele>910</ele>
        <time>2022-03-10T08:53:13Z</time>
      </trkpt>
      <trkpt lat="46.66325" lon="6.03275">
        <ele>909.7</ele>
        <time>2022-03-10T08:53:16Z</time>
      </trkpt>
      <trkpt lat="46.6632" lon="6.03276">
        <ele>909.2</ele>
        <time>2022-03-10T08:53:19Z</time>
      </trkpt>
      <trkpt lat="46.66315" lon="6.03275">
        <ele>908.8</ele>
        <time>2022-03-10T08:53:22Z</time>
      </trkpt>
      <trkpt lat="46.6631" lon="6.03273">
        <ele>908</ele>
        <time>2022-03-10T08:53:26Z</time>
      </trkpt>
      <trkpt lat="46.66306" lon="6.03268">
        <ele>907.3</ele>
        <time>2022-03-10T08:53:31Z</time>
      </trkpt>
      <trkpt lat="46.66302" lon="6.03264">
        <ele>906.8</ele>
        <time>2022-03-10T08:53:37Z</time>
      </trkpt>
      <trkpt lat="46.66299" lon="6.03258">
        <ele>906.6</ele>
        <time>2022-03-10T08:53:45Z</time>
      </trkpt>
      <trkpt lat="46.66295" lon="6.03255">
        <ele>906.2</ele>
        <time>2022-03-10T08:53:54Z</time>
      </trkpt>
      <trkpt lat="46.6629" lon="6.03254">
        <ele>905.8</ele>
        <time>2022-03-10T08:53:59Z</time>
      </trkpt>
      <trkpt lat="46.66284" lon="6.03253">
        <ele>905.5</ele>
        <time>2022-03-10T08:54:04Z</time>
      </trkpt>
      <trkpt lat="46.6628" lon="6.03251">
        <ele>905.3</ele>
        <time>2022-03-10T08:54:08Z</time>
      </trkpt>
      <trkpt lat="46.66275" lon="6.03251">
        <ele>904.9</ele>
        <time>2022-03-10T08:54:14Z</time>
      </trkpt>
      <trkpt lat="46.66271" lon="6.03251">
        <ele>904.7</ele>
        <time>2022-03-10T08:54:21Z</time>
      </trkpt>
      <trkpt lat="46.66265" lon="6.03253">
        <ele>904</ele>
        <time>2022-03-10T08:54:29Z</time>
      </trkpt>
      <trkpt lat="46.6626" lon="6.03255">
        <ele>904</ele>
        <time>2022-03-10T08:54:36Z</time>
      </trkpt>
      <trkpt lat="46.66255" lon="6.03256">
        <ele>904.8</ele>
        <time>2022-03-10T08:54:41Z</time>
      </trkpt>
      <trkpt lat="46.6625" lon="6.03258">
        <ele>905.4</ele>
        <time>2022-03-10T08:54:45Z</time>
      </trkpt>
      <trkpt lat="46.66246" lon="6.0326">
        <ele>905.7</ele>
        <time>2022-03-10T08:54:50Z</time>
      </trkpt>
      <trkpt lat="46.66241" lon="6.03261">
        <ele>905.1</ele>
        <time>2022-03-10T08:55:00Z</time>
      </trkpt>
      <trkpt lat="46.66236" lon="6.03263">
        <ele>904.9</ele>
        <time>2022-03-10T08:55:07Z</time>
      </trkpt>
      <trkpt lat="46.66231" lon="6.03267">
        <ele>904.6</ele>
        <time>2022-03-10T08:55:11Z</time>
      </trkpt>
      <trkpt lat="46.66227" lon="6.0327">
        <ele>904.3</ele>
        <time>2022-03-10T08:55:15Z</time>
      </trkpt>
      <trkpt lat="46.66223" lon="6.03273">
        <ele>904.5</ele>
        <time>2022-03-10T08:55:20Z</time>
      </trkpt>
      <trkpt lat="46.66218" lon="6.03275">
        <ele>904.9</ele>
        <time>2022-03-10T08:55:27Z</time>
      </trkpt>
      <trkpt lat="46.66213" lon="6.03278">
        <ele>905.2</ele>
        <time>2022-03-10T08:55:34Z</time>
      </trkpt>
      <trkpt lat="46.66208" lon="6.0328">
        <ele>906.1</ele>
        <time>2022-03-10T08:55:41Z</time>
      </trkpt>
      <trkpt lat="46.66203" lon="6.03283">
        <ele>906.8</ele>
        <time>2022-03-10T08:55:46Z</time>
      </trkpt>
      <trkpt lat="46.66199" lon="6.03285">
        <ele>907.6</ele>
        <time>2022-03-10T08:55:51Z</time>
      </trkpt>
      <trkpt lat="46.66195" lon="6.03288">
        <ele>908.6</ele>
        <time>2022-03-10T08:55:58Z</time>
      </trkpt>
      <trkpt lat="46.6619" lon="6.03292">
        <ele>909.9</ele>
        <time>2022-03-10T08:56:05Z</time>
      </trkpt>
      <trkpt lat="46.66186" lon="6.03295">
        <ele>910.9</ele>
        <time>2022-03-10T08:56:11Z</time>
      </trkpt>
      <trkpt lat="46.66181" lon="6.03299">
        <ele>911.3</ele>
        <time>2022-03-10T08:56:18Z</time>
      </trkpt>
      <trkpt lat="46.66177" lon="6.03302">
        <ele>911.7</ele>
        <time>2022-03-10T08:56:23Z</time>
      </trkpt>
      <trkpt lat="46.66172" lon="6.03304">
        <ele>911.9</ele>
        <time>2022-03-10T08:56:29Z</time>
      </trkpt>
      <trkpt lat="46.66168" lon="6.03309">
        <ele>912.1</ele>
        <time>2022-03-10T08:56:35Z</time>
      </trkpt>
      <trkpt lat="46.66164" lon="6.03311">
        <ele>912.2</ele>
        <time>2022-03-10T08:56:39Z</time>
      </trkpt>
      <trkpt lat="46.66159" lon="6.03313">
        <ele>912.2</ele>
        <time>2022-03-10T08:56:44Z</time>
      </trkpt>
      <trkpt lat="46.66155" lon="6.03317">
        <ele>912</ele>
        <time>2022-03-10T08:56:50Z</time>
      </trkpt>
      <trkpt lat="46.66151" lon="6.03319">
        <ele>912.1</ele>
        <time>2022-03-10T08:56:54Z</time>
      </trkpt>
      <trkpt lat="46.66146" lon="6.03323">
        <ele>912.4</ele>
        <time>2022-03-10T08:56:59Z</time>
      </trkpt>
      <trkpt lat="46.66142" lon="6.03325">
        <ele>912.5</ele>
        <time>2022-03-10T08:57:04Z</time>
      </trkpt>
      <trkpt lat="46.66137" lon="6.0333">
        <ele>912.3</ele>
        <time>2022-03-10T08:57:10Z</time>
      </trkpt>
      <trkpt lat="46.66133" lon="6.03334">
        <ele>912.1</ele>
        <time>2022-03-10T08:57:16Z</time>
      </trkpt>
      <trkpt lat="46.66129" lon="6.03338">
        <ele>912.4</ele>
        <time>2022-03-10T08:57:23Z</time>
      </trkpt>
      <trkpt lat="46.66125" lon="6.03342">
        <ele>912.7</ele>
        <time>2022-03-10T08:57:29Z</time>
      </trkpt>
      <trkpt lat="46.66121" lon="6.03347">
        <ele>912.8</ele>
        <time>2022-03-10T08:57:35Z</time>
      </trkpt>
      <trkpt lat="46.66117" lon="6.0335">
        <ele>912.9</ele>
        <time>2022-03-10T08:57:40Z</time>
      </trkpt>
      <trkpt lat="46.66113" lon="6.03355">
        <ele>913.3</ele>
        <time>2022-03-10T08:57:46Z</time>
      </trkpt>
      <trkpt lat="46.66109" lon="6.03359">
        <ele>913.6</ele>
        <time>2022-03-10T08:57:51Z</time>
      </trkpt>
      <trkpt lat="46.66106" lon="6.03364">
        <ele>914</ele>
        <time>2022-03-10T08:57:57Z</time>
      </trkpt>
      <trkpt lat="46.66101" lon="6.03367">
        <ele>914.6</ele>
        <time>2022-03-10T08:58:03Z</time>
      </trkpt>
      <trkpt lat="46.66097" lon="6.03371">
        <ele>915.4</ele>
        <time>2022-03-10T08:58:08Z</time>
      </trkpt>
      <trkpt lat="46.66093" lon="6.03376">
        <ele>916.3</ele>
        <time>2022-03-10T08:58:15Z</time>
      </trkpt>
      <trkpt lat="46.66089" lon="6.0338">
        <ele>916.7</ele>
        <time>2022-03-10T08:58:19Z</time>
      </trkpt>
      <trkpt lat="46.66085" lon="6.03384">
        <ele>917</ele>
        <time>2022-03-10T08:58:23Z</time>
      </trkpt>
      <trkpt lat="46.66082" lon="6.03389">
        <ele>916.4</ele>
        <time>2022-03-10T08:58:29Z</time>
      </trkpt>
      <trkpt lat="46.6608" lon="6.03395">
        <ele>915.6</ele>
        <time>2022-03-10T08:58:35Z</time>
      </trkpt>
      <trkpt lat="46.6608" lon="6.03401">
        <ele>914.6</ele>
        <time>2022-03-10T08:58:41Z</time>
      </trkpt>
      <trkpt lat="46.6608" lon="6.03408">
        <ele>913.8</ele>
        <time>2022-03-10T08:58:48Z</time>
      </trkpt>
      <trkpt lat="46.6608" lon="6.03415">
        <ele>913.3</ele>
        <time>2022-03-10T08:58:54Z</time>
      </trkpt>
      <trkpt lat="46.66081" lon="6.03422">
        <ele>913</ele>
        <time>2022-03-10T08:58:59Z</time>
      </trkpt>
      <trkpt lat="46.66081" lon="6.0343">
        <ele>913</ele>
        <time>2022-03-10T08:59:05Z</time>
      </trkpt>
      <trkpt lat="46.66079" lon="6.03436">
        <ele>911.5</ele>
        <time>2022-03-10T08:59:13Z</time>
      </trkpt>
      <trkpt lat="46.6608" lon="6.03444">
        <ele>909.3</ele>
        <time>2022-03-10T08:59:21Z</time>
      </trkpt>
      <trkpt lat="46.6608" lon="6.03451">
        <ele>907.4</ele>
        <time>2022-03-10T08:59:28Z</time>
      </trkpt>
      <trkpt lat="46.66083" lon="6.03456">
        <ele>905.8</ele>
        <time>2022-03-10T08:59:35Z</time>
      </trkpt>
      <trkpt lat="46.66086" lon="6.03462">
        <ele>904.8</ele>
        <time>2022-03-10T08:59:40Z</time>
      </trkpt>
      <trkpt lat="46.66086" lon="6.03469">
        <ele>903.3</ele>
        <time>2022-03-10T08:59:46Z</time>
      </trkpt>
      <trkpt lat="46.66087" lon="6.03477">
        <ele>901.8</ele>
        <time>2022-03-10T08:59:51Z</time>
      </trkpt>
      <trkpt lat="46.66087" lon="6.03484">
        <ele>900.4</ele>
        <time>2022-03-10T08:59:56Z</time>
      </trkpt>
      <trkpt lat="46.66086" lon="6.03491">
        <ele>899.2</ele>
        <time>2022-03-10T09:00:01Z</time>
      </trkpt>
      <trkpt lat="46.66084" lon="6.03499">
        <ele>898.5</ele>
        <time>2022-03-10T09:00:05Z</time>
      </trkpt>
      <trkpt lat="46.66081" lon="6.03505">
        <ele>897.9</ele>
        <time>2022-03-10T09:00:09Z</time>
      </trkpt>
      <trkpt lat="46.66079" lon="6.03512">
        <ele>897</ele>
        <time>2022-03-10T09:00:13Z</time>
      </trkpt>
      <trkpt lat="46.66078" lon="6.03518">
        <ele>896.1</ele>
        <time>2022-03-10T09:00:18Z</time>
      </trkpt>
      <trkpt lat="46.66078" lon="6.03525">
        <ele>895.3</ele>
        <time>2022-03-10T09:00:22Z</time>
      </trkpt>
      <trkpt lat="46.66079" lon="6.03532">
        <ele>894.1</ele>
        <time>2022-03-10T09:00:27Z</time>
      </trkpt>
      <trkpt lat="46.66081" lon="6.03539">
        <ele>893</ele>
        <time>2022-03-10T09:00:32Z</time>
      </trkpt>
      <trkpt lat="46.66082" lon="6.03547">
        <ele>892.5</ele>
        <time>2022-03-10T09:00:37Z</time>
      </trkpt>
      <trkpt lat="46.66083" lon="6.03554">
        <ele>892.2</ele>
        <time>2022-03-10T09:00:43Z</time>
      </trkpt>
      <trkpt lat="46.66083" lon="6.0356">
        <ele>892.4</ele>
        <time>2022-03-10T09:00:49Z</time>
      </trkpt>
      <trkpt lat="46.66082" lon="6.03567">
        <ele>893.6</ele>
        <time>2022-03-10T09:00:56Z</time>
      </trkpt>
      <trkpt lat="46.66082" lon="6.03575">
        <ele>894.4</ele>
        <time>2022-03-10T09:01:01Z</time>
      </trkpt>
      <trkpt lat="46.66083" lon="6.03582">
        <ele>895.2</ele>
        <time>2022-03-10T09:01:06Z</time>
      </trkpt>
      <trkpt lat="46.66085" lon="6.03588">
        <ele>895.8</ele>
        <time>2022-03-10T09:01:11Z</time>
      </trkpt>
      <trkpt lat="46.66088" lon="6.03595">
        <ele>895.9</ele>
        <time>2022-03-10T09:01:17Z</time>
      </trkpt>
      <trkpt lat="46.66089" lon="6.03601">
        <ele>895.4</ele>
        <time>2022-03-10T09:01:23Z</time>
      </trkpt>
      <trkpt lat="46.6609" lon="6.03608">
        <ele>894.8</ele>
        <time>2022-03-10T09:01:28Z</time>
      </trkpt>
      <trkpt lat="46.66092" lon="6.03615">
        <ele>894.9</ele>
        <time>2022-03-10T09:01:33Z</time>
      </trkpt>
      <trkpt lat="46.66094" lon="6.03622">
        <ele>895.5</ele>
        <time>2022-03-10T09:01:38Z</time>
      </trkpt>
      <trkpt lat="46.66097" lon="6.03627">
        <ele>896.4</ele>
        <time>2022-03-10T09:01:42Z</time>
      </trkpt>
      <trkpt lat="46.66099" lon="6.03634">
        <ele>897.8</ele>
        <time>2022-03-10T09:01:48Z</time>
      </trkpt>
      <trkpt lat="46.66098" lon="6.03641">
        <ele>898.9</ele>
        <time>2022-03-10T09:01:52Z</time>
      </trkpt>
      <trkpt lat="46.66096" lon="6.03648">
        <ele>899.9</ele>
        <time>2022-03-10T09:01:56Z</time>
      </trkpt>
      <trkpt lat="46.66097" lon="6.03655">
        <ele>901</ele>
        <time>2022-03-10T09:02:01Z</time>
      </trkpt>
      <trkpt lat="46.661" lon="6.0366">
        <ele>902.1</ele>
        <time>2022-03-10T09:02:07Z</time>
      </trkpt>
      <trkpt lat="46.66103" lon="6.03665">
        <ele>902.6</ele>
        <time>2022-03-10T09:02:13Z</time>
      </trkpt>
      <trkpt lat="46.66108" lon="6.03667">
        <ele>902.6</ele>
        <time>2022-03-10T09:02:20Z</time>
      </trkpt>
      <trkpt lat="46.66113" lon="6.03669">
        <ele>903</ele>
        <time>2022-03-10T09:02:30Z</time>
      </trkpt>
      <trkpt lat="46.66115" lon="6.03676">
        <ele>903.2</ele>
        <time>2022-03-10T09:02:35Z</time>
      </trkpt>
      <trkpt lat="46.66116" lon="6.03684">
        <ele>903.2</ele>
        <time>2022-03-10T09:02:39Z</time>
      </trkpt>
      <trkpt lat="46.66116" lon="6.03691">
        <ele>903.2</ele>
        <time>2022-03-10T09:02:43Z</time>
      </trkpt>
      <trkpt lat="46.66115" lon="6.03698">
        <ele>902.6</ele>
        <time>2022-03-10T09:02:48Z</time>
      </trkpt>
      <trkpt lat="46.66116" lon="6.03705">
        <ele>902.1</ele>
        <time>2022-03-10T09:02:52Z</time>
      </trkpt>
      <trkpt lat="46.66117" lon="6.03713">
        <ele>900.7</ele>
        <time>2022-03-10T09:02:58Z</time>
      </trkpt>
      <trkpt lat="46.66115" lon="6.03719">
        <ele>899</ele>
        <time>2022-03-10T09:03:04Z</time>
      </trkpt>
      <trkpt lat="46.66115" lon="6.03726">
        <ele>897.9</ele>
        <time>2022-03-10T09:03:09Z</time>
      </trkpt>
      <trkpt lat="46.66114" lon="6.03734">
        <ele>894.9</ele>
        <time>2022-03-10T09:03:27Z</time>
      </trkpt>
      <trkpt lat="46.66114" lon="6.03742">
        <ele>893.9</ele>
        <time>2022-03-10T09:03:31Z</time>
      </trkpt>
      <trkpt lat="46.66116" lon="6.03751">
        <ele>893.2</ele>
        <time>2022-03-10T09:03:35Z</time>
      </trkpt>
      <trkpt lat="46.66118" lon="6.03757">
        <ele>892.9</ele>
        <time>2022-03-10T09:03:39Z</time>
      </trkpt>
      <trkpt lat="46.66119" lon="6.03763">
        <ele>892.8</ele>
        <time>2022-03-10T09:03:43Z</time>
      </trkpt>
      <trkpt lat="46.66117" lon="6.0377">
        <ele>891.9</ele>
        <time>2022-03-10T09:03:49Z</time>
      </trkpt>
      <trkpt lat="46.66117" lon="6.03776">
        <ele>891.5</ele>
        <time>2022-03-10T09:03:56Z</time>
      </trkpt>
      <trkpt lat="46.66122" lon="6.03779">
        <ele>891.4</ele>
        <time>2022-03-10T09:04:03Z</time>
      </trkpt>
      <trkpt lat="46.66126" lon="6.03782">
        <ele>891.4</ele>
        <time>2022-03-10T09:04:07Z</time>
      </trkpt>
      <trkpt lat="46.6613" lon="6.03785">
        <ele>891.3</ele>
        <time>2022-03-10T09:04:13Z</time>
      </trkpt>
      <trkpt lat="46.66132" lon="6.03792">
        <ele>891.7</ele>
        <time>2022-03-10T09:04:18Z</time>
      </trkpt>
      <trkpt lat="46.66133" lon="6.03799">
        <ele>892.5</ele>
        <time>2022-03-10T09:04:24Z</time>
      </trkpt>
      <trkpt lat="46.66136" lon="6.03804">
        <ele>893.7</ele>
        <time>2022-03-10T09:04:32Z</time>
      </trkpt>
      <trkpt lat="46.66139" lon="6.03809">
        <ele>894.8</ele>
        <time>2022-03-10T09:04:39Z</time>
      </trkpt>
      <trkpt lat="46.66144" lon="6.0381">
        <ele>895.5</ele>
        <time>2022-03-10T09:04:45Z</time>
      </trkpt>
      <trkpt lat="46.66147" lon="6.03817">
        <ele>897</ele>
        <time>2022-03-10T09:04:53Z</time>
      </trkpt>
      <trkpt lat="46.66147" lon="6.03824">
        <ele>898.8</ele>
        <time>2022-03-10T09:04:58Z</time>
      </trkpt>
      <trkpt lat="46.66151" lon="6.03828">
        <ele>900.1</ele>
        <time>2022-03-10T09:05:04Z</time>
      </trkpt>
      <trkpt lat="46.66155" lon="6.03833">
        <ele>901.4</ele>
        <time>2022-03-10T09:05:10Z</time>
      </trkpt>
      <trkpt lat="46.66158" lon="6.03839">
        <ele>902.8</ele>
        <time>2022-03-10T09:05:15Z</time>
      </trkpt>
      <trkpt lat="46.6616" lon="6.03845">
        <ele>903.8</ele>
        <time>2022-03-10T09:05:23Z</time>
      </trkpt>
      <trkpt lat="46.66164" lon="6.0385">
        <ele>904.4</ele>
        <time>2022-03-10T09:05:30Z</time>
      </trkpt>
      <trkpt lat="46.66167" lon="6.03856">
        <ele>905</ele>
        <time>2022-03-10T09:05:37Z</time>
      </trkpt>
      <trkpt lat="46.66168" lon="6.03862">
        <ele>905.2</ele>
        <time>2022-03-10T09:05:44Z</time>
      </trkpt>
      <trkpt lat="46.66167" lon="6.0387">
        <ele>904.7</ele>
        <time>2022-03-10T09:05:52Z</time>
      </trkpt>
      <trkpt lat="46.66166" lon="6.03877">
        <ele>904.9</ele>
        <time>2022-03-10T09:05:59Z</time>
      </trkpt>
      <trkpt lat="46.66165" lon="6.03884">
        <ele>904.6</ele>
        <time>2022-03-10T09:06:04Z</time>
      </trkpt>
      <trkpt lat="46.66166" lon="6.03891">
        <ele>904.3</ele>
        <time>2022-03-10T09:06:12Z</time>
      </trkpt>
      <trkpt lat="46.66168" lon="6.03898">
        <ele>903.8</ele>
        <time>2022-03-10T09:06:17Z</time>
      </trkpt>
      <trkpt lat="46.66169" lon="6.03905">
        <ele>903.7</ele>
        <time>2022-03-10T09:06:23Z</time>
      </trkpt>
      <trkpt lat="46.6617" lon="6.03912">
        <ele>903.7</ele>
        <time>2022-03-10T09:06:30Z</time>
      </trkpt>
      <trkpt lat="46.66174" lon="6.03917">
        <ele>903.7</ele>
        <time>2022-03-10T09:06:34Z</time>
      </trkpt>
      <trkpt lat="46.66178" lon="6.03922">
        <ele>903.9</ele>
        <time>2022-03-10T09:06:37Z</time>
      </trkpt>
      <trkpt lat="46.66182" lon="6.03926">
        <ele>904.4</ele>
        <time>2022-03-10T09:06:41Z</time>
      </trkpt>
      <trkpt lat="46.66185" lon="6.03931">
        <ele>904.8</ele>
        <time>2022-03-10T09:06:45Z</time>
      </trkpt>
      <trkpt lat="46.6619" lon="6.03936">
        <ele>905.3</ele>
        <time>2022-03-10T09:06:49Z</time>
      </trkpt>
      <trkpt lat="46.66193" lon="6.03942">
        <ele>906.2</ele>
        <time>2022-03-10T09:06:53Z</time>
      </trkpt>
      <trkpt lat="46.66196" lon="6.03948">
        <ele>906.7</ele>
        <time>2022-03-10T09:06:58Z</time>
      </trkpt>
      <trkpt lat="46.66198" lon="6.03954">
        <ele>906.7</ele>
        <time>2022-03-10T09:07:03Z</time>
      </trkpt>
      <trkpt lat="46.66202" lon="6.03958">
        <ele>906.6</ele>
        <time>2022-03-10T09:07:07Z</time>
      </trkpt>
      <trkpt lat="46.66205" lon="6.03963">
        <ele>906.2</ele>
        <time>2022-03-10T09:07:14Z</time>
      </trkpt>
      <trkpt lat="46.66208" lon="6.03969">
        <ele>905.3</ele>
        <time>2022-03-10T09:07:22Z</time>
      </trkpt>
      <trkpt lat="46.6621" lon="6.03975">
        <ele>904.4</ele>
        <time>2022-03-10T09:07:32Z</time>
      </trkpt>
      <trkpt lat="46.66213" lon="6.03982">
        <ele>904.2</ele>
        <time>2022-03-10T09:07:43Z</time>
      </trkpt>
      <trkpt lat="46.66212" lon="6.03989">
        <ele>905.2</ele>
        <time>2022-03-10T09:07:51Z</time>
      </trkpt>
      <trkpt lat="46.66206" lon="6.0399">
        <ele>906.5</ele>
        <time>2022-03-10T09:07:55Z</time>
      </trkpt>
      <trkpt lat="46.66201" lon="6.03988">
        <ele>908.2</ele>
        <time>2022-03-10T09:07:58Z</time>
      </trkpt>
      <trkpt lat="46.66197" lon="6.03984">
        <ele>910.1</ele>
        <time>2022-03-10T09:08:01Z</time>
      </trkpt>
      <trkpt lat="46.66194" lon="6.03979">
        <ele>912.1</ele>
        <time>2022-03-10T09:08:04Z</time>
      </trkpt>
      <trkpt lat="46.66191" lon="6.03974">
        <ele>914.1</ele>
        <time>2022-03-10T09:08:07Z</time>
      </trkpt>
      <trkpt lat="46.6619" lon="6.03967">
        <ele>916.9</ele>
        <time>2022-03-10T09:08:11Z</time>
      </trkpt>
      <trkpt lat="46.66188" lon="6.03961">
        <ele>920.1</ele>
        <time>2022-03-10T09:08:17Z</time>
      </trkpt>
      <trkpt lat="46.66187" lon="6.03954">
        <ele>923.8</ele>
        <time>2022-03-10T09:08:25Z</time>
      </trkpt>
      <trkpt lat="46.66185" lon="6.03947">
        <ele>925.4</ele>
        <time>2022-03-10T09:08:34Z</time>
      </trkpt>
      <trkpt lat="46.66182" lon="6.03942">
        <ele>925.6</ele>
        <time>2022-03-10T09:08:42Z</time>
      </trkpt>
      <trkpt lat="46.6618" lon="6.03937">
        <ele>926</ele>
        <time>2022-03-10T09:08:49Z</time>
      </trkpt>
      <trkpt lat="46.66176" lon="6.03934">
        <ele>925.8</ele>
        <time>2022-03-10T09:08:56Z</time>
      </trkpt>
      <trkpt lat="46.66171" lon="6.03929">
        <ele>925</ele>
        <time>2022-03-10T09:09:01Z</time>
      </trkpt>
      <trkpt lat="46.66168" lon="6.03923">
        <ele>924.5</ele>
        <time>2022-03-10T09:09:06Z</time>
      </trkpt>
      <trkpt lat="46.66164" lon="6.03919">
        <ele>924.4</ele>
        <time>2022-03-10T09:09:11Z</time>
      </trkpt>
      <trkpt lat="46.66161" lon="6.03915">
        <ele>925.2</ele>
        <time>2022-03-10T09:09:17Z</time>
      </trkpt>
      <trkpt lat="46.66159" lon="6.03908">
        <ele>926.7</ele>
        <time>2022-03-10T09:09:24Z</time>
      </trkpt>
      <trkpt lat="46.66156" lon="6.03902">
        <ele>927.4</ele>
        <time>2022-03-10T09:09:28Z</time>
      </trkpt>
      <trkpt lat="46.66153" lon="6.03897">
        <ele>928</ele>
        <time>2022-03-10T09:09:32Z</time>
      </trkpt>
      <trkpt lat="46.66148" lon="6.03894">
        <ele>929.3</ele>
        <time>2022-03-10T09:09:39Z</time>
      </trkpt>
      <trkpt lat="46.66144" lon="6.03892">
        <ele>929.4</ele>
        <time>2022-03-10T09:09:44Z</time>
      </trkpt>
      <trkpt lat="46.6614" lon="6.03887">
        <ele>929.5</ele>
        <time>2022-03-10T09:09:49Z</time>
      </trkpt>
      <trkpt lat="46.66136" lon="6.03884">
        <ele>929.5</ele>
        <time>2022-03-10T09:09:55Z</time>
      </trkpt>
      <trkpt lat="46.66133" lon="6.03879">
        <ele>930.2</ele>
        <time>2022-03-10T09:10:02Z</time>
      </trkpt>
      <trkpt lat="46.66129" lon="6.03875">
        <ele>930.2</ele>
        <time>2022-03-10T09:10:08Z</time>
      </trkpt>
      <trkpt lat="46.66126" lon="6.03869">
        <ele>930.3</ele>
        <time>2022-03-10T09:10:14Z</time>
      </trkpt>
      <trkpt lat="46.66124" lon="6.03863">
        <ele>930.5</ele>
        <time>2022-03-10T09:10:20Z</time>
      </trkpt>
      <trkpt lat="46.66121" lon="6.03857">
        <ele>930.5</ele>
        <time>2022-03-10T09:10:29Z</time>
      </trkpt>
      <trkpt lat="46.66118" lon="6.03852">
        <ele>930.3</ele>
        <time>2022-03-10T09:10:36Z</time>
      </trkpt>
      <trkpt lat="46.66116" lon="6.03845">
        <ele>930.3</ele>
        <time>2022-03-10T09:10:41Z</time>
      </trkpt>
      <trkpt lat="46.66113" lon="6.0384">
        <ele>930.5</ele>
        <time>2022-03-10T09:10:46Z</time>
      </trkpt>
      <trkpt lat="46.6611" lon="6.03833">
        <ele>931</ele>
        <time>2022-03-10T09:10:52Z</time>
      </trkpt>
      <trkpt lat="46.66108" lon="6.03827">
        <ele>931.8</ele>
        <time>2022-03-10T09:10:58Z</time>
      </trkpt>
      <trkpt lat="46.66105" lon="6.03822">
        <ele>932.5</ele>
        <time>2022-03-10T09:11:04Z</time>
      </trkpt>
      <trkpt lat="46.66102" lon="6.03817">
        <ele>933.3</ele>
        <time>2022-03-10T09:11:09Z</time>
      </trkpt>
      <trkpt lat="46.66099" lon="6.03811">
        <ele>934.2</ele>
        <time>2022-03-10T09:11:15Z</time>
      </trkpt>
      <trkpt lat="46.66096" lon="6.03806">
        <ele>934.6</ele>
        <time>2022-03-10T09:11:20Z</time>
      </trkpt>
      <trkpt lat="46.66092" lon="6.03801">
        <ele>934.4</ele>
        <time>2022-03-10T09:11:27Z</time>
      </trkpt>
      <trkpt lat="46.66091" lon="6.03795">
        <ele>934</ele>
        <time>2022-03-10T09:11:34Z</time>
      </trkpt>
      <trkpt lat="46.66088" lon="6.0379">
        <ele>934.2</ele>
        <time>2022-03-10T09:11:42Z</time>
      </trkpt>
      <trkpt lat="46.66084" lon="6.03786">
        <ele>934.1</ele>
        <time>2022-03-10T09:11:49Z</time>
      </trkpt>
      <trkpt lat="46.6608" lon="6.03782">
        <ele>933.6</ele>
        <time>2022-03-10T09:11:55Z</time>
      </trkpt>
      <trkpt lat="46.66077" lon="6.03778">
        <ele>933.1</ele>
        <time>2022-03-10T09:12:01Z</time>
      </trkpt>
      <trkpt lat="46.66073" lon="6.03773">
        <ele>932.1</ele>
        <time>2022-03-10T09:12:08Z</time>
      </trkpt>
      <trkpt lat="46.6607" lon="6.03768">
        <ele>931.5</ele>
        <time>2022-03-10T09:12:13Z</time>
      </trkpt>
      <trkpt lat="46.66066" lon="6.03763">
        <ele>931.6</ele>
        <time>2022-03-10T09:12:18Z</time>
      </trkpt>
      <trkpt lat="46.66063" lon="6.03758">
        <ele>931.8</ele>
        <time>2022-03-10T09:12:23Z</time>
      </trkpt>
      <trkpt lat="46.66061" lon="6.03751">
        <ele>932</ele>
        <time>2022-03-10T09:12:29Z</time>
      </trkpt>
      <trkpt lat="46.66058" lon="6.03746">
        <ele>932.2</ele>
        <time>2022-03-10T09:12:35Z</time>
      </trkpt>
      <trkpt lat="46.66055" lon="6.0374">
        <ele>932.4</ele>
        <time>2022-03-10T09:12:41Z</time>
      </trkpt>
      <trkpt lat="46.6605" lon="6.03738">
        <ele>932.4</ele>
        <time>2022-03-10T09:12:48Z</time>
      </trkpt>
      <trkpt lat="46.66046" lon="6.03736">
        <ele>931.8</ele>
        <time>2022-03-10T09:12:56Z</time>
      </trkpt>
      <trkpt lat="46.66042" lon="6.03731">
        <ele>931.4</ele>
        <time>2022-03-10T09:13:03Z</time>
      </trkpt>
      <trkpt lat="46.66039" lon="6.03725">
        <ele>931.3</ele>
        <time>2022-03-10T09:13:09Z</time>
      </trkpt>
      <trkpt lat="46.66035" lon="6.0372">
        <ele>931.7</ele>
        <time>2022-03-10T09:13:15Z</time>
      </trkpt>
      <trkpt lat="46.6603" lon="6.03717">
        <ele>932.8</ele>
        <time>2022-03-10T09:13:20Z</time>
      </trkpt>
      <trkpt lat="46.66025" lon="6.03715">
        <ele>934.1</ele>
        <time>2022-03-10T09:13:25Z</time>
      </trkpt>
      <trkpt lat="46.66021" lon="6.03711">
        <ele>935.5</ele>
        <time>2022-03-10T09:13:32Z</time>
      </trkpt>
      <trkpt lat="46.66017" lon="6.03706">
        <ele>937.1</ele>
        <time>2022-03-10T09:13:40Z</time>
      </trkpt>
      <trkpt lat="46.66015" lon="6.03699">
        <ele>937.7</ele>
        <time>2022-03-10T09:13:46Z</time>
      </trkpt>
      <trkpt lat="46.66012" lon="6.03694">
        <ele>938.1</ele>
        <time>2022-03-10T09:13:52Z</time>
      </trkpt>
      <trkpt lat="46.66009" lon="6.03688">
        <ele>938.9</ele>
        <time>2022-03-10T09:13:57Z</time>
      </trkpt>
      <trkpt lat="46.66005" lon="6.03682">
        <ele>939.7</ele>
        <time>2022-03-10T09:14:01Z</time>
      </trkpt>
      <trkpt lat="46.66002" lon="6.03677">
        <ele>940.6</ele>
        <time>2022-03-10T09:14:05Z</time>
      </trkpt>
      <trkpt lat="46.66" lon="6.03671">
        <ele>941.4</ele>
        <time>2022-03-10T09:14:09Z</time>
      </trkpt>
      <trkpt lat="46.65996" lon="6.03665">
        <ele>942.7</ele>
        <time>2022-03-10T09:14:14Z</time>
      </trkpt>
      <trkpt lat="46.65992" lon="6.0366">
        <ele>943.8</ele>
        <time>2022-03-10T09:14:18Z</time>
      </trkpt>
      <trkpt lat="46.65989" lon="6.03656">
        <ele>947.1</ele>
        <time>2022-03-10T09:14:26Z</time>
      </trkpt>
      <trkpt lat="46.65985" lon="6.03651">
        <ele>948.8</ele>
        <time>2022-03-10T09:14:32Z</time>
      </trkpt>
      <trkpt lat="46.65982" lon="6.03645">
        <ele>950.2</ele>
        <time>2022-03-10T09:14:38Z</time>
      </trkpt>
      <trkpt lat="46.65978" lon="6.03641">
        <ele>951.3</ele>
        <time>2022-03-10T09:14:45Z</time>
      </trkpt>
      <trkpt lat="46.65975" lon="6.03635">
        <ele>951.6</ele>
        <time>2022-03-10T09:14:53Z</time>
      </trkpt>
      <trkpt lat="46.65972" lon="6.03629">
        <ele>951.1</ele>
        <time>2022-03-10T09:15:00Z</time>
      </trkpt>
      <trkpt lat="46.65968" lon="6.03624">
        <ele>951.2</ele>
        <time>2022-03-10T09:15:05Z</time>
      </trkpt>
      <trkpt lat="46.65963" lon="6.03622">
        <ele>951</ele>
        <time>2022-03-10T09:15:09Z</time>
      </trkpt>
      <trkpt lat="46.65959" lon="6.03621">
        <ele>950.7</ele>
        <time>2022-03-10T09:15:14Z</time>
      </trkpt>
      <trkpt lat="46.65954" lon="6.03619">
        <ele>950.3</ele>
        <time>2022-03-10T09:15:21Z</time>
      </trkpt>
      <trkpt lat="46.65951" lon="6.03614">
        <ele>949.7</ele>
        <time>2022-03-10T09:15:28Z</time>
      </trkpt>
      <trkpt lat="46.65947" lon="6.03613">
        <ele>949.4</ele>
        <time>2022-03-10T09:15:35Z</time>
      </trkpt>
      <trkpt lat="46.65942" lon="6.03612">
        <ele>948.7</ele>
        <time>2022-03-10T09:15:46Z</time>
      </trkpt>
      <trkpt lat="46.65935" lon="6.03612">
        <ele>946.5</ele>
        <time>2022-03-10T09:16:05Z</time>
      </trkpt>
      <trkpt lat="46.65931" lon="6.03615">
        <ele>945</ele>
        <time>2022-03-10T09:16:09Z</time>
      </trkpt>
      <trkpt lat="46.65927" lon="6.03612">
        <ele>944.7</ele>
        <time>2022-03-10T09:16:16Z</time>
      </trkpt>
      <trkpt lat="46.65927" lon="6.03606">
        <ele>944.8</ele>
        <time>2022-03-10T09:16:21Z</time>
      </trkpt>
      <trkpt lat="46.65924" lon="6.03599">
        <ele>944.8</ele>
        <time>2022-03-10T09:16:29Z</time>
      </trkpt>
      <trkpt lat="46.65922" lon="6.03593">
        <ele>945.1</ele>
        <time>2022-03-10T09:16:33Z</time>
      </trkpt>
      <trkpt lat="46.65921" lon="6.03586">
        <ele>945.6</ele>
        <time>2022-03-10T09:16:39Z</time>
      </trkpt>
      <trkpt lat="46.65917" lon="6.03581">
        <ele>943.9</ele>
        <time>2022-03-10T09:16:55Z</time>
      </trkpt>
      <trkpt lat="46.65915" lon="6.03574">
        <ele>943.6</ele>
        <time>2022-03-10T09:17:00Z</time>
      </trkpt>
      <trkpt lat="46.65914" lon="6.03567">
        <ele>943.9</ele>
        <time>2022-03-10T09:17:04Z</time>
      </trkpt>
      <trkpt lat="46.65912" lon="6.03561">
        <ele>944.4</ele>
        <time>2022-03-10T09:17:07Z</time>
      </trkpt>
      <trkpt lat="46.65909" lon="6.03555">
        <ele>945.2</ele>
        <time>2022-03-10T09:17:11Z</time>
      </trkpt>
      <trkpt lat="46.65905" lon="6.03552">
        <ele>945.9</ele>
        <time>2022-03-10T09:17:16Z</time>
      </trkpt>
      <trkpt lat="46.65902" lon="6.03545">
        <ele>946.8</ele>
        <time>2022-03-10T09:17:21Z</time>
      </trkpt>
      <trkpt lat="46.659" lon="6.03539">
        <ele>948.2</ele>
        <time>2022-03-10T09:17:26Z</time>
      </trkpt>
      <trkpt lat="46.65898" lon="6.03532">
        <ele>950.9</ele>
        <time>2022-03-10T09:17:31Z</time>
      </trkpt>
      <trkpt lat="46.65895" lon="6.03526">
        <ele>956.7</ele>
        <time>2022-03-10T09:17:49Z</time>
      </trkpt>
      <trkpt lat="46.65892" lon="6.03521">
        <ele>957</ele>
        <time>2022-03-10T09:17:59Z</time>
      </trkpt>
      <trkpt lat="46.65888" lon="6.03514">
        <ele>957</ele>
        <time>2022-03-10T09:18:11Z</time>
      </trkpt>
      <trkpt lat="46.65884" lon="6.03511">
        <ele>956.9</ele>
        <time>2022-03-10T09:18:15Z</time>
      </trkpt>
      <trkpt lat="46.65882" lon="6.03504">
        <ele>957.6</ele>
        <time>2022-03-10T09:18:22Z</time>
      </trkpt>
      <trkpt lat="46.65879" lon="6.03499">
        <ele>958.9</ele>
        <time>2022-03-10T09:18:31Z</time>
      </trkpt>
      <trkpt lat="46.65876" lon="6.03494">
        <ele>959.8</ele>
        <time>2022-03-10T09:18:39Z</time>
      </trkpt>
      <trkpt lat="46.65872" lon="6.0349">
        <ele>960.6</ele>
        <time>2022-03-10T09:18:45Z</time>
      </trkpt>
      <trkpt lat="46.65868" lon="6.03486">
        <ele>961.2</ele>
        <time>2022-03-10T09:18:53Z</time>
      </trkpt>
      <trkpt lat="46.65865" lon="6.03481">
        <ele>961.7</ele>
        <time>2022-03-10T09:19:03Z</time>
      </trkpt>
      <trkpt lat="46.65862" lon="6.03475">
        <ele>962.4</ele>
        <time>2022-03-10T09:19:12Z</time>
      </trkpt>
      <trkpt lat="46.65859" lon="6.0347">
        <ele>962.9</ele>
        <time>2022-03-10T09:19:19Z</time>
      </trkpt>
      <trkpt lat="46.65854" lon="6.03467">
        <ele>963.3</ele>
        <time>2022-03-10T09:19:26Z</time>
      </trkpt>
      <trkpt lat="46.6585" lon="6.03466">
        <ele>964.4</ele>
        <time>2022-03-10T09:19:35Z</time>
      </trkpt>
      <trkpt lat="46.65845" lon="6.03462">
        <ele>965</ele>
        <time>2022-03-10T09:19:47Z</time>
      </trkpt>
      <trkpt lat="46.65842" lon="6.03458">
        <ele>964.9</ele>
        <time>2022-03-10T09:19:57Z</time>
      </trkpt>
      <trkpt lat="46.65837" lon="6.03456">
        <ele>963.6</ele>
        <time>2022-03-10T09:20:06Z</time>
      </trkpt>
      <trkpt lat="46.65832" lon="6.03454">
        <ele>961.9</ele>
        <time>2022-03-10T09:20:15Z</time>
      </trkpt>
      <trkpt lat="46.65837" lon="6.0345">
        <ele>966.1</ele>
        <time>2022-03-10T09:23:12Z</time>
      </trkpt>
      <trkpt lat="46.65833" lon="6.03455">
        <ele>967.6</ele>
        <time>2022-03-10T09:23:40Z</time>
      </trkpt>
      <trkpt lat="46.65828" lon="6.03459">
        <ele>967</ele>
        <time>2022-03-10T09:23:44Z</time>
      </trkpt>
      <trkpt lat="46.65824" lon="6.03463">
        <ele>966</ele>
        <time>2022-03-10T09:23:51Z</time>
      </trkpt>
      <trkpt lat="46.65829" lon="6.0346">
        <ele>965.2</ele>
        <time>2022-03-10T09:24:10Z</time>
      </trkpt>
      <trkpt lat="46.65833" lon="6.03456">
        <ele>964.5</ele>
        <time>2022-03-10T09:24:18Z</time>
      </trkpt>
      <trkpt lat="46.65826" lon="6.0346">
        <ele>958.5</ele>
        <time>2022-03-10T09:25:09Z</time>
      </trkpt>
      <trkpt lat="46.65822" lon="6.0346">
        <ele>954.8</ele>
        <time>2022-03-10T09:25:15Z</time>
      </trkpt>
      <trkpt lat="46.65827" lon="6.03458">
        <ele>955.2</ele>
        <time>2022-03-10T09:25:53Z</time>
      </trkpt>
      <trkpt lat="46.65832" lon="6.03455">
        <ele>958.2</ele>
        <time>2022-03-10T09:25:57Z</time>
      </trkpt>
      <trkpt lat="46.65828" lon="6.0346">
        <ele>963.1</ele>
        <time>2022-03-10T09:26:23Z</time>
      </trkpt>
      <trkpt lat="46.65824" lon="6.03455">
        <ele>962</ele>
        <time>2022-03-10T09:26:51Z</time>
      </trkpt>
      <trkpt lat="46.65823" lon="6.03448">
        <ele>962.3</ele>
        <time>2022-03-10T09:26:57Z</time>
      </trkpt>
      <trkpt lat="46.65821" lon="6.03442">
        <ele>962.9</ele>
        <time>2022-03-10T09:27:02Z</time>
      </trkpt>
      <trkpt lat="46.65821" lon="6.03434">
        <ele>964.4</ele>
        <time>2022-03-10T09:27:08Z</time>
      </trkpt>
      <trkpt lat="46.65819" lon="6.03427">
        <ele>965.7</ele>
        <time>2022-03-10T09:27:14Z</time>
      </trkpt>
      <trkpt lat="46.65817" lon="6.03421">
        <ele>967.3</ele>
        <time>2022-03-10T09:27:21Z</time>
      </trkpt>
      <trkpt lat="46.65814" lon="6.03416">
        <ele>968.4</ele>
        <time>2022-03-10T09:27:26Z</time>
      </trkpt>
      <trkpt lat="46.65811" lon="6.03411">
        <ele>969.5</ele>
        <time>2022-03-10T09:27:32Z</time>
      </trkpt>
      <trkpt lat="46.65806" lon="6.03408">
        <ele>970.4</ele>
        <time>2022-03-10T09:27:37Z</time>
      </trkpt>
      <trkpt lat="46.65802" lon="6.03405">
        <ele>972.3</ele>
        <time>2022-03-10T09:27:44Z</time>
      </trkpt>
      <trkpt lat="46.65799" lon="6.034">
        <ele>974.7</ele>
        <time>2022-03-10T09:27:52Z</time>
      </trkpt>
      <trkpt lat="46.65795" lon="6.03397">
        <ele>976.3</ele>
        <time>2022-03-10T09:27:58Z</time>
      </trkpt>
      <trkpt lat="46.65792" lon="6.03391">
        <ele>978</ele>
        <time>2022-03-10T09:28:07Z</time>
      </trkpt>
      <trkpt lat="46.6579" lon="6.03384">
        <ele>978.8</ele>
        <time>2022-03-10T09:28:13Z</time>
      </trkpt>
      <trkpt lat="46.65787" lon="6.03378">
        <ele>979.7</ele>
        <time>2022-03-10T09:28:20Z</time>
      </trkpt>
      <trkpt lat="46.65784" lon="6.03373">
        <ele>980.4</ele>
        <time>2022-03-10T09:28:28Z</time>
      </trkpt>
      <trkpt lat="46.65783" lon="6.03366">
        <ele>981.3</ele>
        <time>2022-03-10T09:28:35Z</time>
      </trkpt>
      <trkpt lat="46.65782" lon="6.0336">
        <ele>981.9</ele>
        <time>2022-03-10T09:28:40Z</time>
      </trkpt>
      <trkpt lat="46.65778" lon="6.03354">
        <ele>982.6</ele>
        <time>2022-03-10T09:28:45Z</time>
      </trkpt>
      <trkpt lat="46.65776" lon="6.03347">
        <ele>983.6</ele>
        <time>2022-03-10T09:28:50Z</time>
      </trkpt>
      <trkpt lat="46.65772" lon="6.03342">
        <ele>984.5</ele>
        <time>2022-03-10T09:28:55Z</time>
      </trkpt>
      <trkpt lat="46.65768" lon="6.03339">
        <ele>985.7</ele>
        <time>2022-03-10T09:29:01Z</time>
      </trkpt>
      <trkpt lat="46.65764" lon="6.03334">
        <ele>986.7</ele>
        <time>2022-03-10T09:29:06Z</time>
      </trkpt>
      <trkpt lat="46.6576" lon="6.03332">
        <ele>987.6</ele>
        <time>2022-03-10T09:29:12Z</time>
      </trkpt>
      <trkpt lat="46.65757" lon="6.03326">
        <ele>988</ele>
        <time>2022-03-10T09:29:19Z</time>
      </trkpt>
      <trkpt lat="46.65752" lon="6.03325">
        <ele>988.4</ele>
        <time>2022-03-10T09:29:25Z</time>
      </trkpt>
      <trkpt lat="46.6575" lon="6.03319">
        <ele>987.9</ele>
        <time>2022-03-10T09:29:32Z</time>
      </trkpt>
      <trkpt lat="46.65745" lon="6.03315">
        <ele>986.1</ele>
        <time>2022-03-10T09:29:42Z</time>
      </trkpt>
      <trkpt lat="46.65742" lon="6.03309">
        <ele>985.1</ele>
        <time>2022-03-10T09:29:47Z</time>
      </trkpt>
      <trkpt lat="46.65737" lon="6.03305">
        <ele>984</ele>
        <time>2022-03-10T09:29:53Z</time>
      </trkpt>
      <trkpt lat="46.65732" lon="6.03303">
        <ele>984.1</ele>
        <time>2022-03-10T09:30:00Z</time>
      </trkpt>
      <trkpt lat="46.65729" lon="6.03296">
        <ele>984.5</ele>
        <time>2022-03-10T09:30:05Z</time>
      </trkpt>
      <trkpt lat="46.65726" lon="6.03289">
        <ele>984.7</ele>
        <time>2022-03-10T09:30:10Z</time>
      </trkpt>
      <trkpt lat="46.65723" lon="6.03283">
        <ele>984.8</ele>
        <time>2022-03-10T09:30:16Z</time>
      </trkpt>
      <trkpt lat="46.6572" lon="6.03278">
        <ele>984.1</ele>
        <time>2022-03-10T09:30:20Z</time>
      </trkpt>
      <trkpt lat="46.65716" lon="6.03274">
        <ele>982.3</ele>
        <time>2022-03-10T09:30:27Z</time>
      </trkpt>
      <trkpt lat="46.65711" lon="6.0327">
        <ele>981.5</ele>
        <time>2022-03-10T09:30:33Z</time>
      </trkpt>
      <trkpt lat="46.65708" lon="6.03266">
        <ele>981.3</ele>
        <time>2022-03-10T09:30:37Z</time>
      </trkpt>
      <trkpt lat="46.65704" lon="6.03262">
        <ele>981.4</ele>
        <time>2022-03-10T09:30:42Z</time>
      </trkpt>
      <trkpt lat="46.65701" lon="6.03256">
        <ele>981.9</ele>
        <time>2022-03-10T09:30:49Z</time>
      </trkpt>
      <trkpt lat="46.65699" lon="6.0325">
        <ele>982.3</ele>
        <time>2022-03-10T09:30:52Z</time>
      </trkpt>
      <trkpt lat="46.65695" lon="6.03246">
        <ele>982.7</ele>
        <time>2022-03-10T09:30:57Z</time>
      </trkpt>
      <trkpt lat="46.65691" lon="6.03241">
        <ele>983</ele>
        <time>2022-03-10T09:31:02Z</time>
      </trkpt>
      <trkpt lat="46.65687" lon="6.03237">
        <ele>983.4</ele>
        <time>2022-03-10T09:31:06Z</time>
      </trkpt>
      <trkpt lat="46.65684" lon="6.03232">
        <ele>984</ele>
        <time>2022-03-10T09:31:10Z</time>
      </trkpt>
      <trkpt lat="46.65681" lon="6.03225">
        <ele>984.8</ele>
        <time>2022-03-10T09:31:14Z</time>
      </trkpt>
      <trkpt lat="46.65678" lon="6.03221">
        <ele>985.2</ele>
        <time>2022-03-10T09:31:21Z</time>
      </trkpt>
      <trkpt lat="46.65675" lon="6.03216">
        <ele>986.1</ele>
        <time>2022-03-10T09:31:28Z</time>
      </trkpt>
      <trkpt lat="46.65671" lon="6.0321">
        <ele>986.9</ele>
        <time>2022-03-10T09:31:33Z</time>
      </trkpt>
      <trkpt lat="46.65668" lon="6.03205">
        <ele>988.2</ele>
        <time>2022-03-10T09:31:37Z</time>
      </trkpt>
      <trkpt lat="46.65664" lon="6.03199">
        <ele>989.3</ele>
        <time>2022-03-10T09:31:42Z</time>
      </trkpt>
      <trkpt lat="46.65661" lon="6.03193">
        <ele>990.8</ele>
        <time>2022-03-10T09:31:48Z</time>
      </trkpt>
      <trkpt lat="46.65658" lon="6.03188">
        <ele>992.5</ele>
        <time>2022-03-10T09:31:54Z</time>
      </trkpt>
      <trkpt lat="46.65653" lon="6.03185">
        <ele>994.5</ele>
        <time>2022-03-10T09:32:02Z</time>
      </trkpt>
      <trkpt lat="46.65649" lon="6.03181">
        <ele>995.2</ele>
        <time>2022-03-10T09:32:09Z</time>
      </trkpt>
      <trkpt lat="46.65646" lon="6.03177">
        <ele>995.8</ele>
        <time>2022-03-10T09:32:14Z</time>
      </trkpt>
      <trkpt lat="46.65642" lon="6.03171">
        <ele>995.9</ele>
        <time>2022-03-10T09:32:19Z</time>
      </trkpt>
      <trkpt lat="46.65639" lon="6.03165">
        <ele>995.9</ele>
        <time>2022-03-10T09:32:24Z</time>
      </trkpt>
      <trkpt lat="46.65636" lon="6.03161">
        <ele>996</ele>
        <time>2022-03-10T09:32:28Z</time>
      </trkpt>
      <trkpt lat="46.65633" lon="6.03153">
        <ele>996.6</ele>
        <time>2022-03-10T09:32:32Z</time>
      </trkpt>
      <trkpt lat="46.65631" lon="6.03146">
        <ele>997.6</ele>
        <time>2022-03-10T09:32:36Z</time>
      </trkpt>
      <trkpt lat="46.65629" lon="6.0314">
        <ele>998.7</ele>
        <time>2022-03-10T09:32:41Z</time>
      </trkpt>
      <trkpt lat="46.65624" lon="6.0314">
        <ele>999.9</ele>
        <time>2022-03-10T09:32:48Z</time>
      </trkpt>
      <trkpt lat="46.6562" lon="6.03143">
        <ele>1000.9</ele>
        <time>2022-03-10T09:32:58Z</time>
      </trkpt>
      <trkpt lat="46.65616" lon="6.0314">
        <ele>1000.4</ele>
        <time>2022-03-10T09:33:07Z</time>
      </trkpt>
      <trkpt lat="46.65611" lon="6.03136">
        <ele>999.4</ele>
        <time>2022-03-10T09:33:13Z</time>
      </trkpt>
      <trkpt lat="46.65608" lon="6.03132">
        <ele>998.9</ele>
        <time>2022-03-10T09:33:17Z</time>
      </trkpt>
      <trkpt lat="46.65604" lon="6.03128">
        <ele>998.9</ele>
        <time>2022-03-10T09:33:21Z</time>
      </trkpt>
      <trkpt lat="46.656" lon="6.03124">
        <ele>999.1</ele>
        <time>2022-03-10T09:33:26Z</time>
      </trkpt>
      <trkpt lat="46.65595" lon="6.03121">
        <ele>999.5</ele>
        <time>2022-03-10T09:33:31Z</time>
      </trkpt>
      <trkpt lat="46.6559" lon="6.03118">
        <ele>999.7</ele>
        <time>2022-03-10T09:33:36Z</time>
      </trkpt>
      <trkpt lat="46.65586" lon="6.03114">
        <ele>1000</ele>
        <time>2022-03-10T09:33:41Z</time>
      </trkpt>
      <trkpt lat="46.65581" lon="6.03111">
        <ele>1000.2</ele>
        <time>2022-03-10T09:33:46Z</time>
      </trkpt>
      <trkpt lat="46.65577" lon="6.03106">
        <ele>1000.8</ele>
        <time>2022-03-10T09:33:50Z</time>
      </trkpt>
      <trkpt lat="46.65573" lon="6.03103">
        <ele>1001.4</ele>
        <time>2022-03-10T09:33:54Z</time>
      </trkpt>
      <trkpt lat="46.65568" lon="6.03101">
        <ele>1002.3</ele>
        <time>2022-03-10T09:34:02Z</time>
      </trkpt>
      <trkpt lat="46.65564" lon="6.03102">
        <ele>1003.2</ele>
        <time>2022-03-10T09:34:09Z</time>
      </trkpt>
      <trkpt lat="46.6556" lon="6.03106">
        <ele>1004.2</ele>
        <time>2022-03-10T09:34:19Z</time>
      </trkpt>
      <trkpt lat="46.65557" lon="6.03111">
        <ele>1004.6</ele>
        <time>2022-03-10T09:34:24Z</time>
      </trkpt>
      <trkpt lat="46.65556" lon="6.03118">
        <ele>1005</ele>
        <time>2022-03-10T09:34:30Z</time>
      </trkpt>
      <trkpt lat="46.65552" lon="6.03121">
        <ele>1005.7</ele>
        <time>2022-03-10T09:34:37Z</time>
      </trkpt>
      <trkpt lat="46.65548" lon="6.03124">
        <ele>1006.2</ele>
        <time>2022-03-10T09:34:43Z</time>
      </trkpt>
      <trkpt lat="46.65543" lon="6.03126">
        <ele>1006.7</ele>
        <time>2022-03-10T09:34:48Z</time>
      </trkpt>
      <trkpt lat="46.65539" lon="6.0313">
        <ele>1007.3</ele>
        <time>2022-03-10T09:34:56Z</time>
      </trkpt>
      <trkpt lat="46.65536" lon="6.03136">
        <ele>1007.6</ele>
        <time>2022-03-10T09:35:03Z</time>
      </trkpt>
      <trkpt lat="46.65532" lon="6.0314">
        <ele>1008</ele>
        <time>2022-03-10T09:35:07Z</time>
      </trkpt>
      <trkpt lat="46.65528" lon="6.03144">
        <ele>1008.5</ele>
        <time>2022-03-10T09:35:13Z</time>
      </trkpt>
      <trkpt lat="46.65524" lon="6.03148">
        <ele>1009.3</ele>
        <time>2022-03-10T09:35:18Z</time>
      </trkpt>
      <trkpt lat="46.65515" lon="6.03153">
        <ele>1014</ele>
        <time>2022-03-10T09:36:04Z</time>
      </trkpt>
      <trkpt lat="46.65511" lon="6.03155">
        <ele>1017.9</ele>
        <time>2022-03-10T09:36:09Z</time>
      </trkpt>
      <trkpt lat="46.65508" lon="6.03151">
        <ele>1021.2</ele>
        <time>2022-03-10T09:37:32Z</time>
      </trkpt>
      <trkpt lat="46.65503" lon="6.0315">
        <ele>1020.2</ele>
        <time>2022-03-10T09:37:41Z</time>
      </trkpt>
      <trkpt lat="46.65498" lon="6.03151">
        <ele>1019.5</ele>
        <time>2022-03-10T09:37:49Z</time>
      </trkpt>
      <trkpt lat="46.65493" lon="6.03151">
        <ele>1018.5</ele>
        <time>2022-03-10T09:37:55Z</time>
      </trkpt>
      <trkpt lat="46.65487" lon="6.03149">
        <ele>1017.6</ele>
        <time>2022-03-10T09:38:01Z</time>
      </trkpt>
      <trkpt lat="46.65483" lon="6.03146">
        <ele>1016.9</ele>
        <time>2022-03-10T09:38:06Z</time>
      </trkpt>
      <trkpt lat="46.65479" lon="6.0314">
        <ele>1016.8</ele>
        <time>2022-03-10T09:38:12Z</time>
      </trkpt>
      <trkpt lat="46.65476" lon="6.03136">
        <ele>1016.5</ele>
        <time>2022-03-10T09:38:19Z</time>
      </trkpt>
      <trkpt lat="46.65474" lon="6.03129">
        <ele>1016.5</ele>
        <time>2022-03-10T09:38:25Z</time>
      </trkpt>
      <trkpt lat="46.65473" lon="6.03122">
        <ele>1017.1</ele>
        <time>2022-03-10T09:38:33Z</time>
      </trkpt>
      <trkpt lat="46.65474" lon="6.03115">
        <ele>1018</ele>
        <time>2022-03-10T09:38:40Z</time>
      </trkpt>
      <trkpt lat="46.65474" lon="6.03107">
        <ele>1018.2</ele>
        <time>2022-03-10T09:38:47Z</time>
      </trkpt>
      <trkpt lat="46.65473" lon="6.03101">
        <ele>1018.2</ele>
        <time>2022-03-10T09:38:53Z</time>
      </trkpt>
      <trkpt lat="46.65475" lon="6.03094">
        <ele>1018.3</ele>
        <time>2022-03-10T09:38:58Z</time>
      </trkpt>
      <trkpt lat="46.65476" lon="6.03086">
        <ele>1018.6</ele>
        <time>2022-03-10T09:39:03Z</time>
      </trkpt>
      <trkpt lat="46.65476" lon="6.03079">
        <ele>1018.9</ele>
        <time>2022-03-10T09:39:08Z</time>
      </trkpt>
      <trkpt lat="46.65475" lon="6.03072">
        <ele>1019.6</ele>
        <time>2022-03-10T09:39:14Z</time>
      </trkpt>
      <trkpt lat="46.65474" lon="6.03066">
        <ele>1020.8</ele>
        <time>2022-03-10T09:39:20Z</time>
      </trkpt>
      <trkpt lat="46.65472" lon="6.03058">
        <ele>1021.5</ele>
        <time>2022-03-10T09:39:27Z</time>
      </trkpt>
      <trkpt lat="46.65472" lon="6.03051">
        <ele>1022.2</ele>
        <time>2022-03-10T09:39:33Z</time>
      </trkpt>
      <trkpt lat="46.65472" lon="6.03044">
        <ele>1023</ele>
        <time>2022-03-10T09:39:39Z</time>
      </trkpt>
      <trkpt lat="46.65471" lon="6.03037">
        <ele>1024.2</ele>
        <time>2022-03-10T09:39:46Z</time>
      </trkpt>
      <trkpt lat="46.65473" lon="6.03029">
        <ele>1024.9</ele>
        <time>2022-03-10T09:39:53Z</time>
      </trkpt>
      <trkpt lat="46.65476" lon="6.03024">
        <ele>1024.9</ele>
        <time>2022-03-10T09:39:59Z</time>
      </trkpt>
      <trkpt lat="46.65476" lon="6.03016">
        <ele>1024.7</ele>
        <time>2022-03-10T09:40:05Z</time>
      </trkpt>
      <trkpt lat="46.65478" lon="6.0301">
        <ele>1025.3</ele>
        <time>2022-03-10T09:40:11Z</time>
      </trkpt>
      <trkpt lat="46.65479" lon="6.03003">
        <ele>1026.3</ele>
        <time>2022-03-10T09:40:18Z</time>
      </trkpt>
      <trkpt lat="46.65479" lon="6.0301">
        <ele>1025.8</ele>
        <time>2022-03-10T09:45:29Z</time>
      </trkpt>
      <trkpt lat="46.65478" lon="6.03016">
        <ele>1025.6</ele>
        <time>2022-03-10T09:45:35Z</time>
      </trkpt>
      <trkpt lat="46.65476" lon="6.03022">
        <ele>1025.5</ele>
        <time>2022-03-10T09:45:41Z</time>
      </trkpt>
      <trkpt lat="46.65473" lon="6.03028">
        <ele>1024.8</ele>
        <time>2022-03-10T09:45:49Z</time>
      </trkpt>
      <trkpt lat="46.65471" lon="6.03034">
        <ele>1024.1</ele>
        <time>2022-03-10T09:45:56Z</time>
      </trkpt>
      <trkpt lat="46.65471" lon="6.03041">
        <ele>1023.4</ele>
        <time>2022-03-10T09:46:04Z</time>
      </trkpt>
      <trkpt lat="46.6547" lon="6.03048">
        <ele>1023.7</ele>
        <time>2022-03-10T09:46:11Z</time>
      </trkpt>
      <trkpt lat="46.65468" lon="6.03055">
        <ele>1024.3</ele>
        <time>2022-03-10T09:46:17Z</time>
      </trkpt>
      <trkpt lat="46.6547" lon="6.03061">
        <ele>1025.3</ele>
        <time>2022-03-10T09:46:23Z</time>
      </trkpt>
      <trkpt lat="46.65471" lon="6.03067">
        <ele>1025.7</ele>
        <time>2022-03-10T09:46:29Z</time>
      </trkpt>
      <trkpt lat="46.65473" lon="6.03074">
        <ele>1025.9</ele>
        <time>2022-03-10T09:46:35Z</time>
      </trkpt>
      <trkpt lat="46.65474" lon="6.03081">
        <ele>1025.7</ele>
        <time>2022-03-10T09:46:41Z</time>
      </trkpt>
      <trkpt lat="46.65475" lon="6.03089">
        <ele>1025.4</ele>
        <time>2022-03-10T09:46:47Z</time>
      </trkpt>
      <trkpt lat="46.65476" lon="6.03095">
        <ele>1025.1</ele>
        <time>2022-03-10T09:46:54Z</time>
      </trkpt>
      <trkpt lat="46.65476" lon="6.03102">
        <ele>1024.3</ele>
        <time>2022-03-10T09:47:01Z</time>
      </trkpt>
      <trkpt lat="46.65475" lon="6.03109">
        <ele>1023.5</ele>
        <time>2022-03-10T09:47:07Z</time>
      </trkpt>
      <trkpt lat="46.65474" lon="6.03117">
        <ele>1023.2</ele>
        <time>2022-03-10T09:47:13Z</time>
      </trkpt>
      <trkpt lat="46.65474" lon="6.03124">
        <ele>1022.8</ele>
        <time>2022-03-10T09:47:18Z</time>
      </trkpt>
      <trkpt lat="46.65475" lon="6.03131">
        <ele>1022.5</ele>
        <time>2022-03-10T09:47:24Z</time>
      </trkpt>
      <trkpt lat="46.65476" lon="6.03138">
        <ele>1022.3</ele>
        <time>2022-03-10T09:47:31Z</time>
      </trkpt>
      <trkpt lat="46.65478" lon="6.03144">
        <ele>1022.1</ele>
        <time>2022-03-10T09:47:37Z</time>
      </trkpt>
      <trkpt lat="46.65483" lon="6.03148">
        <ele>1021.6</ele>
        <time>2022-03-10T09:47:42Z</time>
      </trkpt>
      <trkpt lat="46.65487" lon="6.0315">
        <ele>1020.8</ele>
        <time>2022-03-10T09:47:49Z</time>
      </trkpt>
      <trkpt lat="46.65492" lon="6.03152">
        <ele>1020</ele>
        <time>2022-03-10T09:47:58Z</time>
      </trkpt>
      <trkpt lat="46.65496" lon="6.03153">
        <ele>1019.8</ele>
        <time>2022-03-10T09:48:05Z</time>
      </trkpt>
      <trkpt lat="46.65501" lon="6.03152">
        <ele>1019.8</ele>
        <time>2022-03-10T09:48:11Z</time>
      </trkpt>
      <trkpt lat="46.65506" lon="6.03153">
        <ele>1019.6</ele>
        <time>2022-03-10T09:48:16Z</time>
      </trkpt>
      <trkpt lat="46.6551" lon="6.03157">
        <ele>1019</ele>
        <time>2022-03-10T09:48:22Z</time>
      </trkpt>
      <trkpt lat="46.65514" lon="6.03161">
        <ele>1017.2</ele>
        <time>2022-03-10T09:48:28Z</time>
      </trkpt>
      <trkpt lat="46.65519" lon="6.0316">
        <ele>1015.6</ele>
        <time>2022-03-10T09:48:36Z</time>
      </trkpt>
      <trkpt lat="46.65519" lon="6.03167">
        <ele>1013.6</ele>
        <time>2022-03-10T09:49:04Z</time>
      </trkpt>
      <trkpt lat="46.65516" lon="6.03172">
        <ele>1012.5</ele>
        <time>2022-03-10T09:49:08Z</time>
      </trkpt>
      <trkpt lat="46.65511" lon="6.03175">
        <ele>1011.5</ele>
        <time>2022-03-10T09:49:12Z</time>
      </trkpt>
      <trkpt lat="46.65506" lon="6.03178">
        <ele>1010.1</ele>
        <time>2022-03-10T09:49:16Z</time>
      </trkpt>
      <trkpt lat="46.65501" lon="6.0318">
        <ele>1009</ele>
        <time>2022-03-10T09:49:20Z</time>
      </trkpt>
      <trkpt lat="46.65497" lon="6.03184">
        <ele>1008.4</ele>
        <time>2022-03-10T09:49:24Z</time>
      </trkpt>
      <trkpt lat="46.65493" lon="6.03188">
        <ele>1008</ele>
        <time>2022-03-10T09:49:28Z</time>
      </trkpt>
      <trkpt lat="46.65489" lon="6.03192">
        <ele>1007.6</ele>
        <time>2022-03-10T09:49:32Z</time>
      </trkpt>
      <trkpt lat="46.65485" lon="6.03196">
        <ele>1007.2</ele>
        <time>2022-03-10T09:49:36Z</time>
      </trkpt>
      <trkpt lat="46.65482" lon="6.03202">
        <ele>1006.5</ele>
        <time>2022-03-10T09:49:40Z</time>
      </trkpt>
      <trkpt lat="46.6548" lon="6.03208">
        <ele>1005.7</ele>
        <time>2022-03-10T09:49:44Z</time>
      </trkpt>
      <trkpt lat="46.65478" lon="6.03214">
        <ele>1005.2</ele>
        <time>2022-03-10T09:49:47Z</time>
      </trkpt>
      <trkpt lat="46.65476" lon="6.03222">
        <ele>1004.8</ele>
        <time>2022-03-10T09:49:51Z</time>
      </trkpt>
      <trkpt lat="46.65475" lon="6.0323">
        <ele>1004.9</ele>
        <time>2022-03-10T09:49:54Z</time>
      </trkpt>
      <trkpt lat="46.65473" lon="6.03236">
        <ele>1004.9</ele>
        <time>2022-03-10T09:49:57Z</time>
      </trkpt>
      <trkpt lat="46.65472" lon="6.03244">
        <ele>1005.2</ele>
        <time>2022-03-10T09:50:01Z</time>
      </trkpt>
      <trkpt lat="46.65472" lon="6.03252">
        <ele>1005.5</ele>
        <time>2022-03-10T09:50:05Z</time>
      </trkpt>
      <trkpt lat="46.65472" lon="6.0326">
        <ele>1005.8</ele>
        <time>2022-03-10T09:50:09Z</time>
      </trkpt>
      <trkpt lat="46.65472" lon="6.03268">
        <ele>1006.2</ele>
        <time>2022-03-10T09:50:13Z</time>
      </trkpt>
      <trkpt lat="46.65472" lon="6.03276">
        <ele>1006.4</ele>
        <time>2022-03-10T09:50:17Z</time>
      </trkpt>
      <trkpt lat="46.65473" lon="6.03283">
        <ele>1006.5</ele>
        <time>2022-03-10T09:50:21Z</time>
      </trkpt>
      <trkpt lat="46.65474" lon="6.03291">
        <ele>1006.2</ele>
        <time>2022-03-10T09:50:26Z</time>
      </trkpt>
      <trkpt lat="46.65474" lon="6.03299">
        <ele>1005.9</ele>
        <time>2022-03-10T09:50:31Z</time>
      </trkpt>
      <trkpt lat="46.65475" lon="6.03305">
        <ele>1005.2</ele>
        <time>2022-03-10T09:50:36Z</time>
      </trkpt>
      <trkpt lat="46.65475" lon="6.03312">
        <ele>1004.5</ele>
        <time>2022-03-10T09:50:42Z</time>
      </trkpt>
      <trkpt lat="46.65477" lon="6.0332">
        <ele>1004.1</ele>
        <time>2022-03-10T09:50:48Z</time>
      </trkpt>
      <trkpt lat="46.65479" lon="6.03327">
        <ele>1003.3</ele>
        <time>2022-03-10T09:50:53Z</time>
      </trkpt>
      <trkpt lat="46.65481" lon="6.03333">
        <ele>1002.9</ele>
        <time>2022-03-10T09:50:57Z</time>
      </trkpt>
      <trkpt lat="46.65482" lon="6.0334">
        <ele>1002.5</ele>
        <time>2022-03-10T09:51:01Z</time>
      </trkpt>
      <trkpt lat="46.65484" lon="6.03346">
        <ele>1001.9</ele>
        <time>2022-03-10T09:51:06Z</time>
      </trkpt>
      <trkpt lat="46.65485" lon="6.03353">
        <ele>1000.9</ele>
        <time>2022-03-10T09:51:11Z</time>
      </trkpt>
      <trkpt lat="46.65488" lon="6.03359">
        <ele>1000.3</ele>
        <time>2022-03-10T09:51:16Z</time>
      </trkpt>
      <trkpt lat="46.6549" lon="6.03366">
        <ele>999.8</ele>
        <time>2022-03-10T09:51:21Z</time>
      </trkpt>
      <trkpt lat="46.65492" lon="6.03373">
        <ele>998.8</ele>
        <time>2022-03-10T09:51:26Z</time>
      </trkpt>
      <trkpt lat="46.65494" lon="6.03381">
        <ele>998.2</ele>
        <time>2022-03-10T09:51:31Z</time>
      </trkpt>
      <trkpt lat="46.65496" lon="6.03388">
        <ele>997.8</ele>
        <time>2022-03-10T09:51:36Z</time>
      </trkpt>
      <trkpt lat="46.65497" lon="6.03396">
        <ele>997.3</ele>
        <time>2022-03-10T09:51:41Z</time>
      </trkpt>
      <trkpt lat="46.65497" lon="6.03403">
        <ele>997</ele>
        <time>2022-03-10T09:51:46Z</time>
      </trkpt>
      <trkpt lat="46.65497" lon="6.0341">
        <ele>996.6</ele>
        <time>2022-03-10T09:51:52Z</time>
      </trkpt>
      <trkpt lat="46.65498" lon="6.03417">
        <ele>995.6</ele>
        <time>2022-03-10T09:51:57Z</time>
      </trkpt>
      <trkpt lat="46.655" lon="6.03424">
        <ele>994.3</ele>
        <time>2022-03-10T09:52:02Z</time>
      </trkpt>
      <trkpt lat="46.65502" lon="6.03431">
        <ele>992.2</ele>
        <time>2022-03-10T09:52:08Z</time>
      </trkpt>
      <trkpt lat="46.65504" lon="6.03437">
        <ele>991.2</ele>
        <time>2022-03-10T09:52:13Z</time>
      </trkpt>
      <trkpt lat="46.65506" lon="6.03444">
        <ele>990.2</ele>
        <time>2022-03-10T09:52:18Z</time>
      </trkpt>
      <trkpt lat="46.65509" lon="6.03449">
        <ele>989.2</ele>
        <time>2022-03-10T09:52:23Z</time>
      </trkpt>
      <trkpt lat="46.65511" lon="6.03456">
        <ele>987.9</ele>
        <time>2022-03-10T09:52:29Z</time>
      </trkpt>
      <trkpt lat="46.65513" lon="6.03462">
        <ele>986.8</ele>
        <time>2022-03-10T09:52:35Z</time>
      </trkpt>
      <trkpt lat="46.65517" lon="6.03467">
        <ele>985.8</ele>
        <time>2022-03-10T09:52:41Z</time>
      </trkpt>
      <trkpt lat="46.6552" lon="6.03473">
        <ele>984.8</ele>
        <time>2022-03-10T09:52:46Z</time>
      </trkpt>
      <trkpt lat="46.65521" lon="6.0348">
        <ele>983.7</ele>
        <time>2022-03-10T09:52:52Z</time>
      </trkpt>
      <trkpt lat="46.65523" lon="6.03487">
        <ele>982.7</ele>
        <time>2022-03-10T09:52:58Z</time>
      </trkpt>
      <trkpt lat="46.65526" lon="6.03493">
        <ele>981.9</ele>
        <time>2022-03-10T09:53:02Z</time>
      </trkpt>
      <trkpt lat="46.65527" lon="6.035">
        <ele>981.3</ele>
        <time>2022-03-10T09:53:06Z</time>
      </trkpt>
      <trkpt lat="46.65528" lon="6.03507">
        <ele>980.8</ele>
        <time>2022-03-10T09:53:10Z</time>
      </trkpt>
      <trkpt lat="46.65529" lon="6.03513">
        <ele>980.4</ele>
        <time>2022-03-10T09:53:14Z</time>
      </trkpt>
      <trkpt lat="46.6553" lon="6.0352">
        <ele>979.9</ele>
        <time>2022-03-10T09:53:18Z</time>
      </trkpt>
      <trkpt lat="46.65532" lon="6.03526">
        <ele>979.6</ele>
        <time>2022-03-10T09:53:22Z</time>
      </trkpt>
      <trkpt lat="46.65533" lon="6.03533">
        <ele>979.4</ele>
        <time>2022-03-10T09:53:26Z</time>
      </trkpt>
      <trkpt lat="46.65533" lon="6.0354">
        <ele>979</ele>
        <time>2022-03-10T09:53:31Z</time>
      </trkpt>
      <trkpt lat="46.65532" lon="6.03547">
        <ele>978.2</ele>
        <time>2022-03-10T09:53:36Z</time>
      </trkpt>
      <trkpt lat="46.65531" lon="6.03554">
        <ele>977.2</ele>
        <time>2022-03-10T09:53:41Z</time>
      </trkpt>
      <trkpt lat="46.65528" lon="6.03561">
        <ele>976.4</ele>
        <time>2022-03-10T09:53:46Z</time>
      </trkpt>
      <trkpt lat="46.65525" lon="6.03567">
        <ele>975.5</ele>
        <time>2022-03-10T09:53:51Z</time>
      </trkpt>
      <trkpt lat="46.65522" lon="6.03574">
        <ele>974.6</ele>
        <time>2022-03-10T09:53:56Z</time>
      </trkpt>
      <trkpt lat="46.65518" lon="6.0358">
        <ele>974.1</ele>
        <time>2022-03-10T09:54:00Z</time>
      </trkpt>
      <trkpt lat="46.65515" lon="6.03586">
        <ele>974</ele>
        <time>2022-03-10T09:54:04Z</time>
      </trkpt>
      <trkpt lat="46.65511" lon="6.03591">
        <ele>973.8</ele>
        <time>2022-03-10T09:54:09Z</time>
      </trkpt>
      <trkpt lat="46.65508" lon="6.03596">
        <ele>973.1</ele>
        <time>2022-03-10T09:54:14Z</time>
      </trkpt>
      <trkpt lat="46.65504" lon="6.036">
        <ele>972.4</ele>
        <time>2022-03-10T09:54:19Z</time>
      </trkpt>
      <trkpt lat="46.655" lon="6.03604">
        <ele>971.7</ele>
        <time>2022-03-10T09:54:24Z</time>
      </trkpt>
      <trkpt lat="46.65495" lon="6.03607">
        <ele>970.6</ele>
        <time>2022-03-10T09:54:29Z</time>
      </trkpt>
      <trkpt lat="46.65491" lon="6.03611">
        <ele>970</ele>
        <time>2022-03-10T09:54:33Z</time>
      </trkpt>
      <trkpt lat="46.65487" lon="6.03614">
        <ele>969.3</ele>
        <time>2022-03-10T09:54:38Z</time>
      </trkpt>
      <trkpt lat="46.65482" lon="6.03616">
        <ele>968.5</ele>
        <time>2022-03-10T09:54:43Z</time>
      </trkpt>
      <trkpt lat="46.65477" lon="6.03619">
        <ele>967.8</ele>
        <time>2022-03-10T09:54:49Z</time>
      </trkpt>
      <trkpt lat="46.65473" lon="6.03621">
        <ele>967.6</ele>
        <time>2022-03-10T09:54:55Z</time>
      </trkpt>
      <trkpt lat="46.65468" lon="6.03624">
        <ele>968.2</ele>
        <time>2022-03-10T09:54:59Z</time>
      </trkpt>
      <trkpt lat="46.65462" lon="6.03626">
        <ele>968.9</ele>
        <time>2022-03-10T09:55:05Z</time>
      </trkpt>
      <trkpt lat="46.65458" lon="6.03626">
        <ele>969.3</ele>
        <time>2022-03-10T09:55:09Z</time>
      </trkpt>
      <trkpt lat="46.65452" lon="6.03627">
        <ele>969.9</ele>
        <time>2022-03-10T09:55:14Z</time>
      </trkpt>
      <trkpt lat="46.65447" lon="6.03629">
        <ele>971.1</ele>
        <time>2022-03-10T09:55:18Z</time>
      </trkpt>
      <trkpt lat="46.65442" lon="6.0363">
        <ele>972.7</ele>
        <time>2022-03-10T09:55:23Z</time>
      </trkpt>
      <trkpt lat="46.65438" lon="6.03628">
        <ele>973.7</ele>
        <time>2022-03-10T09:55:28Z</time>
      </trkpt>
      <trkpt lat="46.65433" lon="6.03628">
        <ele>974</ele>
        <time>2022-03-10T09:55:34Z</time>
      </trkpt>
      <trkpt lat="46.65427" lon="6.0363">
        <ele>973.3</ele>
        <time>2022-03-10T09:55:40Z</time>
      </trkpt>
      <trkpt lat="46.65424" lon="6.03634">
        <ele>972.8</ele>
        <time>2022-03-10T09:55:44Z</time>
      </trkpt>
      <trkpt lat="46.6542" lon="6.03639">
        <ele>972.1</ele>
        <time>2022-03-10T09:55:49Z</time>
      </trkpt>
      <trkpt lat="46.65416" lon="6.03643">
        <ele>972</ele>
        <time>2022-03-10T09:55:54Z</time>
      </trkpt>
      <trkpt lat="46.65411" lon="6.03647">
        <ele>971.7</ele>
        <time>2022-03-10T09:55:59Z</time>
      </trkpt>
      <trkpt lat="46.65407" lon="6.0365">
        <ele>971</ele>
        <time>2022-03-10T09:56:04Z</time>
      </trkpt>
      <trkpt lat="46.65403" lon="6.03653">
        <ele>970.2</ele>
        <time>2022-03-10T09:56:09Z</time>
      </trkpt>
      <trkpt lat="46.65398" lon="6.03654">
        <ele>969.4</ele>
        <time>2022-03-10T09:56:14Z</time>
      </trkpt>
      <trkpt lat="46.65393" lon="6.03656">
        <ele>968.8</ele>
        <time>2022-03-10T09:56:19Z</time>
      </trkpt>
      <trkpt lat="46.65389" lon="6.0366">
        <ele>968.1</ele>
        <time>2022-03-10T09:56:25Z</time>
      </trkpt>
      <trkpt lat="46.65385" lon="6.03665">
        <ele>967.8</ele>
        <time>2022-03-10T09:56:29Z</time>
      </trkpt>
      <trkpt lat="46.65382" lon="6.0367">
        <ele>967.5</ele>
        <time>2022-03-10T09:56:33Z</time>
      </trkpt>
      <trkpt lat="46.65379" lon="6.03675">
        <ele>966.7</ele>
        <time>2022-03-10T09:56:38Z</time>
      </trkpt>
      <trkpt lat="46.65376" lon="6.0368">
        <ele>966</ele>
        <time>2022-03-10T09:56:43Z</time>
      </trkpt>
      <trkpt lat="46.65373" lon="6.03686">
        <ele>965.2</ele>
        <time>2022-03-10T09:56:49Z</time>
      </trkpt>
      <trkpt lat="46.65369" lon="6.03692">
        <ele>965.3</ele>
        <time>2022-03-10T09:56:55Z</time>
      </trkpt>
      <trkpt lat="46.65365" lon="6.03696">
        <ele>965.4</ele>
        <time>2022-03-10T09:57:01Z</time>
      </trkpt>
      <trkpt lat="46.65361" lon="6.037">
        <ele>965.2</ele>
        <time>2022-03-10T09:57:06Z</time>
      </trkpt>
      <trkpt lat="46.65358" lon="6.03705">
        <ele>964.5</ele>
        <time>2022-03-10T09:57:11Z</time>
      </trkpt>
      <trkpt lat="46.65354" lon="6.03709">
        <ele>963.3</ele>
        <time>2022-03-10T09:57:17Z</time>
      </trkpt>
      <trkpt lat="46.65351" lon="6.03715">
        <ele>963</ele>
        <time>2022-03-10T09:57:23Z</time>
      </trkpt>
      <trkpt lat="46.65347" lon="6.03718">
        <ele>962.4</ele>
        <time>2022-03-10T09:57:30Z</time>
      </trkpt>
      <trkpt lat="46.65342" lon="6.03722">
        <ele>962.2</ele>
        <time>2022-03-10T09:57:36Z</time>
      </trkpt>
      <trkpt lat="46.65338" lon="6.03725">
        <ele>962.1</ele>
        <time>2022-03-10T09:57:41Z</time>
      </trkpt>
      <trkpt lat="46.65334" lon="6.03729">
        <ele>961.8</ele>
        <time>2022-03-10T09:57:46Z</time>
      </trkpt>
      <trkpt lat="46.65329" lon="6.03733">
        <ele>960.9</ele>
        <time>2022-03-10T09:57:52Z</time>
      </trkpt>
      <trkpt lat="46.65325" lon="6.03736">
        <ele>959.7</ele>
        <time>2022-03-10T09:57:58Z</time>
      </trkpt>
      <trkpt lat="46.65321" lon="6.0374">
        <ele>959</ele>
        <time>2022-03-10T09:58:03Z</time>
      </trkpt>
      <trkpt lat="46.65317" lon="6.03743">
        <ele>958.1</ele>
        <time>2022-03-10T09:58:08Z</time>
      </trkpt>
      <trkpt lat="46.65312" lon="6.03747">
        <ele>957.4</ele>
        <time>2022-03-10T09:58:14Z</time>
      </trkpt>
      <trkpt lat="46.65307" lon="6.0375">
        <ele>957</ele>
        <time>2022-03-10T09:58:20Z</time>
      </trkpt>
      <trkpt lat="46.65303" lon="6.03753">
        <ele>956.9</ele>
        <time>2022-03-10T09:58:25Z</time>
      </trkpt>
      <trkpt lat="46.65298" lon="6.03757">
        <ele>956</ele>
        <time>2022-03-10T09:58:31Z</time>
      </trkpt>
      <trkpt lat="46.65294" lon="6.03761">
        <ele>955.3</ele>
        <time>2022-03-10T09:58:36Z</time>
      </trkpt>
      <trkpt lat="46.6529" lon="6.03764">
        <ele>955</ele>
        <time>2022-03-10T09:58:41Z</time>
      </trkpt>
      <trkpt lat="46.65285" lon="6.03768">
        <ele>954.7</ele>
        <time>2022-03-10T09:58:46Z</time>
      </trkpt>
      <trkpt lat="46.6528" lon="6.03772">
        <ele>954.4</ele>
        <time>2022-03-10T09:58:51Z</time>
      </trkpt>
      <trkpt lat="46.65276" lon="6.03776">
        <ele>954.1</ele>
        <time>2022-03-10T09:58:57Z</time>
      </trkpt>
      <trkpt lat="46.65272" lon="6.03779">
        <ele>953.1</ele>
        <time>2022-03-10T09:59:03Z</time>
      </trkpt>
      <trkpt lat="46.65268" lon="6.03783">
        <ele>952.5</ele>
        <time>2022-03-10T09:59:08Z</time>
      </trkpt>
      <trkpt lat="46.65263" lon="6.03786">
        <ele>951.2</ele>
        <time>2022-03-10T09:59:15Z</time>
      </trkpt>
      <trkpt lat="46.65259" lon="6.0379">
        <ele>950.1</ele>
        <time>2022-03-10T09:59:20Z</time>
      </trkpt>
      <trkpt lat="46.65255" lon="6.03793">
        <ele>949.3</ele>
        <time>2022-03-10T09:59:24Z</time>
      </trkpt>
      <trkpt lat="46.6525" lon="6.03795">
        <ele>948.4</ele>
        <time>2022-03-10T09:59:29Z</time>
      </trkpt>
      <trkpt lat="46.65246" lon="6.038">
        <ele>947.9</ele>
        <time>2022-03-10T09:59:35Z</time>
      </trkpt>
      <trkpt lat="46.65241" lon="6.03804">
        <ele>947.7</ele>
        <time>2022-03-10T09:59:40Z</time>
      </trkpt>
      <trkpt lat="46.65237" lon="6.03808">
        <ele>947.5</ele>
        <time>2022-03-10T09:59:45Z</time>
      </trkpt>
      <trkpt lat="46.65234" lon="6.03812">
        <ele>947.3</ele>
        <time>2022-03-10T09:59:50Z</time>
      </trkpt>
      <trkpt lat="46.65231" lon="6.03817">
        <ele>947.3</ele>
        <time>2022-03-10T09:59:55Z</time>
      </trkpt>
      <trkpt lat="46.65228" lon="6.03824">
        <ele>946.9</ele>
        <time>2022-03-10T10:00:01Z</time>
      </trkpt>
      <trkpt lat="46.65226" lon="6.03831">
        <ele>946.6</ele>
        <time>2022-03-10T10:00:06Z</time>
      </trkpt>
      <trkpt lat="46.65224" lon="6.03838">
        <ele>946.5</ele>
        <time>2022-03-10T10:00:11Z</time>
      </trkpt>
      <trkpt lat="46.65222" lon="6.03845">
        <ele>946.8</ele>
        <time>2022-03-10T10:00:15Z</time>
      </trkpt>
      <trkpt lat="46.6522" lon="6.03851">
        <ele>947.2</ele>
        <time>2022-03-10T10:00:18Z</time>
      </trkpt>
      <trkpt lat="46.65218" lon="6.03858">
        <ele>946.9</ele>
        <time>2022-03-10T10:00:24Z</time>
      </trkpt>
      <trkpt lat="46.65217" lon="6.03864">
        <ele>946.2</ele>
        <time>2022-03-10T10:00:29Z</time>
      </trkpt>
      <trkpt lat="46.65215" lon="6.03871">
        <ele>945.7</ele>
        <time>2022-03-10T10:00:35Z</time>
      </trkpt>
      <trkpt lat="46.65212" lon="6.03877">
        <ele>944.8</ele>
        <time>2022-03-10T10:00:41Z</time>
      </trkpt>
      <trkpt lat="46.65211" lon="6.03884">
        <ele>944.2</ele>
        <time>2022-03-10T10:00:46Z</time>
      </trkpt>
      <trkpt lat="46.6521" lon="6.03891">
        <ele>943.5</ele>
        <time>2022-03-10T10:00:52Z</time>
      </trkpt>
      <trkpt lat="46.65207" lon="6.03898">
        <ele>943.6</ele>
        <time>2022-03-10T10:00:57Z</time>
      </trkpt>
      <trkpt lat="46.65209" lon="6.03905">
        <ele>943.2</ele>
        <time>2022-03-10T10:01:02Z</time>
      </trkpt>
      <trkpt lat="46.65211" lon="6.03911">
        <ele>942.9</ele>
        <time>2022-03-10T10:01:06Z</time>
      </trkpt>
      <trkpt lat="46.65213" lon="6.03919">
        <ele>942.9</ele>
        <time>2022-03-10T10:01:11Z</time>
      </trkpt>
      <trkpt lat="46.65214" lon="6.03925">
        <ele>943.3</ele>
        <time>2022-03-10T10:01:15Z</time>
      </trkpt>
      <trkpt lat="46.65217" lon="6.03932">
        <ele>944</ele>
        <time>2022-03-10T10:01:19Z</time>
      </trkpt>
      <trkpt lat="46.6522" lon="6.03938">
        <ele>944.7</ele>
        <time>2022-03-10T10:01:23Z</time>
      </trkpt>
      <trkpt lat="46.65224" lon="6.03943">
        <ele>945.3</ele>
        <time>2022-03-10T10:01:29Z</time>
      </trkpt>
      <trkpt lat="46.65227" lon="6.03949">
        <ele>945.3</ele>
        <time>2022-03-10T10:01:35Z</time>
      </trkpt>
      <trkpt lat="46.65229" lon="6.03955">
        <ele>944.1</ele>
        <time>2022-03-10T10:01:43Z</time>
      </trkpt>
      <trkpt lat="46.65234" lon="6.03959">
        <ele>943.9</ele>
        <time>2022-03-10T10:01:52Z</time>
      </trkpt>
      <trkpt lat="46.65237" lon="6.03964">
        <ele>944.3</ele>
        <time>2022-03-10T10:01:57Z</time>
      </trkpt>
      <trkpt lat="46.65241" lon="6.03968">
        <ele>944.4</ele>
        <time>2022-03-10T10:02:02Z</time>
      </trkpt>
      <trkpt lat="46.65245" lon="6.03973">
        <ele>943.9</ele>
        <time>2022-03-10T10:02:07Z</time>
      </trkpt>
      <trkpt lat="46.65248" lon="6.0398">
        <ele>943.4</ele>
        <time>2022-03-10T10:02:12Z</time>
      </trkpt>
      <trkpt lat="46.65252" lon="6.03984">
        <ele>943.2</ele>
        <time>2022-03-10T10:02:16Z</time>
      </trkpt>
      <trkpt lat="46.65256" lon="6.03988">
        <ele>943.4</ele>
        <time>2022-03-10T10:02:20Z</time>
      </trkpt>
      <trkpt lat="46.65259" lon="6.03994">
        <ele>943.9</ele>
        <time>2022-03-10T10:02:25Z</time>
      </trkpt>
      <trkpt lat="46.65262" lon="6.04">
        <ele>944.5</ele>
        <time>2022-03-10T10:02:30Z</time>
      </trkpt>
      <trkpt lat="46.65265" lon="6.04007">
        <ele>944.6</ele>
        <time>2022-03-10T10:02:36Z</time>
      </trkpt>
      <trkpt lat="46.65268" lon="6.04011">
        <ele>944.6</ele>
        <time>2022-03-10T10:02:41Z</time>
      </trkpt>
      <trkpt lat="46.65271" lon="6.04017">
        <ele>944.7</ele>
        <time>2022-03-10T10:02:45Z</time>
      </trkpt>
      <trkpt lat="46.65273" lon="6.04022">
        <ele>944.7</ele>
        <time>2022-03-10T10:02:49Z</time>
      </trkpt>
      <trkpt lat="46.65276" lon="6.04029">
        <ele>944.5</ele>
        <time>2022-03-10T10:02:54Z</time>
      </trkpt>
      <trkpt lat="46.65279" lon="6.04035">
        <ele>944.1</ele>
        <time>2022-03-10T10:03:00Z</time>
      </trkpt>
      <trkpt lat="46.65281" lon="6.04041">
        <ele>943.2</ele>
        <time>2022-03-10T10:03:06Z</time>
      </trkpt>
      <trkpt lat="46.65285" lon="6.04047">
        <ele>942.4</ele>
        <time>2022-03-10T10:03:12Z</time>
      </trkpt>
      <trkpt lat="46.65288" lon="6.04053">
        <ele>942.3</ele>
        <time>2022-03-10T10:03:17Z</time>
      </trkpt>
      <trkpt lat="46.6529" lon="6.0406">
        <ele>942.4</ele>
        <time>2022-03-10T10:03:22Z</time>
      </trkpt>
      <trkpt lat="46.65292" lon="6.04066">
        <ele>941.8</ele>
        <time>2022-03-10T10:03:27Z</time>
      </trkpt>
      <trkpt lat="46.65296" lon="6.04071">
        <ele>941.1</ele>
        <time>2022-03-10T10:03:33Z</time>
      </trkpt>
      <trkpt lat="46.653" lon="6.04076">
        <ele>941.3</ele>
        <time>2022-03-10T10:03:38Z</time>
      </trkpt>
      <trkpt lat="46.65305" lon="6.0408">
        <ele>941.9</ele>
        <time>2022-03-10T10:03:43Z</time>
      </trkpt>
      <trkpt lat="46.6531" lon="6.04083">
        <ele>942.3</ele>
        <time>2022-03-10T10:03:48Z</time>
      </trkpt>
      <trkpt lat="46.65314" lon="6.04086">
        <ele>942.8</ele>
        <time>2022-03-10T10:03:52Z</time>
      </trkpt>
      <trkpt lat="46.65318" lon="6.0409">
        <ele>943.5</ele>
        <time>2022-03-10T10:03:56Z</time>
      </trkpt>
      <trkpt lat="46.65322" lon="6.04093">
        <ele>944.1</ele>
        <time>2022-03-10T10:04:00Z</time>
      </trkpt>
      <trkpt lat="46.65326" lon="6.04097">
        <ele>944.5</ele>
        <time>2022-03-10T10:04:05Z</time>
      </trkpt>
      <trkpt lat="46.6533" lon="6.041">
        <ele>944.7</ele>
        <time>2022-03-10T10:04:09Z</time>
      </trkpt>
      <trkpt lat="46.65335" lon="6.04103">
        <ele>945</ele>
        <time>2022-03-10T10:04:13Z</time>
      </trkpt>
      <trkpt lat="46.65338" lon="6.04108">
        <ele>945.5</ele>
        <time>2022-03-10T10:04:18Z</time>
      </trkpt>
      <trkpt lat="46.65342" lon="6.04113">
        <ele>945.4</ele>
        <time>2022-03-10T10:04:23Z</time>
      </trkpt>
      <trkpt lat="46.65346" lon="6.04117">
        <ele>945.4</ele>
        <time>2022-03-10T10:04:28Z</time>
      </trkpt>
      <trkpt lat="46.65351" lon="6.04121">
        <ele>945</ele>
        <time>2022-03-10T10:04:33Z</time>
      </trkpt>
      <trkpt lat="46.65355" lon="6.04125">
        <ele>944.9</ele>
        <time>2022-03-10T10:04:37Z</time>
      </trkpt>
      <trkpt lat="46.65359" lon="6.0413">
        <ele>944.5</ele>
        <time>2022-03-10T10:04:43Z</time>
      </trkpt>
      <trkpt lat="46.65362" lon="6.04135">
        <ele>944.5</ele>
        <time>2022-03-10T10:04:48Z</time>
      </trkpt>
      <trkpt lat="46.65364" lon="6.04142">
        <ele>945.1</ele>
        <time>2022-03-10T10:04:53Z</time>
      </trkpt>
      <trkpt lat="46.65369" lon="6.04145">
        <ele>945.9</ele>
        <time>2022-03-10T10:04:57Z</time>
      </trkpt>
      <trkpt lat="46.65374" lon="6.04148">
        <ele>946.6</ele>
        <time>2022-03-10T10:05:01Z</time>
      </trkpt>
      <trkpt lat="46.65378" lon="6.04151">
        <ele>947.2</ele>
        <time>2022-03-10T10:05:05Z</time>
      </trkpt>
      <trkpt lat="46.65381" lon="6.04157">
        <ele>948.1</ele>
        <time>2022-03-10T10:05:09Z</time>
      </trkpt>
      <trkpt lat="46.65383" lon="6.04163">
        <ele>949.4</ele>
        <time>2022-03-10T10:05:15Z</time>
      </trkpt>
      <trkpt lat="46.65384" lon="6.0417">
        <ele>950.8</ele>
        <time>2022-03-10T10:05:31Z</time>
      </trkpt>
      <trkpt lat="46.65386" lon="6.04176">
        <ele>950.4</ele>
        <time>2022-03-10T10:05:36Z</time>
      </trkpt>
      <trkpt lat="46.65389" lon="6.04181">
        <ele>950</ele>
        <time>2022-03-10T10:05:41Z</time>
      </trkpt>
      <trkpt lat="46.65391" lon="6.04188">
        <ele>950.2</ele>
        <time>2022-03-10T10:05:46Z</time>
      </trkpt>
      <trkpt lat="46.65394" lon="6.04193">
        <ele>951.4</ele>
        <time>2022-03-10T10:05:51Z</time>
      </trkpt>
      <trkpt lat="46.65397" lon="6.04198">
        <ele>952.9</ele>
        <time>2022-03-10T10:05:56Z</time>
      </trkpt>
      <trkpt lat="46.654" lon="6.04203">
        <ele>954.1</ele>
        <time>2022-03-10T10:06:01Z</time>
      </trkpt>
      <trkpt lat="46.65404" lon="6.04208">
        <ele>954.9</ele>
        <time>2022-03-10T10:06:06Z</time>
      </trkpt>
      <trkpt lat="46.65407" lon="6.04214">
        <ele>955.1</ele>
        <time>2022-03-10T10:06:11Z</time>
      </trkpt>
      <trkpt lat="46.6541" lon="6.0422">
        <ele>955.6</ele>
        <time>2022-03-10T10:06:16Z</time>
      </trkpt>
      <trkpt lat="46.65413" lon="6.04227">
        <ele>955.8</ele>
        <time>2022-03-10T10:06:21Z</time>
      </trkpt>
      <trkpt lat="46.65414" lon="6.04234">
        <ele>956</ele>
        <time>2022-03-10T10:06:26Z</time>
      </trkpt>
      <trkpt lat="46.65417" lon="6.0424">
        <ele>955.7</ele>
        <time>2022-03-10T10:06:32Z</time>
      </trkpt>
      <trkpt lat="46.65419" lon="6.04247">
        <ele>954.9</ele>
        <time>2022-03-10T10:06:38Z</time>
      </trkpt>
      <trkpt lat="46.65421" lon="6.04253">
        <ele>954.9</ele>
        <time>2022-03-10T10:06:42Z</time>
      </trkpt>
      <trkpt lat="46.65425" lon="6.04258">
        <ele>954.9</ele>
        <time>2022-03-10T10:06:46Z</time>
      </trkpt>
      <trkpt lat="46.65428" lon="6.04263">
        <ele>955.1</ele>
        <time>2022-03-10T10:06:51Z</time>
      </trkpt>
      <trkpt lat="46.65431" lon="6.04268">
        <ele>956</ele>
        <time>2022-03-10T10:06:56Z</time>
      </trkpt>
      <trkpt lat="46.65435" lon="6.04273">
        <ele>956.7</ele>
        <time>2022-03-10T10:07:02Z</time>
      </trkpt>
      <trkpt lat="46.65438" lon="6.04278">
        <ele>957</ele>
        <time>2022-03-10T10:07:06Z</time>
      </trkpt>
      <trkpt lat="46.65441" lon="6.04283">
        <ele>957.1</ele>
        <time>2022-03-10T10:07:11Z</time>
      </trkpt>
      <trkpt lat="46.65444" lon="6.04288">
        <ele>957.3</ele>
        <time>2022-03-10T10:07:16Z</time>
      </trkpt>
      <trkpt lat="46.65447" lon="6.04293">
        <ele>957.3</ele>
        <time>2022-03-10T10:07:21Z</time>
      </trkpt>
      <trkpt lat="46.6545" lon="6.04301">
        <ele>957</ele>
        <time>2022-03-10T10:07:27Z</time>
      </trkpt>
      <trkpt lat="46.65453" lon="6.04307">
        <ele>957</ele>
        <time>2022-03-10T10:07:32Z</time>
      </trkpt>
      <trkpt lat="46.65456" lon="6.04312">
        <ele>956.7</ele>
        <time>2022-03-10T10:07:37Z</time>
      </trkpt>
      <trkpt lat="46.6546" lon="6.04316">
        <ele>954.9</ele>
        <time>2022-03-10T10:07:44Z</time>
      </trkpt>
      <trkpt lat="46.65463" lon="6.04323">
        <ele>953.7</ele>
        <time>2022-03-10T10:07:50Z</time>
      </trkpt>
      <trkpt lat="46.65462" lon="6.0433">
        <ele>951.5</ele>
        <time>2022-03-10T10:09:02Z</time>
      </trkpt>
      <trkpt lat="46.65465" lon="6.04335">
        <ele>952.5</ele>
        <time>2022-03-10T10:09:10Z</time>
      </trkpt>
      <trkpt lat="46.65465" lon="6.04343">
        <ele>953.2</ele>
        <time>2022-03-10T10:09:17Z</time>
      </trkpt>
      <trkpt lat="46.65465" lon="6.04349">
        <ele>953.5</ele>
        <time>2022-03-10T10:09:22Z</time>
      </trkpt>
      <trkpt lat="46.65464" lon="6.04356">
        <ele>953.5</ele>
        <time>2022-03-10T10:09:27Z</time>
      </trkpt>
      <trkpt lat="46.65466" lon="6.04363">
        <ele>953.4</ele>
        <time>2022-03-10T10:09:32Z</time>
      </trkpt>
      <trkpt lat="46.65471" lon="6.04367">
        <ele>953.2</ele>
        <time>2022-03-10T10:09:37Z</time>
      </trkpt>
      <trkpt lat="46.65473" lon="6.04374">
        <ele>953.2</ele>
        <time>2022-03-10T10:09:42Z</time>
      </trkpt>
      <trkpt lat="46.65472" lon="6.0438">
        <ele>952.8</ele>
        <time>2022-03-10T10:09:47Z</time>
      </trkpt>
      <trkpt lat="46.65474" lon="6.04387">
        <ele>952.2</ele>
        <time>2022-03-10T10:09:52Z</time>
      </trkpt>
      <trkpt lat="46.65475" lon="6.04394">
        <ele>951.4</ele>
        <time>2022-03-10T10:09:57Z</time>
      </trkpt>
      <trkpt lat="46.65477" lon="6.04402">
        <ele>950.6</ele>
        <time>2022-03-10T10:10:02Z</time>
      </trkpt>
      <trkpt lat="46.65476" lon="6.04409">
        <ele>950.3</ele>
        <time>2022-03-10T10:10:08Z</time>
      </trkpt>
      <trkpt lat="46.65475" lon="6.04416">
        <ele>950.2</ele>
        <time>2022-03-10T10:10:15Z</time>
      </trkpt>
      <trkpt lat="46.65475" lon="6.04422">
        <ele>950</ele>
        <time>2022-03-10T10:10:20Z</time>
      </trkpt>
      <trkpt lat="46.65477" lon="6.0443">
        <ele>949.7</ele>
        <time>2022-03-10T10:10:25Z</time>
      </trkpt>
      <trkpt lat="46.65479" lon="6.04437">
        <ele>949.6</ele>
        <time>2022-03-10T10:10:30Z</time>
      </trkpt>
      <trkpt lat="46.6548" lon="6.04444">
        <ele>949.5</ele>
        <time>2022-03-10T10:10:35Z</time>
      </trkpt>
      <trkpt lat="46.6548" lon="6.04451">
        <ele>948.9</ele>
        <time>2022-03-10T10:10:40Z</time>
      </trkpt>
      <trkpt lat="46.6548" lon="6.04458">
        <ele>947.9</ele>
        <time>2022-03-10T10:10:45Z</time>
      </trkpt>
      <trkpt lat="46.65477" lon="6.04462">
        <ele>947.8</ele>
        <time>2022-03-10T10:10:52Z</time>
      </trkpt>
      <trkpt lat="46.65472" lon="6.04463">
        <ele>948.9</ele>
        <time>2022-03-10T10:11:00Z</time>
      </trkpt>
      <trkpt lat="46.65467" lon="6.04465">
        <ele>950.1</ele>
        <time>2022-03-10T10:11:09Z</time>
      </trkpt>
      <trkpt lat="46.65462" lon="6.04468">
        <ele>950.4</ele>
        <time>2022-03-10T10:11:15Z</time>
      </trkpt>
      <trkpt lat="46.65458" lon="6.04472">
        <ele>950.6</ele>
        <time>2022-03-10T10:11:21Z</time>
      </trkpt>
      <trkpt lat="46.65454" lon="6.04476">
        <ele>950.9</ele>
        <time>2022-03-10T10:11:27Z</time>
      </trkpt>
      <trkpt lat="46.65451" lon="6.0448">
        <ele>951.1</ele>
        <time>2022-03-10T10:11:34Z</time>
      </trkpt>
      <trkpt lat="46.65447" lon="6.04485">
        <ele>951.6</ele>
        <time>2022-03-10T10:11:41Z</time>
      </trkpt>
      <trkpt lat="46.65444" lon="6.04489">
        <ele>952.1</ele>
        <time>2022-03-10T10:11:47Z</time>
      </trkpt>
      <trkpt lat="46.65439" lon="6.04493">
        <ele>952.1</ele>
        <time>2022-03-10T10:11:52Z</time>
      </trkpt>
      <trkpt lat="46.65436" lon="6.04498">
        <ele>951.8</ele>
        <time>2022-03-10T10:11:58Z</time>
      </trkpt>
      <trkpt lat="46.65433" lon="6.04503">
        <ele>951.5</ele>
        <time>2022-03-10T10:12:03Z</time>
      </trkpt>
      <trkpt lat="46.65431" lon="6.04509">
        <ele>951</ele>
        <time>2022-03-10T10:12:08Z</time>
      </trkpt>
      <trkpt lat="46.65432" lon="6.04516">
        <ele>950.8</ele>
        <time>2022-03-10T10:12:14Z</time>
      </trkpt>
      <trkpt lat="46.65435" lon="6.04522">
        <ele>951</ele>
        <time>2022-03-10T10:12:21Z</time>
      </trkpt>
      <trkpt lat="46.65438" lon="6.04527">
        <ele>951.3</ele>
        <time>2022-03-10T10:12:27Z</time>
      </trkpt>
      <trkpt lat="46.65442" lon="6.04532">
        <ele>951.7</ele>
        <time>2022-03-10T10:12:32Z</time>
      </trkpt>
      <trkpt lat="46.65444" lon="6.04538">
        <ele>952.3</ele>
        <time>2022-03-10T10:12:37Z</time>
      </trkpt>
      <trkpt lat="46.65446" lon="6.04545">
        <ele>952.3</ele>
        <time>2022-03-10T10:12:43Z</time>
      </trkpt>
      <trkpt lat="46.65449" lon="6.04551">
        <ele>952</ele>
        <time>2022-03-10T10:12:48Z</time>
      </trkpt>
      <trkpt lat="46.65452" lon="6.04555">
        <ele>952</ele>
        <time>2022-03-10T10:12:53Z</time>
      </trkpt>
      <trkpt lat="46.65455" lon="6.0456">
        <ele>951.6</ele>
        <time>2022-03-10T10:12:59Z</time>
      </trkpt>
      <trkpt lat="46.65457" lon="6.04567">
        <ele>950.9</ele>
        <time>2022-03-10T10:13:04Z</time>
      </trkpt>
      <trkpt lat="46.6546" lon="6.04573">
        <ele>950.2</ele>
        <time>2022-03-10T10:13:09Z</time>
      </trkpt>
      <trkpt lat="46.65463" lon="6.04578">
        <ele>949.2</ele>
        <time>2022-03-10T10:13:15Z</time>
      </trkpt>
      <trkpt lat="46.65465" lon="6.04586">
        <ele>948.3</ele>
        <time>2022-03-10T10:13:21Z</time>
      </trkpt>
      <trkpt lat="46.65467" lon="6.04592">
        <ele>947.7</ele>
        <time>2022-03-10T10:13:26Z</time>
      </trkpt>
      <trkpt lat="46.65471" lon="6.04597">
        <ele>947.4</ele>
        <time>2022-03-10T10:13:31Z</time>
      </trkpt>
      <trkpt lat="46.65473" lon="6.04603">
        <ele>947.1</ele>
        <time>2022-03-10T10:13:38Z</time>
      </trkpt>
      <trkpt lat="46.65472" lon="6.04611">
        <ele>946.8</ele>
        <time>2022-03-10T10:13:45Z</time>
      </trkpt>
      <trkpt lat="46.65472" lon="6.04617">
        <ele>946.3</ele>
        <time>2022-03-10T10:13:50Z</time>
      </trkpt>
      <trkpt lat="46.65473" lon="6.04625">
        <ele>945.8</ele>
        <time>2022-03-10T10:13:55Z</time>
      </trkpt>
      <trkpt lat="46.65474" lon="6.04632">
        <ele>945.4</ele>
        <time>2022-03-10T10:14:03Z</time>
      </trkpt>
      <trkpt lat="46.65473" lon="6.04639">
        <ele>945.1</ele>
        <time>2022-03-10T10:14:08Z</time>
      </trkpt>
      <trkpt lat="46.65469" lon="6.04645">
        <ele>944.3</ele>
        <time>2022-03-10T10:14:15Z</time>
      </trkpt>
      <trkpt lat="46.65467" lon="6.04651">
        <ele>943.3</ele>
        <time>2022-03-10T10:14:21Z</time>
      </trkpt>
      <trkpt lat="46.65463" lon="6.04656">
        <ele>942.2</ele>
        <time>2022-03-10T10:14:27Z</time>
      </trkpt>
      <trkpt lat="46.65459" lon="6.04661">
        <ele>941.1</ele>
        <time>2022-03-10T10:14:33Z</time>
      </trkpt>
      <trkpt lat="46.65454" lon="6.04664">
        <ele>940.2</ele>
        <time>2022-03-10T10:14:38Z</time>
      </trkpt>
      <trkpt lat="46.65451" lon="6.0467">
        <ele>939</ele>
        <time>2022-03-10T10:14:45Z</time>
      </trkpt>
      <trkpt lat="46.65448" lon="6.04676">
        <ele>938</ele>
        <time>2022-03-10T10:14:51Z</time>
      </trkpt>
      <trkpt lat="46.65445" lon="6.04681">
        <ele>937.5</ele>
        <time>2022-03-10T10:14:56Z</time>
      </trkpt>
      <trkpt lat="46.65443" lon="6.04689">
        <ele>937.4</ele>
        <time>2022-03-10T10:15:00Z</time>
      </trkpt>
      <trkpt lat="46.65443" lon="6.04696">
        <ele>937.5</ele>
        <time>2022-03-10T10:15:04Z</time>
      </trkpt>
      <trkpt lat="46.65444" lon="6.04703">
        <ele>937.6</ele>
        <time>2022-03-10T10:15:08Z</time>
      </trkpt>
      <trkpt lat="46.65443" lon="6.0471">
        <ele>937.5</ele>
        <time>2022-03-10T10:15:12Z</time>
      </trkpt>
      <trkpt lat="46.65443" lon="6.04716">
        <ele>937.2</ele>
        <time>2022-03-10T10:15:16Z</time>
      </trkpt>
      <trkpt lat="46.65446" lon="6.04722">
        <ele>937.3</ele>
        <time>2022-03-10T10:15:21Z</time>
      </trkpt>
      <trkpt lat="46.6545" lon="6.04727">
        <ele>937.8</ele>
        <time>2022-03-10T10:15:26Z</time>
      </trkpt>
      <trkpt lat="46.65452" lon="6.04734">
        <ele>938.4</ele>
        <time>2022-03-10T10:15:32Z</time>
      </trkpt>
      <trkpt lat="46.65452" lon="6.04741">
        <ele>938.6</ele>
        <time>2022-03-10T10:15:37Z</time>
      </trkpt>
      <trkpt lat="46.65452" lon="6.04749">
        <ele>938.6</ele>
        <time>2022-03-10T10:15:43Z</time>
      </trkpt>
      <trkpt lat="46.65452" lon="6.04756">
        <ele>938.7</ele>
        <time>2022-03-10T10:15:48Z</time>
      </trkpt>
      <trkpt lat="46.65451" lon="6.04764">
        <ele>938.6</ele>
        <time>2022-03-10T10:15:53Z</time>
      </trkpt>
      <trkpt lat="46.6545" lon="6.04771">
        <ele>938.7</ele>
        <time>2022-03-10T10:15:57Z</time>
      </trkpt>
      <trkpt lat="46.6545" lon="6.04779">
        <ele>938.6</ele>
        <time>2022-03-10T10:16:02Z</time>
      </trkpt>
      <trkpt lat="46.65451" lon="6.04785">
        <ele>938.7</ele>
        <time>2022-03-10T10:16:07Z</time>
      </trkpt>
      <trkpt lat="46.65452" lon="6.04792">
        <ele>939.1</ele>
        <time>2022-03-10T10:16:12Z</time>
      </trkpt>
      <trkpt lat="46.65454" lon="6.04798">
        <ele>939.8</ele>
        <time>2022-03-10T10:16:17Z</time>
      </trkpt>
      <trkpt lat="46.65457" lon="6.04804">
        <ele>940.1</ele>
        <time>2022-03-10T10:16:22Z</time>
      </trkpt>
      <trkpt lat="46.65459" lon="6.0481">
        <ele>940.3</ele>
        <time>2022-03-10T10:16:29Z</time>
      </trkpt>
      <trkpt lat="46.65461" lon="6.04816">
        <ele>940.8</ele>
        <time>2022-03-10T10:16:34Z</time>
      </trkpt>
      <trkpt lat="46.65463" lon="6.04823">
        <ele>941.5</ele>
        <time>2022-03-10T10:16:39Z</time>
      </trkpt>
      <trkpt lat="46.65466" lon="6.0483">
        <ele>942.6</ele>
        <time>2022-03-10T10:16:45Z</time>
      </trkpt>
      <trkpt lat="46.65469" lon="6.04835">
        <ele>943.4</ele>
        <time>2022-03-10T10:16:50Z</time>
      </trkpt>
      <trkpt lat="46.65471" lon="6.04841">
        <ele>944.3</ele>
        <time>2022-03-10T10:16:56Z</time>
      </trkpt>
      <trkpt lat="46.65473" lon="6.04848">
        <ele>944.6</ele>
        <time>2022-03-10T10:17:03Z</time>
      </trkpt>
      <trkpt lat="46.65473" lon="6.04855">
        <ele>944.6</ele>
        <time>2022-03-10T10:17:09Z</time>
      </trkpt>
      <trkpt lat="46.65475" lon="6.04861">
        <ele>944.2</ele>
        <time>2022-03-10T10:17:15Z</time>
      </trkpt>
      <trkpt lat="46.65477" lon="6.04868">
        <ele>943.2</ele>
        <time>2022-03-10T10:17:22Z</time>
      </trkpt>
      <trkpt lat="46.65478" lon="6.04876">
        <ele>942.9</ele>
        <time>2022-03-10T10:17:27Z</time>
      </trkpt>
      <trkpt lat="46.6548" lon="6.04883">
        <ele>942.9</ele>
        <time>2022-03-10T10:17:32Z</time>
      </trkpt>
      <trkpt lat="46.65482" lon="6.0489">
        <ele>942.6</ele>
        <time>2022-03-10T10:17:37Z</time>
      </trkpt>
      <trkpt lat="46.65485" lon="6.04895">
        <ele>942.4</ele>
        <time>2022-03-10T10:17:42Z</time>
      </trkpt>
      <trkpt lat="46.65487" lon="6.04902">
        <ele>942.1</ele>
        <time>2022-03-10T10:17:47Z</time>
      </trkpt>
      <trkpt lat="46.6549" lon="6.04908">
        <ele>941.6</ele>
        <time>2022-03-10T10:17:52Z</time>
      </trkpt>
      <trkpt lat="46.65494" lon="6.04913">
        <ele>941.6</ele>
        <time>2022-03-10T10:17:57Z</time>
      </trkpt>
      <trkpt lat="46.65497" lon="6.0492">
        <ele>941.8</ele>
        <time>2022-03-10T10:18:03Z</time>
      </trkpt>
      <trkpt lat="46.65501" lon="6.04925">
        <ele>942.2</ele>
        <time>2022-03-10T10:18:09Z</time>
      </trkpt>
      <trkpt lat="46.65505" lon="6.0493">
        <ele>942.3</ele>
        <time>2022-03-10T10:18:15Z</time>
      </trkpt>
      <trkpt lat="46.65509" lon="6.04935">
        <ele>942.3</ele>
        <time>2022-03-10T10:18:19Z</time>
      </trkpt>
      <trkpt lat="46.65512" lon="6.0494">
        <ele>942</ele>
        <time>2022-03-10T10:18:24Z</time>
      </trkpt>
      <trkpt lat="46.65517" lon="6.04943">
        <ele>940.8</ele>
        <time>2022-03-10T10:18:33Z</time>
      </trkpt>
      <trkpt lat="46.6552" lon="6.04947">
        <ele>940.2</ele>
        <time>2022-03-10T10:18:38Z</time>
      </trkpt>
      <trkpt lat="46.65524" lon="6.04952">
        <ele>940.2</ele>
        <time>2022-03-10T10:18:44Z</time>
      </trkpt>
      <trkpt lat="46.65527" lon="6.04958">
        <ele>940.1</ele>
        <time>2022-03-10T10:18:49Z</time>
      </trkpt>
      <trkpt lat="46.65529" lon="6.04965">
        <ele>940.6</ele>
        <time>2022-03-10T10:18:54Z</time>
      </trkpt>
      <trkpt lat="46.65531" lon="6.04971">
        <ele>941.4</ele>
        <time>2022-03-10T10:18:59Z</time>
      </trkpt>
      <trkpt lat="46.65534" lon="6.04978">
        <ele>941.5</ele>
        <time>2022-03-10T10:19:05Z</time>
      </trkpt>
      <trkpt lat="46.65535" lon="6.04985">
        <ele>941.3</ele>
        <time>2022-03-10T10:19:11Z</time>
      </trkpt>
      <trkpt lat="46.65535" lon="6.04992">
        <ele>941</ele>
        <time>2022-03-10T10:19:16Z</time>
      </trkpt>
      <trkpt lat="46.65534" lon="6.04999">
        <ele>940.9</ele>
        <time>2022-03-10T10:19:21Z</time>
      </trkpt>
      <trkpt lat="46.65534" lon="6.05006">
        <ele>940.5</ele>
        <time>2022-03-10T10:19:26Z</time>
      </trkpt>
      <trkpt lat="46.65534" lon="6.05013">
        <ele>940.4</ele>
        <time>2022-03-10T10:19:31Z</time>
      </trkpt>
      <trkpt lat="46.65533" lon="6.05019">
        <ele>940.2</ele>
        <time>2022-03-10T10:19:35Z</time>
      </trkpt>
      <trkpt lat="46.65533" lon="6.05026">
        <ele>939.9</ele>
        <time>2022-03-10T10:19:40Z</time>
      </trkpt>
      <trkpt lat="46.65534" lon="6.05033">
        <ele>939.5</ele>
        <time>2022-03-10T10:19:46Z</time>
      </trkpt>
      <trkpt lat="46.65535" lon="6.05041">
        <ele>939.4</ele>
        <time>2022-03-10T10:19:53Z</time>
      </trkpt>
      <trkpt lat="46.65534" lon="6.05047">
        <ele>939.5</ele>
        <time>2022-03-10T10:19:58Z</time>
      </trkpt>
      <trkpt lat="46.65535" lon="6.05055">
        <ele>939.2</ele>
        <time>2022-03-10T10:20:03Z</time>
      </trkpt>
      <trkpt lat="46.65535" lon="6.05062">
        <ele>938.5</ele>
        <time>2022-03-10T10:20:10Z</time>
      </trkpt>
      <trkpt lat="46.65536" lon="6.0507">
        <ele>937.8</ele>
        <time>2022-03-10T10:20:16Z</time>
      </trkpt>
      <trkpt lat="46.65536" lon="6.05076">
        <ele>937.3</ele>
        <time>2022-03-10T10:20:20Z</time>
      </trkpt>
      <trkpt lat="46.65536" lon="6.05084">
        <ele>936.7</ele>
        <time>2022-03-10T10:20:24Z</time>
      </trkpt>
      <trkpt lat="46.65537" lon="6.05091">
        <ele>936.4</ele>
        <time>2022-03-10T10:20:28Z</time>
      </trkpt>
      <trkpt lat="46.65538" lon="6.05098">
        <ele>936.3</ele>
        <time>2022-03-10T10:20:32Z</time>
      </trkpt>
      <trkpt lat="46.65538" lon="6.05104">
        <ele>936.2</ele>
        <time>2022-03-10T10:20:36Z</time>
      </trkpt>
      <trkpt lat="46.65538" lon="6.05112">
        <ele>935.9</ele>
        <time>2022-03-10T10:20:41Z</time>
      </trkpt>
      <trkpt lat="46.6554" lon="6.05119">
        <ele>935.9</ele>
        <time>2022-03-10T10:20:47Z</time>
      </trkpt>
      <trkpt lat="46.65541" lon="6.05126">
        <ele>935.1</ele>
        <time>2022-03-10T10:21:14Z</time>
      </trkpt>
      <trkpt lat="46.6554" lon="6.05133">
        <ele>934.6</ele>
        <time>2022-03-10T10:21:20Z</time>
      </trkpt>
      <trkpt lat="46.65538" lon="6.05141">
        <ele>934.2</ele>
        <time>2022-03-10T10:21:24Z</time>
      </trkpt>
      <trkpt lat="46.65537" lon="6.05148">
        <ele>933.8</ele>
        <time>2022-03-10T10:21:28Z</time>
      </trkpt>
      <trkpt lat="46.65537" lon="6.05156">
        <ele>933.4</ele>
        <time>2022-03-10T10:21:32Z</time>
      </trkpt>
      <trkpt lat="46.65537" lon="6.05162">
        <ele>932.7</ele>
        <time>2022-03-10T10:21:36Z</time>
      </trkpt>
      <trkpt lat="46.65539" lon="6.05169">
        <ele>931.8</ele>
        <time>2022-03-10T10:21:41Z</time>
      </trkpt>
      <trkpt lat="46.65539" lon="6.05177">
        <ele>931.1</ele>
        <time>2022-03-10T10:21:46Z</time>
      </trkpt>
      <trkpt lat="46.6554" lon="6.05184">
        <ele>931</ele>
        <time>2022-03-10T10:21:51Z</time>
      </trkpt>
      <trkpt lat="46.6554" lon="6.05192">
        <ele>931.3</ele>
        <time>2022-03-10T10:21:56Z</time>
      </trkpt>
      <trkpt lat="46.65541" lon="6.05198">
        <ele>931</ele>
        <time>2022-03-10T10:22:01Z</time>
      </trkpt>
      <trkpt lat="46.65542" lon="6.05206">
        <ele>930.7</ele>
        <time>2022-03-10T10:22:06Z</time>
      </trkpt>
      <trkpt lat="46.65543" lon="6.05213">
        <ele>931.3</ele>
        <time>2022-03-10T10:22:12Z</time>
      </trkpt>
      <trkpt lat="46.65544" lon="6.0522">
        <ele>931.9</ele>
        <time>2022-03-10T10:22:17Z</time>
      </trkpt>
      <trkpt lat="46.65545" lon="6.05226">
        <ele>932.3</ele>
        <time>2022-03-10T10:22:22Z</time>
      </trkpt>
      <trkpt lat="46.65547" lon="6.05233">
        <ele>932.5</ele>
        <time>2022-03-10T10:22:28Z</time>
      </trkpt>
      <trkpt lat="46.65548" lon="6.0524">
        <ele>932.7</ele>
        <time>2022-03-10T10:22:34Z</time>
      </trkpt>
      <trkpt lat="46.65551" lon="6.05247">
        <ele>932.6</ele>
        <time>2022-03-10T10:22:39Z</time>
      </trkpt>
      <trkpt lat="46.65553" lon="6.05252">
        <ele>932.5</ele>
        <time>2022-03-10T10:22:44Z</time>
      </trkpt>
      <trkpt lat="46.65557" lon="6.05258">
        <ele>932.3</ele>
        <time>2022-03-10T10:22:50Z</time>
      </trkpt>
      <trkpt lat="46.65558" lon="6.05264">
        <ele>932.6</ele>
        <time>2022-03-10T10:22:56Z</time>
      </trkpt>
      <trkpt lat="46.6556" lon="6.05271">
        <ele>932.5</ele>
        <time>2022-03-10T10:23:01Z</time>
      </trkpt>
      <trkpt lat="46.65561" lon="6.05278">
        <ele>932.7</ele>
        <time>2022-03-10T10:23:06Z</time>
      </trkpt>
      <trkpt lat="46.65564" lon="6.05284">
        <ele>932.5</ele>
        <time>2022-03-10T10:23:12Z</time>
      </trkpt>
      <trkpt lat="46.65568" lon="6.05289">
        <ele>931.9</ele>
        <time>2022-03-10T10:23:19Z</time>
      </trkpt>
      <trkpt lat="46.65571" lon="6.05294">
        <ele>931.4</ele>
        <time>2022-03-10T10:23:25Z</time>
      </trkpt>
      <trkpt lat="46.65574" lon="6.053">
        <ele>931.3</ele>
        <time>2022-03-10T10:23:32Z</time>
      </trkpt>
      <trkpt lat="46.65578" lon="6.05304">
        <ele>930.4</ele>
        <time>2022-03-10T10:23:38Z</time>
      </trkpt>
      <trkpt lat="46.65583" lon="6.05308">
        <ele>929.5</ele>
        <time>2022-03-10T10:23:44Z</time>
      </trkpt>
      <trkpt lat="46.65587" lon="6.05312">
        <ele>928.4</ele>
        <time>2022-03-10T10:23:50Z</time>
      </trkpt>
      <trkpt lat="46.6559" lon="6.05317">
        <ele>928.1</ele>
        <time>2022-03-10T10:23:59Z</time>
      </trkpt>
      <trkpt lat="46.65592" lon="6.05325">
        <ele>926.6</ele>
        <time>2022-03-10T10:24:50Z</time>
      </trkpt>
      <trkpt lat="46.65591" lon="6.05331">
        <ele>925.6</ele>
        <time>2022-03-10T10:24:53Z</time>
      </trkpt>
      <trkpt lat="46.6559" lon="6.05339">
        <ele>923.9</ele>
        <time>2022-03-10T10:24:59Z</time>
      </trkpt>
      <trkpt lat="46.6559" lon="6.05346">
        <ele>922.8</ele>
        <time>2022-03-10T10:25:05Z</time>
      </trkpt>
      <trkpt lat="46.65589" lon="6.05353">
        <ele>921.8</ele>
        <time>2022-03-10T10:25:10Z</time>
      </trkpt>
      <trkpt lat="46.65589" lon="6.0536">
        <ele>921.2</ele>
        <time>2022-03-10T10:25:14Z</time>
      </trkpt>
      <trkpt lat="46.65589" lon="6.05366">
        <ele>920.7</ele>
        <time>2022-03-10T10:25:18Z</time>
      </trkpt>
      <trkpt lat="46.65589" lon="6.05373">
        <ele>920.4</ele>
        <time>2022-03-10T10:25:24Z</time>
      </trkpt>
      <trkpt lat="46.65591" lon="6.0538">
        <ele>919.8</ele>
        <time>2022-03-10T10:25:30Z</time>
      </trkpt>
      <trkpt lat="46.65594" lon="6.05386">
        <ele>919.3</ele>
        <time>2022-03-10T10:25:36Z</time>
      </trkpt>
      <trkpt lat="46.65596" lon="6.05393">
        <ele>919</ele>
        <time>2022-03-10T10:25:42Z</time>
      </trkpt>
      <trkpt lat="46.65597" lon="6.05401">
        <ele>918.9</ele>
        <time>2022-03-10T10:25:47Z</time>
      </trkpt>
      <trkpt lat="46.65598" lon="6.05407">
        <ele>918.8</ele>
        <time>2022-03-10T10:25:51Z</time>
      </trkpt>
      <trkpt lat="46.65599" lon="6.05414">
        <ele>918.9</ele>
        <time>2022-03-10T10:25:55Z</time>
      </trkpt>
      <trkpt lat="46.65601" lon="6.0542">
        <ele>918.4</ele>
        <time>2022-03-10T10:26:03Z</time>
      </trkpt>
      <trkpt lat="46.65602" lon="6.05427">
        <ele>918.3</ele>
        <time>2022-03-10T10:26:09Z</time>
      </trkpt>
      <trkpt lat="46.65605" lon="6.05433">
        <ele>918.5</ele>
        <time>2022-03-10T10:26:15Z</time>
      </trkpt>
      <trkpt lat="46.65608" lon="6.0544">
        <ele>918.5</ele>
        <time>2022-03-10T10:26:21Z</time>
      </trkpt>
      <trkpt lat="46.65611" lon="6.05445">
        <ele>918.3</ele>
        <time>2022-03-10T10:26:27Z</time>
      </trkpt>
      <trkpt lat="46.65615" lon="6.05449">
        <ele>918</ele>
        <time>2022-03-10T10:26:32Z</time>
      </trkpt>
      <trkpt lat="46.65618" lon="6.05455">
        <ele>917.5</ele>
        <time>2022-03-10T10:26:37Z</time>
      </trkpt>
      <trkpt lat="46.65622" lon="6.05459">
        <ele>916.4</ele>
        <time>2022-03-10T10:26:43Z</time>
      </trkpt>
      <trkpt lat="46.65627" lon="6.0546">
        <ele>916</ele>
        <time>2022-03-10T10:26:48Z</time>
      </trkpt>
      <trkpt lat="46.65628" lon="6.05467">
        <ele>914.9</ele>
        <time>2022-03-10T10:26:58Z</time>
      </trkpt>
      <trkpt lat="46.65625" lon="6.05474">
        <ele>914.1</ele>
        <time>2022-03-10T10:27:03Z</time>
      </trkpt>
      <trkpt lat="46.65623" lon="6.0548">
        <ele>913.6</ele>
        <time>2022-03-10T10:27:07Z</time>
      </trkpt>
      <trkpt lat="46.65621" lon="6.05487">
        <ele>913.2</ele>
        <time>2022-03-10T10:27:12Z</time>
      </trkpt>
      <trkpt lat="46.6562" lon="6.05494">
        <ele>913</ele>
        <time>2022-03-10T10:27:16Z</time>
      </trkpt>
      <trkpt lat="46.65618" lon="6.05502">
        <ele>912.8</ele>
        <time>2022-03-10T10:27:21Z</time>
      </trkpt>
      <trkpt lat="46.65616" lon="6.05508">
        <ele>912.3</ele>
        <time>2022-03-10T10:27:27Z</time>
      </trkpt>
      <trkpt lat="46.65612" lon="6.05513">
        <ele>911.5</ele>
        <time>2022-03-10T10:27:34Z</time>
      </trkpt>
      <trkpt lat="46.65609" lon="6.05519">
        <ele>910.8</ele>
        <time>2022-03-10T10:27:41Z</time>
      </trkpt>
      <trkpt lat="46.65606" lon="6.05524">
        <ele>910</ele>
        <time>2022-03-10T10:27:46Z</time>
      </trkpt>
      <trkpt lat="46.65603" lon="6.05529">
        <ele>909</ele>
        <time>2022-03-10T10:27:51Z</time>
      </trkpt>
      <trkpt lat="46.656" lon="6.05534">
        <ele>907.9</ele>
        <time>2022-03-10T10:27:56Z</time>
      </trkpt>
      <trkpt lat="46.65597" lon="6.05539">
        <ele>906.4</ele>
        <time>2022-03-10T10:28:01Z</time>
      </trkpt>
      <trkpt lat="46.65596" lon="6.05546">
        <ele>905.1</ele>
        <time>2022-03-10T10:28:06Z</time>
      </trkpt>
      <trkpt lat="46.65594" lon="6.05553">
        <ele>904.1</ele>
        <time>2022-03-10T10:28:11Z</time>
      </trkpt>
      <trkpt lat="46.65592" lon="6.0556">
        <ele>903.5</ele>
        <time>2022-03-10T10:28:17Z</time>
      </trkpt>
      <trkpt lat="46.65589" lon="6.05568">
        <ele>903.1</ele>
        <time>2022-03-10T10:28:22Z</time>
      </trkpt>
      <trkpt lat="46.65587" lon="6.05574">
        <ele>902.7</ele>
        <time>2022-03-10T10:28:27Z</time>
      </trkpt>
      <trkpt lat="46.65586" lon="6.05581">
        <ele>902.5</ele>
        <time>2022-03-10T10:28:32Z</time>
      </trkpt>
      <trkpt lat="46.65583" lon="6.05587">
        <ele>902.8</ele>
        <time>2022-03-10T10:28:37Z</time>
      </trkpt>
      <trkpt lat="46.65581" lon="6.05594">
        <ele>903</ele>
        <time>2022-03-10T10:28:42Z</time>
      </trkpt>
      <trkpt lat="46.65577" lon="6.05598">
        <ele>901.8</ele>
        <time>2022-03-10T10:28:48Z</time>
      </trkpt>
      <trkpt lat="46.65573" lon="6.056">
        <ele>900</ele>
        <time>2022-03-10T10:28:53Z</time>
      </trkpt>
      <trkpt lat="46.65568" lon="6.05604">
        <ele>898.3</ele>
        <time>2022-03-10T10:28:58Z</time>
      </trkpt>
      <trkpt lat="46.65565" lon="6.05608">
        <ele>897</ele>
        <time>2022-03-10T10:29:02Z</time>
      </trkpt>
      <trkpt lat="46.65561" lon="6.05613">
        <ele>895.7</ele>
        <time>2022-03-10T10:29:07Z</time>
      </trkpt>
      <trkpt lat="46.65557" lon="6.05617">
        <ele>894.7</ele>
        <time>2022-03-10T10:29:12Z</time>
      </trkpt>
      <trkpt lat="46.65553" lon="6.05621">
        <ele>893.9</ele>
        <time>2022-03-10T10:29:17Z</time>
      </trkpt>
      <trkpt lat="46.65549" lon="6.05626">
        <ele>893.3</ele>
        <time>2022-03-10T10:29:23Z</time>
      </trkpt>
      <trkpt lat="46.65546" lon="6.05631">
        <ele>893.7</ele>
        <time>2022-03-10T10:29:28Z</time>
      </trkpt>
      <trkpt lat="46.65543" lon="6.05636">
        <ele>894.5</ele>
        <time>2022-03-10T10:29:33Z</time>
      </trkpt>
      <trkpt lat="46.65538" lon="6.05638">
        <ele>895.1</ele>
        <time>2022-03-10T10:29:38Z</time>
      </trkpt>
      <trkpt lat="46.65533" lon="6.05642">
        <ele>895.8</ele>
        <time>2022-03-10T10:29:43Z</time>
      </trkpt>
      <trkpt lat="46.65529" lon="6.05644">
        <ele>896.2</ele>
        <time>2022-03-10T10:29:47Z</time>
      </trkpt>
      <trkpt lat="46.65524" lon="6.05647">
        <ele>896.3</ele>
        <time>2022-03-10T10:29:52Z</time>
      </trkpt>
      <trkpt lat="46.6552" lon="6.05652">
        <ele>896.6</ele>
        <time>2022-03-10T10:29:56Z</time>
      </trkpt>
      <trkpt lat="46.65516" lon="6.05656">
        <ele>897</ele>
        <time>2022-03-10T10:30:02Z</time>
      </trkpt>
      <trkpt lat="46.65512" lon="6.0566">
        <ele>896.9</ele>
        <time>2022-03-10T10:30:09Z</time>
      </trkpt>
      <trkpt lat="46.65508" lon="6.05663">
        <ele>896.8</ele>
        <time>2022-03-10T10:30:14Z</time>
      </trkpt>
      <trkpt lat="46.65504" lon="6.05667">
        <ele>896.7</ele>
        <time>2022-03-10T10:30:19Z</time>
      </trkpt>
      <trkpt lat="46.655" lon="6.0567">
        <ele>896.2</ele>
        <time>2022-03-10T10:30:24Z</time>
      </trkpt>
      <trkpt lat="46.65495" lon="6.05673">
        <ele>894.8</ele>
        <time>2022-03-10T10:30:30Z</time>
      </trkpt>
      <trkpt lat="46.6549" lon="6.05676">
        <ele>893.5</ele>
        <time>2022-03-10T10:30:35Z</time>
      </trkpt>
      <trkpt lat="46.65486" lon="6.05679">
        <ele>892.5</ele>
        <time>2022-03-10T10:30:40Z</time>
      </trkpt>
      <trkpt lat="46.65482" lon="6.05682">
        <ele>891.9</ele>
        <time>2022-03-10T10:30:44Z</time>
      </trkpt>
      <trkpt lat="46.65477" lon="6.05686">
        <ele>891.5</ele>
        <time>2022-03-10T10:30:49Z</time>
      </trkpt>
      <trkpt lat="46.65474" lon="6.05691">
        <ele>891.5</ele>
        <time>2022-03-10T10:30:53Z</time>
      </trkpt>
      <trkpt lat="46.65469" lon="6.05696">
        <ele>891.8</ele>
        <time>2022-03-10T10:30:57Z</time>
      </trkpt>
      <trkpt lat="46.65466" lon="6.057">
        <ele>892.5</ele>
        <time>2022-03-10T10:31:01Z</time>
      </trkpt>
      <trkpt lat="46.65461" lon="6.05704">
        <ele>893.5</ele>
        <time>2022-03-10T10:31:05Z</time>
      </trkpt>
      <trkpt lat="46.65457" lon="6.05708">
        <ele>894.2</ele>
        <time>2022-03-10T10:31:11Z</time>
      </trkpt>
      <trkpt lat="46.65452" lon="6.05709">
        <ele>893.9</ele>
        <time>2022-03-10T10:31:16Z</time>
      </trkpt>
      <trkpt lat="46.65447" lon="6.05711">
        <ele>893.2</ele>
        <time>2022-03-10T10:31:20Z</time>
      </trkpt>
      <trkpt lat="46.65443" lon="6.05716">
        <ele>892.5</ele>
        <time>2022-03-10T10:31:24Z</time>
      </trkpt>
      <trkpt lat="46.65439" lon="6.0572">
        <ele>891.7</ele>
        <time>2022-03-10T10:31:30Z</time>
      </trkpt>
      <trkpt lat="46.65434" lon="6.05724">
        <ele>892.2</ele>
        <time>2022-03-10T10:31:36Z</time>
      </trkpt>
      <trkpt lat="46.6543" lon="6.0573">
        <ele>893.4</ele>
        <time>2022-03-10T10:31:41Z</time>
      </trkpt>
      <trkpt lat="46.65429" lon="6.05738">
        <ele>894.7</ele>
        <time>2022-03-10T10:31:47Z</time>
      </trkpt>
      <trkpt lat="46.65427" lon="6.05744">
        <ele>896.1</ele>
        <time>2022-03-10T10:31:53Z</time>
      </trkpt>
      <trkpt lat="46.65424" lon="6.0575">
        <ele>896.4</ele>
        <time>2022-03-10T10:32:00Z</time>
      </trkpt>
      <trkpt lat="46.6542" lon="6.05752">
        <ele>896.1</ele>
        <time>2022-03-10T10:32:05Z</time>
      </trkpt>
      <trkpt lat="46.65415" lon="6.05755">
        <ele>895.8</ele>
        <time>2022-03-10T10:32:12Z</time>
      </trkpt>
      <trkpt lat="46.65411" lon="6.05757">
        <ele>895.9</ele>
        <time>2022-03-10T10:32:18Z</time>
      </trkpt>
      <trkpt lat="46.65406" lon="6.05755">
        <ele>895.8</ele>
        <time>2022-03-10T10:32:24Z</time>
      </trkpt>
      <trkpt lat="46.65401" lon="6.05755">
        <ele>895.6</ele>
        <time>2022-03-10T10:32:29Z</time>
      </trkpt>
      <trkpt lat="46.65396" lon="6.05755">
        <ele>894.2</ele>
        <time>2022-03-10T10:32:36Z</time>
      </trkpt>
      <trkpt lat="46.65392" lon="6.05759">
        <ele>892.9</ele>
        <time>2022-03-10T10:32:41Z</time>
      </trkpt>
      <trkpt lat="46.65388" lon="6.05762">
        <ele>891.2</ele>
        <time>2022-03-10T10:32:48Z</time>
      </trkpt>
      <trkpt lat="46.65384" lon="6.05764">
        <ele>890</ele>
        <time>2022-03-10T10:32:56Z</time>
      </trkpt>
      <trkpt lat="46.6538" lon="6.05769">
        <ele>888.7</ele>
        <time>2022-03-10T10:33:03Z</time>
      </trkpt>
      <trkpt lat="46.65376" lon="6.05774">
        <ele>888.1</ele>
        <time>2022-03-10T10:33:08Z</time>
      </trkpt>
      <trkpt lat="46.65372" lon="6.05778">
        <ele>887</ele>
        <time>2022-03-10T10:33:15Z</time>
      </trkpt>
      <trkpt lat="46.65368" lon="6.05782">
        <ele>886.3</ele>
        <time>2022-03-10T10:33:23Z</time>
      </trkpt>
      <trkpt lat="46.65363" lon="6.05786">
        <ele>886.1</ele>
        <time>2022-03-10T10:33:33Z</time>
      </trkpt>
      <trkpt lat="46.65359" lon="6.05792">
        <ele>886.4</ele>
        <time>2022-03-10T10:33:37Z</time>
      </trkpt>
      <trkpt lat="46.65355" lon="6.05797">
        <ele>886.7</ele>
        <time>2022-03-10T10:33:41Z</time>
      </trkpt>
      <trkpt lat="46.65351" lon="6.05801">
        <ele>886.8</ele>
        <time>2022-03-10T10:33:45Z</time>
      </trkpt>
      <trkpt lat="46.65347" lon="6.05802">
        <ele>886.5</ele>
        <time>2022-03-10T10:33:50Z</time>
      </trkpt>
      <trkpt lat="46.65342" lon="6.05803">
        <ele>885.9</ele>
        <time>2022-03-10T10:33:55Z</time>
      </trkpt>
      <trkpt lat="46.65337" lon="6.05806">
        <ele>885.2</ele>
        <time>2022-03-10T10:34:01Z</time>
      </trkpt>
      <trkpt lat="46.65332" lon="6.0581">
        <ele>884.4</ele>
        <time>2022-03-10T10:34:06Z</time>
      </trkpt>
      <trkpt lat="46.65328" lon="6.05812">
        <ele>882.8</ele>
        <time>2022-03-10T10:34:11Z</time>
      </trkpt>
      <trkpt lat="46.65323" lon="6.05818">
        <ele>881.6</ele>
        <time>2022-03-10T10:34:16Z</time>
      </trkpt>
      <trkpt lat="46.65319" lon="6.05822">
        <ele>880.4</ele>
        <time>2022-03-10T10:34:21Z</time>
      </trkpt>
      <trkpt lat="46.65316" lon="6.05828">
        <ele>879.2</ele>
        <time>2022-03-10T10:34:26Z</time>
      </trkpt>
      <trkpt lat="46.65313" lon="6.05833">
        <ele>878.5</ele>
        <time>2022-03-10T10:34:30Z</time>
      </trkpt>
      <trkpt lat="46.6531" lon="6.05839">
        <ele>878.2</ele>
        <time>2022-03-10T10:34:34Z</time>
      </trkpt>
      <trkpt lat="46.65305" lon="6.05843">
        <ele>878.5</ele>
        <time>2022-03-10T10:34:39Z</time>
      </trkpt>
      <trkpt lat="46.653" lon="6.05847">
        <ele>879</ele>
        <time>2022-03-10T10:34:44Z</time>
      </trkpt>
      <trkpt lat="46.65296" lon="6.05852">
        <ele>878.3</ele>
        <time>2022-03-10T10:34:49Z</time>
      </trkpt>
      <trkpt lat="46.65292" lon="6.05855">
        <ele>877.8</ele>
        <time>2022-03-10T10:34:54Z</time>
      </trkpt>
      <trkpt lat="46.65288" lon="6.0586">
        <ele>877.1</ele>
        <time>2022-03-10T10:35:01Z</time>
      </trkpt>
      <trkpt lat="46.65284" lon="6.05864">
        <ele>877.7</ele>
        <time>2022-03-10T10:35:08Z</time>
      </trkpt>
      <trkpt lat="46.6528" lon="6.05868">
        <ele>878.1</ele>
        <time>2022-03-10T10:35:14Z</time>
      </trkpt>
      <trkpt lat="46.65276" lon="6.05872">
        <ele>878.2</ele>
        <time>2022-03-10T10:35:20Z</time>
      </trkpt>
      <trkpt lat="46.65273" lon="6.05877">
        <ele>878.8</ele>
        <time>2022-03-10T10:35:26Z</time>
      </trkpt>
      <trkpt lat="46.65269" lon="6.05882">
        <ele>880.3</ele>
        <time>2022-03-10T10:35:33Z</time>
      </trkpt>
      <trkpt lat="46.65265" lon="6.05886">
        <ele>881.2</ele>
        <time>2022-03-10T10:35:39Z</time>
      </trkpt>
      <trkpt lat="46.65262" lon="6.05891">
        <ele>881.8</ele>
        <time>2022-03-10T10:35:45Z</time>
      </trkpt>
      <trkpt lat="46.65258" lon="6.05896">
        <ele>883.7</ele>
        <time>2022-03-10T10:35:52Z</time>
      </trkpt>
      <trkpt lat="46.65255" lon="6.05901">
        <ele>885.3</ele>
        <time>2022-03-10T10:35:58Z</time>
      </trkpt>
      <trkpt lat="46.65251" lon="6.05905">
        <ele>886.7</ele>
        <time>2022-03-10T10:36:04Z</time>
      </trkpt>
      <trkpt lat="46.65247" lon="6.0591">
        <ele>888.3</ele>
        <time>2022-03-10T10:36:10Z</time>
      </trkpt>
      <trkpt lat="46.65244" lon="6.05915">
        <ele>889.4</ele>
        <time>2022-03-10T10:36:19Z</time>
      </trkpt>
      <trkpt lat="46.6524" lon="6.05918">
        <ele>889.8</ele>
        <time>2022-03-10T10:36:25Z</time>
      </trkpt>
      <trkpt lat="46.65236" lon="6.05923">
        <ele>890.3</ele>
        <time>2022-03-10T10:36:32Z</time>
      </trkpt>
      <trkpt lat="46.65232" lon="6.05925">
        <ele>890.9</ele>
        <time>2022-03-10T10:36:39Z</time>
      </trkpt>
      <trkpt lat="46.65227" lon="6.05925">
        <ele>891.3</ele>
        <time>2022-03-10T10:36:45Z</time>
      </trkpt>
      <trkpt lat="46.65223" lon="6.05929">
        <ele>891.5</ele>
        <time>2022-03-10T10:36:53Z</time>
      </trkpt>
      <trkpt lat="46.65219" lon="6.05933">
        <ele>891.7</ele>
        <time>2022-03-10T10:37:00Z</time>
      </trkpt>
      <trkpt lat="46.65215" lon="6.05938">
        <ele>891.6</ele>
        <time>2022-03-10T10:37:09Z</time>
      </trkpt>
      <trkpt lat="46.65211" lon="6.05942">
        <ele>891.8</ele>
        <time>2022-03-10T10:37:14Z</time>
      </trkpt>
      <trkpt lat="46.65207" lon="6.05947">
        <ele>892.3</ele>
        <time>2022-03-10T10:37:19Z</time>
      </trkpt>
      <trkpt lat="46.65204" lon="6.05952">
        <ele>892.6</ele>
        <time>2022-03-10T10:37:24Z</time>
      </trkpt>
      <trkpt lat="46.652" lon="6.05956">
        <ele>892.5</ele>
        <time>2022-03-10T10:37:29Z</time>
      </trkpt>
      <trkpt lat="46.65197" lon="6.0596">
        <ele>892.3</ele>
        <time>2022-03-10T10:37:34Z</time>
      </trkpt>
      <trkpt lat="46.65193" lon="6.05963">
        <ele>892</ele>
        <time>2022-03-10T10:37:39Z</time>
      </trkpt>
      <trkpt lat="46.65188" lon="6.05964">
        <ele>891.8</ele>
        <time>2022-03-10T10:37:43Z</time>
      </trkpt>
      <trkpt lat="46.65183" lon="6.05966">
        <ele>891.6</ele>
        <time>2022-03-10T10:37:48Z</time>
      </trkpt>
      <trkpt lat="46.65178" lon="6.05969">
        <ele>891.7</ele>
        <time>2022-03-10T10:37:53Z</time>
      </trkpt>
      <trkpt lat="46.65174" lon="6.05972">
        <ele>891.7</ele>
        <time>2022-03-10T10:37:58Z</time>
      </trkpt>
      <trkpt lat="46.6517" lon="6.05971">
        <ele>891</ele>
        <time>2022-03-10T10:38:06Z</time>
      </trkpt>
      <trkpt lat="46.65165" lon="6.05968">
        <ele>890.8</ele>
        <time>2022-03-10T10:38:12Z</time>
      </trkpt>
      <trkpt lat="46.6516" lon="6.05964">
        <ele>890.1</ele>
        <time>2022-03-10T10:38:18Z</time>
      </trkpt>
      <trkpt lat="46.65156" lon="6.0596">
        <ele>888.9</ele>
        <time>2022-03-10T10:38:24Z</time>
      </trkpt>
      <trkpt lat="46.65152" lon="6.05956">
        <ele>888.5</ele>
        <time>2022-03-10T10:38:30Z</time>
      </trkpt>
      <trkpt lat="46.65147" lon="6.05952">
        <ele>889.3</ele>
        <time>2022-03-10T10:38:36Z</time>
      </trkpt>
      <trkpt lat="46.65144" lon="6.05947">
        <ele>889.9</ele>
        <time>2022-03-10T10:38:41Z</time>
      </trkpt>
      <trkpt lat="46.6514" lon="6.05944">
        <ele>890.6</ele>
        <time>2022-03-10T10:39:33Z</time>
      </trkpt>
      <trkpt lat="46.65137" lon="6.05939">
        <ele>890.5</ele>
        <time>2022-03-10T10:39:38Z</time>
      </trkpt>
      <trkpt lat="46.65132" lon="6.05935">
        <ele>890.1</ele>
        <time>2022-03-10T10:39:43Z</time>
      </trkpt>
      <trkpt lat="46.65129" lon="6.0593">
        <ele>889.9</ele>
        <time>2022-03-10T10:39:49Z</time>
      </trkpt>
      <trkpt lat="46.65125" lon="6.05925">
        <ele>889.7</ele>
        <time>2022-03-10T10:39:55Z</time>
      </trkpt>
      <trkpt lat="46.65122" lon="6.0592">
        <ele>890.4</ele>
        <time>2022-03-10T10:40:01Z</time>
      </trkpt>
      <trkpt lat="46.65117" lon="6.05916">
        <ele>891</ele>
        <time>2022-03-10T10:40:06Z</time>
      </trkpt>
      <trkpt lat="46.65114" lon="6.0591">
        <ele>891.4</ele>
        <time>2022-03-10T10:40:12Z</time>
      </trkpt>
      <trkpt lat="46.65111" lon="6.05905">
        <ele>891.5</ele>
        <time>2022-03-10T10:40:19Z</time>
      </trkpt>
      <trkpt lat="46.65107" lon="6.059">
        <ele>891</ele>
        <time>2022-03-10T10:40:24Z</time>
      </trkpt>
      <trkpt lat="46.65104" lon="6.05894">
        <ele>890</ele>
        <time>2022-03-10T10:40:30Z</time>
      </trkpt>
      <trkpt lat="46.65103" lon="6.05888">
        <ele>889.5</ele>
        <time>2022-03-10T10:40:35Z</time>
      </trkpt>
      <trkpt lat="46.651" lon="6.05881">
        <ele>889.4</ele>
        <time>2022-03-10T10:40:40Z</time>
      </trkpt>
      <trkpt lat="46.65097" lon="6.05875">
        <ele>889.5</ele>
        <time>2022-03-10T10:40:45Z</time>
      </trkpt>
      <trkpt lat="46.65095" lon="6.05869">
        <ele>890.2</ele>
        <time>2022-03-10T10:40:50Z</time>
      </trkpt>
      <trkpt lat="46.65092" lon="6.05862">
        <ele>891.1</ele>
        <time>2022-03-10T10:40:55Z</time>
      </trkpt>
      <trkpt lat="46.65089" lon="6.05856">
        <ele>891.4</ele>
        <time>2022-03-10T10:41:00Z</time>
      </trkpt>
      <trkpt lat="46.65086" lon="6.05851">
        <ele>891.2</ele>
        <time>2022-03-10T10:41:05Z</time>
      </trkpt>
      <trkpt lat="46.65083" lon="6.05845">
        <ele>891.3</ele>
        <time>2022-03-10T10:41:10Z</time>
      </trkpt>
      <trkpt lat="46.6508" lon="6.05838">
        <ele>891.6</ele>
        <time>2022-03-10T10:41:16Z</time>
      </trkpt>
      <trkpt lat="46.65077" lon="6.05833">
        <ele>891.8</ele>
        <time>2022-03-10T10:41:21Z</time>
      </trkpt>
      <trkpt lat="46.65075" lon="6.05826">
        <ele>891.9</ele>
        <time>2022-03-10T10:41:26Z</time>
      </trkpt>
      <trkpt lat="46.65073" lon="6.05819">
        <ele>892.5</ele>
        <time>2022-03-10T10:41:31Z</time>
      </trkpt>
      <trkpt lat="46.6507" lon="6.05813">
        <ele>893.5</ele>
        <time>2022-03-10T10:41:36Z</time>
      </trkpt>
      <trkpt lat="46.65067" lon="6.05807">
        <ele>894.5</ele>
        <time>2022-03-10T10:41:41Z</time>
      </trkpt>
      <trkpt lat="46.65065" lon="6.058">
        <ele>895.2</ele>
        <time>2022-03-10T10:41:46Z</time>
      </trkpt>
      <trkpt lat="46.65063" lon="6.05794">
        <ele>896.3</ele>
        <time>2022-03-10T10:41:52Z</time>
      </trkpt>
      <trkpt lat="46.6506" lon="6.05787">
        <ele>897.1</ele>
        <time>2022-03-10T10:41:57Z</time>
      </trkpt>
      <trkpt lat="46.65058" lon="6.0578">
        <ele>897.4</ele>
        <time>2022-03-10T10:42:02Z</time>
      </trkpt>
      <trkpt lat="46.65056" lon="6.05774">
        <ele>897.2</ele>
        <time>2022-03-10T10:42:07Z</time>
      </trkpt>
      <trkpt lat="46.65055" lon="6.05767">
        <ele>897</ele>
        <time>2022-03-10T10:42:13Z</time>
      </trkpt>
      <trkpt lat="46.65053" lon="6.0576">
        <ele>896.8</ele>
        <time>2022-03-10T10:42:18Z</time>
      </trkpt>
      <trkpt lat="46.65052" lon="6.05753">
        <ele>897</ele>
        <time>2022-03-10T10:42:24Z</time>
      </trkpt>
      <trkpt lat="46.65051" lon="6.05746">
        <ele>896.9</ele>
        <time>2022-03-10T10:42:30Z</time>
      </trkpt>
      <trkpt lat="46.65049" lon="6.05739">
        <ele>896.9</ele>
        <time>2022-03-10T10:42:35Z</time>
      </trkpt>
      <trkpt lat="46.65047" lon="6.05733">
        <ele>897.1</ele>
        <time>2022-03-10T10:42:40Z</time>
      </trkpt>
      <trkpt lat="46.65045" lon="6.05725">
        <ele>897.5</ele>
        <time>2022-03-10T10:42:46Z</time>
      </trkpt>
      <trkpt lat="46.65042" lon="6.05719">
        <ele>898</ele>
        <time>2022-03-10T10:42:51Z</time>
      </trkpt>
      <trkpt lat="46.6504" lon="6.05712">
        <ele>898.3</ele>
        <time>2022-03-10T10:42:56Z</time>
      </trkpt>
      <trkpt lat="46.65039" lon="6.05706">
        <ele>898.9</ele>
        <time>2022-03-10T10:43:01Z</time>
      </trkpt>
      <trkpt lat="46.65035" lon="6.057">
        <ele>899.5</ele>
        <time>2022-03-10T10:43:07Z</time>
      </trkpt>
      <trkpt lat="46.65032" lon="6.05695">
        <ele>899.9</ele>
        <time>2022-03-10T10:43:12Z</time>
      </trkpt>
      <trkpt lat="46.65029" lon="6.05689">
        <ele>900.6</ele>
        <time>2022-03-10T10:43:18Z</time>
      </trkpt>
      <trkpt lat="46.65027" lon="6.05683">
        <ele>901.2</ele>
        <time>2022-03-10T10:43:25Z</time>
      </trkpt>
      <trkpt lat="46.65025" lon="6.05677">
        <ele>901.5</ele>
        <time>2022-03-10T10:43:30Z</time>
      </trkpt>
      <trkpt lat="46.65022" lon="6.05671">
        <ele>902</ele>
        <time>2022-03-10T10:43:35Z</time>
      </trkpt>
      <trkpt lat="46.6502" lon="6.05664">
        <ele>902.2</ele>
        <time>2022-03-10T10:43:40Z</time>
      </trkpt>
      <trkpt lat="46.65019" lon="6.05657">
        <ele>902.4</ele>
        <time>2022-03-10T10:43:45Z</time>
      </trkpt>
      <trkpt lat="46.65017" lon="6.05651">
        <ele>903.1</ele>
        <time>2022-03-10T10:43:51Z</time>
      </trkpt>
      <trkpt lat="46.65015" lon="6.05643">
        <ele>903.6</ele>
        <time>2022-03-10T10:43:57Z</time>
      </trkpt>
      <trkpt lat="46.65013" lon="6.05637">
        <ele>903.9</ele>
        <time>2022-03-10T10:44:02Z</time>
      </trkpt>
      <trkpt lat="46.65011" lon="6.0563">
        <ele>904.3</ele>
        <time>2022-03-10T10:44:07Z</time>
      </trkpt>
      <trkpt lat="46.65009" lon="6.05624">
        <ele>905.3</ele>
        <time>2022-03-10T10:44:13Z</time>
      </trkpt>
      <trkpt lat="46.65007" lon="6.05617">
        <ele>906.1</ele>
        <time>2022-03-10T10:44:18Z</time>
      </trkpt>
      <trkpt lat="46.65004" lon="6.05611">
        <ele>906.7</ele>
        <time>2022-03-10T10:44:23Z</time>
      </trkpt>
      <trkpt lat="46.65002" lon="6.05604">
        <ele>907.3</ele>
        <time>2022-03-10T10:44:28Z</time>
      </trkpt>
      <trkpt lat="46.65" lon="6.05598">
        <ele>907</ele>
        <time>2022-03-10T10:44:34Z</time>
      </trkpt>
      <trkpt lat="46.64997" lon="6.05592">
        <ele>906.7</ele>
        <time>2022-03-10T10:44:40Z</time>
      </trkpt>
      <trkpt lat="46.64994" lon="6.05586">
        <ele>906</ele>
        <time>2022-03-10T10:44:45Z</time>
      </trkpt>
      <trkpt lat="46.64992" lon="6.05579">
        <ele>904.9</ele>
        <time>2022-03-10T10:44:50Z</time>
      </trkpt>
      <trkpt lat="46.6499" lon="6.05573">
        <ele>903.9</ele>
        <time>2022-03-10T10:44:55Z</time>
      </trkpt>
      <trkpt lat="46.64987" lon="6.05566">
        <ele>903.5</ele>
        <time>2022-03-10T10:45:00Z</time>
      </trkpt>
      <trkpt lat="46.64984" lon="6.05561">
        <ele>903.5</ele>
        <time>2022-03-10T10:45:04Z</time>
      </trkpt>
      <trkpt lat="46.64981" lon="6.05555">
        <ele>904.2</ele>
        <time>2022-03-10T10:45:09Z</time>
      </trkpt>
      <trkpt lat="46.64978" lon="6.05549">
        <ele>904.6</ele>
        <time>2022-03-10T10:45:15Z</time>
      </trkpt>
      <trkpt lat="46.64975" lon="6.05543">
        <ele>904.5</ele>
        <time>2022-03-10T10:45:21Z</time>
      </trkpt>
      <trkpt lat="46.64972" lon="6.05537">
        <ele>903.4</ele>
        <time>2022-03-10T10:45:27Z</time>
      </trkpt>
      <trkpt lat="46.64969" lon="6.05531">
        <ele>901.7</ele>
        <time>2022-03-10T10:45:34Z</time>
      </trkpt>
      <trkpt lat="46.64966" lon="6.05527">
        <ele>900.2</ele>
        <time>2022-03-10T10:45:40Z</time>
      </trkpt>
      <trkpt lat="46.64963" lon="6.05521">
        <ele>899.2</ele>
        <time>2022-03-10T10:45:45Z</time>
      </trkpt>
      <trkpt lat="46.64959" lon="6.05517">
        <ele>898.5</ele>
        <time>2022-03-10T10:45:50Z</time>
      </trkpt>
      <trkpt lat="46.64955" lon="6.05512">
        <ele>898.4</ele>
        <time>2022-03-10T10:45:55Z</time>
      </trkpt>
      <trkpt lat="46.64953" lon="6.05506">
        <ele>898.6</ele>
        <time>2022-03-10T10:46:00Z</time>
      </trkpt>
      <trkpt lat="46.6495" lon="6.05501">
        <ele>898.5</ele>
        <time>2022-03-10T10:46:05Z</time>
      </trkpt>
      <trkpt lat="46.64946" lon="6.05496">
        <ele>898.3</ele>
        <time>2022-03-10T10:46:10Z</time>
      </trkpt>
      <trkpt lat="46.64944" lon="6.0549">
        <ele>898.1</ele>
        <time>2022-03-10T10:46:15Z</time>
      </trkpt>
      <trkpt lat="46.64942" lon="6.05484">
        <ele>896.9</ele>
        <time>2022-03-10T10:46:20Z</time>
      </trkpt>
      <trkpt lat="46.64939" lon="6.05478">
        <ele>895.6</ele>
        <time>2022-03-10T10:46:25Z</time>
      </trkpt>
      <trkpt lat="46.64936" lon="6.05472">
        <ele>893.9</ele>
        <time>2022-03-10T10:46:31Z</time>
      </trkpt>
      <trkpt lat="46.64933" lon="6.05466">
        <ele>892.8</ele>
        <time>2022-03-10T10:46:37Z</time>
      </trkpt>
      <trkpt lat="46.64931" lon="6.05459">
        <ele>892.4</ele>
        <time>2022-03-10T10:46:44Z</time>
      </trkpt>
      <trkpt lat="46.64928" lon="6.05453">
        <ele>893</ele>
        <time>2022-03-10T10:46:50Z</time>
      </trkpt>
      <trkpt lat="46.64925" lon="6.05448">
        <ele>893.6</ele>
        <time>2022-03-10T10:46:54Z</time>
      </trkpt>
      <trkpt lat="46.64922" lon="6.05442">
        <ele>893.8</ele>
        <time>2022-03-10T10:46:58Z</time>
      </trkpt>
      <trkpt lat="46.64919" lon="6.05437">
        <ele>893.8</ele>
        <time>2022-03-10T10:47:02Z</time>
      </trkpt>
      <trkpt lat="46.64915" lon="6.05432">
        <ele>893.7</ele>
        <time>2022-03-10T10:47:07Z</time>
      </trkpt>
      <trkpt lat="46.64912" lon="6.05427">
        <ele>893.3</ele>
        <time>2022-03-10T10:47:17Z</time>
      </trkpt>
      <trkpt lat="46.64909" lon="6.05422">
        <ele>892.1</ele>
        <time>2022-03-10T10:47:26Z</time>
      </trkpt>
      <trkpt lat="46.64905" lon="6.05419">
        <ele>890.8</ele>
        <time>2022-03-10T10:47:32Z</time>
      </trkpt>
      <trkpt lat="46.649" lon="6.05417">
        <ele>889</ele>
        <time>2022-03-10T10:47:40Z</time>
      </trkpt>
      <trkpt lat="46.64897" lon="6.05412">
        <ele>888.1</ele>
        <time>2022-03-10T10:47:46Z</time>
      </trkpt>
      <trkpt lat="46.64894" lon="6.05406">
        <ele>888</ele>
        <time>2022-03-10T10:47:52Z</time>
      </trkpt>
      <trkpt lat="46.64891" lon="6.05401">
        <ele>888.7</ele>
        <time>2022-03-10T10:47:59Z</time>
      </trkpt>
      <trkpt lat="46.64887" lon="6.05396">
        <ele>889.5</ele>
        <time>2022-03-10T10:48:06Z</time>
      </trkpt>
      <trkpt lat="46.64883" lon="6.05394">
        <ele>891.6</ele>
        <time>2022-03-10T10:48:52Z</time>
      </trkpt>
      <trkpt lat="46.64879" lon="6.05389">
        <ele>893</ele>
        <time>2022-03-10T10:48:58Z</time>
      </trkpt>
      <trkpt lat="46.64874" lon="6.05385">
        <ele>892.9</ele>
        <time>2022-03-10T10:49:05Z</time>
      </trkpt>
      <trkpt lat="46.6487" lon="6.05381">
        <ele>889.5</ele>
        <time>2022-03-10T10:50:32Z</time>
      </trkpt>
      <trkpt lat="46.6487" lon="6.05386">
        <ele>877.4</ele>
        <time>2022-03-10T11:26:16Z</time>
      </trkpt>
      <trkpt lat="46.64874" lon="6.05389">
        <ele>885.5</ele>
        <time>2022-03-10T11:27:50Z</time>
      </trkpt>
      <trkpt lat="46.64878" lon="6.05394">
        <ele>887.4</ele>
        <time>2022-03-10T11:27:56Z</time>
      </trkpt>
      <trkpt lat="46.64883" lon="6.05396">
        <ele>889</ele>
        <time>2022-03-10T11:28:03Z</time>
      </trkpt>
      <trkpt lat="46.64885" lon="6.05402">
        <ele>889.1</ele>
        <time>2022-03-10T11:28:11Z</time>
      </trkpt>
      <trkpt lat="46.64882" lon="6.05406">
        <ele>888.4</ele>
        <time>2022-03-10T11:28:19Z</time>
      </trkpt>
      <trkpt lat="46.64877" lon="6.05404">
        <ele>887.8</ele>
        <time>2022-03-10T11:28:23Z</time>
      </trkpt>
      <trkpt lat="46.64873" lon="6.054">
        <ele>887.2</ele>
        <time>2022-03-10T11:28:27Z</time>
      </trkpt>
      <trkpt lat="46.64871" lon="6.05394">
        <ele>886.1</ele>
        <time>2022-03-10T11:28:32Z</time>
      </trkpt>
      <trkpt lat="46.64869" lon="6.05387">
        <ele>884.9</ele>
        <time>2022-03-10T11:28:38Z</time>
      </trkpt>
      <trkpt lat="46.64865" lon="6.05383">
        <ele>884.5</ele>
        <time>2022-03-10T11:28:44Z</time>
      </trkpt>
      <trkpt lat="46.64862" lon="6.05377">
        <ele>884.1</ele>
        <time>2022-03-10T11:28:50Z</time>
      </trkpt>
      <trkpt lat="46.64859" lon="6.05371">
        <ele>883.4</ele>
        <time>2022-03-10T11:28:56Z</time>
      </trkpt>
      <trkpt lat="46.64857" lon="6.05365">
        <ele>882.5</ele>
        <time>2022-03-10T11:29:02Z</time>
      </trkpt>
      <trkpt lat="46.64854" lon="6.0536">
        <ele>881.6</ele>
        <time>2022-03-10T11:29:08Z</time>
      </trkpt>
      <trkpt lat="46.6485" lon="6.05357">
        <ele>880.8</ele>
        <time>2022-03-10T11:29:13Z</time>
      </trkpt>
      <trkpt lat="46.64846" lon="6.05352">
        <ele>879.6</ele>
        <time>2022-03-10T11:29:19Z</time>
      </trkpt>
      <trkpt lat="46.64844" lon="6.05346">
        <ele>879</ele>
        <time>2022-03-10T11:29:24Z</time>
      </trkpt>
      <trkpt lat="46.64841" lon="6.0534">
        <ele>878.4</ele>
        <time>2022-03-10T11:29:29Z</time>
      </trkpt>
      <trkpt lat="46.64838" lon="6.05334">
        <ele>878.5</ele>
        <time>2022-03-10T11:29:34Z</time>
      </trkpt>
      <trkpt lat="46.64834" lon="6.05328">
        <ele>878.2</ele>
        <time>2022-03-10T11:29:39Z</time>
      </trkpt>
      <trkpt lat="46.64831" lon="6.05322">
        <ele>878</ele>
        <time>2022-03-10T11:29:44Z</time>
      </trkpt>
      <trkpt lat="46.64828" lon="6.05318">
        <ele>877.5</ele>
        <time>2022-03-10T11:29:50Z</time>
      </trkpt>
      <trkpt lat="46.64826" lon="6.05312">
        <ele>876.9</ele>
        <time>2022-03-10T11:29:55Z</time>
      </trkpt>
      <trkpt lat="46.64822" lon="6.05307">
        <ele>876.5</ele>
        <time>2022-03-10T11:30:00Z</time>
      </trkpt>
      <trkpt lat="46.64819" lon="6.05303">
        <ele>876.2</ele>
        <time>2022-03-10T11:30:05Z</time>
      </trkpt>
      <trkpt lat="46.64816" lon="6.05298">
        <ele>876.2</ele>
        <time>2022-03-10T11:30:11Z</time>
      </trkpt>
      <trkpt lat="46.64813" lon="6.05292">
        <ele>875.8</ele>
        <time>2022-03-10T11:30:17Z</time>
      </trkpt>
      <trkpt lat="46.6481" lon="6.05286">
        <ele>874.9</ele>
        <time>2022-03-10T11:30:23Z</time>
      </trkpt>
      <trkpt lat="46.64808" lon="6.05279">
        <ele>872.2</ele>
        <time>2022-03-10T11:30:30Z</time>
      </trkpt>
      <trkpt lat="46.64806" lon="6.05273">
        <ele>870.2</ele>
        <time>2022-03-10T11:30:35Z</time>
      </trkpt>
      <trkpt lat="46.64805" lon="6.05266">
        <ele>868.8</ele>
        <time>2022-03-10T11:30:40Z</time>
      </trkpt>
      <trkpt lat="46.64803" lon="6.0526">
        <ele>867.8</ele>
        <time>2022-03-10T11:30:45Z</time>
      </trkpt>
      <trkpt lat="46.64801" lon="6.05254">
        <ele>866.3</ele>
        <time>2022-03-10T11:30:53Z</time>
      </trkpt>
      <trkpt lat="46.64799" lon="6.05247">
        <ele>864.9</ele>
        <time>2022-03-10T11:31:00Z</time>
      </trkpt>
      <trkpt lat="46.64796" lon="6.05242">
        <ele>864.3</ele>
        <time>2022-03-10T11:31:05Z</time>
      </trkpt>
      <trkpt lat="46.64794" lon="6.05235">
        <ele>864.2</ele>
        <time>2022-03-10T11:31:12Z</time>
      </trkpt>
      <trkpt lat="46.6479" lon="6.05231">
        <ele>864.1</ele>
        <time>2022-03-10T11:31:17Z</time>
      </trkpt>
      <trkpt lat="46.64788" lon="6.05225">
        <ele>864</ele>
        <time>2022-03-10T11:31:23Z</time>
      </trkpt>
      <trkpt lat="46.64784" lon="6.0522">
        <ele>864.5</ele>
        <time>2022-03-10T11:31:29Z</time>
      </trkpt>
      <trkpt lat="46.6478" lon="6.05217">
        <ele>865</ele>
        <time>2022-03-10T11:31:34Z</time>
      </trkpt>
      <trkpt lat="46.64776" lon="6.05213">
        <ele>865.2</ele>
        <time>2022-03-10T11:31:40Z</time>
      </trkpt>
      <trkpt lat="46.64772" lon="6.05209">
        <ele>865.5</ele>
        <time>2022-03-10T11:31:46Z</time>
      </trkpt>
      <trkpt lat="46.64768" lon="6.05207">
        <ele>865.7</ele>
        <time>2022-03-10T11:31:51Z</time>
      </trkpt>
      <trkpt lat="46.64763" lon="6.05206">
        <ele>866</ele>
        <time>2022-03-10T11:31:55Z</time>
      </trkpt>
      <trkpt lat="46.64759" lon="6.05205">
        <ele>866.2</ele>
        <time>2022-03-10T11:32:00Z</time>
      </trkpt>
      <trkpt lat="46.64753" lon="6.05205">
        <ele>866.3</ele>
        <time>2022-03-10T11:32:06Z</time>
      </trkpt>
      <trkpt lat="46.64749" lon="6.05205">
        <ele>866.6</ele>
        <time>2022-03-10T11:32:12Z</time>
      </trkpt>
      <trkpt lat="46.64743" lon="6.05204">
        <ele>866.7</ele>
        <time>2022-03-10T11:32:17Z</time>
      </trkpt>
      <trkpt lat="46.64739" lon="6.05203">
        <ele>866.5</ele>
        <time>2022-03-10T11:32:22Z</time>
      </trkpt>
      <trkpt lat="46.64734" lon="6.05202">
        <ele>865.4</ele>
        <time>2022-03-10T11:32:27Z</time>
      </trkpt>
      <trkpt lat="46.64728" lon="6.05201">
        <ele>863.7</ele>
        <time>2022-03-10T11:32:33Z</time>
      </trkpt>
      <trkpt lat="46.64723" lon="6.05201">
        <ele>861.6</ele>
        <time>2022-03-10T11:32:39Z</time>
      </trkpt>
      <trkpt lat="46.64719" lon="6.05199">
        <ele>859.4</ele>
        <time>2022-03-10T11:32:45Z</time>
      </trkpt>
      <trkpt lat="46.64714" lon="6.05197">
        <ele>857.6</ele>
        <time>2022-03-10T11:32:51Z</time>
      </trkpt>
      <trkpt lat="46.64709" lon="6.05194">
        <ele>855.9</ele>
        <time>2022-03-10T11:32:57Z</time>
      </trkpt>
      <trkpt lat="46.64704" lon="6.05193">
        <ele>854.8</ele>
        <time>2022-03-10T11:33:03Z</time>
      </trkpt>
      <trkpt lat="46.64699" lon="6.0519">
        <ele>853.9</ele>
        <time>2022-03-10T11:33:08Z</time>
      </trkpt>
      <trkpt lat="46.64694" lon="6.05189">
        <ele>852.6</ele>
        <time>2022-03-10T11:33:16Z</time>
      </trkpt>
      <trkpt lat="46.64688" lon="6.05188">
        <ele>852.1</ele>
        <time>2022-03-10T11:33:22Z</time>
      </trkpt>
      <trkpt lat="46.64684" lon="6.05186">
        <ele>851.5</ele>
        <time>2022-03-10T11:33:27Z</time>
      </trkpt>
      <trkpt lat="46.6468" lon="6.05183">
        <ele>850.5</ele>
        <time>2022-03-10T11:33:33Z</time>
      </trkpt>
      <trkpt lat="46.64676" lon="6.05179">
        <ele>849.8</ele>
        <time>2022-03-10T11:33:39Z</time>
      </trkpt>
      <trkpt lat="46.64672" lon="6.05175">
        <ele>849</ele>
        <time>2022-03-10T11:33:45Z</time>
      </trkpt>
      <trkpt lat="46.64668" lon="6.05171">
        <ele>848.1</ele>
        <time>2022-03-10T11:33:51Z</time>
      </trkpt>
      <trkpt lat="46.64663" lon="6.05167">
        <ele>847.7</ele>
        <time>2022-03-10T11:33:56Z</time>
      </trkpt>
      <trkpt lat="46.64659" lon="6.05163">
        <ele>847.3</ele>
        <time>2022-03-10T11:34:01Z</time>
      </trkpt>
      <trkpt lat="46.64656" lon="6.05158">
        <ele>846.9</ele>
        <time>2022-03-10T11:34:07Z</time>
      </trkpt>
      <trkpt lat="46.64652" lon="6.05152">
        <ele>846.8</ele>
        <time>2022-03-10T11:34:12Z</time>
      </trkpt>
      <trkpt lat="46.64651" lon="6.05145">
        <ele>846.6</ele>
        <time>2022-03-10T11:34:18Z</time>
      </trkpt>
      <trkpt lat="46.64649" lon="6.05138">
        <ele>845.2</ele>
        <time>2022-03-10T11:34:25Z</time>
      </trkpt>
      <trkpt lat="46.64646" lon="6.05132">
        <ele>844.4</ele>
        <time>2022-03-10T11:34:30Z</time>
      </trkpt>
      <trkpt lat="46.64643" lon="6.05127">
        <ele>843.9</ele>
        <time>2022-03-10T11:34:35Z</time>
      </trkpt>
      <trkpt lat="46.64638" lon="6.05124">
        <ele>843.2</ele>
        <time>2022-03-10T11:34:40Z</time>
      </trkpt>
      <trkpt lat="46.64633" lon="6.05122">
        <ele>842.4</ele>
        <time>2022-03-10T11:34:46Z</time>
      </trkpt>
      <trkpt lat="46.64629" lon="6.05121">
        <ele>841.6</ele>
        <time>2022-03-10T11:34:51Z</time>
      </trkpt>
      <trkpt lat="46.64624" lon="6.05119">
        <ele>839.2</ele>
        <time>2022-03-10T11:35:04Z</time>
      </trkpt>
      <trkpt lat="46.64619" lon="6.05118">
        <ele>838.7</ele>
        <time>2022-03-10T11:35:21Z</time>
      </trkpt>
      <trkpt lat="46.64614" lon="6.05119">
        <ele>837.7</ele>
        <time>2022-03-10T11:35:27Z</time>
      </trkpt>
      <trkpt lat="46.64609" lon="6.05119">
        <ele>837.2</ele>
        <time>2022-03-10T11:35:32Z</time>
      </trkpt>
      <trkpt lat="46.64604" lon="6.0512">
        <ele>837.5</ele>
        <time>2022-03-10T11:35:37Z</time>
      </trkpt>
      <trkpt lat="46.64599" lon="6.05117">
        <ele>838.1</ele>
        <time>2022-03-10T11:35:43Z</time>
      </trkpt>
      <trkpt lat="46.64597" lon="6.05111">
        <ele>838.6</ele>
        <time>2022-03-10T11:35:48Z</time>
      </trkpt>
      <trkpt lat="46.64597" lon="6.05104">
        <ele>838.6</ele>
        <time>2022-03-10T11:35:53Z</time>
      </trkpt>
      <trkpt lat="46.64595" lon="6.05096">
        <ele>838.6</ele>
        <time>2022-03-10T11:35:59Z</time>
      </trkpt>
      <trkpt lat="46.64592" lon="6.0509">
        <ele>838.3</ele>
        <time>2022-03-10T11:36:04Z</time>
      </trkpt>
      <trkpt lat="46.64589" lon="6.05085">
        <ele>837.7</ele>
        <time>2022-03-10T11:36:09Z</time>
      </trkpt>
      <trkpt lat="46.64587" lon="6.0508">
        <ele>837</ele>
        <time>2022-03-10T11:36:14Z</time>
      </trkpt>
      <trkpt lat="46.64583" lon="6.05074">
        <ele>836.6</ele>
        <time>2022-03-10T11:36:19Z</time>
      </trkpt>
      <trkpt lat="46.6458" lon="6.05069">
        <ele>836.3</ele>
        <time>2022-03-10T11:36:24Z</time>
      </trkpt>
      <trkpt lat="46.64576" lon="6.05063">
        <ele>836.3</ele>
        <time>2022-03-10T11:36:29Z</time>
      </trkpt>
      <trkpt lat="46.64574" lon="6.05058">
        <ele>836.1</ele>
        <time>2022-03-10T11:36:34Z</time>
      </trkpt>
      <trkpt lat="46.64571" lon="6.05052">
        <ele>835.8</ele>
        <time>2022-03-10T11:36:39Z</time>
      </trkpt>
      <trkpt lat="46.64568" lon="6.05045">
        <ele>835.5</ele>
        <time>2022-03-10T11:36:44Z</time>
      </trkpt>
      <trkpt lat="46.64565" lon="6.05039">
        <ele>835.3</ele>
        <time>2022-03-10T11:36:49Z</time>
      </trkpt>
      <trkpt lat="46.64563" lon="6.05033">
        <ele>835.4</ele>
        <time>2022-03-10T11:36:53Z</time>
      </trkpt>
      <trkpt lat="46.64559" lon="6.05028">
        <ele>835.6</ele>
        <time>2022-03-10T11:36:58Z</time>
      </trkpt>
      <trkpt lat="46.64556" lon="6.05022">
        <ele>836</ele>
        <time>2022-03-10T11:37:03Z</time>
      </trkpt>
      <trkpt lat="46.64552" lon="6.05017">
        <ele>836.2</ele>
        <time>2022-03-10T11:37:09Z</time>
      </trkpt>
      <trkpt lat="46.64549" lon="6.0501">
        <ele>836.7</ele>
        <time>2022-03-10T11:37:15Z</time>
      </trkpt>
      <trkpt lat="46.64546" lon="6.05006">
        <ele>837.5</ele>
        <time>2022-03-10T11:37:19Z</time>
      </trkpt>
      <trkpt lat="46.64541" lon="6.05002">
        <ele>838.2</ele>
        <time>2022-03-10T11:37:23Z</time>
      </trkpt>
      <trkpt lat="46.64537" lon="6.04997">
        <ele>838.8</ele>
        <time>2022-03-10T11:37:27Z</time>
      </trkpt>
      <trkpt lat="46.64534" lon="6.04993">
        <ele>839.3</ele>
        <time>2022-03-10T11:37:31Z</time>
      </trkpt>
      <trkpt lat="46.64531" lon="6.04987">
        <ele>839.9</ele>
        <time>2022-03-10T11:37:36Z</time>
      </trkpt>
      <trkpt lat="46.64529" lon="6.0498">
        <ele>840.1</ele>
        <time>2022-03-10T11:37:41Z</time>
      </trkpt>
      <trkpt lat="46.64527" lon="6.04974">
        <ele>840.6</ele>
        <time>2022-03-10T11:37:46Z</time>
      </trkpt>
      <trkpt lat="46.64525" lon="6.04968">
        <ele>840.7</ele>
        <time>2022-03-10T11:37:52Z</time>
      </trkpt>
      <trkpt lat="46.64523" lon="6.04962">
        <ele>840.6</ele>
        <time>2022-03-10T11:37:57Z</time>
      </trkpt>
      <trkpt lat="46.64519" lon="6.04958">
        <ele>840.7</ele>
        <time>2022-03-10T11:38:01Z</time>
      </trkpt>
      <trkpt lat="46.64515" lon="6.04953">
        <ele>840.7</ele>
        <time>2022-03-10T11:38:05Z</time>
      </trkpt>
      <trkpt lat="46.64512" lon="6.04948">
        <ele>840.5</ele>
        <time>2022-03-10T11:38:10Z</time>
      </trkpt>
      <trkpt lat="46.64508" lon="6.04943">
        <ele>840.4</ele>
        <time>2022-03-10T11:38:16Z</time>
      </trkpt>
      <trkpt lat="46.64503" lon="6.04941">
        <ele>840.8</ele>
        <time>2022-03-10T11:38:21Z</time>
      </trkpt>
      <trkpt lat="46.64498" lon="6.04939">
        <ele>840.4</ele>
        <time>2022-03-10T11:38:26Z</time>
      </trkpt>
      <trkpt lat="46.64493" lon="6.04938">
        <ele>840.1</ele>
        <time>2022-03-10T11:38:31Z</time>
      </trkpt>
      <trkpt lat="46.64488" lon="6.0494">
        <ele>840.2</ele>
        <time>2022-03-10T11:38:35Z</time>
      </trkpt>
      <trkpt lat="46.64484" lon="6.04945">
        <ele>840.4</ele>
        <time>2022-03-10T11:38:40Z</time>
      </trkpt>
      <trkpt lat="46.64481" lon="6.04949">
        <ele>840.9</ele>
        <time>2022-03-10T11:38:45Z</time>
      </trkpt>
      <trkpt lat="46.64478" lon="6.04955">
        <ele>841.9</ele>
        <time>2022-03-10T11:38:50Z</time>
      </trkpt>
      <trkpt lat="46.64474" lon="6.04959">
        <ele>842.8</ele>
        <time>2022-03-10T11:38:56Z</time>
      </trkpt>
      <trkpt lat="46.6447" lon="6.04964">
        <ele>843.3</ele>
        <time>2022-03-10T11:39:01Z</time>
      </trkpt>
      <trkpt lat="46.64466" lon="6.04967">
        <ele>843.2</ele>
        <time>2022-03-10T11:39:07Z</time>
      </trkpt>
      <trkpt lat="46.64461" lon="6.04968">
        <ele>843</ele>
        <time>2022-03-10T11:39:11Z</time>
      </trkpt>
      <trkpt lat="46.64456" lon="6.0497">
        <ele>843.2</ele>
        <time>2022-03-10T11:39:15Z</time>
      </trkpt>
      <trkpt lat="46.64451" lon="6.04973">
        <ele>843.4</ele>
        <time>2022-03-10T11:39:19Z</time>
      </trkpt>
      <trkpt lat="46.64446" lon="6.04974">
        <ele>843.6</ele>
        <time>2022-03-10T11:39:24Z</time>
      </trkpt>
      <trkpt lat="46.64442" lon="6.04973">
        <ele>843.3</ele>
        <time>2022-03-10T11:39:29Z</time>
      </trkpt>
      <trkpt lat="46.64436" lon="6.04972">
        <ele>843.4</ele>
        <time>2022-03-10T11:39:33Z</time>
      </trkpt>
      <trkpt lat="46.64432" lon="6.0497">
        <ele>843.6</ele>
        <time>2022-03-10T11:39:37Z</time>
      </trkpt>
      <trkpt lat="46.64428" lon="6.04967">
        <ele>844.1</ele>
        <time>2022-03-10T11:39:43Z</time>
      </trkpt>
      <trkpt lat="46.64423" lon="6.04964">
        <ele>844.3</ele>
        <time>2022-03-10T11:39:48Z</time>
      </trkpt>
      <trkpt lat="46.64418" lon="6.04962">
        <ele>844.4</ele>
        <time>2022-03-10T11:39:53Z</time>
      </trkpt>
      <trkpt lat="46.64413" lon="6.0496">
        <ele>844.8</ele>
        <time>2022-03-10T11:39:58Z</time>
      </trkpt>
      <trkpt lat="46.64409" lon="6.04959">
        <ele>845.2</ele>
        <time>2022-03-10T11:40:02Z</time>
      </trkpt>
      <trkpt lat="46.64404" lon="6.04957">
        <ele>845.3</ele>
        <time>2022-03-10T11:40:06Z</time>
      </trkpt>
      <trkpt lat="46.644" lon="6.04951">
        <ele>845.2</ele>
        <time>2022-03-10T11:40:11Z</time>
      </trkpt>
      <trkpt lat="46.64397" lon="6.04946">
        <ele>845.2</ele>
        <time>2022-03-10T11:40:16Z</time>
      </trkpt>
      <trkpt lat="46.64395" lon="6.04941">
        <ele>845.3</ele>
        <time>2022-03-10T11:40:20Z</time>
      </trkpt>
      <trkpt lat="46.64393" lon="6.04935">
        <ele>845.6</ele>
        <time>2022-03-10T11:40:24Z</time>
      </trkpt>
      <trkpt lat="46.64391" lon="6.04928">
        <ele>846</ele>
        <time>2022-03-10T11:40:28Z</time>
      </trkpt>
      <trkpt lat="46.6439" lon="6.04921">
        <ele>846</ele>
        <time>2022-03-10T11:40:32Z</time>
      </trkpt>
      <trkpt lat="46.64388" lon="6.04915">
        <ele>845.9</ele>
        <time>2022-03-10T11:40:36Z</time>
      </trkpt>
      <trkpt lat="46.64387" lon="6.04908">
        <ele>845.8</ele>
        <time>2022-03-10T11:40:41Z</time>
      </trkpt>
      <trkpt lat="46.64387" lon="6.04901">
        <ele>845.5</ele>
        <time>2022-03-10T11:40:46Z</time>
      </trkpt>
      <trkpt lat="46.64387" lon="6.04894">
        <ele>845.4</ele>
        <time>2022-03-10T11:40:50Z</time>
      </trkpt>
      <trkpt lat="46.64388" lon="6.04888">
        <ele>845.4</ele>
        <time>2022-03-10T11:40:54Z</time>
      </trkpt>
      <trkpt lat="46.64389" lon="6.04881">
        <ele>845.3</ele>
        <time>2022-03-10T11:40:58Z</time>
      </trkpt>
      <trkpt lat="46.64389" lon="6.04874">
        <ele>844.8</ele>
        <time>2022-03-10T11:41:03Z</time>
      </trkpt>
      <trkpt lat="46.64389" lon="6.04866">
        <ele>844.7</ele>
        <time>2022-03-10T11:41:08Z</time>
      </trkpt>
      <trkpt lat="46.6439" lon="6.04859">
        <ele>844.5</ele>
        <time>2022-03-10T11:41:13Z</time>
      </trkpt>
      <trkpt lat="46.6439" lon="6.04851">
        <ele>845</ele>
        <time>2022-03-10T11:41:18Z</time>
      </trkpt>
      <trkpt lat="46.64391" lon="6.04844">
        <ele>846</ele>
        <time>2022-03-10T11:41:23Z</time>
      </trkpt>
      <trkpt lat="46.64393" lon="6.04837">
        <ele>846.4</ele>
        <time>2022-03-10T11:41:28Z</time>
      </trkpt>
      <trkpt lat="46.64395" lon="6.0483">
        <ele>845.9</ele>
        <time>2022-03-10T11:41:33Z</time>
      </trkpt>
      <trkpt lat="46.64396" lon="6.04822">
        <ele>844.5</ele>
        <time>2022-03-10T11:41:38Z</time>
      </trkpt>
      <trkpt lat="46.64396" lon="6.04815">
        <ele>843.1</ele>
        <time>2022-03-10T11:41:43Z</time>
      </trkpt>
      <trkpt lat="46.64397" lon="6.04808">
        <ele>842.2</ele>
        <time>2022-03-10T11:41:48Z</time>
      </trkpt>
      <trkpt lat="46.64396" lon="6.04801">
        <ele>841.7</ele>
        <time>2022-03-10T11:41:53Z</time>
      </trkpt>
      <trkpt lat="46.64397" lon="6.04793">
        <ele>841.4</ele>
        <time>2022-03-10T11:41:58Z</time>
      </trkpt>
      <trkpt lat="46.64399" lon="6.04786">
        <ele>841.3</ele>
        <time>2022-03-10T11:42:02Z</time>
      </trkpt>
      <trkpt lat="46.64398" lon="6.04779">
        <ele>841.8</ele>
        <time>2022-03-10T11:42:07Z</time>
      </trkpt>
      <trkpt lat="46.64396" lon="6.04771">
        <ele>842.6</ele>
        <time>2022-03-10T11:42:12Z</time>
      </trkpt>
      <trkpt lat="46.64395" lon="6.04765">
        <ele>843.2</ele>
        <time>2022-03-10T11:42:17Z</time>
      </trkpt>
      <trkpt lat="46.64395" lon="6.04758">
        <ele>843.1</ele>
        <time>2022-03-10T11:42:22Z</time>
      </trkpt>
      <trkpt lat="46.64394" lon="6.0475">
        <ele>843</ele>
        <time>2022-03-10T11:42:27Z</time>
      </trkpt>
      <trkpt lat="46.64393" lon="6.04743">
        <ele>842.1</ele>
        <time>2022-03-10T11:42:32Z</time>
      </trkpt>
      <trkpt lat="46.64392" lon="6.04736">
        <ele>841</ele>
        <time>2022-03-10T11:42:37Z</time>
      </trkpt>
      <trkpt lat="46.64391" lon="6.04729">
        <ele>840.7</ele>
        <time>2022-03-10T11:42:41Z</time>
      </trkpt>
      <trkpt lat="46.6439" lon="6.04721">
        <ele>840.6</ele>
        <time>2022-03-10T11:42:46Z</time>
      </trkpt>
      <trkpt lat="46.64388" lon="6.04715">
        <ele>840.9</ele>
        <time>2022-03-10T11:42:50Z</time>
      </trkpt>
      <trkpt lat="46.64386" lon="6.04709">
        <ele>841.1</ele>
        <time>2022-03-10T11:42:54Z</time>
      </trkpt>
      <trkpt lat="46.64385" lon="6.04701">
        <ele>841.3</ele>
        <time>2022-03-10T11:42:58Z</time>
      </trkpt>
      <trkpt lat="46.64383" lon="6.04695">
        <ele>841</ele>
        <time>2022-03-10T11:43:02Z</time>
      </trkpt>
      <trkpt lat="46.64383" lon="6.04688">
        <ele>840.6</ele>
        <time>2022-03-10T11:43:06Z</time>
      </trkpt>
      <trkpt lat="46.64381" lon="6.04681">
        <ele>840.2</ele>
        <time>2022-03-10T11:43:11Z</time>
      </trkpt>
      <trkpt lat="46.64381" lon="6.04673">
        <ele>839.7</ele>
        <time>2022-03-10T11:43:17Z</time>
      </trkpt>
      <trkpt lat="46.6438" lon="6.04666">
        <ele>839.4</ele>
        <time>2022-03-10T11:43:23Z</time>
      </trkpt>
      <trkpt lat="46.64379" lon="6.04658">
        <ele>838.9</ele>
        <time>2022-03-10T11:43:28Z</time>
      </trkpt>
      <trkpt lat="46.64377" lon="6.0465">
        <ele>839.1</ele>
        <time>2022-03-10T11:43:33Z</time>
      </trkpt>
      <trkpt lat="46.64376" lon="6.04643">
        <ele>839.4</ele>
        <time>2022-03-10T11:43:38Z</time>
      </trkpt>
      <trkpt lat="46.64374" lon="6.04637">
        <ele>839.8</ele>
        <time>2022-03-10T11:43:43Z</time>
      </trkpt>
      <trkpt lat="46.64372" lon="6.04629">
        <ele>841.4</ele>
        <time>2022-03-10T11:43:49Z</time>
      </trkpt>
      <trkpt lat="46.64372" lon="6.04622">
        <ele>842.7</ele>
        <time>2022-03-10T11:43:54Z</time>
      </trkpt>
      <trkpt lat="46.64372" lon="6.04615">
        <ele>843.1</ele>
        <time>2022-03-10T11:43:59Z</time>
      </trkpt>
      <trkpt lat="46.6437" lon="6.04608">
        <ele>842.9</ele>
        <time>2022-03-10T11:44:03Z</time>
      </trkpt>
      <trkpt lat="46.64368" lon="6.04602">
        <ele>842.4</ele>
        <time>2022-03-10T11:44:07Z</time>
      </trkpt>
      <trkpt lat="46.64368" lon="6.04595">
        <ele>841.8</ele>
        <time>2022-03-10T11:44:13Z</time>
      </trkpt>
      <trkpt lat="46.64368" lon="6.04587">
        <ele>841.4</ele>
        <time>2022-03-10T11:44:19Z</time>
      </trkpt>
      <trkpt lat="46.64368" lon="6.04581">
        <ele>841.8</ele>
        <time>2022-03-10T11:44:24Z</time>
      </trkpt>
      <trkpt lat="46.64367" lon="6.04573">
        <ele>842.9</ele>
        <time>2022-03-10T11:44:30Z</time>
      </trkpt>
      <trkpt lat="46.64366" lon="6.04566">
        <ele>845.1</ele>
        <time>2022-03-10T11:44:36Z</time>
      </trkpt>
      <trkpt lat="46.64363" lon="6.0456">
        <ele>846.3</ele>
        <time>2022-03-10T11:44:41Z</time>
      </trkpt>
      <trkpt lat="46.64363" lon="6.04553">
        <ele>847</ele>
        <time>2022-03-10T11:44:47Z</time>
      </trkpt>
      <trkpt lat="46.64362" lon="6.04546">
        <ele>847.5</ele>
        <time>2022-03-10T11:44:53Z</time>
      </trkpt>
      <trkpt lat="46.64361" lon="6.04539">
        <ele>847.9</ele>
        <time>2022-03-10T11:44:58Z</time>
      </trkpt>
      <trkpt lat="46.6436" lon="6.04532">
        <ele>848</ele>
        <time>2022-03-10T11:45:03Z</time>
      </trkpt>
      <trkpt lat="46.64361" lon="6.04525">
        <ele>847.8</ele>
        <time>2022-03-10T11:45:08Z</time>
      </trkpt>
      <trkpt lat="46.64361" lon="6.04517">
        <ele>848</ele>
        <time>2022-03-10T11:45:13Z</time>
      </trkpt>
      <trkpt lat="46.64361" lon="6.0451">
        <ele>848.8</ele>
        <time>2022-03-10T11:45:19Z</time>
      </trkpt>
      <trkpt lat="46.64359" lon="6.04503">
        <ele>849.4</ele>
        <time>2022-03-10T11:45:24Z</time>
      </trkpt>
      <trkpt lat="46.6436" lon="6.04496">
        <ele>850.4</ele>
        <time>2022-03-10T11:45:30Z</time>
      </trkpt>
      <trkpt lat="46.64362" lon="6.04489">
        <ele>851.6</ele>
        <time>2022-03-10T11:45:35Z</time>
      </trkpt>
      <trkpt lat="46.64365" lon="6.04483">
        <ele>853.1</ele>
        <time>2022-03-10T11:45:40Z</time>
      </trkpt>
      <trkpt lat="46.64368" lon="6.04478">
        <ele>854.8</ele>
        <time>2022-03-10T11:45:46Z</time>
      </trkpt>
      <trkpt lat="46.64372" lon="6.04473">
        <ele>855.3</ele>
        <time>2022-03-10T11:45:51Z</time>
      </trkpt>
      <trkpt lat="46.64375" lon="6.04468">
        <ele>854.8</ele>
        <time>2022-03-10T11:45:56Z</time>
      </trkpt>
      <trkpt lat="46.64379" lon="6.04463">
        <ele>854.2</ele>
        <time>2022-03-10T11:46:02Z</time>
      </trkpt>
      <trkpt lat="46.64382" lon="6.04457">
        <ele>854</ele>
        <time>2022-03-10T11:46:07Z</time>
      </trkpt>
      <trkpt lat="46.64384" lon="6.0445">
        <ele>854.3</ele>
        <time>2022-03-10T11:46:12Z</time>
      </trkpt>
      <trkpt lat="46.64387" lon="6.04444">
        <ele>854.5</ele>
        <time>2022-03-10T11:46:18Z</time>
      </trkpt>
      <trkpt lat="46.64388" lon="6.04436">
        <ele>855.2</ele>
        <time>2022-03-10T11:46:24Z</time>
      </trkpt>
      <trkpt lat="46.6439" lon="6.04429">
        <ele>855</ele>
        <time>2022-03-10T11:46:29Z</time>
      </trkpt>
      <trkpt lat="46.6439" lon="6.04422">
        <ele>854.1</ele>
        <time>2022-03-10T11:46:34Z</time>
      </trkpt>
      <trkpt lat="46.64388" lon="6.04415">
        <ele>852.8</ele>
        <time>2022-03-10T11:46:39Z</time>
      </trkpt>
      <trkpt lat="46.64387" lon="6.04407">
        <ele>851.2</ele>
        <time>2022-03-10T11:46:44Z</time>
      </trkpt>
      <trkpt lat="46.64386" lon="6.04401">
        <ele>850.5</ele>
        <time>2022-03-10T11:46:49Z</time>
      </trkpt>
      <trkpt lat="46.64385" lon="6.04393">
        <ele>849.9</ele>
        <time>2022-03-10T11:46:54Z</time>
      </trkpt>
      <trkpt lat="46.64384" lon="6.04386">
        <ele>849.4</ele>
        <time>2022-03-10T11:46:59Z</time>
      </trkpt>
      <trkpt lat="46.64381" lon="6.0438">
        <ele>848.6</ele>
        <time>2022-03-10T11:47:03Z</time>
      </trkpt>
      <trkpt lat="46.6438" lon="6.04372">
        <ele>847.1</ele>
        <time>2022-03-10T11:47:08Z</time>
      </trkpt>
      <trkpt lat="46.6438" lon="6.04366">
        <ele>845.9</ele>
        <time>2022-03-10T11:47:13Z</time>
      </trkpt>
      <trkpt lat="46.64377" lon="6.0436">
        <ele>845.4</ele>
        <time>2022-03-10T11:47:18Z</time>
      </trkpt>
      <trkpt lat="46.64376" lon="6.04353">
        <ele>845</ele>
        <time>2022-03-10T11:47:23Z</time>
      </trkpt>
      <trkpt lat="46.64374" lon="6.04346">
        <ele>844.4</ele>
        <time>2022-03-10T11:47:28Z</time>
      </trkpt>
      <trkpt lat="46.64374" lon="6.04339">
        <ele>843.6</ele>
        <time>2022-03-10T11:47:34Z</time>
      </trkpt>
      <trkpt lat="46.64373" lon="6.04331">
        <ele>843.5</ele>
        <time>2022-03-10T11:47:39Z</time>
      </trkpt>
      <trkpt lat="46.64372" lon="6.04323">
        <ele>844.4</ele>
        <time>2022-03-10T11:47:44Z</time>
      </trkpt>
      <trkpt lat="46.64369" lon="6.04316">
        <ele>845</ele>
        <time>2022-03-10T11:47:49Z</time>
      </trkpt>
      <trkpt lat="46.64368" lon="6.04308">
        <ele>845.4</ele>
        <time>2022-03-10T11:47:54Z</time>
      </trkpt>
      <trkpt lat="46.64367" lon="6.04301">
        <ele>845.8</ele>
        <time>2022-03-10T11:47:59Z</time>
      </trkpt>
      <trkpt lat="46.64366" lon="6.04295">
        <ele>846.6</ele>
        <time>2022-03-10T11:48:07Z</time>
      </trkpt>
      <trkpt lat="46.64365" lon="6.04288">
        <ele>847.2</ele>
        <time>2022-03-10T11:48:12Z</time>
      </trkpt>
      <trkpt lat="46.64364" lon="6.04281">
        <ele>847.8</ele>
        <time>2022-03-10T11:48:17Z</time>
      </trkpt>
      <trkpt lat="46.64364" lon="6.04274">
        <ele>848</ele>
        <time>2022-03-10T11:48:21Z</time>
      </trkpt>
      <trkpt lat="46.64364" lon="6.04266">
        <ele>848</ele>
        <time>2022-03-10T11:48:26Z</time>
      </trkpt>
      <trkpt lat="46.64364" lon="6.04258">
        <ele>848</ele>
        <time>2022-03-10T11:48:31Z</time>
      </trkpt>
      <trkpt lat="46.64363" lon="6.04252">
        <ele>847.9</ele>
        <time>2022-03-10T11:48:35Z</time>
      </trkpt>
      <trkpt lat="46.64361" lon="6.04244">
        <ele>847.9</ele>
        <time>2022-03-10T11:48:40Z</time>
      </trkpt>
      <trkpt lat="46.6436" lon="6.04237">
        <ele>848.1</ele>
        <time>2022-03-10T11:48:45Z</time>
      </trkpt>
      <trkpt lat="46.64361" lon="6.04231">
        <ele>848.2</ele>
        <time>2022-03-10T11:48:50Z</time>
      </trkpt>
      <trkpt lat="46.64359" lon="6.04223">
        <ele>848.3</ele>
        <time>2022-03-10T11:48:55Z</time>
      </trkpt>
      <trkpt lat="46.64357" lon="6.04217">
        <ele>847.8</ele>
        <time>2022-03-10T11:49:00Z</time>
      </trkpt>
      <trkpt lat="46.64355" lon="6.0421">
        <ele>847.2</ele>
        <time>2022-03-10T11:49:05Z</time>
      </trkpt>
      <trkpt lat="46.64353" lon="6.04203">
        <ele>846.4</ele>
        <time>2022-03-10T11:49:10Z</time>
      </trkpt>
      <trkpt lat="46.64352" lon="6.04195">
        <ele>846</ele>
        <time>2022-03-10T11:49:15Z</time>
      </trkpt>
      <trkpt lat="46.6435" lon="6.04189">
        <ele>845.8</ele>
        <time>2022-03-10T11:49:19Z</time>
      </trkpt>
      <trkpt lat="46.6435" lon="6.04182">
        <ele>846.2</ele>
        <time>2022-03-10T11:49:23Z</time>
      </trkpt>
      <trkpt lat="46.64348" lon="6.04176">
        <ele>846.3</ele>
        <time>2022-03-10T11:49:28Z</time>
      </trkpt>
      <trkpt lat="46.64345" lon="6.0417">
        <ele>846.5</ele>
        <time>2022-03-10T11:49:33Z</time>
      </trkpt>
      <trkpt lat="46.64345" lon="6.04163">
        <ele>847.1</ele>
        <time>2022-03-10T11:49:38Z</time>
      </trkpt>
      <trkpt lat="46.64345" lon="6.04155">
        <ele>847.7</ele>
        <time>2022-03-10T11:49:44Z</time>
      </trkpt>
      <trkpt lat="46.64344" lon="6.04148">
        <ele>847.7</ele>
        <time>2022-03-10T11:49:49Z</time>
      </trkpt>
      <trkpt lat="46.64342" lon="6.04141">
        <ele>847.5</ele>
        <time>2022-03-10T11:49:54Z</time>
      </trkpt>
      <trkpt lat="46.64341" lon="6.04135">
        <ele>847.6</ele>
        <time>2022-03-10T11:49:58Z</time>
      </trkpt>
      <trkpt lat="46.6434" lon="6.04127">
        <ele>847.8</ele>
        <time>2022-03-10T11:50:02Z</time>
      </trkpt>
      <trkpt lat="46.64339" lon="6.04121">
        <ele>848.1</ele>
        <time>2022-03-10T11:50:06Z</time>
      </trkpt>
      <trkpt lat="46.64336" lon="6.04115">
        <ele>848.5</ele>
        <time>2022-03-10T11:50:11Z</time>
      </trkpt>
      <trkpt lat="46.64332" lon="6.04109">
        <ele>848.9</ele>
        <time>2022-03-10T11:50:15Z</time>
      </trkpt>
      <trkpt lat="46.64331" lon="6.04102">
        <ele>849.3</ele>
        <time>2022-03-10T11:50:20Z</time>
      </trkpt>
      <trkpt lat="46.6433" lon="6.04095">
        <ele>849.6</ele>
        <time>2022-03-10T11:50:25Z</time>
      </trkpt>
      <trkpt lat="46.64329" lon="6.04089">
        <ele>849.9</ele>
        <time>2022-03-10T11:50:30Z</time>
      </trkpt>
      <trkpt lat="46.64328" lon="6.04082">
        <ele>850.4</ele>
        <time>2022-03-10T11:50:35Z</time>
      </trkpt>
      <trkpt lat="46.64327" lon="6.04075">
        <ele>850.6</ele>
        <time>2022-03-10T11:50:41Z</time>
      </trkpt>
      <trkpt lat="46.64326" lon="6.04068">
        <ele>850.9</ele>
        <time>2022-03-10T11:50:47Z</time>
      </trkpt>
      <trkpt lat="46.64326" lon="6.0406">
        <ele>850.9</ele>
        <time>2022-03-10T11:50:52Z</time>
      </trkpt>
      <trkpt lat="46.64325" lon="6.04053">
        <ele>850.5</ele>
        <time>2022-03-10T11:50:58Z</time>
      </trkpt>
      <trkpt lat="46.64323" lon="6.04046">
        <ele>849.7</ele>
        <time>2022-03-10T11:51:03Z</time>
      </trkpt>
      <trkpt lat="46.64321" lon="6.0404">
        <ele>849.2</ele>
        <time>2022-03-10T11:51:08Z</time>
      </trkpt>
      <trkpt lat="46.64319" lon="6.04032">
        <ele>848.4</ele>
        <time>2022-03-10T11:51:14Z</time>
      </trkpt>
      <trkpt lat="46.64315" lon="6.04027">
        <ele>847.7</ele>
        <time>2022-03-10T11:51:20Z</time>
      </trkpt>
      <trkpt lat="46.64313" lon="6.0402">
        <ele>846.7</ele>
        <time>2022-03-10T11:51:26Z</time>
      </trkpt>
      <trkpt lat="46.64314" lon="6.04013">
        <ele>845.9</ele>
        <time>2022-03-10T11:51:32Z</time>
      </trkpt>
      <trkpt lat="46.64311" lon="6.04006">
        <ele>844.7</ele>
        <time>2022-03-10T11:51:37Z</time>
      </trkpt>
      <trkpt lat="46.64311" lon="6.03999">
        <ele>843.7</ele>
        <time>2022-03-10T11:51:41Z</time>
      </trkpt>
      <trkpt lat="46.6431" lon="6.03991">
        <ele>842.5</ele>
        <time>2022-03-10T11:51:46Z</time>
      </trkpt>
      <trkpt lat="46.64308" lon="6.03985">
        <ele>841.6</ele>
        <time>2022-03-10T11:51:50Z</time>
      </trkpt>
      <trkpt lat="46.64307" lon="6.03977">
        <ele>840.6</ele>
        <time>2022-03-10T11:51:55Z</time>
      </trkpt>
      <trkpt lat="46.64307" lon="6.0397">
        <ele>840.2</ele>
        <time>2022-03-10T11:51:59Z</time>
      </trkpt>
      <trkpt lat="46.64307" lon="6.03963">
        <ele>839.9</ele>
        <time>2022-03-10T11:52:05Z</time>
      </trkpt>
      <trkpt lat="46.64306" lon="6.03955">
        <ele>839.8</ele>
        <time>2022-03-10T11:52:11Z</time>
      </trkpt>
      <trkpt lat="46.64304" lon="6.03948">
        <ele>839.5</ele>
        <time>2022-03-10T11:52:16Z</time>
      </trkpt>
      <trkpt lat="46.64302" lon="6.03942">
        <ele>838.9</ele>
        <time>2022-03-10T11:52:21Z</time>
      </trkpt>
      <trkpt lat="46.64299" lon="6.03935">
        <ele>838.5</ele>
        <time>2022-03-10T11:52:25Z</time>
      </trkpt>
      <trkpt lat="46.64298" lon="6.03928">
        <ele>838.5</ele>
        <time>2022-03-10T11:52:31Z</time>
      </trkpt>
      <trkpt lat="46.64297" lon="6.03921">
        <ele>839.1</ele>
        <time>2022-03-10T11:52:38Z</time>
      </trkpt>
      <trkpt lat="46.64295" lon="6.03915">
        <ele>839.2</ele>
        <time>2022-03-10T11:52:43Z</time>
      </trkpt>
      <trkpt lat="46.64293" lon="6.03907">
        <ele>839.2</ele>
        <time>2022-03-10T11:52:48Z</time>
      </trkpt>
      <trkpt lat="46.64292" lon="6.039">
        <ele>839.2</ele>
        <time>2022-03-10T11:52:52Z</time>
      </trkpt>
      <trkpt lat="46.64292" lon="6.03893">
        <ele>839.3</ele>
        <time>2022-03-10T11:52:56Z</time>
      </trkpt>
      <trkpt lat="46.64289" lon="6.03886">
        <ele>839.4</ele>
        <time>2022-03-10T11:53:01Z</time>
      </trkpt>
      <trkpt lat="46.64286" lon="6.0388">
        <ele>839.2</ele>
        <time>2022-03-10T11:53:08Z</time>
      </trkpt>
      <trkpt lat="46.64282" lon="6.03879">
        <ele>838.3</ele>
        <time>2022-03-10T11:53:15Z</time>
      </trkpt>
      <trkpt lat="46.64279" lon="6.03875">
        <ele>837.9</ele>
        <time>2022-03-10T11:53:19Z</time>
      </trkpt>
      <trkpt lat="46.64275" lon="6.0387">
        <ele>837.7</ele>
        <time>2022-03-10T11:53:22Z</time>
      </trkpt>
      <trkpt lat="46.64272" lon="6.03865">
        <ele>837.2</ele>
        <time>2022-03-10T11:53:26Z</time>
      </trkpt>
      <trkpt lat="46.64269" lon="6.03859">
        <ele>837</ele>
        <time>2022-03-10T11:53:31Z</time>
      </trkpt>
      <trkpt lat="46.64265" lon="6.03855">
        <ele>837</ele>
        <time>2022-03-10T11:53:35Z</time>
      </trkpt>
      <trkpt lat="46.64261" lon="6.0385">
        <ele>837.3</ele>
        <time>2022-03-10T11:53:39Z</time>
      </trkpt>
      <trkpt lat="46.64258" lon="6.03845">
        <ele>837.8</ele>
        <time>2022-03-10T11:53:45Z</time>
      </trkpt>
      <trkpt lat="46.64253" lon="6.03842">
        <ele>838</ele>
        <time>2022-03-10T11:53:50Z</time>
      </trkpt>
      <trkpt lat="46.64248" lon="6.03838">
        <ele>838.2</ele>
        <time>2022-03-10T11:53:54Z</time>
      </trkpt>
      <trkpt lat="46.64244" lon="6.03834">
        <ele>838.4</ele>
        <time>2022-03-10T11:53:58Z</time>
      </trkpt>
      <trkpt lat="46.64239" lon="6.03831">
        <ele>838.5</ele>
        <time>2022-03-10T11:54:03Z</time>
      </trkpt>
      <trkpt lat="46.64234" lon="6.03831">
        <ele>838.2</ele>
        <time>2022-03-10T11:54:08Z</time>
      </trkpt>
      <trkpt lat="46.64229" lon="6.03827">
        <ele>838.1</ele>
        <time>2022-03-10T11:54:12Z</time>
      </trkpt>
      <trkpt lat="46.64225" lon="6.03822">
        <ele>838</ele>
        <time>2022-03-10T11:54:16Z</time>
      </trkpt>
      <trkpt lat="46.6422" lon="6.0382">
        <ele>838.2</ele>
        <time>2022-03-10T11:54:20Z</time>
      </trkpt>
      <trkpt lat="46.64215" lon="6.0382">
        <ele>838.8</ele>
        <time>2022-03-10T11:54:24Z</time>
      </trkpt>
      <trkpt lat="46.64211" lon="6.0382">
        <ele>839.4</ele>
        <time>2022-03-10T11:54:28Z</time>
      </trkpt>
      <trkpt lat="46.64206" lon="6.03823">
        <ele>840.3</ele>
        <time>2022-03-10T11:54:33Z</time>
      </trkpt>
      <trkpt lat="46.64203" lon="6.03828">
        <ele>841.6</ele>
        <time>2022-03-10T11:54:41Z</time>
      </trkpt>
      <trkpt lat="46.64198" lon="6.03832">
        <ele>841.8</ele>
        <time>2022-03-10T11:54:45Z</time>
      </trkpt>
      <trkpt lat="46.64194" lon="6.03835">
        <ele>841.9</ele>
        <time>2022-03-10T11:54:49Z</time>
      </trkpt>
      <trkpt lat="46.6419" lon="6.03838">
        <ele>841.9</ele>
        <time>2022-03-10T11:54:53Z</time>
      </trkpt>
      <trkpt lat="46.64185" lon="6.03841">
        <ele>842.2</ele>
        <time>2022-03-10T11:54:58Z</time>
      </trkpt>
      <trkpt lat="46.64181" lon="6.03845">
        <ele>842.5</ele>
        <time>2022-03-10T11:55:03Z</time>
      </trkpt>
      <trkpt lat="46.64177" lon="6.03849">
        <ele>843</ele>
        <time>2022-03-10T11:55:08Z</time>
      </trkpt>
      <trkpt lat="46.64172" lon="6.03853">
        <ele>843.5</ele>
        <time>2022-03-10T11:55:12Z</time>
      </trkpt>
      <trkpt lat="46.64167" lon="6.03855">
        <ele>844.1</ele>
        <time>2022-03-10T11:55:16Z</time>
      </trkpt>
      <trkpt lat="46.64162" lon="6.03857">
        <ele>844.6</ele>
        <time>2022-03-10T11:55:21Z</time>
      </trkpt>
      <trkpt lat="46.64157" lon="6.03857">
        <ele>844.8</ele>
        <time>2022-03-10T11:55:27Z</time>
      </trkpt>
      <trkpt lat="46.64153" lon="6.03853">
        <ele>844.1</ele>
        <time>2022-03-10T11:55:34Z</time>
      </trkpt>
      <trkpt lat="46.64149" lon="6.03849">
        <ele>843.4</ele>
        <time>2022-03-10T11:55:40Z</time>
      </trkpt>
      <trkpt lat="46.64144" lon="6.03846">
        <ele>842.3</ele>
        <time>2022-03-10T11:55:46Z</time>
      </trkpt>
      <trkpt lat="46.6414" lon="6.03845">
        <ele>841.6</ele>
        <time>2022-03-10T11:55:51Z</time>
      </trkpt>
      <trkpt lat="46.64135" lon="6.03843">
        <ele>841</ele>
        <time>2022-03-10T11:55:56Z</time>
      </trkpt>
      <trkpt lat="46.64131" lon="6.0384">
        <ele>840.6</ele>
        <time>2022-03-10T11:56:00Z</time>
      </trkpt>
      <trkpt lat="46.64126" lon="6.03837">
        <ele>840.1</ele>
        <time>2022-03-10T11:56:05Z</time>
      </trkpt>
      <trkpt lat="46.64122" lon="6.03834">
        <ele>839</ele>
        <time>2022-03-10T11:56:11Z</time>
      </trkpt>
      <trkpt lat="46.64117" lon="6.03831">
        <ele>837.6</ele>
        <time>2022-03-10T11:56:17Z</time>
      </trkpt>
      <trkpt lat="46.64113" lon="6.03828">
        <ele>836.5</ele>
        <time>2022-03-10T11:56:21Z</time>
      </trkpt>
      <trkpt lat="46.64108" lon="6.03824">
        <ele>835.5</ele>
        <time>2022-03-10T11:56:25Z</time>
      </trkpt>
      <trkpt lat="46.64104" lon="6.03821">
        <ele>834.7</ele>
        <time>2022-03-10T11:56:29Z</time>
      </trkpt>
      <trkpt lat="46.64102" lon="6.03815">
        <ele>834.2</ele>
        <time>2022-03-10T11:56:33Z</time>
      </trkpt>
      <trkpt lat="46.64099" lon="6.03808">
        <ele>833.3</ele>
        <time>2022-03-10T11:56:39Z</time>
      </trkpt>
      <trkpt lat="46.64096" lon="6.03802">
        <ele>832.4</ele>
        <time>2022-03-10T11:56:44Z</time>
      </trkpt>
      <trkpt lat="46.64091" lon="6.03797">
        <ele>831.6</ele>
        <time>2022-03-10T11:56:49Z</time>
      </trkpt>
      <trkpt lat="46.64088" lon="6.03793">
        <ele>830.6</ele>
        <time>2022-03-10T11:56:53Z</time>
      </trkpt>
      <trkpt lat="46.64085" lon="6.03788">
        <ele>829.6</ele>
        <time>2022-03-10T11:56:57Z</time>
      </trkpt>
      <trkpt lat="46.64083" lon="6.03781">
        <ele>828.7</ele>
        <time>2022-03-10T11:57:01Z</time>
      </trkpt>
      <trkpt lat="46.64082" lon="6.03774">
        <ele>827.8</ele>
        <time>2022-03-10T11:57:06Z</time>
      </trkpt>
      <trkpt lat="46.64081" lon="6.03768">
        <ele>827.3</ele>
        <time>2022-03-10T11:57:11Z</time>
      </trkpt>
      <trkpt lat="46.6408" lon="6.0376">
        <ele>827</ele>
        <time>2022-03-10T11:57:16Z</time>
      </trkpt>
      <trkpt lat="46.6408" lon="6.03753">
        <ele>826.8</ele>
        <time>2022-03-10T11:57:21Z</time>
      </trkpt>
      <trkpt lat="46.64079" lon="6.03746">
        <ele>826.3</ele>
        <time>2022-03-10T11:57:27Z</time>
      </trkpt>
      <trkpt lat="46.6408" lon="6.03739">
        <ele>825.7</ele>
        <time>2022-03-10T11:57:32Z</time>
      </trkpt>
      <trkpt lat="46.64079" lon="6.03731">
        <ele>825.2</ele>
        <time>2022-03-10T11:57:37Z</time>
      </trkpt>
      <trkpt lat="46.64078" lon="6.03724">
        <ele>825</ele>
        <time>2022-03-10T11:57:42Z</time>
      </trkpt>
      <trkpt lat="46.64075" lon="6.03717">
        <ele>825</ele>
        <time>2022-03-10T11:57:48Z</time>
      </trkpt>
      <trkpt lat="46.64072" lon="6.03712">
        <ele>824.6</ele>
        <time>2022-03-10T11:57:53Z</time>
      </trkpt>
      <trkpt lat="46.64069" lon="6.03705">
        <ele>824.8</ele>
        <time>2022-03-10T11:57:57Z</time>
      </trkpt>
      <trkpt lat="46.64066" lon="6.03698">
        <ele>824.9</ele>
        <time>2022-03-10T11:58:01Z</time>
      </trkpt>
      <trkpt lat="46.64062" lon="6.03693">
        <ele>825</ele>
        <time>2022-03-10T11:58:07Z</time>
      </trkpt>
      <trkpt lat="46.64059" lon="6.03688">
        <ele>824.7</ele>
        <time>2022-03-10T11:58:13Z</time>
      </trkpt>
      <trkpt lat="46.64055" lon="6.03683">
        <ele>823.8</ele>
        <time>2022-03-10T11:58:19Z</time>
      </trkpt>
      <trkpt lat="46.6405" lon="6.03678">
        <ele>823.1</ele>
        <time>2022-03-10T11:58:24Z</time>
      </trkpt>
      <trkpt lat="46.64046" lon="6.03674">
        <ele>823</ele>
        <time>2022-03-10T11:58:28Z</time>
      </trkpt>
      <trkpt lat="46.64043" lon="6.03668">
        <ele>823.2</ele>
        <time>2022-03-10T11:58:32Z</time>
      </trkpt>
      <trkpt lat="46.64039" lon="6.03662">
        <ele>823.5</ele>
        <time>2022-03-10T11:58:36Z</time>
      </trkpt>
      <trkpt lat="46.64041" lon="6.03669">
        <ele>821.1</ele>
        <time>2022-03-10T11:58:59Z</time>
      </trkpt>
      <trkpt lat="46.64039" lon="6.03663">
        <ele>815.4</ele>
        <time>2022-03-10T11:59:26Z</time>
      </trkpt>
      <trkpt lat="46.64035" lon="6.0366">
        <ele>815.2</ele>
        <time>2022-03-10T11:59:29Z</time>
      </trkpt>
      <trkpt lat="46.6403" lon="6.03657">
        <ele>815.6</ele>
        <time>2022-03-10T11:59:32Z</time>
      </trkpt>
      <trkpt lat="46.64026" lon="6.03651">
        <ele>816.5</ele>
        <time>2022-03-10T11:59:35Z</time>
      </trkpt>
      <trkpt lat="46.64021" lon="6.03646">
        <ele>817.4</ele>
        <time>2022-03-10T11:59:38Z</time>
      </trkpt>
      <trkpt lat="46.64017" lon="6.03642">
        <ele>818.5</ele>
        <time>2022-03-10T11:59:42Z</time>
      </trkpt>
      <trkpt lat="46.64013" lon="6.03638">
        <ele>819.6</ele>
        <time>2022-03-10T11:59:46Z</time>
      </trkpt>
      <trkpt lat="46.64009" lon="6.03634">
        <ele>820.1</ele>
        <time>2022-03-10T11:59:51Z</time>
      </trkpt>
      <trkpt lat="46.64005" lon="6.0363">
        <ele>820</ele>
        <time>2022-03-10T11:59:55Z</time>
      </trkpt>
      <trkpt lat="46.64" lon="6.03626">
        <ele>819.7</ele>
        <time>2022-03-10T11:59:59Z</time>
      </trkpt>
      <trkpt lat="46.63997" lon="6.03622">
        <ele>819.3</ele>
        <time>2022-03-10T12:00:03Z</time>
      </trkpt>
      <trkpt lat="46.63993" lon="6.03617">
        <ele>818.9</ele>
        <time>2022-03-10T12:00:08Z</time>
      </trkpt>
      <trkpt lat="46.6399" lon="6.03612">
        <ele>817.6</ele>
        <time>2022-03-10T12:00:14Z</time>
      </trkpt>
      <trkpt lat="46.63987" lon="6.03607">
        <ele>816</ele>
        <time>2022-03-10T12:00:19Z</time>
      </trkpt>
      <trkpt lat="46.63984" lon="6.03601">
        <ele>814.7</ele>
        <time>2022-03-10T12:00:23Z</time>
      </trkpt>
      <trkpt lat="46.63981" lon="6.03596">
        <ele>813.6</ele>
        <time>2022-03-10T12:00:27Z</time>
      </trkpt>
      <trkpt lat="46.63977" lon="6.0359">
        <ele>812.3</ele>
        <time>2022-03-10T12:00:33Z</time>
      </trkpt>
      <trkpt lat="46.63975" lon="6.03585">
        <ele>811.5</ele>
        <time>2022-03-10T12:00:37Z</time>
      </trkpt>
      <trkpt lat="46.63971" lon="6.0358">
        <ele>811.3</ele>
        <time>2022-03-10T12:00:40Z</time>
      </trkpt>
      <trkpt lat="46.63968" lon="6.03575">
        <ele>811.4</ele>
        <time>2022-03-10T12:00:43Z</time>
      </trkpt>
      <trkpt lat="46.63964" lon="6.03571">
        <ele>812.3</ele>
        <time>2022-03-10T12:00:47Z</time>
      </trkpt>
      <trkpt lat="46.6396" lon="6.03567">
        <ele>813.4</ele>
        <time>2022-03-10T12:00:54Z</time>
      </trkpt>
      <trkpt lat="46.63954" lon="6.03565">
        <ele>813.4</ele>
        <time>2022-03-10T12:00:59Z</time>
      </trkpt>
      <trkpt lat="46.6395" lon="6.03564">
        <ele>812.4</ele>
        <time>2022-03-10T12:01:04Z</time>
      </trkpt>
      <trkpt lat="46.63945" lon="6.03562">
        <ele>811.5</ele>
        <time>2022-03-10T12:01:08Z</time>
      </trkpt>
      <trkpt lat="46.63941" lon="6.0356">
        <ele>810.8</ele>
        <time>2022-03-10T12:01:12Z</time>
      </trkpt>
      <trkpt lat="46.63935" lon="6.03558">
        <ele>809.7</ele>
        <time>2022-03-10T12:01:18Z</time>
      </trkpt>
      <trkpt lat="46.6393" lon="6.03557">
        <ele>808.1</ele>
        <time>2022-03-10T12:01:23Z</time>
      </trkpt>
      <trkpt lat="46.63925" lon="6.03556">
        <ele>806.4</ele>
        <time>2022-03-10T12:01:28Z</time>
      </trkpt>
      <trkpt lat="46.63921" lon="6.03556">
        <ele>804.8</ele>
        <time>2022-03-10T12:01:33Z</time>
      </trkpt>
      <trkpt lat="46.63915" lon="6.03556">
        <ele>803.6</ele>
        <time>2022-03-10T12:01:37Z</time>
      </trkpt>
      <trkpt lat="46.6391" lon="6.03557">
        <ele>802.9</ele>
        <time>2022-03-10T12:01:40Z</time>
      </trkpt>
      <trkpt lat="46.63904" lon="6.03558">
        <ele>802.3</ele>
        <time>2022-03-10T12:01:44Z</time>
      </trkpt>
      <trkpt lat="46.63899" lon="6.03556">
        <ele>801.7</ele>
        <time>2022-03-10T12:01:48Z</time>
      </trkpt>
      <trkpt lat="46.63894" lon="6.03557">
        <ele>801.1</ele>
        <time>2022-03-10T12:01:52Z</time>
      </trkpt>
      <trkpt lat="46.6389" lon="6.0356">
        <ele>800.8</ele>
        <time>2022-03-10T12:01:56Z</time>
      </trkpt>
      <trkpt lat="46.63885" lon="6.03562">
        <ele>801</ele>
        <time>2022-03-10T12:02:00Z</time>
      </trkpt>
      <trkpt lat="46.6388" lon="6.03563">
        <ele>801.6</ele>
        <time>2022-03-10T12:02:04Z</time>
      </trkpt>
      <trkpt lat="46.63875" lon="6.03564">
        <ele>803.3</ele>
        <time>2022-03-10T12:02:11Z</time>
      </trkpt>
      <trkpt lat="46.6387" lon="6.03562">
        <ele>803.8</ele>
        <time>2022-03-10T12:02:16Z</time>
      </trkpt>
      <trkpt lat="46.63865" lon="6.03563">
        <ele>803.7</ele>
        <time>2022-03-10T12:02:21Z</time>
      </trkpt>
      <trkpt lat="46.63859" lon="6.03562">
        <ele>803.5</ele>
        <time>2022-03-10T12:02:25Z</time>
      </trkpt>
      <trkpt lat="46.63853" lon="6.03562">
        <ele>803.2</ele>
        <time>2022-03-10T12:02:29Z</time>
      </trkpt>
      <trkpt lat="46.63849" lon="6.0356">
        <ele>802.7</ele>
        <time>2022-03-10T12:02:33Z</time>
      </trkpt>
      <trkpt lat="46.63844" lon="6.03556">
        <ele>801.6</ele>
        <time>2022-03-10T12:02:38Z</time>
      </trkpt>
      <trkpt lat="46.6384" lon="6.03551">
        <ele>800.7</ele>
        <time>2022-03-10T12:02:42Z</time>
      </trkpt>
      <trkpt lat="46.63838" lon="6.03545">
        <ele>798.7</ele>
        <time>2022-03-10T12:02:47Z</time>
      </trkpt>
      <trkpt lat="46.63838" lon="6.03537">
        <ele>796.4</ele>
        <time>2022-03-10T12:02:52Z</time>
      </trkpt>
      <trkpt lat="46.63838" lon="6.0353">
        <ele>795</ele>
        <time>2022-03-10T12:02:56Z</time>
      </trkpt>
      <trkpt lat="46.63836" lon="6.03522">
        <ele>794.4</ele>
        <time>2022-03-10T12:03:00Z</time>
      </trkpt>
      <trkpt lat="46.63834" lon="6.03516">
        <ele>793.8</ele>
        <time>2022-03-10T12:03:04Z</time>
      </trkpt>
      <trkpt lat="46.63831" lon="6.0351">
        <ele>792.2</ele>
        <time>2022-03-10T12:03:10Z</time>
      </trkpt>
      <trkpt lat="46.63827" lon="6.03506">
        <ele>791.7</ele>
        <time>2022-03-10T12:03:13Z</time>
      </trkpt>
      <trkpt lat="46.63823" lon="6.03504">
        <ele>791</ele>
        <time>2022-03-10T12:03:16Z</time>
      </trkpt>
      <trkpt lat="46.63818" lon="6.03501">
        <ele>790.1</ele>
        <time>2022-03-10T12:03:20Z</time>
      </trkpt>
      <trkpt lat="46.63815" lon="6.03496">
        <ele>788.4</ele>
        <time>2022-03-10T12:03:26Z</time>
      </trkpt>
      <trkpt lat="46.63811" lon="6.03489">
        <ele>787.3</ele>
        <time>2022-03-10T12:03:31Z</time>
      </trkpt>
      <trkpt lat="46.63809" lon="6.03481">
        <ele>787.1</ele>
        <time>2022-03-10T12:03:35Z</time>
      </trkpt>
      <trkpt lat="46.63807" lon="6.03475">
        <ele>787.3</ele>
        <time>2022-03-10T12:03:38Z</time>
      </trkpt>
      <trkpt lat="46.63804" lon="6.0347">
        <ele>787.2</ele>
        <time>2022-03-10T12:03:42Z</time>
      </trkpt>
      <trkpt lat="46.638" lon="6.03463">
        <ele>786.2</ele>
        <time>2022-03-10T12:03:48Z</time>
      </trkpt>
      <trkpt lat="46.63797" lon="6.03458">
        <ele>785</ele>
        <time>2022-03-10T12:03:53Z</time>
      </trkpt>
      <trkpt lat="46.63794" lon="6.03453">
        <ele>782.9</ele>
        <time>2022-03-10T12:03:59Z</time>
      </trkpt>
      <trkpt lat="46.6379" lon="6.03448">
        <ele>781.5</ele>
        <time>2022-03-10T12:04:04Z</time>
      </trkpt>
      <trkpt lat="46.63787" lon="6.03442">
        <ele>780.3</ele>
        <time>2022-03-10T12:04:09Z</time>
      </trkpt>
      <trkpt lat="46.63783" lon="6.03437">
        <ele>780.1</ele>
        <time>2022-03-10T12:04:14Z</time>
      </trkpt>
      <trkpt lat="46.6378" lon="6.03433">
        <ele>780.7</ele>
        <time>2022-03-10T12:04:18Z</time>
      </trkpt>
      <trkpt lat="46.63776" lon="6.03428">
        <ele>781.9</ele>
        <time>2022-03-10T12:04:22Z</time>
      </trkpt>
      <trkpt lat="46.63773" lon="6.03422">
        <ele>784.1</ele>
        <time>2022-03-10T12:04:27Z</time>
      </trkpt>
      <trkpt lat="46.63768" lon="6.03418">
        <ele>785.8</ele>
        <time>2022-03-10T12:04:33Z</time>
      </trkpt>
      <trkpt lat="46.63764" lon="6.03413">
        <ele>787.3</ele>
        <time>2022-03-10T12:04:38Z</time>
      </trkpt>
      <trkpt lat="46.63761" lon="6.03408">
        <ele>788.1</ele>
        <time>2022-03-10T12:04:42Z</time>
      </trkpt>
      <trkpt lat="46.63757" lon="6.03403">
        <ele>789.1</ele>
        <time>2022-03-10T12:04:46Z</time>
      </trkpt>
      <trkpt lat="46.63754" lon="6.03398">
        <ele>790.5</ele>
        <time>2022-03-10T12:04:51Z</time>
      </trkpt>
      <trkpt lat="46.63751" lon="6.03393">
        <ele>791.7</ele>
        <time>2022-03-10T12:04:56Z</time>
      </trkpt>
      <trkpt lat="46.63746" lon="6.03389">
        <ele>792.6</ele>
        <time>2022-03-10T12:05:00Z</time>
      </trkpt>
      <trkpt lat="46.63743" lon="6.03383">
        <ele>793.1</ele>
        <time>2022-03-10T12:05:05Z</time>
      </trkpt>
      <trkpt lat="46.63742" lon="6.03376">
        <ele>793.6</ele>
        <time>2022-03-10T12:05:11Z</time>
      </trkpt>
      <trkpt lat="46.63739" lon="6.03369">
        <ele>794.3</ele>
        <time>2022-03-10T12:05:16Z</time>
      </trkpt>
      <trkpt lat="46.63739" lon="6.03362">
        <ele>794.4</ele>
        <time>2022-03-10T12:05:21Z</time>
      </trkpt>
      <trkpt lat="46.63738" lon="6.03355">
        <ele>793.9</ele>
        <time>2022-03-10T12:05:25Z</time>
      </trkpt>
      <trkpt lat="46.63737" lon="6.03349">
        <ele>793.2</ele>
        <time>2022-03-10T12:05:29Z</time>
      </trkpt>
      <trkpt lat="46.63735" lon="6.03342">
        <ele>792.6</ele>
        <time>2022-03-10T12:05:34Z</time>
      </trkpt>
      <trkpt lat="46.63733" lon="6.03336">
        <ele>792.2</ele>
        <time>2022-03-10T12:05:39Z</time>
      </trkpt>
      <trkpt lat="46.63732" lon="6.03329">
        <ele>791.5</ele>
        <time>2022-03-10T12:05:45Z</time>
      </trkpt>
      <trkpt lat="46.63732" lon="6.03322">
        <ele>791.3</ele>
        <time>2022-03-10T12:05:51Z</time>
      </trkpt>
      <trkpt lat="46.63729" lon="6.03315">
        <ele>791.7</ele>
        <time>2022-03-10T12:05:56Z</time>
      </trkpt>
      <trkpt lat="46.63728" lon="6.03309">
        <ele>792.2</ele>
        <time>2022-03-10T12:06:01Z</time>
      </trkpt>
      <trkpt lat="46.63727" lon="6.03301">
        <ele>792.6</ele>
        <time>2022-03-10T12:06:06Z</time>
      </trkpt>
      <trkpt lat="46.63726" lon="6.03295">
        <ele>793</ele>
        <time>2022-03-10T12:06:10Z</time>
      </trkpt>
      <trkpt lat="46.63725" lon="6.03288">
        <ele>793.2</ele>
        <time>2022-03-10T12:06:14Z</time>
      </trkpt>
      <trkpt lat="46.63724" lon="6.03282">
        <ele>793.4</ele>
        <time>2022-03-10T12:06:18Z</time>
      </trkpt>
      <trkpt lat="46.63723" lon="6.03274">
        <ele>793.2</ele>
        <time>2022-03-10T12:06:23Z</time>
      </trkpt>
      <trkpt lat="46.63721" lon="6.03268">
        <ele>792.5</ele>
        <time>2022-03-10T12:06:30Z</time>
      </trkpt>
      <trkpt lat="46.6372" lon="6.0326">
        <ele>792.1</ele>
        <time>2022-03-10T12:06:36Z</time>
      </trkpt>
      <trkpt lat="46.6372" lon="6.03253">
        <ele>791.7</ele>
        <time>2022-03-10T12:06:41Z</time>
      </trkpt>
      <trkpt lat="46.6372" lon="6.03246">
        <ele>791.4</ele>
        <time>2022-03-10T12:06:45Z</time>
      </trkpt>
      <trkpt lat="46.63719" lon="6.0324">
        <ele>791.1</ele>
        <time>2022-03-10T12:06:49Z</time>
      </trkpt>
      <trkpt lat="46.63719" lon="6.03233">
        <ele>790.6</ele>
        <time>2022-03-10T12:06:54Z</time>
      </trkpt>
      <trkpt lat="46.63719" lon="6.03226">
        <ele>790.3</ele>
        <time>2022-03-10T12:06:59Z</time>
      </trkpt>
      <trkpt lat="46.63721" lon="6.03219">
        <ele>790.1</ele>
        <time>2022-03-10T12:07:06Z</time>
      </trkpt>
      <trkpt lat="46.63725" lon="6.03214">
        <ele>790.4</ele>
        <time>2022-03-10T12:07:11Z</time>
      </trkpt>
      <trkpt lat="46.63728" lon="6.03208">
        <ele>790.9</ele>
        <time>2022-03-10T12:07:15Z</time>
      </trkpt>
      <trkpt lat="46.63729" lon="6.03201">
        <ele>791.3</ele>
        <time>2022-03-10T12:07:19Z</time>
      </trkpt>
      <trkpt lat="46.63727" lon="6.03195">
        <ele>791.2</ele>
        <time>2022-03-10T12:07:23Z</time>
      </trkpt>
      <trkpt lat="46.63725" lon="6.03188">
        <ele>791.1</ele>
        <time>2022-03-10T12:07:27Z</time>
      </trkpt>
      <trkpt lat="46.63726" lon="6.03181">
        <ele>791.3</ele>
        <time>2022-03-10T12:07:33Z</time>
      </trkpt>
      <trkpt lat="46.63726" lon="6.03174">
        <ele>791.6</ele>
        <time>2022-03-10T12:07:39Z</time>
      </trkpt>
      <trkpt lat="46.63724" lon="6.03168">
        <ele>791.6</ele>
        <time>2022-03-10T12:07:43Z</time>
      </trkpt>
      <trkpt lat="46.63722" lon="6.03162">
        <ele>791.9</ele>
        <time>2022-03-10T12:07:47Z</time>
      </trkpt>
      <trkpt lat="46.6372" lon="6.03154">
        <ele>792.4</ele>
        <time>2022-03-10T12:07:52Z</time>
      </trkpt>
      <trkpt lat="46.63719" lon="6.03147">
        <ele>793.2</ele>
        <time>2022-03-10T12:07:57Z</time>
      </trkpt>
      <trkpt lat="46.63717" lon="6.0314">
        <ele>793.6</ele>
        <time>2022-03-10T12:08:02Z</time>
      </trkpt>
      <trkpt lat="46.63715" lon="6.03132">
        <ele>793.8</ele>
        <time>2022-03-10T12:08:06Z</time>
      </trkpt>
      <trkpt lat="46.63713" lon="6.03126">
        <ele>793.8</ele>
        <time>2022-03-10T12:08:10Z</time>
      </trkpt>
      <trkpt lat="46.6371" lon="6.0312">
        <ele>793.5</ele>
        <time>2022-03-10T12:08:14Z</time>
      </trkpt>
      <trkpt lat="46.63706" lon="6.03115">
        <ele>792.8</ele>
        <time>2022-03-10T12:08:18Z</time>
      </trkpt>
      <trkpt lat="46.63704" lon="6.03109">
        <ele>792.2</ele>
        <time>2022-03-10T12:08:23Z</time>
      </trkpt>
      <trkpt lat="46.63702" lon="6.03101">
        <ele>791.4</ele>
        <time>2022-03-10T12:08:30Z</time>
      </trkpt>
      <trkpt lat="46.63699" lon="6.03096">
        <ele>791</ele>
        <time>2022-03-10T12:08:33Z</time>
      </trkpt>
      <trkpt lat="46.63695" lon="6.03092">
        <ele>790.6</ele>
        <time>2022-03-10T12:08:36Z</time>
      </trkpt>
      <trkpt lat="46.6369" lon="6.03088">
        <ele>790.4</ele>
        <time>2022-03-10T12:08:40Z</time>
      </trkpt>
      <trkpt lat="46.63686" lon="6.03084">
        <ele>790.8</ele>
        <time>2022-03-10T12:08:44Z</time>
      </trkpt>
      <trkpt lat="46.63682" lon="6.03081">
        <ele>791.5</ele>
        <time>2022-03-10T12:08:49Z</time>
      </trkpt>
      <trkpt lat="46.63679" lon="6.03074">
        <ele>792.1</ele>
        <time>2022-03-10T12:08:54Z</time>
      </trkpt>
      <trkpt lat="46.63679" lon="6.03067">
        <ele>792.2</ele>
        <time>2022-03-10T12:08:59Z</time>
      </trkpt>
      <trkpt lat="46.63678" lon="6.03061">
        <ele>791.5</ele>
        <time>2022-03-10T12:09:04Z</time>
      </trkpt>
      <trkpt lat="46.63681" lon="6.03055">
        <ele>790.3</ele>
        <time>2022-03-10T12:09:10Z</time>
      </trkpt>
      <trkpt lat="46.63684" lon="6.03049">
        <ele>789.6</ele>
        <time>2022-03-10T12:09:15Z</time>
      </trkpt>
      <trkpt lat="46.63685" lon="6.03042">
        <ele>789.2</ele>
        <time>2022-03-10T12:09:19Z</time>
      </trkpt>
      <trkpt lat="46.63684" lon="6.03035">
        <ele>789.1</ele>
        <time>2022-03-10T12:09:24Z</time>
      </trkpt>
      <trkpt lat="46.6368" lon="6.0303">
        <ele>789</ele>
        <time>2022-03-10T12:09:28Z</time>
      </trkpt>
      <trkpt lat="46.63677" lon="6.03024">
        <ele>789.3</ele>
        <time>2022-03-10T12:09:34Z</time>
      </trkpt>
      <trkpt lat="46.63676" lon="6.03018">
        <ele>789.6</ele>
        <time>2022-03-10T12:09:39Z</time>
      </trkpt>
      <trkpt lat="46.63676" lon="6.0301">
        <ele>789.5</ele>
        <time>2022-03-10T12:09:44Z</time>
      </trkpt>
      <trkpt lat="46.63677" lon="6.03002">
        <ele>789.8</ele>
        <time>2022-03-10T12:09:49Z</time>
      </trkpt>
      <trkpt lat="46.63675" lon="6.02994">
        <ele>790.1</ele>
        <time>2022-03-10T12:09:54Z</time>
      </trkpt>
      <trkpt lat="46.63675" lon="6.02986">
        <ele>790.4</ele>
        <time>2022-03-10T12:09:59Z</time>
      </trkpt>
      <trkpt lat="46.63674" lon="6.02979">
        <ele>790.7</ele>
        <time>2022-03-10T12:10:04Z</time>
      </trkpt>
      <trkpt lat="46.63672" lon="6.02972">
        <ele>790.9</ele>
        <time>2022-03-10T12:10:09Z</time>
      </trkpt>
      <trkpt lat="46.6367" lon="6.02966">
        <ele>791.3</ele>
        <time>2022-03-10T12:10:13Z</time>
      </trkpt>
      <trkpt lat="46.63668" lon="6.02961">
        <ele>791.2</ele>
        <time>2022-03-10T12:10:19Z</time>
      </trkpt>
      <trkpt lat="46.63665" lon="6.02955">
        <ele>790.7</ele>
        <time>2022-03-10T12:10:24Z</time>
      </trkpt>
      <trkpt lat="46.63662" lon="6.02949">
        <ele>790.5</ele>
        <time>2022-03-10T12:10:29Z</time>
      </trkpt>
      <trkpt lat="46.6366" lon="6.02942">
        <ele>791.6</ele>
        <time>2022-03-10T12:10:34Z</time>
      </trkpt>
      <trkpt lat="46.63659" lon="6.02935">
        <ele>792.6</ele>
        <time>2022-03-10T12:10:39Z</time>
      </trkpt>
      <trkpt lat="46.63658" lon="6.02928">
        <ele>793.1</ele>
        <time>2022-03-10T12:10:44Z</time>
      </trkpt>
      <trkpt lat="46.63656" lon="6.02921">
        <ele>793.7</ele>
        <time>2022-03-10T12:10:50Z</time>
      </trkpt>
      <trkpt lat="46.63654" lon="6.02915">
        <ele>793.9</ele>
        <time>2022-03-10T12:10:55Z</time>
      </trkpt>
      <trkpt lat="46.63653" lon="6.02908">
        <ele>793.9</ele>
        <time>2022-03-10T12:11:00Z</time>
      </trkpt>
      <trkpt lat="46.63651" lon="6.02902">
        <ele>794.1</ele>
        <time>2022-03-10T12:11:05Z</time>
      </trkpt>
      <trkpt lat="46.6365" lon="6.02894">
        <ele>794.4</ele>
        <time>2022-03-10T12:11:10Z</time>
      </trkpt>
      <trkpt lat="46.63648" lon="6.02888">
        <ele>795.1</ele>
        <time>2022-03-10T12:11:16Z</time>
      </trkpt>
      <trkpt lat="46.63646" lon="6.02881">
        <ele>795.7</ele>
        <time>2022-03-10T12:11:21Z</time>
      </trkpt>
      <trkpt lat="46.63643" lon="6.02876">
        <ele>796.4</ele>
        <time>2022-03-10T12:11:25Z</time>
      </trkpt>
      <trkpt lat="46.63641" lon="6.0287">
        <ele>797.4</ele>
        <time>2022-03-10T12:11:30Z</time>
      </trkpt>
      <trkpt lat="46.63638" lon="6.02863">
        <ele>798.1</ele>
        <time>2022-03-10T12:11:35Z</time>
      </trkpt>
      <trkpt lat="46.63634" lon="6.02859">
        <ele>798.6</ele>
        <time>2022-03-10T12:11:40Z</time>
      </trkpt>
      <trkpt lat="46.6363" lon="6.02854">
        <ele>799.6</ele>
        <time>2022-03-10T12:11:45Z</time>
      </trkpt>
      <trkpt lat="46.63626" lon="6.0285">
        <ele>800.8</ele>
        <time>2022-03-10T12:11:51Z</time>
      </trkpt>
      <trkpt lat="46.63621" lon="6.02848">
        <ele>801.4</ele>
        <time>2022-03-10T12:11:56Z</time>
      </trkpt>
      <trkpt lat="46.63616" lon="6.02847">
        <ele>801.6</ele>
        <time>2022-03-10T12:12:00Z</time>
      </trkpt>
      <trkpt lat="46.63611" lon="6.02847">
        <ele>801.4</ele>
        <time>2022-03-10T12:12:05Z</time>
      </trkpt>
      <trkpt lat="46.63605" lon="6.02846">
        <ele>801.2</ele>
        <time>2022-03-10T12:12:10Z</time>
      </trkpt>
      <trkpt lat="46.63601" lon="6.02845">
        <ele>801.1</ele>
        <time>2022-03-10T12:12:15Z</time>
      </trkpt>
      <trkpt lat="46.63596" lon="6.02843">
        <ele>801.7</ele>
        <time>2022-03-10T12:12:20Z</time>
      </trkpt>
      <trkpt lat="46.63592" lon="6.02841">
        <ele>803</ele>
        <time>2022-03-10T12:12:25Z</time>
      </trkpt>
      <trkpt lat="46.63587" lon="6.02839">
        <ele>804.3</ele>
        <time>2022-03-10T12:12:30Z</time>
      </trkpt>
      <trkpt lat="46.63583" lon="6.02837">
        <ele>805.7</ele>
        <time>2022-03-10T12:12:34Z</time>
      </trkpt>
      <trkpt lat="46.63578" lon="6.02835">
        <ele>806.6</ele>
        <time>2022-03-10T12:12:39Z</time>
      </trkpt>
      <trkpt lat="46.63573" lon="6.02832">
        <ele>807.3</ele>
        <time>2022-03-10T12:12:45Z</time>
      </trkpt>
      <trkpt lat="46.63568" lon="6.02829">
        <ele>808.1</ele>
        <time>2022-03-10T12:12:51Z</time>
      </trkpt>
      <trkpt lat="46.63564" lon="6.02826">
        <ele>808.1</ele>
        <time>2022-03-10T12:12:55Z</time>
      </trkpt>
      <trkpt lat="46.63559" lon="6.02823">
        <ele>808</ele>
        <time>2022-03-10T12:13:00Z</time>
      </trkpt>
      <trkpt lat="46.63554" lon="6.02819">
        <ele>807.2</ele>
        <time>2022-03-10T12:13:05Z</time>
      </trkpt>
      <trkpt lat="46.6355" lon="6.02816">
        <ele>806.9</ele>
        <time>2022-03-10T12:13:09Z</time>
      </trkpt>
      <trkpt lat="46.63546" lon="6.02813">
        <ele>807.1</ele>
        <time>2022-03-10T12:13:13Z</time>
      </trkpt>
      <trkpt lat="46.63541" lon="6.02809">
        <ele>807.4</ele>
        <time>2022-03-10T12:13:18Z</time>
      </trkpt>
      <trkpt lat="46.63537" lon="6.02806">
        <ele>807.8</ele>
        <time>2022-03-10T12:13:24Z</time>
      </trkpt>
      <trkpt lat="46.63532" lon="6.02804">
        <ele>807.6</ele>
        <time>2022-03-10T12:13:29Z</time>
      </trkpt>
      <trkpt lat="46.63528" lon="6.028">
        <ele>806.8</ele>
        <time>2022-03-10T12:13:34Z</time>
      </trkpt>
      <trkpt lat="46.63524" lon="6.02796">
        <ele>805.8</ele>
        <time>2022-03-10T12:13:39Z</time>
      </trkpt>
      <trkpt lat="46.6352" lon="6.02791">
        <ele>804.5</ele>
        <time>2022-03-10T12:13:45Z</time>
      </trkpt>
      <trkpt lat="46.63517" lon="6.02786">
        <ele>803.8</ele>
        <time>2022-03-10T12:13:50Z</time>
      </trkpt>
      <trkpt lat="46.63513" lon="6.02781">
        <ele>803.3</ele>
        <time>2022-03-10T12:13:55Z</time>
      </trkpt>
      <trkpt lat="46.63509" lon="6.02778">
        <ele>803</ele>
        <time>2022-03-10T12:14:00Z</time>
      </trkpt>
      <trkpt lat="46.63504" lon="6.02776">
        <ele>803.6</ele>
        <time>2022-03-10T12:14:06Z</time>
      </trkpt>
      <trkpt lat="46.63499" lon="6.02774">
        <ele>803.9</ele>
        <time>2022-03-10T12:14:11Z</time>
      </trkpt>
      <trkpt lat="46.63494" lon="6.02773">
        <ele>804.2</ele>
        <time>2022-03-10T12:14:16Z</time>
      </trkpt>
      <trkpt lat="46.63489" lon="6.02771">
        <ele>804.7</ele>
        <time>2022-03-10T12:14:21Z</time>
      </trkpt>
      <trkpt lat="46.63484" lon="6.02769">
        <ele>805.3</ele>
        <time>2022-03-10T12:14:26Z</time>
      </trkpt>
      <trkpt lat="46.6348" lon="6.02766">
        <ele>805.7</ele>
        <time>2022-03-10T12:14:31Z</time>
      </trkpt>
      <trkpt lat="46.63475" lon="6.02764">
        <ele>806.4</ele>
        <time>2022-03-10T12:14:37Z</time>
      </trkpt>
      <trkpt lat="46.63471" lon="6.02762">
        <ele>807.3</ele>
        <time>2022-03-10T12:14:42Z</time>
      </trkpt>
      <trkpt lat="46.63467" lon="6.02758">
        <ele>808.3</ele>
        <time>2022-03-10T12:14:47Z</time>
      </trkpt>
      <trkpt lat="46.63462" lon="6.02758">
        <ele>808.6</ele>
        <time>2022-03-10T12:14:52Z</time>
      </trkpt>
      <trkpt lat="46.63457" lon="6.02756">
        <ele>808.8</ele>
        <time>2022-03-10T12:14:58Z</time>
      </trkpt>
      <trkpt lat="46.63452" lon="6.02755">
        <ele>808.7</ele>
        <time>2022-03-10T12:15:04Z</time>
      </trkpt>
      <trkpt lat="46.63447" lon="6.02755">
        <ele>808.9</ele>
        <time>2022-03-10T12:15:09Z</time>
      </trkpt>
      <trkpt lat="46.63443" lon="6.02754">
        <ele>808.9</ele>
        <time>2022-03-10T12:15:14Z</time>
      </trkpt>
      <trkpt lat="46.63438" lon="6.02752">
        <ele>809.1</ele>
        <time>2022-03-10T12:15:20Z</time>
      </trkpt>
      <trkpt lat="46.63433" lon="6.02751">
        <ele>809.3</ele>
        <time>2022-03-10T12:15:26Z</time>
      </trkpt>
      <trkpt lat="46.63427" lon="6.02749">
        <ele>809.6</ele>
        <time>2022-03-10T12:15:31Z</time>
      </trkpt>
      <trkpt lat="46.63422" lon="6.02748">
        <ele>810.4</ele>
        <time>2022-03-10T12:15:36Z</time>
      </trkpt>
      <trkpt lat="46.63417" lon="6.02746">
        <ele>811.5</ele>
        <time>2022-03-10T12:15:41Z</time>
      </trkpt>
      <trkpt lat="46.63412" lon="6.02745">
        <ele>812.4</ele>
        <time>2022-03-10T12:15:46Z</time>
      </trkpt>
      <trkpt lat="46.63407" lon="6.02742">
        <ele>813.2</ele>
        <time>2022-03-10T12:15:53Z</time>
      </trkpt>
      <trkpt lat="46.63402" lon="6.02738">
        <ele>814.2</ele>
        <time>2022-03-10T12:15:59Z</time>
      </trkpt>
      <trkpt lat="46.63398" lon="6.02737">
        <ele>814.7</ele>
        <time>2022-03-10T12:16:04Z</time>
      </trkpt>
      <trkpt lat="46.63393" lon="6.02735">
        <ele>815.5</ele>
        <time>2022-03-10T12:16:10Z</time>
      </trkpt>
      <trkpt lat="46.63389" lon="6.02732">
        <ele>816.2</ele>
        <time>2022-03-10T12:16:16Z</time>
      </trkpt>
      <trkpt lat="46.63385" lon="6.02729">
        <ele>816.5</ele>
        <time>2022-03-10T12:16:21Z</time>
      </trkpt>
      <trkpt lat="46.6338" lon="6.02727">
        <ele>816.8</ele>
        <time>2022-03-10T12:16:27Z</time>
      </trkpt>
      <trkpt lat="46.63375" lon="6.02725">
        <ele>816.7</ele>
        <time>2022-03-10T12:16:32Z</time>
      </trkpt>
      <trkpt lat="46.63371" lon="6.02722">
        <ele>816.1</ele>
        <time>2022-03-10T12:16:36Z</time>
      </trkpt>
      <trkpt lat="46.63367" lon="6.02718">
        <ele>815.4</ele>
        <time>2022-03-10T12:16:41Z</time>
      </trkpt>
      <trkpt lat="46.63363" lon="6.02715">
        <ele>815.2</ele>
        <time>2022-03-10T12:16:46Z</time>
      </trkpt>
      <trkpt lat="46.63359" lon="6.02711">
        <ele>815.6</ele>
        <time>2022-03-10T12:16:51Z</time>
      </trkpt>
      <trkpt lat="46.63355" lon="6.02707">
        <ele>816.6</ele>
        <time>2022-03-10T12:16:56Z</time>
      </trkpt>
      <trkpt lat="46.63351" lon="6.02702">
        <ele>818</ele>
        <time>2022-03-10T12:17:02Z</time>
      </trkpt>
      <trkpt lat="46.63346" lon="6.02699">
        <ele>818.9</ele>
        <time>2022-03-10T12:17:08Z</time>
      </trkpt>
      <trkpt lat="46.63342" lon="6.02697">
        <ele>820.1</ele>
        <time>2022-03-10T12:17:14Z</time>
      </trkpt>
      <trkpt lat="46.63337" lon="6.02694">
        <ele>822.1</ele>
        <time>2022-03-10T12:17:21Z</time>
      </trkpt>
      <trkpt lat="46.63332" lon="6.02692">
        <ele>826.9</ele>
        <time>2022-03-10T12:18:36Z</time>
      </trkpt>
      <trkpt lat="46.63328" lon="6.02689">
        <ele>827.6</ele>
        <time>2022-03-10T12:18:41Z</time>
      </trkpt>
      <trkpt lat="46.63324" lon="6.02687">
        <ele>828.3</ele>
        <time>2022-03-10T12:18:47Z</time>
      </trkpt>
      <trkpt lat="46.63319" lon="6.02685">
        <ele>829.2</ele>
        <time>2022-03-10T12:18:52Z</time>
      </trkpt>
      <trkpt lat="46.63315" lon="6.02683">
        <ele>830.3</ele>
        <time>2022-03-10T12:18:57Z</time>
      </trkpt>
      <trkpt lat="46.63309" lon="6.02679">
        <ele>830.8</ele>
        <time>2022-03-10T12:19:02Z</time>
      </trkpt>
      <trkpt lat="46.63306" lon="6.02676">
        <ele>830.5</ele>
        <time>2022-03-10T12:19:07Z</time>
      </trkpt>
      <trkpt lat="46.63303" lon="6.0267">
        <ele>829.7</ele>
        <time>2022-03-10T12:19:12Z</time>
      </trkpt>
      <trkpt lat="46.63299" lon="6.02665">
        <ele>828.7</ele>
        <time>2022-03-10T12:19:17Z</time>
      </trkpt>
      <trkpt lat="46.63294" lon="6.0266">
        <ele>827.7</ele>
        <time>2022-03-10T12:19:22Z</time>
      </trkpt>
      <trkpt lat="46.63291" lon="6.02655">
        <ele>826.8</ele>
        <time>2022-03-10T12:19:27Z</time>
      </trkpt>
      <trkpt lat="46.63287" lon="6.02649">
        <ele>826.7</ele>
        <time>2022-03-10T12:19:33Z</time>
      </trkpt>
      <trkpt lat="46.63284" lon="6.02643">
        <ele>826.8</ele>
        <time>2022-03-10T12:19:38Z</time>
      </trkpt>
      <trkpt lat="46.63281" lon="6.02638">
        <ele>826.4</ele>
        <time>2022-03-10T12:19:43Z</time>
      </trkpt>
      <trkpt lat="46.63278" lon="6.02632">
        <ele>826.2</ele>
        <time>2022-03-10T12:19:48Z</time>
      </trkpt>
      <trkpt lat="46.63277" lon="6.02625">
        <ele>826.3</ele>
        <time>2022-03-10T12:19:54Z</time>
      </trkpt>
      <trkpt lat="46.63273" lon="6.0262">
        <ele>826.3</ele>
        <time>2022-03-10T12:19:59Z</time>
      </trkpt>
      <trkpt lat="46.63269" lon="6.02615">
        <ele>826.7</ele>
        <time>2022-03-10T12:20:03Z</time>
      </trkpt>
      <trkpt lat="46.63266" lon="6.02609">
        <ele>827.5</ele>
        <time>2022-03-10T12:20:07Z</time>
      </trkpt>
      <trkpt lat="46.63265" lon="6.02603">
        <ele>827.9</ele>
        <time>2022-03-10T12:20:11Z</time>
      </trkpt>
      <trkpt lat="46.63262" lon="6.02598">
        <ele>828.3</ele>
        <time>2022-03-10T12:20:15Z</time>
      </trkpt>
      <trkpt lat="46.63259" lon="6.02593">
        <ele>828.3</ele>
        <time>2022-03-10T12:20:20Z</time>
      </trkpt>
      <trkpt lat="46.63256" lon="6.02588">
        <ele>827.6</ele>
        <time>2022-03-10T12:20:25Z</time>
      </trkpt>
      <trkpt lat="46.63252" lon="6.02583">
        <ele>826.8</ele>
        <time>2022-03-10T12:20:30Z</time>
      </trkpt>
      <trkpt lat="46.63248" lon="6.0258">
        <ele>826.1</ele>
        <time>2022-03-10T12:20:34Z</time>
      </trkpt>
      <trkpt lat="46.63243" lon="6.02578">
        <ele>825.8</ele>
        <time>2022-03-10T12:20:38Z</time>
      </trkpt>
      <trkpt lat="46.63238" lon="6.02574">
        <ele>825.9</ele>
        <time>2022-03-10T12:20:43Z</time>
      </trkpt>
      <trkpt lat="46.63233" lon="6.02571">
        <ele>826.6</ele>
        <time>2022-03-10T12:20:48Z</time>
      </trkpt>
      <trkpt lat="46.63229" lon="6.02566">
        <ele>827.6</ele>
        <time>2022-03-10T12:20:53Z</time>
      </trkpt>
      <trkpt lat="46.63225" lon="6.02561">
        <ele>828.4</ele>
        <time>2022-03-10T12:20:59Z</time>
      </trkpt>
      <trkpt lat="46.63223" lon="6.02555">
        <ele>828.3</ele>
        <time>2022-03-10T12:21:05Z</time>
      </trkpt>
      <trkpt lat="46.63222" lon="6.02547">
        <ele>828.5</ele>
        <time>2022-03-10T12:21:10Z</time>
      </trkpt>
      <trkpt lat="46.63219" lon="6.02541">
        <ele>829</ele>
        <time>2022-03-10T12:21:15Z</time>
      </trkpt>
      <trkpt lat="46.63219" lon="6.02534">
        <ele>829.3</ele>
        <time>2022-03-10T12:21:21Z</time>
      </trkpt>
      <trkpt lat="46.63219" lon="6.02526">
        <ele>828.9</ele>
        <time>2022-03-10T12:21:27Z</time>
      </trkpt>
      <trkpt lat="46.63218" lon="6.02519">
        <ele>829</ele>
        <time>2022-03-10T12:21:33Z</time>
      </trkpt>
      <trkpt lat="46.63218" lon="6.02511">
        <ele>829.7</ele>
        <time>2022-03-10T12:21:39Z</time>
      </trkpt>
      <trkpt lat="46.63218" lon="6.02504">
        <ele>831.2</ele>
        <time>2022-03-10T12:21:45Z</time>
      </trkpt>
      <trkpt lat="46.63218" lon="6.02497">
        <ele>832.4</ele>
        <time>2022-03-10T12:21:51Z</time>
      </trkpt>
      <trkpt lat="46.63217" lon="6.02489">
        <ele>833</ele>
        <time>2022-03-10T12:21:56Z</time>
      </trkpt>
      <trkpt lat="46.63215" lon="6.02482">
        <ele>833.9</ele>
        <time>2022-03-10T12:22:02Z</time>
      </trkpt>
      <trkpt lat="46.63213" lon="6.02476">
        <ele>834.4</ele>
        <time>2022-03-10T12:22:07Z</time>
      </trkpt>
      <trkpt lat="46.63211" lon="6.02469">
        <ele>834.9</ele>
        <time>2022-03-10T12:22:12Z</time>
      </trkpt>
      <trkpt lat="46.6321" lon="6.02461">
        <ele>835.3</ele>
        <time>2022-03-10T12:22:18Z</time>
      </trkpt>
      <trkpt lat="46.6321" lon="6.02454">
        <ele>835.7</ele>
        <time>2022-03-10T12:22:24Z</time>
      </trkpt>
      <trkpt lat="46.6321" lon="6.02446">
        <ele>835.5</ele>
        <time>2022-03-10T12:22:31Z</time>
      </trkpt>
      <trkpt lat="46.63211" lon="6.02439">
        <ele>835.2</ele>
        <time>2022-03-10T12:22:38Z</time>
      </trkpt>
      <trkpt lat="46.63211" lon="6.02432">
        <ele>835.1</ele>
        <time>2022-03-10T12:22:43Z</time>
      </trkpt>
      <trkpt lat="46.6321" lon="6.02425">
        <ele>835.3</ele>
        <time>2022-03-10T12:22:48Z</time>
      </trkpt>
      <trkpt lat="46.63208" lon="6.02418">
        <ele>835.2</ele>
        <time>2022-03-10T12:22:53Z</time>
      </trkpt>
      <trkpt lat="46.63206" lon="6.02412">
        <ele>835.7</ele>
        <time>2022-03-10T12:22:58Z</time>
      </trkpt>
      <trkpt lat="46.63206" lon="6.02405">
        <ele>837.1</ele>
        <time>2022-03-10T12:23:04Z</time>
      </trkpt>
      <trkpt lat="46.63206" lon="6.02398">
        <ele>838.4</ele>
        <time>2022-03-10T12:23:10Z</time>
      </trkpt>
      <trkpt lat="46.63206" lon="6.02391">
        <ele>839.8</ele>
        <time>2022-03-10T12:23:16Z</time>
      </trkpt>
      <trkpt lat="46.63206" lon="6.02383">
        <ele>840.9</ele>
        <time>2022-03-10T12:23:23Z</time>
      </trkpt>
      <trkpt lat="46.63206" lon="6.02377">
        <ele>841.3</ele>
        <time>2022-03-10T12:23:28Z</time>
      </trkpt>
      <trkpt lat="46.63205" lon="6.0237">
        <ele>842.1</ele>
        <time>2022-03-10T12:23:34Z</time>
      </trkpt>
      <trkpt lat="46.63205" lon="6.02363">
        <ele>842.4</ele>
        <time>2022-03-10T12:23:39Z</time>
      </trkpt>
      <trkpt lat="46.63205" lon="6.02356">
        <ele>842.7</ele>
        <time>2022-03-10T12:23:45Z</time>
      </trkpt>
      <trkpt lat="46.63204" lon="6.02348">
        <ele>843.4</ele>
        <time>2022-03-10T12:23:51Z</time>
      </trkpt>
      <trkpt lat="46.63203" lon="6.02341">
        <ele>844.5</ele>
        <time>2022-03-10T12:23:57Z</time>
      </trkpt>
      <trkpt lat="46.632" lon="6.02334">
        <ele>845.6</ele>
        <time>2022-03-10T12:24:03Z</time>
      </trkpt>
      <trkpt lat="46.63198" lon="6.02327">
        <ele>846.4</ele>
        <time>2022-03-10T12:24:08Z</time>
      </trkpt>
      <trkpt lat="46.63196" lon="6.0232">
        <ele>847.4</ele>
        <time>2022-03-10T12:24:14Z</time>
      </trkpt>
      <trkpt lat="46.63194" lon="6.02314">
        <ele>847.9</ele>
        <time>2022-03-10T12:24:19Z</time>
      </trkpt>
      <trkpt lat="46.63192" lon="6.02307">
        <ele>848.5</ele>
        <time>2022-03-10T12:24:25Z</time>
      </trkpt>
      <trkpt lat="46.6319" lon="6.02301">
        <ele>848.9</ele>
        <time>2022-03-10T12:24:31Z</time>
      </trkpt>
      <trkpt lat="46.63188" lon="6.02294">
        <ele>849.3</ele>
        <time>2022-03-10T12:24:35Z</time>
      </trkpt>
      <trkpt lat="46.63185" lon="6.02289">
        <ele>849.6</ele>
        <time>2022-03-10T12:24:40Z</time>
      </trkpt>
      <trkpt lat="46.63182" lon="6.02283">
        <ele>850.3</ele>
        <time>2022-03-10T12:24:46Z</time>
      </trkpt>
      <trkpt lat="46.63177" lon="6.0228">
        <ele>850.9</ele>
        <time>2022-03-10T12:24:50Z</time>
      </trkpt>
      <trkpt lat="46.63173" lon="6.02275">
        <ele>851.7</ele>
        <time>2022-03-10T12:24:55Z</time>
      </trkpt>
      <trkpt lat="46.6317" lon="6.02269">
        <ele>852.3</ele>
        <time>2022-03-10T12:25:00Z</time>
      </trkpt>
      <trkpt lat="46.63168" lon="6.02263">
        <ele>852.9</ele>
        <time>2022-03-10T12:25:06Z</time>
      </trkpt>
      <trkpt lat="46.63165" lon="6.02256">
        <ele>853.9</ele>
        <time>2022-03-10T12:25:14Z</time>
      </trkpt>
      <trkpt lat="46.63163" lon="6.0225">
        <ele>854.4</ele>
        <time>2022-03-10T12:25:19Z</time>
      </trkpt>
      <trkpt lat="46.63162" lon="6.02244">
        <ele>854.9</ele>
        <time>2022-03-10T12:25:24Z</time>
      </trkpt>
      <trkpt lat="46.63159" lon="6.02238">
        <ele>855.6</ele>
        <time>2022-03-10T12:25:29Z</time>
      </trkpt>
      <trkpt lat="46.63157" lon="6.02231">
        <ele>856.2</ele>
        <time>2022-03-10T12:25:34Z</time>
      </trkpt>
      <trkpt lat="46.63155" lon="6.02224">
        <ele>856.7</ele>
        <time>2022-03-10T12:25:39Z</time>
      </trkpt>
      <trkpt lat="46.63152" lon="6.02218">
        <ele>856.5</ele>
        <time>2022-03-10T12:25:44Z</time>
      </trkpt>
      <trkpt lat="46.63149" lon="6.02212">
        <ele>856.4</ele>
        <time>2022-03-10T12:25:49Z</time>
      </trkpt>
      <trkpt lat="46.63147" lon="6.02206">
        <ele>856.6</ele>
        <time>2022-03-10T12:25:54Z</time>
      </trkpt>
      <trkpt lat="46.63146" lon="6.02199">
        <ele>857.2</ele>
        <time>2022-03-10T12:26:05Z</time>
      </trkpt>
      <trkpt lat="46.63144" lon="6.02191">
        <ele>857.8</ele>
        <time>2022-03-10T12:26:12Z</time>
      </trkpt>
      <trkpt lat="46.63145" lon="6.02185">
        <ele>858.4</ele>
        <time>2022-03-10T12:26:16Z</time>
      </trkpt>
      <trkpt lat="46.63143" lon="6.02177">
        <ele>859.3</ele>
        <time>2022-03-10T12:26:21Z</time>
      </trkpt>
      <trkpt lat="46.63144" lon="6.0217">
        <ele>860.1</ele>
        <time>2022-03-10T12:26:27Z</time>
      </trkpt>
      <trkpt lat="46.63143" lon="6.02164">
        <ele>860.5</ele>
        <time>2022-03-10T12:26:33Z</time>
      </trkpt>
      <trkpt lat="46.63141" lon="6.02158">
        <ele>860.8</ele>
        <time>2022-03-10T12:26:39Z</time>
      </trkpt>
      <trkpt lat="46.63138" lon="6.02152">
        <ele>861.4</ele>
        <time>2022-03-10T12:26:44Z</time>
      </trkpt>
      <trkpt lat="46.63135" lon="6.02146">
        <ele>862.2</ele>
        <time>2022-03-10T12:26:49Z</time>
      </trkpt>
      <trkpt lat="46.63133" lon="6.0214">
        <ele>863.2</ele>
        <time>2022-03-10T12:26:55Z</time>
      </trkpt>
      <trkpt lat="46.63129" lon="6.02137">
        <ele>864.2</ele>
        <time>2022-03-10T12:27:02Z</time>
      </trkpt>
      <trkpt lat="46.63125" lon="6.02132">
        <ele>865.1</ele>
        <time>2022-03-10T12:27:08Z</time>
      </trkpt>
      <trkpt lat="46.6312" lon="6.0213">
        <ele>866.7</ele>
        <time>2022-03-10T12:27:13Z</time>
      </trkpt>
      <trkpt lat="46.63116" lon="6.02127">
        <ele>868.7</ele>
        <time>2022-03-10T12:27:18Z</time>
      </trkpt>
      <trkpt lat="46.63113" lon="6.02122">
        <ele>871</ele>
        <time>2022-03-10T12:27:25Z</time>
      </trkpt>
      <trkpt lat="46.63108" lon="6.0212">
        <ele>872.1</ele>
        <time>2022-03-10T12:27:30Z</time>
      </trkpt>
      <trkpt lat="46.63104" lon="6.02119">
        <ele>873</ele>
        <time>2022-03-10T12:27:37Z</time>
      </trkpt>
      <trkpt lat="46.631" lon="6.02114">
        <ele>873.7</ele>
        <time>2022-03-10T12:27:43Z</time>
      </trkpt>
      <trkpt lat="46.63095" lon="6.02109">
        <ele>874.3</ele>
        <time>2022-03-10T12:27:48Z</time>
      </trkpt>
      <trkpt lat="46.63091" lon="6.02106">
        <ele>874.6</ele>
        <time>2022-03-10T12:27:55Z</time>
      </trkpt>
      <trkpt lat="46.63087" lon="6.02102">
        <ele>875</ele>
        <time>2022-03-10T12:28:01Z</time>
      </trkpt>
      <trkpt lat="46.63084" lon="6.02096">
        <ele>875.7</ele>
        <time>2022-03-10T12:28:07Z</time>
      </trkpt>
      <trkpt lat="46.63081" lon="6.02092">
        <ele>876.3</ele>
        <time>2022-03-10T12:28:12Z</time>
      </trkpt>
      <trkpt lat="46.63077" lon="6.02089">
        <ele>876.7</ele>
        <time>2022-03-10T12:28:18Z</time>
      </trkpt>
      <trkpt lat="46.63072" lon="6.02085">
        <ele>877.7</ele>
        <time>2022-03-10T12:28:23Z</time>
      </trkpt>
      <trkpt lat="46.63067" lon="6.02082">
        <ele>879.5</ele>
        <time>2022-03-10T12:28:29Z</time>
      </trkpt>
      <trkpt lat="46.63066" lon="6.02075">
        <ele>880.3</ele>
        <time>2022-03-10T12:28:34Z</time>
      </trkpt>
      <trkpt lat="46.63067" lon="6.02069">
        <ele>880.3</ele>
        <time>2022-03-10T12:28:39Z</time>
      </trkpt>
      <trkpt lat="46.63068" lon="6.02061">
        <ele>877.9</ele>
        <time>2022-03-10T12:31:41Z</time>
      </trkpt>
      <trkpt lat="46.6307" lon="6.02055">
        <ele>877.3</ele>
        <time>2022-03-10T12:31:46Z</time>
      </trkpt>
      <trkpt lat="46.63073" lon="6.02051">
        <ele>877.5</ele>
        <time>2022-03-10T12:31:51Z</time>
      </trkpt>
      <trkpt lat="46.63078" lon="6.02047">
        <ele>877.8</ele>
        <time>2022-03-10T12:31:56Z</time>
      </trkpt>
      <trkpt lat="46.63081" lon="6.02042">
        <ele>878.8</ele>
        <time>2022-03-10T12:32:02Z</time>
      </trkpt>
      <trkpt lat="46.63085" lon="6.02037">
        <ele>879.5</ele>
        <time>2022-03-10T12:32:07Z</time>
      </trkpt>
      <trkpt lat="46.63089" lon="6.02033">
        <ele>880.4</ele>
        <time>2022-03-10T12:32:13Z</time>
      </trkpt>
      <trkpt lat="46.63094" lon="6.02028">
        <ele>881</ele>
        <time>2022-03-10T12:32:19Z</time>
      </trkpt>
      <trkpt lat="46.63098" lon="6.02025">
        <ele>881.2</ele>
        <time>2022-03-10T12:32:23Z</time>
      </trkpt>
      <trkpt lat="46.63102" lon="6.02021">
        <ele>881</ele>
        <time>2022-03-10T12:32:28Z</time>
      </trkpt>
      <trkpt lat="46.63107" lon="6.02017">
        <ele>880.7</ele>
        <time>2022-03-10T12:32:34Z</time>
      </trkpt>
      <trkpt lat="46.63111" lon="6.02013">
        <ele>880.8</ele>
        <time>2022-03-10T12:32:39Z</time>
      </trkpt>
      <trkpt lat="46.63115" lon="6.02009">
        <ele>881.2</ele>
        <time>2022-03-10T12:32:44Z</time>
      </trkpt>
      <trkpt lat="46.63118" lon="6.02004">
        <ele>881.2</ele>
        <time>2022-03-10T12:32:49Z</time>
      </trkpt>
      <trkpt lat="46.63121" lon="6.01998">
        <ele>881</ele>
        <time>2022-03-10T12:32:54Z</time>
      </trkpt>
      <trkpt lat="46.63125" lon="6.01992">
        <ele>880.9</ele>
        <time>2022-03-10T12:32:59Z</time>
      </trkpt>
      <trkpt lat="46.63129" lon="6.01988">
        <ele>880.8</ele>
        <time>2022-03-10T12:33:04Z</time>
      </trkpt>
      <trkpt lat="46.63133" lon="6.01983">
        <ele>880.4</ele>
        <time>2022-03-10T12:33:08Z</time>
      </trkpt>
      <trkpt lat="46.63136" lon="6.01978">
        <ele>880.3</ele>
        <time>2022-03-10T12:33:12Z</time>
      </trkpt>
      <trkpt lat="46.63141" lon="6.01976">
        <ele>880.5</ele>
        <time>2022-03-10T12:33:18Z</time>
      </trkpt>
      <trkpt lat="46.63145" lon="6.01972">
        <ele>881</ele>
        <time>2022-03-10T12:33:25Z</time>
      </trkpt>
      <trkpt lat="46.63148" lon="6.01965">
        <ele>881.3</ele>
        <time>2022-03-10T12:33:30Z</time>
      </trkpt>
      <trkpt lat="46.6315" lon="6.01959">
        <ele>881.4</ele>
        <time>2022-03-10T12:33:34Z</time>
      </trkpt>
      <trkpt lat="46.63152" lon="6.01952">
        <ele>882</ele>
        <time>2022-03-10T12:33:39Z</time>
      </trkpt>
      <trkpt lat="46.63153" lon="6.01945">
        <ele>882.8</ele>
        <time>2022-03-10T12:33:44Z</time>
      </trkpt>
      <trkpt lat="46.63155" lon="6.01937">
        <ele>883.4</ele>
        <time>2022-03-10T12:33:49Z</time>
      </trkpt>
      <trkpt lat="46.63156" lon="6.01931">
        <ele>884</ele>
        <time>2022-03-10T12:33:53Z</time>
      </trkpt>
      <trkpt lat="46.63157" lon="6.01924">
        <ele>884.9</ele>
        <time>2022-03-10T12:33:58Z</time>
      </trkpt>
      <trkpt lat="46.63157" lon="6.01916">
        <ele>885.6</ele>
        <time>2022-03-10T12:34:03Z</time>
      </trkpt>
      <trkpt lat="46.63158" lon="6.01908">
        <ele>886</ele>
        <time>2022-03-10T12:34:07Z</time>
      </trkpt>
      <trkpt lat="46.63157" lon="6.01901">
        <ele>886.4</ele>
        <time>2022-03-10T12:34:11Z</time>
      </trkpt>
      <trkpt lat="46.63157" lon="6.01895">
        <ele>886.1</ele>
        <time>2022-03-10T12:34:16Z</time>
      </trkpt>
      <trkpt lat="46.63159" lon="6.01888">
        <ele>886.3</ele>
        <time>2022-03-10T12:34:22Z</time>
      </trkpt>
      <trkpt lat="46.63164" lon="6.01884">
        <ele>886.3</ele>
        <time>2022-03-10T12:34:27Z</time>
      </trkpt>
      <trkpt lat="46.63168" lon="6.01882">
        <ele>886.2</ele>
        <time>2022-03-10T12:34:31Z</time>
      </trkpt>
      <trkpt lat="46.63173" lon="6.01878">
        <ele>885.6</ele>
        <time>2022-03-10T12:34:36Z</time>
      </trkpt>
      <trkpt lat="46.63176" lon="6.01873">
        <ele>884.9</ele>
        <time>2022-03-10T12:34:41Z</time>
      </trkpt>
      <trkpt lat="46.63179" lon="6.01868">
        <ele>884.5</ele>
        <time>2022-03-10T12:34:46Z</time>
      </trkpt>
      <trkpt lat="46.63182" lon="6.01863">
        <ele>884</ele>
        <time>2022-03-10T12:34:52Z</time>
      </trkpt>
      <trkpt lat="46.63185" lon="6.01857">
        <ele>883.1</ele>
        <time>2022-03-10T12:34:58Z</time>
      </trkpt>
      <trkpt lat="46.63188" lon="6.01852">
        <ele>882.7</ele>
        <time>2022-03-10T12:35:03Z</time>
      </trkpt>
      <trkpt lat="46.63192" lon="6.01847">
        <ele>882.5</ele>
        <time>2022-03-10T12:35:08Z</time>
      </trkpt>
      <trkpt lat="46.63197" lon="6.01845">
        <ele>882.6</ele>
        <time>2022-03-10T12:35:12Z</time>
      </trkpt>
      <trkpt lat="46.63202" lon="6.01844">
        <ele>882.8</ele>
        <time>2022-03-10T12:35:16Z</time>
      </trkpt>
      <trkpt lat="46.63206" lon="6.01844">
        <ele>882.8</ele>
        <time>2022-03-10T12:35:21Z</time>
      </trkpt>
      <trkpt lat="46.63211" lon="6.01844">
        <ele>882.9</ele>
        <time>2022-03-10T12:35:26Z</time>
      </trkpt>
      <trkpt lat="46.63216" lon="6.01844">
        <ele>884.4</ele>
        <time>2022-03-10T12:35:39Z</time>
      </trkpt>
      <trkpt lat="46.6322" lon="6.01844">
        <ele>884.1</ele>
        <time>2022-03-10T12:35:46Z</time>
      </trkpt>
      <trkpt lat="46.63225" lon="6.01844">
        <ele>883.4</ele>
        <time>2022-03-10T12:35:52Z</time>
      </trkpt>
      <trkpt lat="46.6323" lon="6.01842">
        <ele>882.7</ele>
        <time>2022-03-10T12:35:58Z</time>
      </trkpt>
      <trkpt lat="46.63235" lon="6.01842">
        <ele>882.2</ele>
        <time>2022-03-10T12:36:02Z</time>
      </trkpt>
      <trkpt lat="46.6324" lon="6.01842">
        <ele>881.9</ele>
        <time>2022-03-10T12:36:07Z</time>
      </trkpt>
      <trkpt lat="46.63245" lon="6.01839">
        <ele>882</ele>
        <time>2022-03-10T12:36:12Z</time>
      </trkpt>
      <trkpt lat="46.63249" lon="6.01836">
        <ele>882.3</ele>
        <time>2022-03-10T12:36:17Z</time>
      </trkpt>
      <trkpt lat="46.63254" lon="6.01832">
        <ele>882.4</ele>
        <time>2022-03-10T12:36:22Z</time>
      </trkpt>
      <trkpt lat="46.63257" lon="6.01827">
        <ele>882.3</ele>
        <time>2022-03-10T12:36:27Z</time>
      </trkpt>
      <trkpt lat="46.63259" lon="6.0182">
        <ele>881.7</ele>
        <time>2022-03-10T12:36:32Z</time>
      </trkpt>
      <trkpt lat="46.63261" lon="6.01813">
        <ele>881.1</ele>
        <time>2022-03-10T12:36:37Z</time>
      </trkpt>
      <trkpt lat="46.63263" lon="6.01806">
        <ele>881</ele>
        <time>2022-03-10T12:36:42Z</time>
      </trkpt>
      <trkpt lat="46.63264" lon="6.01799">
        <ele>881.3</ele>
        <time>2022-03-10T12:36:46Z</time>
      </trkpt>
      <trkpt lat="46.63265" lon="6.01792">
        <ele>881.9</ele>
        <time>2022-03-10T12:36:50Z</time>
      </trkpt>
      <trkpt lat="46.63266" lon="6.01785">
        <ele>882.5</ele>
        <time>2022-03-10T12:36:54Z</time>
      </trkpt>
      <trkpt lat="46.63266" lon="6.01778">
        <ele>883.2</ele>
        <time>2022-03-10T12:36:58Z</time>
      </trkpt>
      <trkpt lat="46.63267" lon="6.0177">
        <ele>883.8</ele>
        <time>2022-03-10T12:37:03Z</time>
      </trkpt>
      <trkpt lat="46.63267" lon="6.01763">
        <ele>884.3</ele>
        <time>2022-03-10T12:37:08Z</time>
      </trkpt>
      <trkpt lat="46.63266" lon="6.01756">
        <ele>884.5</ele>
        <time>2022-03-10T12:37:12Z</time>
      </trkpt>
      <trkpt lat="46.63265" lon="6.01748">
        <ele>884.7</ele>
        <time>2022-03-10T12:37:17Z</time>
      </trkpt>
      <trkpt lat="46.63265" lon="6.01741">
        <ele>884.3</ele>
        <time>2022-03-10T12:37:22Z</time>
      </trkpt>
      <trkpt lat="46.63264" lon="6.01734">
        <ele>883.6</ele>
        <time>2022-03-10T12:37:27Z</time>
      </trkpt>
      <trkpt lat="46.63263" lon="6.01726">
        <ele>883</ele>
        <time>2022-03-10T12:37:32Z</time>
      </trkpt>
      <trkpt lat="46.63262" lon="6.01719">
        <ele>882.5</ele>
        <time>2022-03-10T12:37:36Z</time>
      </trkpt>
      <trkpt lat="46.63261" lon="6.01712">
        <ele>882</ele>
        <time>2022-03-10T12:37:40Z</time>
      </trkpt>
      <trkpt lat="46.63259" lon="6.01706">
        <ele>882.1</ele>
        <time>2022-03-10T12:37:44Z</time>
      </trkpt>
      <trkpt lat="46.63258" lon="6.01699">
        <ele>882.4</ele>
        <time>2022-03-10T12:37:48Z</time>
      </trkpt>
      <trkpt lat="46.63257" lon="6.01692">
        <ele>882.7</ele>
        <time>2022-03-10T12:37:53Z</time>
      </trkpt>
      <trkpt lat="46.63255" lon="6.01685">
        <ele>882.8</ele>
        <time>2022-03-10T12:37:57Z</time>
      </trkpt>
      <trkpt lat="46.63254" lon="6.01678">
        <ele>883</ele>
        <time>2022-03-10T12:38:02Z</time>
      </trkpt>
      <trkpt lat="46.63253" lon="6.01671">
        <ele>883.3</ele>
        <time>2022-03-10T12:38:06Z</time>
      </trkpt>
      <trkpt lat="46.63253" lon="6.01664">
        <ele>884</ele>
        <time>2022-03-10T12:38:11Z</time>
      </trkpt>
      <trkpt lat="46.63251" lon="6.01657">
        <ele>884.6</ele>
        <time>2022-03-10T12:38:15Z</time>
      </trkpt>
      <trkpt lat="46.63248" lon="6.01652">
        <ele>885</ele>
        <time>2022-03-10T12:38:19Z</time>
      </trkpt>
      <trkpt lat="46.63247" lon="6.01644">
        <ele>885.1</ele>
        <time>2022-03-10T12:38:24Z</time>
      </trkpt>
      <trkpt lat="46.63246" lon="6.01637">
        <ele>884.9</ele>
        <time>2022-03-10T12:38:28Z</time>
      </trkpt>
      <trkpt lat="46.63245" lon="6.0163">
        <ele>884.8</ele>
        <time>2022-03-10T12:38:33Z</time>
      </trkpt>
      <trkpt lat="46.63244" lon="6.01623">
        <ele>884.2</ele>
        <time>2022-03-10T12:38:38Z</time>
      </trkpt>
      <trkpt lat="46.63243" lon="6.01615">
        <ele>883.6</ele>
        <time>2022-03-10T12:38:42Z</time>
      </trkpt>
      <trkpt lat="46.63242" lon="6.01608">
        <ele>882.9</ele>
        <time>2022-03-10T12:38:46Z</time>
      </trkpt>
      <trkpt lat="46.63241" lon="6.01601">
        <ele>882.1</ele>
        <time>2022-03-10T12:38:50Z</time>
      </trkpt>
      <trkpt lat="46.63242" lon="6.01594">
        <ele>881</ele>
        <time>2022-03-10T12:38:55Z</time>
      </trkpt>
      <trkpt lat="46.63241" lon="6.01587">
        <ele>879.9</ele>
        <time>2022-03-10T12:39:00Z</time>
      </trkpt>
      <trkpt lat="46.63241" lon="6.01579">
        <ele>878.6</ele>
        <time>2022-03-10T12:39:06Z</time>
      </trkpt>
      <trkpt lat="46.63241" lon="6.01572">
        <ele>877.7</ele>
        <time>2022-03-10T12:39:11Z</time>
      </trkpt>
      <trkpt lat="46.6324" lon="6.01565">
        <ele>877</ele>
        <time>2022-03-10T12:39:15Z</time>
      </trkpt>
      <trkpt lat="46.63241" lon="6.01557">
        <ele>875.8</ele>
        <time>2022-03-10T12:39:20Z</time>
      </trkpt>
      <trkpt lat="46.63241" lon="6.0155">
        <ele>875.3</ele>
        <time>2022-03-10T12:39:25Z</time>
      </trkpt>
      <trkpt lat="46.63241" lon="6.01542">
        <ele>875</ele>
        <time>2022-03-10T12:39:30Z</time>
      </trkpt>
      <trkpt lat="46.63241" lon="6.01534">
        <ele>875.1</ele>
        <time>2022-03-10T12:39:35Z</time>
      </trkpt>
      <trkpt lat="46.63243" lon="6.01527">
        <ele>875.5</ele>
        <time>2022-03-10T12:39:39Z</time>
      </trkpt>
      <trkpt lat="46.63246" lon="6.01521">
        <ele>875.9</ele>
        <time>2022-03-10T12:39:43Z</time>
      </trkpt>
      <trkpt lat="46.63247" lon="6.01515">
        <ele>876.6</ele>
        <time>2022-03-10T12:39:47Z</time>
      </trkpt>
      <trkpt lat="46.63248" lon="6.01507">
        <ele>877.6</ele>
        <time>2022-03-10T12:39:51Z</time>
      </trkpt>
      <trkpt lat="46.63251" lon="6.01502">
        <ele>878.8</ele>
        <time>2022-03-10T12:39:55Z</time>
      </trkpt>
      <trkpt lat="46.63254" lon="6.01496">
        <ele>880</ele>
        <time>2022-03-10T12:39:59Z</time>
      </trkpt>
      <trkpt lat="46.63257" lon="6.01489">
        <ele>881.4</ele>
        <time>2022-03-10T12:40:04Z</time>
      </trkpt>
      <trkpt lat="46.63261" lon="6.01483">
        <ele>882.3</ele>
        <time>2022-03-10T12:40:09Z</time>
      </trkpt>
      <trkpt lat="46.63263" lon="6.01478">
        <ele>882.2</ele>
        <time>2022-03-10T12:40:14Z</time>
      </trkpt>
      <trkpt lat="46.63266" lon="6.01471">
        <ele>881.7</ele>
        <time>2022-03-10T12:40:18Z</time>
      </trkpt>
      <trkpt lat="46.6327" lon="6.01465">
        <ele>881.3</ele>
        <time>2022-03-10T12:40:22Z</time>
      </trkpt>
      <trkpt lat="46.63273" lon="6.0146">
        <ele>881.2</ele>
        <time>2022-03-10T12:40:26Z</time>
      </trkpt>
      <trkpt lat="46.63277" lon="6.01454">
        <ele>881.4</ele>
        <time>2022-03-10T12:40:30Z</time>
      </trkpt>
      <trkpt lat="46.6328" lon="6.01449">
        <ele>881.6</ele>
        <time>2022-03-10T12:40:34Z</time>
      </trkpt>
      <trkpt lat="46.63284" lon="6.01445">
        <ele>881.8</ele>
        <time>2022-03-10T12:40:39Z</time>
      </trkpt>
      <trkpt lat="46.63289" lon="6.01441">
        <ele>882</ele>
        <time>2022-03-10T12:40:44Z</time>
      </trkpt>
      <trkpt lat="46.63293" lon="6.01436">
        <ele>882.6</ele>
        <time>2022-03-10T12:40:48Z</time>
      </trkpt>
      <trkpt lat="46.63297" lon="6.01431">
        <ele>883.1</ele>
        <time>2022-03-10T12:40:53Z</time>
      </trkpt>
      <trkpt lat="46.633" lon="6.01426">
        <ele>883.6</ele>
        <time>2022-03-10T12:40:57Z</time>
      </trkpt>
      <trkpt lat="46.63305" lon="6.01421">
        <ele>884.1</ele>
        <time>2022-03-10T12:41:01Z</time>
      </trkpt>
      <trkpt lat="46.6331" lon="6.01418">
        <ele>884.4</ele>
        <time>2022-03-10T12:41:05Z</time>
      </trkpt>
      <trkpt lat="46.63315" lon="6.01415">
        <ele>884.4</ele>
        <time>2022-03-10T12:41:09Z</time>
      </trkpt>
      <trkpt lat="46.63319" lon="6.01412">
        <ele>884.3</ele>
        <time>2022-03-10T12:41:13Z</time>
      </trkpt>
      <trkpt lat="46.63323" lon="6.01407">
        <ele>884.1</ele>
        <time>2022-03-10T12:41:18Z</time>
      </trkpt>
      <trkpt lat="46.63327" lon="6.01404">
        <ele>883.7</ele>
        <time>2022-03-10T12:41:23Z</time>
      </trkpt>
      <trkpt lat="46.63333" lon="6.01402">
        <ele>883</ele>
        <time>2022-03-10T12:41:30Z</time>
      </trkpt>
      <trkpt lat="46.63337" lon="6.01402">
        <ele>882.4</ele>
        <time>2022-03-10T12:41:34Z</time>
      </trkpt>
      <trkpt lat="46.63342" lon="6.01401">
        <ele>882.4</ele>
        <time>2022-03-10T12:41:38Z</time>
      </trkpt>
      <trkpt lat="46.63348" lon="6.01401">
        <ele>882.6</ele>
        <time>2022-03-10T12:41:42Z</time>
      </trkpt>
      <trkpt lat="46.63352" lon="6.01399">
        <ele>883.3</ele>
        <time>2022-03-10T12:41:46Z</time>
      </trkpt>
      <trkpt lat="46.63357" lon="6.01397">
        <ele>883.7</ele>
        <time>2022-03-10T12:41:51Z</time>
      </trkpt>
      <trkpt lat="46.63362" lon="6.01396">
        <ele>883.8</ele>
        <time>2022-03-10T12:41:55Z</time>
      </trkpt>
      <trkpt lat="46.63366" lon="6.01395">
        <ele>883.9</ele>
        <time>2022-03-10T12:42:00Z</time>
      </trkpt>
      <trkpt lat="46.63371" lon="6.01392">
        <ele>882.9</ele>
        <time>2022-03-10T12:42:05Z</time>
      </trkpt>
      <trkpt lat="46.63376" lon="6.01389">
        <ele>881.8</ele>
        <time>2022-03-10T12:42:10Z</time>
      </trkpt>
      <trkpt lat="46.63381" lon="6.01387">
        <ele>881.7</ele>
        <time>2022-03-10T12:42:14Z</time>
      </trkpt>
      <trkpt lat="46.63386" lon="6.01386">
        <ele>881.4</ele>
        <time>2022-03-10T12:42:18Z</time>
      </trkpt>
      <trkpt lat="46.6339" lon="6.01384">
        <ele>881.2</ele>
        <time>2022-03-10T12:42:22Z</time>
      </trkpt>
      <trkpt lat="46.63395" lon="6.01383">
        <ele>881.5</ele>
        <time>2022-03-10T12:42:26Z</time>
      </trkpt>
      <trkpt lat="46.63401" lon="6.01383">
        <ele>881.8</ele>
        <time>2022-03-10T12:42:31Z</time>
      </trkpt>
      <trkpt lat="46.63406" lon="6.01383">
        <ele>881.2</ele>
        <time>2022-03-10T12:42:37Z</time>
      </trkpt>
      <trkpt lat="46.63411" lon="6.01384">
        <ele>880.1</ele>
        <time>2022-03-10T12:42:42Z</time>
      </trkpt>
      <trkpt lat="46.63416" lon="6.01384">
        <ele>878.9</ele>
        <time>2022-03-10T12:42:47Z</time>
      </trkpt>
      <trkpt lat="46.63421" lon="6.01385">
        <ele>877.9</ele>
        <time>2022-03-10T12:42:53Z</time>
      </trkpt>
      <trkpt lat="46.63426" lon="6.01386">
        <ele>877.5</ele>
        <time>2022-03-10T12:42:58Z</time>
      </trkpt>
      <trkpt lat="46.63431" lon="6.01388">
        <ele>876.9</ele>
        <time>2022-03-10T12:43:03Z</time>
      </trkpt>
      <trkpt lat="46.63435" lon="6.01391">
        <ele>876.5</ele>
        <time>2022-03-10T12:43:07Z</time>
      </trkpt>
      <trkpt lat="46.6344" lon="6.01391">
        <ele>876.2</ele>
        <time>2022-03-10T12:43:12Z</time>
      </trkpt>
      <trkpt lat="46.63445" lon="6.01391">
        <ele>875.4</ele>
        <time>2022-03-10T12:43:17Z</time>
      </trkpt>
      <trkpt lat="46.6345" lon="6.0139">
        <ele>875.1</ele>
        <time>2022-03-10T12:43:21Z</time>
      </trkpt>
      <trkpt lat="46.63456" lon="6.01388">
        <ele>874.9</ele>
        <time>2022-03-10T12:43:25Z</time>
      </trkpt>
      <trkpt lat="46.63461" lon="6.01384">
        <ele>874.9</ele>
        <time>2022-03-10T12:43:29Z</time>
      </trkpt>
      <trkpt lat="46.63466" lon="6.01381">
        <ele>875.1</ele>
        <time>2022-03-10T12:43:33Z</time>
      </trkpt>
      <trkpt lat="46.6347" lon="6.01378">
        <ele>875.3</ele>
        <time>2022-03-10T12:43:37Z</time>
      </trkpt>
      <trkpt lat="46.63474" lon="6.01375">
        <ele>875.2</ele>
        <time>2022-03-10T12:43:42Z</time>
      </trkpt>
      <trkpt lat="46.63477" lon="6.0137">
        <ele>874.9</ele>
        <time>2022-03-10T12:43:48Z</time>
      </trkpt>
      <trkpt lat="46.63481" lon="6.01364">
        <ele>874.9</ele>
        <time>2022-03-10T12:43:53Z</time>
      </trkpt>
      <trkpt lat="46.63485" lon="6.01361">
        <ele>875.2</ele>
        <time>2022-03-10T12:43:57Z</time>
      </trkpt>
      <trkpt lat="46.63489" lon="6.01356">
        <ele>875.5</ele>
        <time>2022-03-10T12:44:02Z</time>
      </trkpt>
      <trkpt lat="46.63492" lon="6.0135">
        <ele>875.6</ele>
        <time>2022-03-10T12:44:07Z</time>
      </trkpt>
      <trkpt lat="46.63495" lon="6.01343">
        <ele>875.3</ele>
        <time>2022-03-10T12:44:11Z</time>
      </trkpt>
      <trkpt lat="46.63498" lon="6.01338">
        <ele>874.7</ele>
        <time>2022-03-10T12:44:15Z</time>
      </trkpt>
      <trkpt lat="46.63501" lon="6.01332">
        <ele>873.7</ele>
        <time>2022-03-10T12:44:19Z</time>
      </trkpt>
      <trkpt lat="46.63503" lon="6.01326">
        <ele>872.7</ele>
        <time>2022-03-10T12:44:24Z</time>
      </trkpt>
      <trkpt lat="46.63506" lon="6.01319">
        <ele>872</ele>
        <time>2022-03-10T12:44:30Z</time>
      </trkpt>
      <trkpt lat="46.63508" lon="6.01312">
        <ele>871.7</ele>
        <time>2022-03-10T12:44:35Z</time>
      </trkpt>
      <trkpt lat="46.63511" lon="6.01306">
        <ele>872</ele>
        <time>2022-03-10T12:44:39Z</time>
      </trkpt>
      <trkpt lat="46.63513" lon="6.01299">
        <ele>873</ele>
        <time>2022-03-10T12:44:44Z</time>
      </trkpt>
      <trkpt lat="46.63516" lon="6.01293">
        <ele>874.1</ele>
        <time>2022-03-10T12:44:50Z</time>
      </trkpt>
      <trkpt lat="46.63518" lon="6.01286">
        <ele>875</ele>
        <time>2022-03-10T12:44:56Z</time>
      </trkpt>
      <trkpt lat="46.6352" lon="6.0128">
        <ele>875.3</ele>
        <time>2022-03-10T12:45:01Z</time>
      </trkpt>
      <trkpt lat="46.63523" lon="6.01275">
        <ele>875.6</ele>
        <time>2022-03-10T12:45:06Z</time>
      </trkpt>
      <trkpt lat="46.63526" lon="6.01268">
        <ele>875.7</ele>
        <time>2022-03-10T12:45:10Z</time>
      </trkpt>
      <trkpt lat="46.63528" lon="6.01262">
        <ele>876</ele>
        <time>2022-03-10T12:45:14Z</time>
      </trkpt>
      <trkpt lat="46.63531" lon="6.01255">
        <ele>876.8</ele>
        <time>2022-03-10T12:45:20Z</time>
      </trkpt>
      <trkpt lat="46.63533" lon="6.01248">
        <ele>877.7</ele>
        <time>2022-03-10T12:45:25Z</time>
      </trkpt>
      <trkpt lat="46.63535" lon="6.01241">
        <ele>879.4</ele>
        <time>2022-03-10T12:45:30Z</time>
      </trkpt>
      <trkpt lat="46.63535" lon="6.01234">
        <ele>881</ele>
        <time>2022-03-10T12:45:34Z</time>
      </trkpt>
      <trkpt lat="46.63536" lon="6.01227">
        <ele>882.6</ele>
        <time>2022-03-10T12:45:38Z</time>
      </trkpt>
      <trkpt lat="46.63537" lon="6.0122">
        <ele>883.9</ele>
        <time>2022-03-10T12:45:42Z</time>
      </trkpt>
      <trkpt lat="46.63538" lon="6.01213">
        <ele>885.1</ele>
        <time>2022-03-10T12:45:47Z</time>
      </trkpt>
      <trkpt lat="46.6354" lon="6.01206">
        <ele>884.9</ele>
        <time>2022-03-10T12:45:53Z</time>
      </trkpt>
      <trkpt lat="46.63544" lon="6.01204">
        <ele>883.4</ele>
        <time>2022-03-10T12:46:00Z</time>
      </trkpt>
      <trkpt lat="46.6355" lon="6.01206">
        <ele>882.6</ele>
        <time>2022-03-10T12:46:05Z</time>
      </trkpt>
      <trkpt lat="46.63555" lon="6.01207">
        <ele>882.4</ele>
        <time>2022-03-10T12:46:09Z</time>
      </trkpt>
      <trkpt lat="46.63559" lon="6.01208">
        <ele>882.8</ele>
        <time>2022-03-10T12:46:13Z</time>
      </trkpt>
      <trkpt lat="46.63564" lon="6.0121">
        <ele>883.5</ele>
        <time>2022-03-10T12:46:17Z</time>
      </trkpt>
      <trkpt lat="46.63569" lon="6.0121">
        <ele>884.3</ele>
        <time>2022-03-10T12:46:23Z</time>
      </trkpt>
      <trkpt lat="46.63574" lon="6.01211">
        <ele>883.9</ele>
        <time>2022-03-10T12:46:29Z</time>
      </trkpt>
      <trkpt lat="46.63579" lon="6.01212">
        <ele>883.4</ele>
        <time>2022-03-10T12:46:33Z</time>
      </trkpt>
      <trkpt lat="46.63584" lon="6.01212">
        <ele>883.2</ele>
        <time>2022-03-10T12:46:37Z</time>
      </trkpt>
      <trkpt lat="46.63589" lon="6.01212">
        <ele>883.3</ele>
        <time>2022-03-10T12:46:41Z</time>
      </trkpt>
      <trkpt lat="46.63594" lon="6.01213">
        <ele>883.1</ele>
        <time>2022-03-10T12:46:46Z</time>
      </trkpt>
      <trkpt lat="46.63598" lon="6.01214">
        <ele>882.4</ele>
        <time>2022-03-10T12:46:51Z</time>
      </trkpt>
      <trkpt lat="46.63604" lon="6.01214">
        <ele>881.8</ele>
        <time>2022-03-10T12:46:56Z</time>
      </trkpt>
      <trkpt lat="46.63608" lon="6.01215">
        <ele>881.2</ele>
        <time>2022-03-10T12:47:00Z</time>
      </trkpt>
      <trkpt lat="46.63614" lon="6.01215">
        <ele>880.9</ele>
        <time>2022-03-10T12:47:05Z</time>
      </trkpt>
      <trkpt lat="46.63619" lon="6.01215">
        <ele>880.9</ele>
        <time>2022-03-10T12:47:09Z</time>
      </trkpt>
      <trkpt lat="46.63624" lon="6.01215">
        <ele>880.6</ele>
        <time>2022-03-10T12:47:14Z</time>
      </trkpt>
      <trkpt lat="46.63629" lon="6.01215">
        <ele>879.7</ele>
        <time>2022-03-10T12:47:19Z</time>
      </trkpt>
      <trkpt lat="46.63633" lon="6.01215">
        <ele>878.8</ele>
        <time>2022-03-10T12:47:23Z</time>
      </trkpt>
      <trkpt lat="46.63639" lon="6.01216">
        <ele>878</ele>
        <time>2022-03-10T12:47:28Z</time>
      </trkpt>
      <trkpt lat="46.63644" lon="6.01219">
        <ele>877.8</ele>
        <time>2022-03-10T12:47:33Z</time>
      </trkpt>
      <trkpt lat="46.63648" lon="6.01221">
        <ele>877.9</ele>
        <time>2022-03-10T12:47:38Z</time>
      </trkpt>
      <trkpt lat="46.63653" lon="6.01223">
        <ele>878.2</ele>
        <time>2022-03-10T12:47:44Z</time>
      </trkpt>
      <trkpt lat="46.63657" lon="6.01224">
        <ele>878</ele>
        <time>2022-03-10T12:47:49Z</time>
      </trkpt>
      <trkpt lat="46.63662" lon="6.01225">
        <ele>878.2</ele>
        <time>2022-03-10T12:47:54Z</time>
      </trkpt>
      <trkpt lat="46.63667" lon="6.01224">
        <ele>878.6</ele>
        <time>2022-03-10T12:48:00Z</time>
      </trkpt>
      <trkpt lat="46.63672" lon="6.01225">
        <ele>879.4</ele>
        <time>2022-03-10T12:48:12Z</time>
      </trkpt>
      <trkpt lat="46.63676" lon="6.01227">
        <ele>879.2</ele>
        <time>2022-03-10T12:48:16Z</time>
      </trkpt>
      <trkpt lat="46.63681" lon="6.01227">
        <ele>879</ele>
        <time>2022-03-10T12:48:20Z</time>
      </trkpt>
      <trkpt lat="46.63686" lon="6.01226">
        <ele>878.7</ele>
        <time>2022-03-10T12:48:24Z</time>
      </trkpt>
      <trkpt lat="46.6369" lon="6.01224">
        <ele>878.4</ele>
        <time>2022-03-10T12:48:28Z</time>
      </trkpt>
      <trkpt lat="46.63695" lon="6.0122">
        <ele>878.1</ele>
        <time>2022-03-10T12:48:32Z</time>
      </trkpt>
      <trkpt lat="46.63699" lon="6.01215">
        <ele>878.2</ele>
        <time>2022-03-10T12:48:36Z</time>
      </trkpt>
      <trkpt lat="46.63703" lon="6.01211">
        <ele>878.6</ele>
        <time>2022-03-10T12:48:40Z</time>
      </trkpt>
      <trkpt lat="46.63708" lon="6.01209">
        <ele>878.9</ele>
        <time>2022-03-10T12:48:44Z</time>
      </trkpt>
      <trkpt lat="46.63713" lon="6.01208">
        <ele>879.4</ele>
        <time>2022-03-10T12:48:49Z</time>
      </trkpt>
      <trkpt lat="46.63717" lon="6.01207">
        <ele>879.6</ele>
        <time>2022-03-10T12:48:53Z</time>
      </trkpt>
      <trkpt lat="46.63723" lon="6.01206">
        <ele>879.7</ele>
        <time>2022-03-10T12:48:57Z</time>
      </trkpt>
      <trkpt lat="46.63728" lon="6.01208">
        <ele>880</ele>
        <time>2022-03-10T12:49:02Z</time>
      </trkpt>
      <trkpt lat="46.63733" lon="6.01212">
        <ele>880</ele>
        <time>2022-03-10T12:49:07Z</time>
      </trkpt>
      <trkpt lat="46.63737" lon="6.01217">
        <ele>879.9</ele>
        <time>2022-03-10T12:49:12Z</time>
      </trkpt>
      <trkpt lat="46.6374" lon="6.01221">
        <ele>879.5</ele>
        <time>2022-03-10T12:49:17Z</time>
      </trkpt>
      <trkpt lat="46.63743" lon="6.01228">
        <ele>879.3</ele>
        <time>2022-03-10T12:49:22Z</time>
      </trkpt>
      <trkpt lat="46.63746" lon="6.01235">
        <ele>879.6</ele>
        <time>2022-03-10T12:49:26Z</time>
      </trkpt>
      <trkpt lat="46.63748" lon="6.01242">
        <ele>880.2</ele>
        <time>2022-03-10T12:49:31Z</time>
      </trkpt>
      <trkpt lat="46.63751" lon="6.01248">
        <ele>880.9</ele>
        <time>2022-03-10T12:49:37Z</time>
      </trkpt>
      <trkpt lat="46.63754" lon="6.01253">
        <ele>882</ele>
        <time>2022-03-10T12:49:43Z</time>
      </trkpt>
      <trkpt lat="46.63757" lon="6.01258">
        <ele>882.6</ele>
        <time>2022-03-10T12:49:48Z</time>
      </trkpt>
      <trkpt lat="46.63761" lon="6.01263">
        <ele>883.6</ele>
        <time>2022-03-10T12:49:54Z</time>
      </trkpt>
      <trkpt lat="46.63763" lon="6.01269">
        <ele>884.2</ele>
        <time>2022-03-10T12:50:02Z</time>
      </trkpt>
      <trkpt lat="46.63764" lon="6.01276">
        <ele>883.9</ele>
        <time>2022-03-10T12:50:09Z</time>
      </trkpt>
      <trkpt lat="46.63766" lon="6.01282">
        <ele>882.9</ele>
        <time>2022-03-10T12:50:16Z</time>
      </trkpt>
      <trkpt lat="46.63768" lon="6.01288">
        <ele>880.7</ele>
        <time>2022-03-10T12:50:24Z</time>
      </trkpt>
      <trkpt lat="46.63772" lon="6.01293">
        <ele>878.2</ele>
        <time>2022-03-10T12:50:31Z</time>
      </trkpt>
      <trkpt lat="46.63776" lon="6.01297">
        <ele>877.1</ele>
        <time>2022-03-10T12:50:36Z</time>
      </trkpt>
      <trkpt lat="46.6378" lon="6.01298">
        <ele>876.3</ele>
        <time>2022-03-10T12:50:41Z</time>
      </trkpt>
      <trkpt lat="46.63785" lon="6.01296">
        <ele>875.1</ele>
        <time>2022-03-10T12:50:46Z</time>
      </trkpt>
      <trkpt lat="46.63789" lon="6.01291">
        <ele>873.5</ele>
        <time>2022-03-10T12:50:52Z</time>
      </trkpt>
      <trkpt lat="46.63791" lon="6.01285">
        <ele>872.1</ele>
        <time>2022-03-10T12:50:57Z</time>
      </trkpt>
      <trkpt lat="46.63794" lon="6.01279">
        <ele>870.9</ele>
        <time>2022-03-10T12:51:02Z</time>
      </trkpt>
      <trkpt lat="46.63798" lon="6.01274">
        <ele>870</ele>
        <time>2022-03-10T12:51:07Z</time>
      </trkpt>
      <trkpt lat="46.63802" lon="6.0127">
        <ele>869.2</ele>
        <time>2022-03-10T12:51:12Z</time>
      </trkpt>
      <trkpt lat="46.63805" lon="6.01265">
        <ele>868.4</ele>
        <time>2022-03-10T12:51:17Z</time>
      </trkpt>
      <trkpt lat="46.63809" lon="6.01262">
        <ele>867.9</ele>
        <time>2022-03-10T12:51:23Z</time>
      </trkpt>
      <trkpt lat="46.63814" lon="6.0126">
        <ele>867.9</ele>
        <time>2022-03-10T12:51:28Z</time>
      </trkpt>
      <trkpt lat="46.63819" lon="6.01259">
        <ele>867.9</ele>
        <time>2022-03-10T12:51:33Z</time>
      </trkpt>
      <trkpt lat="46.63823" lon="6.01254">
        <ele>868.1</ele>
        <time>2022-03-10T12:51:39Z</time>
      </trkpt>
      <trkpt lat="46.63828" lon="6.01256">
        <ele>868.8</ele>
        <time>2022-03-10T12:51:44Z</time>
      </trkpt>
      <trkpt lat="46.63832" lon="6.01258">
        <ele>869.2</ele>
        <time>2022-03-10T12:51:49Z</time>
      </trkpt>
      <trkpt lat="46.63837" lon="6.0126">
        <ele>869.9</ele>
        <time>2022-03-10T12:51:54Z</time>
      </trkpt>
      <trkpt lat="46.63841" lon="6.01263">
        <ele>870.6</ele>
        <time>2022-03-10T12:52:00Z</time>
      </trkpt>
      <trkpt lat="46.63846" lon="6.01264">
        <ele>870.8</ele>
        <time>2022-03-10T12:52:06Z</time>
      </trkpt>
      <trkpt lat="46.6385" lon="6.01266">
        <ele>871.1</ele>
        <time>2022-03-10T12:52:14Z</time>
      </trkpt>
      <trkpt lat="46.63854" lon="6.01269">
        <ele>870.9</ele>
        <time>2022-03-10T12:52:23Z</time>
      </trkpt>
      <trkpt lat="46.63859" lon="6.01272">
        <ele>872</ele>
        <time>2022-03-10T12:52:31Z</time>
      </trkpt>
      <trkpt lat="46.63864" lon="6.01274">
        <ele>873.4</ele>
        <time>2022-03-10T12:52:39Z</time>
      </trkpt>
      <trkpt lat="46.63868" lon="6.01275">
        <ele>873.9</ele>
        <time>2022-03-10T12:52:45Z</time>
      </trkpt>
      <trkpt lat="46.63873" lon="6.01278">
        <ele>874.3</ele>
        <time>2022-03-10T12:52:51Z</time>
      </trkpt>
      <trkpt lat="46.63878" lon="6.0128">
        <ele>874.7</ele>
        <time>2022-03-10T12:52:57Z</time>
      </trkpt>
      <trkpt lat="46.63882" lon="6.01279">
        <ele>875.1</ele>
        <time>2022-03-10T12:53:03Z</time>
      </trkpt>
      <trkpt lat="46.63887" lon="6.01276">
        <ele>874.9</ele>
        <time>2022-03-10T12:53:09Z</time>
      </trkpt>
      <trkpt lat="46.63892" lon="6.01272">
        <ele>874.3</ele>
        <time>2022-03-10T12:53:16Z</time>
      </trkpt>
      <trkpt lat="46.63897" lon="6.01271">
        <ele>874</ele>
        <time>2022-03-10T12:53:21Z</time>
      </trkpt>
      <trkpt lat="46.63902" lon="6.01268">
        <ele>873.5</ele>
        <time>2022-03-10T12:53:25Z</time>
      </trkpt>
      <trkpt lat="46.63906" lon="6.01266">
        <ele>871.7</ele>
        <time>2022-03-10T12:53:32Z</time>
      </trkpt>
      <trkpt lat="46.63911" lon="6.01264">
        <ele>870.1</ele>
        <time>2022-03-10T12:53:39Z</time>
      </trkpt>
      <trkpt lat="46.63916" lon="6.01263">
        <ele>870.3</ele>
        <time>2022-03-10T12:53:48Z</time>
      </trkpt>
      <trkpt lat="46.63921" lon="6.01262">
        <ele>870.8</ele>
        <time>2022-03-10T12:53:53Z</time>
      </trkpt>
      <trkpt lat="46.63925" lon="6.01257">
        <ele>871.3</ele>
        <time>2022-03-10T12:53:58Z</time>
      </trkpt>
      <trkpt lat="46.63927" lon="6.01251">
        <ele>872</ele>
        <time>2022-03-10T12:54:04Z</time>
      </trkpt>
      <trkpt lat="46.63931" lon="6.01245">
        <ele>872.3</ele>
        <time>2022-03-10T12:54:10Z</time>
      </trkpt>
      <trkpt lat="46.63935" lon="6.01241">
        <ele>872.7</ele>
        <time>2022-03-10T12:54:15Z</time>
      </trkpt>
      <trkpt lat="46.6394" lon="6.01239">
        <ele>872.9</ele>
        <time>2022-03-10T12:54:19Z</time>
      </trkpt>
      <trkpt lat="46.63944" lon="6.01236">
        <ele>872.6</ele>
        <time>2022-03-10T12:54:24Z</time>
      </trkpt>
      <trkpt lat="46.63948" lon="6.01233">
        <ele>871.9</ele>
        <time>2022-03-10T12:54:32Z</time>
      </trkpt>
      <trkpt lat="46.63953" lon="6.01229">
        <ele>872.7</ele>
        <time>2022-03-10T12:54:39Z</time>
      </trkpt>
      <trkpt lat="46.63957" lon="6.01226">
        <ele>873.5</ele>
        <time>2022-03-10T12:54:44Z</time>
      </trkpt>
      <trkpt lat="46.63962" lon="6.01224">
        <ele>873.8</ele>
        <time>2022-03-10T12:54:49Z</time>
      </trkpt>
      <trkpt lat="46.63967" lon="6.01224">
        <ele>873.6</ele>
        <time>2022-03-10T12:54:56Z</time>
      </trkpt>
      <trkpt lat="46.63971" lon="6.01223">
        <ele>873.1</ele>
        <time>2022-03-10T12:55:02Z</time>
      </trkpt>
      <trkpt lat="46.63976" lon="6.01219">
        <ele>872.7</ele>
        <time>2022-03-10T12:55:08Z</time>
      </trkpt>
      <trkpt lat="46.6398" lon="6.01216">
        <ele>871.6</ele>
        <time>2022-03-10T12:55:13Z</time>
      </trkpt>
      <trkpt lat="46.63985" lon="6.01213">
        <ele>869.7</ele>
        <time>2022-03-10T12:55:17Z</time>
      </trkpt>
      <trkpt lat="46.63989" lon="6.01212">
        <ele>867.1</ele>
        <time>2022-03-10T12:55:21Z</time>
      </trkpt>
      <trkpt lat="46.63993" lon="6.01209">
        <ele>864.9</ele>
        <time>2022-03-10T12:55:25Z</time>
      </trkpt>
      <trkpt lat="46.63997" lon="6.01206">
        <ele>863.6</ele>
        <time>2022-03-10T12:55:29Z</time>
      </trkpt>
      <trkpt lat="46.64002" lon="6.01202">
        <ele>863.1</ele>
        <time>2022-03-10T12:55:34Z</time>
      </trkpt>
      <trkpt lat="46.64006" lon="6.01199">
        <ele>862.4</ele>
        <time>2022-03-10T12:55:40Z</time>
      </trkpt>
      <trkpt lat="46.64011" lon="6.01198">
        <ele>861.8</ele>
        <time>2022-03-10T12:55:47Z</time>
      </trkpt>
      <trkpt lat="46.64016" lon="6.01197">
        <ele>862.2</ele>
        <time>2022-03-10T12:55:53Z</time>
      </trkpt>
      <trkpt lat="46.64021" lon="6.01196">
        <ele>863</ele>
        <time>2022-03-10T12:55:59Z</time>
      </trkpt>
      <trkpt lat="46.64026" lon="6.01193">
        <ele>863.9</ele>
        <time>2022-03-10T12:56:03Z</time>
      </trkpt>
      <trkpt lat="46.6403" lon="6.01192">
        <ele>865.6</ele>
        <time>2022-03-10T12:56:08Z</time>
      </trkpt>
      <trkpt lat="46.64036" lon="6.01189">
        <ele>867.4</ele>
        <time>2022-03-10T12:56:13Z</time>
      </trkpt>
      <trkpt lat="46.6404" lon="6.01187">
        <ele>867.9</ele>
        <time>2022-03-10T12:56:17Z</time>
      </trkpt>
      <trkpt lat="46.64044" lon="6.01183">
        <ele>868.6</ele>
        <time>2022-03-10T12:56:24Z</time>
      </trkpt>
      <trkpt lat="46.64048" lon="6.01179">
        <ele>869.8</ele>
        <time>2022-03-10T12:56:29Z</time>
      </trkpt>
      <trkpt lat="46.64054" lon="6.01176">
        <ele>870.5</ele>
        <time>2022-03-10T12:56:33Z</time>
      </trkpt>
      <trkpt lat="46.64057" lon="6.01172">
        <ele>870.8</ele>
        <time>2022-03-10T12:56:38Z</time>
      </trkpt>
      <trkpt lat="46.64062" lon="6.01167">
        <ele>871.2</ele>
        <time>2022-03-10T12:56:43Z</time>
      </trkpt>
      <trkpt lat="46.64066" lon="6.01164">
        <ele>871.6</ele>
        <time>2022-03-10T12:56:47Z</time>
      </trkpt>
      <trkpt lat="46.64071" lon="6.01161">
        <ele>871.9</ele>
        <time>2022-03-10T12:56:52Z</time>
      </trkpt>
      <trkpt lat="46.64074" lon="6.01156">
        <ele>871.5</ele>
        <time>2022-03-10T12:57:00Z</time>
      </trkpt>
      <trkpt lat="46.64079" lon="6.01152">
        <ele>870.2</ele>
        <time>2022-03-10T12:57:09Z</time>
      </trkpt>
      <trkpt lat="46.64084" lon="6.01148">
        <ele>870</ele>
        <time>2022-03-10T12:57:13Z</time>
      </trkpt>
      <trkpt lat="46.64088" lon="6.01143">
        <ele>870.1</ele>
        <time>2022-03-10T12:57:18Z</time>
      </trkpt>
      <trkpt lat="46.64091" lon="6.01138">
        <ele>870</ele>
        <time>2022-03-10T12:57:24Z</time>
      </trkpt>
      <trkpt lat="46.64096" lon="6.01134">
        <ele>870.1</ele>
        <time>2022-03-10T12:57:28Z</time>
      </trkpt>
      <trkpt lat="46.641" lon="6.0113">
        <ele>870</ele>
        <time>2022-03-10T12:57:32Z</time>
      </trkpt>
      <trkpt lat="46.64104" lon="6.01126">
        <ele>870.1</ele>
        <time>2022-03-10T12:57:37Z</time>
      </trkpt>
      <trkpt lat="46.64109" lon="6.01124">
        <ele>870.2</ele>
        <time>2022-03-10T12:57:42Z</time>
      </trkpt>
      <trkpt lat="46.64114" lon="6.01121">
        <ele>870.7</ele>
        <time>2022-03-10T12:57:48Z</time>
      </trkpt>
      <trkpt lat="46.64119" lon="6.01118">
        <ele>870.8</ele>
        <time>2022-03-10T12:57:53Z</time>
      </trkpt>
      <trkpt lat="46.64124" lon="6.01117">
        <ele>870.5</ele>
        <time>2022-03-10T12:57:57Z</time>
      </trkpt>
      <trkpt lat="46.64128" lon="6.01117">
        <ele>870.5</ele>
        <time>2022-03-10T12:58:02Z</time>
      </trkpt>
      <trkpt lat="46.64133" lon="6.01117">
        <ele>870.8</ele>
        <time>2022-03-10T12:58:07Z</time>
      </trkpt>
      <trkpt lat="46.64138" lon="6.01117">
        <ele>870.4</ele>
        <time>2022-03-10T12:58:13Z</time>
      </trkpt>
      <trkpt lat="46.64143" lon="6.01116">
        <ele>870.1</ele>
        <time>2022-03-10T12:58:18Z</time>
      </trkpt>
      <trkpt lat="46.64147" lon="6.01114">
        <ele>869.2</ele>
        <time>2022-03-10T12:58:23Z</time>
      </trkpt>
      <trkpt lat="46.64152" lon="6.01115">
        <ele>868.7</ele>
        <time>2022-03-10T12:58:27Z</time>
      </trkpt>
      <trkpt lat="46.64156" lon="6.01118">
        <ele>868</ele>
        <time>2022-03-10T12:58:31Z</time>
      </trkpt>
      <trkpt lat="46.6416" lon="6.01122">
        <ele>867.5</ele>
        <time>2022-03-10T12:58:35Z</time>
      </trkpt>
      <trkpt lat="46.64164" lon="6.01127">
        <ele>867.3</ele>
        <time>2022-03-10T12:58:39Z</time>
      </trkpt>
      <trkpt lat="46.64165" lon="6.01135">
        <ele>866.9</ele>
        <time>2022-03-10T12:58:44Z</time>
      </trkpt>
      <trkpt lat="46.64165" lon="6.01143">
        <ele>866.3</ele>
        <time>2022-03-10T12:58:49Z</time>
      </trkpt>
      <trkpt lat="46.64166" lon="6.0115">
        <ele>865.8</ele>
        <time>2022-03-10T12:58:56Z</time>
      </trkpt>
      <trkpt lat="46.64167" lon="6.01156">
        <ele>864.4</ele>
        <time>2022-03-10T12:59:12Z</time>
      </trkpt>
      <trkpt lat="46.64167" lon="6.01163">
        <ele>863.5</ele>
        <time>2022-03-10T12:59:23Z</time>
      </trkpt>
      <trkpt lat="46.64163" lon="6.01168">
        <ele>862.8</ele>
        <time>2022-03-10T12:59:29Z</time>
      </trkpt>
      <trkpt lat="46.64161" lon="6.01174">
        <ele>862.3</ele>
        <time>2022-03-10T12:59:34Z</time>
      </trkpt>
      <trkpt lat="46.64161" lon="6.01182">
        <ele>862</ele>
        <time>2022-03-10T12:59:39Z</time>
      </trkpt>
      <trkpt lat="46.6416" lon="6.01189">
        <ele>862.7</ele>
        <time>2022-03-10T12:59:45Z</time>
      </trkpt>
      <trkpt lat="46.64161" lon="6.01196">
        <ele>863.4</ele>
        <time>2022-03-10T12:59:52Z</time>
      </trkpt>
      <trkpt lat="46.64166" lon="6.01199">
        <ele>863.9</ele>
        <time>2022-03-10T12:59:59Z</time>
      </trkpt>
      <trkpt lat="46.6417" lon="6.01203">
        <ele>864.1</ele>
        <time>2022-03-10T13:00:03Z</time>
      </trkpt>
      <trkpt lat="46.64173" lon="6.01207">
        <ele>864.5</ele>
        <time>2022-03-10T13:00:07Z</time>
      </trkpt>
      <trkpt lat="46.64174" lon="6.01214">
        <ele>865.2</ele>
        <time>2022-03-10T13:00:12Z</time>
      </trkpt>
      <trkpt lat="46.64177" lon="6.0122">
        <ele>866.5</ele>
        <time>2022-03-10T13:00:19Z</time>
      </trkpt>
      <trkpt lat="46.64177" lon="6.01227">
        <ele>868.2</ele>
        <time>2022-03-10T13:00:25Z</time>
      </trkpt>
      <trkpt lat="46.64179" lon="6.01233">
        <ele>870</ele>
        <time>2022-03-10T13:00:30Z</time>
      </trkpt>
      <trkpt lat="46.64182" lon="6.01239">
        <ele>871.8</ele>
        <time>2022-03-10T13:00:36Z</time>
      </trkpt>
      <trkpt lat="46.64187" lon="6.01242">
        <ele>873.5</ele>
        <time>2022-03-10T13:00:42Z</time>
      </trkpt>
      <trkpt lat="46.64192" lon="6.01244">
        <ele>875</ele>
        <time>2022-03-10T13:00:48Z</time>
      </trkpt>
      <trkpt lat="46.64197" lon="6.01247">
        <ele>875.9</ele>
        <time>2022-03-10T13:00:53Z</time>
      </trkpt>
      <trkpt lat="46.64201" lon="6.01251">
        <ele>877.4</ele>
        <time>2022-03-10T13:01:00Z</time>
      </trkpt>
      <trkpt lat="46.64205" lon="6.01255">
        <ele>878.6</ele>
        <time>2022-03-10T13:01:06Z</time>
      </trkpt>
      <trkpt lat="46.64208" lon="6.0126">
        <ele>879.6</ele>
        <time>2022-03-10T13:01:11Z</time>
      </trkpt>
      <trkpt lat="46.64212" lon="6.01266">
        <ele>880.7</ele>
        <time>2022-03-10T13:01:16Z</time>
      </trkpt>
      <trkpt lat="46.64214" lon="6.01272">
        <ele>881.7</ele>
        <time>2022-03-10T13:01:20Z</time>
      </trkpt>
      <trkpt lat="46.64217" lon="6.01279">
        <ele>883.2</ele>
        <time>2022-03-10T13:01:25Z</time>
      </trkpt>
      <trkpt lat="46.64219" lon="6.01286">
        <ele>884.5</ele>
        <time>2022-03-10T13:01:30Z</time>
      </trkpt>
      <trkpt lat="46.64218" lon="6.01293">
        <ele>885.9</ele>
        <time>2022-03-10T13:01:36Z</time>
      </trkpt>
      <trkpt lat="46.64216" lon="6.01299">
        <ele>886.8</ele>
        <time>2022-03-10T13:01:43Z</time>
      </trkpt>
      <trkpt lat="46.64214" lon="6.01306">
        <ele>886.6</ele>
        <time>2022-03-10T13:01:49Z</time>
      </trkpt>
      <trkpt lat="46.64211" lon="6.01313">
        <ele>885.8</ele>
        <time>2022-03-10T13:01:56Z</time>
      </trkpt>
      <trkpt lat="46.6421" lon="6.01321">
        <ele>885.2</ele>
        <time>2022-03-10T13:02:01Z</time>
      </trkpt>
      <trkpt lat="46.64211" lon="6.01328">
        <ele>884.5</ele>
        <time>2022-03-10T13:02:07Z</time>
      </trkpt>
      <trkpt lat="46.64213" lon="6.01335">
        <ele>883.2</ele>
        <time>2022-03-10T13:02:14Z</time>
      </trkpt>
      <trkpt lat="46.64213" lon="6.01343">
        <ele>881.6</ele>
        <time>2022-03-10T13:02:21Z</time>
      </trkpt>
      <trkpt lat="46.64213" lon="6.01349">
        <ele>880.1</ele>
        <time>2022-03-10T13:02:28Z</time>
      </trkpt>
      <trkpt lat="46.64211" lon="6.01355">
        <ele>879.2</ele>
        <time>2022-03-10T13:02:33Z</time>
      </trkpt>
      <trkpt lat="46.64211" lon="6.01364">
        <ele>877.1</ele>
        <time>2022-03-10T13:02:49Z</time>
      </trkpt>
      <trkpt lat="46.64211" lon="6.01374">
        <ele>876.1</ele>
        <time>2022-03-10T13:02:52Z</time>
      </trkpt>
      <trkpt lat="46.6421" lon="6.01381">
        <ele>874.9</ele>
        <time>2022-03-10T13:02:55Z</time>
      </trkpt>
      <trkpt lat="46.6421" lon="6.01389">
        <ele>873.9</ele>
        <time>2022-03-10T13:02:59Z</time>
      </trkpt>
      <trkpt lat="46.64213" lon="6.01396">
        <ele>872.7</ele>
        <time>2022-03-10T13:03:04Z</time>
      </trkpt>
      <trkpt lat="46.64214" lon="6.01405">
        <ele>872.5</ele>
        <time>2022-03-10T13:03:07Z</time>
      </trkpt>
      <trkpt lat="46.64215" lon="6.01413">
        <ele>872.4</ele>
        <time>2022-03-10T13:03:10Z</time>
      </trkpt>
      <trkpt lat="46.64217" lon="6.01419">
        <ele>872</ele>
        <time>2022-03-10T13:03:14Z</time>
      </trkpt>
      <trkpt lat="46.64221" lon="6.01423">
        <ele>871.3</ele>
        <time>2022-03-10T13:03:18Z</time>
      </trkpt>
      <trkpt lat="46.64224" lon="6.01427">
        <ele>870.3</ele>
        <time>2022-03-10T13:03:23Z</time>
      </trkpt>
      <trkpt lat="46.64229" lon="6.01431">
        <ele>869.2</ele>
        <time>2022-03-10T13:03:28Z</time>
      </trkpt>
      <trkpt lat="46.64232" lon="6.01436">
        <ele>867.9</ele>
        <time>2022-03-10T13:03:34Z</time>
      </trkpt>
      <trkpt lat="46.64235" lon="6.01443">
        <ele>866.9</ele>
        <time>2022-03-10T13:03:39Z</time>
      </trkpt>
      <trkpt lat="46.64237" lon="6.0145">
        <ele>865.8</ele>
        <time>2022-03-10T13:03:44Z</time>
      </trkpt>
      <trkpt lat="46.64239" lon="6.01457">
        <ele>864</ele>
        <time>2022-03-10T13:03:51Z</time>
      </trkpt>
      <trkpt lat="46.64237" lon="6.01464">
        <ele>862.7</ele>
        <time>2022-03-10T13:03:56Z</time>
      </trkpt>
      <trkpt lat="46.64234" lon="6.0147">
        <ele>861.4</ele>
        <time>2022-03-10T13:04:00Z</time>
      </trkpt>
      <trkpt lat="46.64231" lon="6.01476">
        <ele>860.1</ele>
        <time>2022-03-10T13:04:05Z</time>
      </trkpt>
      <trkpt lat="46.6423" lon="6.01483">
        <ele>859</ele>
        <time>2022-03-10T13:04:09Z</time>
      </trkpt>
      <trkpt lat="46.6423" lon="6.0149">
        <ele>857.6</ele>
        <time>2022-03-10T13:04:15Z</time>
      </trkpt>
      <trkpt lat="46.64231" lon="6.01496">
        <ele>856.3</ele>
        <time>2022-03-10T13:04:23Z</time>
      </trkpt>
      <trkpt lat="46.64231" lon="6.01503">
        <ele>855.2</ele>
        <time>2022-03-10T13:04:28Z</time>
      </trkpt>
      <trkpt lat="46.64231" lon="6.0151">
        <ele>853.5</ele>
        <time>2022-03-10T13:04:35Z</time>
      </trkpt>
      <trkpt lat="46.64231" lon="6.01518">
        <ele>852.7</ele>
        <time>2022-03-10T13:04:40Z</time>
      </trkpt>
      <trkpt lat="46.64231" lon="6.01525">
        <ele>852.2</ele>
        <time>2022-03-10T13:04:44Z</time>
      </trkpt>
      <trkpt lat="46.64229" lon="6.01532">
        <ele>852.1</ele>
        <time>2022-03-10T13:04:47Z</time>
      </trkpt>
      <trkpt lat="46.64228" lon="6.0154">
        <ele>852.1</ele>
        <time>2022-03-10T13:04:51Z</time>
      </trkpt>
      <trkpt lat="46.64227" lon="6.01548">
        <ele>851.9</ele>
        <time>2022-03-10T13:04:57Z</time>
      </trkpt>
      <trkpt lat="46.64226" lon="6.01554">
        <ele>851.6</ele>
        <time>2022-03-10T13:05:02Z</time>
      </trkpt>
      <trkpt lat="46.64225" lon="6.01561">
        <ele>851.4</ele>
        <time>2022-03-10T13:05:07Z</time>
      </trkpt>
      <trkpt lat="46.64224" lon="6.01568">
        <ele>851.4</ele>
        <time>2022-03-10T13:05:12Z</time>
      </trkpt>
      <trkpt lat="46.64224" lon="6.01576">
        <ele>851.8</ele>
        <time>2022-03-10T13:05:17Z</time>
      </trkpt>
      <trkpt lat="46.64223" lon="6.01583">
        <ele>852.2</ele>
        <time>2022-03-10T13:05:22Z</time>
      </trkpt>
      <trkpt lat="46.64223" lon="6.0159">
        <ele>852.9</ele>
        <time>2022-03-10T13:05:28Z</time>
      </trkpt>
      <trkpt lat="46.64225" lon="6.01597">
        <ele>853.7</ele>
        <time>2022-03-10T13:05:34Z</time>
      </trkpt>
      <trkpt lat="46.64227" lon="6.01603">
        <ele>854.6</ele>
        <time>2022-03-10T13:05:41Z</time>
      </trkpt>
      <trkpt lat="46.64231" lon="6.01608">
        <ele>855.3</ele>
        <time>2022-03-10T13:05:46Z</time>
      </trkpt>
      <trkpt lat="46.64234" lon="6.01614">
        <ele>856.1</ele>
        <time>2022-03-10T13:05:52Z</time>
      </trkpt>
      <trkpt lat="46.64238" lon="6.01618">
        <ele>856.7</ele>
        <time>2022-03-10T13:05:56Z</time>
      </trkpt>
      <trkpt lat="46.64241" lon="6.01624">
        <ele>857.5</ele>
        <time>2022-03-10T13:06:01Z</time>
      </trkpt>
      <trkpt lat="46.64244" lon="6.01629">
        <ele>858.5</ele>
        <time>2022-03-10T13:06:06Z</time>
      </trkpt>
      <trkpt lat="46.64246" lon="6.01636">
        <ele>859.5</ele>
        <time>2022-03-10T13:06:12Z</time>
      </trkpt>
      <trkpt lat="46.64247" lon="6.01643">
        <ele>860.2</ele>
        <time>2022-03-10T13:06:17Z</time>
      </trkpt>
      <trkpt lat="46.64248" lon="6.0165">
        <ele>860.5</ele>
        <time>2022-03-10T13:06:21Z</time>
      </trkpt>
      <trkpt lat="46.64249" lon="6.01657">
        <ele>860.7</ele>
        <time>2022-03-10T13:06:25Z</time>
      </trkpt>
      <trkpt lat="46.6425" lon="6.01664">
        <ele>860.9</ele>
        <time>2022-03-10T13:06:29Z</time>
      </trkpt>
      <trkpt lat="46.64252" lon="6.0167">
        <ele>861</ele>
        <time>2022-03-10T13:06:34Z</time>
      </trkpt>
      <trkpt lat="46.64254" lon="6.01677">
        <ele>861.1</ele>
        <time>2022-03-10T13:06:39Z</time>
      </trkpt>
      <trkpt lat="46.64257" lon="6.01683">
        <ele>861.3</ele>
        <time>2022-03-10T13:06:44Z</time>
      </trkpt>
      <trkpt lat="46.6426" lon="6.01689">
        <ele>861.5</ele>
        <time>2022-03-10T13:06:50Z</time>
      </trkpt>
      <trkpt lat="46.64264" lon="6.01694">
        <ele>861.7</ele>
        <time>2022-03-10T13:06:56Z</time>
      </trkpt>
      <trkpt lat="46.64266" lon="6.017">
        <ele>861.7</ele>
        <time>2022-03-10T13:07:01Z</time>
      </trkpt>
      <trkpt lat="46.64267" lon="6.01707">
        <ele>861.5</ele>
        <time>2022-03-10T13:07:06Z</time>
      </trkpt>
      <trkpt lat="46.6427" lon="6.01713">
        <ele>861.6</ele>
        <time>2022-03-10T13:07:12Z</time>
      </trkpt>
      <trkpt lat="46.64271" lon="6.0172">
        <ele>861.7</ele>
        <time>2022-03-10T13:07:18Z</time>
      </trkpt>
      <trkpt lat="46.64272" lon="6.01728">
        <ele>861.6</ele>
        <time>2022-03-10T13:07:23Z</time>
      </trkpt>
      <trkpt lat="46.64272" lon="6.01735">
        <ele>861.5</ele>
        <time>2022-03-10T13:07:27Z</time>
      </trkpt>
      <trkpt lat="46.64271" lon="6.01741">
        <ele>861.2</ele>
        <time>2022-03-10T13:07:31Z</time>
      </trkpt>
      <trkpt lat="46.64269" lon="6.01748">
        <ele>860.9</ele>
        <time>2022-03-10T13:07:35Z</time>
      </trkpt>
      <trkpt lat="46.64266" lon="6.01753">
        <ele>860.4</ele>
        <time>2022-03-10T13:07:39Z</time>
      </trkpt>
      <trkpt lat="46.64263" lon="6.01759">
        <ele>859.7</ele>
        <time>2022-03-10T13:07:45Z</time>
      </trkpt>
      <trkpt lat="46.64261" lon="6.01765">
        <ele>858.3</ele>
        <time>2022-03-10T13:07:52Z</time>
      </trkpt>
      <trkpt lat="46.6426" lon="6.01772">
        <ele>856.7</ele>
        <time>2022-03-10T13:07:59Z</time>
      </trkpt>
      <trkpt lat="46.64259" lon="6.01779">
        <ele>855.7</ele>
        <time>2022-03-10T13:08:05Z</time>
      </trkpt>
      <trkpt lat="46.64257" lon="6.01786">
        <ele>855</ele>
        <time>2022-03-10T13:08:09Z</time>
      </trkpt>
      <trkpt lat="46.64256" lon="6.01793">
        <ele>854.3</ele>
        <time>2022-03-10T13:08:15Z</time>
      </trkpt>
      <trkpt lat="46.64254" lon="6.018">
        <ele>853.7</ele>
        <time>2022-03-10T13:08:20Z</time>
      </trkpt>
      <trkpt lat="46.64253" lon="6.01807">
        <ele>853</ele>
        <time>2022-03-10T13:08:25Z</time>
      </trkpt>
      <trkpt lat="46.64253" lon="6.01814">
        <ele>852.4</ele>
        <time>2022-03-10T13:08:30Z</time>
      </trkpt>
      <trkpt lat="46.64254" lon="6.01822">
        <ele>851.6</ele>
        <time>2022-03-10T13:08:36Z</time>
      </trkpt>
      <trkpt lat="46.64255" lon="6.01828">
        <ele>850.9</ele>
        <time>2022-03-10T13:08:41Z</time>
      </trkpt>
      <trkpt lat="46.64257" lon="6.01835">
        <ele>850.1</ele>
        <time>2022-03-10T13:08:46Z</time>
      </trkpt>
      <trkpt lat="46.6426" lon="6.01841">
        <ele>849.2</ele>
        <time>2022-03-10T13:08:52Z</time>
      </trkpt>
      <trkpt lat="46.64263" lon="6.01847">
        <ele>848.1</ele>
        <time>2022-03-10T13:08:59Z</time>
      </trkpt>
      <trkpt lat="46.64265" lon="6.01852">
        <ele>847.2</ele>
        <time>2022-03-10T13:09:04Z</time>
      </trkpt>
      <trkpt lat="46.64268" lon="6.01858">
        <ele>846.2</ele>
        <time>2022-03-10T13:09:09Z</time>
      </trkpt>
      <trkpt lat="46.6427" lon="6.01865">
        <ele>845.1</ele>
        <time>2022-03-10T13:09:14Z</time>
      </trkpt>
      <trkpt lat="46.6427" lon="6.01872">
        <ele>844</ele>
        <time>2022-03-10T13:09:19Z</time>
      </trkpt>
      <trkpt lat="46.6427" lon="6.0188">
        <ele>843.1</ele>
        <time>2022-03-10T13:09:25Z</time>
      </trkpt>
      <trkpt lat="46.64268" lon="6.01886">
        <ele>842.5</ele>
        <time>2022-03-10T13:09:29Z</time>
      </trkpt>
      <trkpt lat="46.64266" lon="6.01893">
        <ele>841.8</ele>
        <time>2022-03-10T13:09:36Z</time>
      </trkpt>
      <trkpt lat="46.64264" lon="6.01899">
        <ele>841.2</ele>
        <time>2022-03-10T13:09:41Z</time>
      </trkpt>
      <trkpt lat="46.64265" lon="6.01907">
        <ele>840.4</ele>
        <time>2022-03-10T13:09:46Z</time>
      </trkpt>
      <trkpt lat="46.64268" lon="6.01913">
        <ele>839.4</ele>
        <time>2022-03-10T13:09:52Z</time>
      </trkpt>
      <trkpt lat="46.64271" lon="6.01918">
        <ele>838.1</ele>
        <time>2022-03-10T13:09:59Z</time>
      </trkpt>
      <trkpt lat="46.64275" lon="6.01923">
        <ele>836.6</ele>
        <time>2022-03-10T13:10:07Z</time>
      </trkpt>
      <trkpt lat="46.64279" lon="6.01925">
        <ele>835.1</ele>
        <time>2022-03-10T13:10:16Z</time>
      </trkpt>
      <trkpt lat="46.64284" lon="6.01927">
        <ele>833.5</ele>
        <time>2022-03-10T13:10:26Z</time>
      </trkpt>
      <trkpt lat="46.64289" lon="6.01928">
        <ele>832.9</ele>
        <time>2022-03-10T13:10:31Z</time>
      </trkpt>
      <trkpt lat="46.64294" lon="6.01929">
        <ele>832.3</ele>
        <time>2022-03-10T13:10:36Z</time>
      </trkpt>
      <trkpt lat="46.64299" lon="6.0193">
        <ele>831.7</ele>
        <time>2022-03-10T13:10:40Z</time>
      </trkpt>
      <trkpt lat="46.64304" lon="6.01929">
        <ele>830.8</ele>
        <time>2022-03-10T13:10:44Z</time>
      </trkpt>
      <trkpt lat="46.64308" lon="6.01928">
        <ele>829.9</ele>
        <time>2022-03-10T13:10:48Z</time>
      </trkpt>
      <trkpt lat="46.64313" lon="6.01929">
        <ele>828.6</ele>
        <time>2022-03-10T13:10:53Z</time>
      </trkpt>
      <trkpt lat="46.64318" lon="6.0193">
        <ele>827.1</ele>
        <time>2022-03-10T13:11:00Z</time>
      </trkpt>
      <trkpt lat="46.64322" lon="6.01927">
        <ele>825.8</ele>
        <time>2022-03-10T13:11:06Z</time>
      </trkpt>
      <trkpt lat="46.64326" lon="6.01924">
        <ele>824.3</ele>
        <time>2022-03-10T13:11:13Z</time>
      </trkpt>
      <trkpt lat="46.64331" lon="6.01923">
        <ele>823.2</ele>
        <time>2022-03-10T13:11:19Z</time>
      </trkpt>
      <trkpt lat="46.64335" lon="6.01923">
        <ele>822.1</ele>
        <time>2022-03-10T13:11:26Z</time>
      </trkpt>
      <trkpt lat="46.6434" lon="6.01925">
        <ele>821.1</ele>
        <time>2022-03-10T13:11:32Z</time>
      </trkpt>
      <trkpt lat="46.64346" lon="6.01926">
        <ele>820.2</ele>
        <time>2022-03-10T13:11:38Z</time>
      </trkpt>
      <trkpt lat="46.6435" lon="6.01928">
        <ele>819.7</ele>
        <time>2022-03-10T13:11:43Z</time>
      </trkpt>
      <trkpt lat="46.64355" lon="6.01932">
        <ele>819.6</ele>
        <time>2022-03-10T13:11:47Z</time>
      </trkpt>
      <trkpt lat="46.64357" lon="6.01938">
        <ele>819.8</ele>
        <time>2022-03-10T13:11:53Z</time>
      </trkpt>
      <trkpt lat="46.64359" lon="6.01944">
        <ele>819.9</ele>
        <time>2022-03-10T13:11:58Z</time>
      </trkpt>
      <trkpt lat="46.64363" lon="6.01949">
        <ele>820.1</ele>
        <time>2022-03-10T13:12:02Z</time>
      </trkpt>
      <trkpt lat="46.64367" lon="6.01951">
        <ele>820.5</ele>
        <time>2022-03-10T13:12:09Z</time>
      </trkpt>
      <trkpt lat="46.6437" lon="6.01956">
        <ele>820.5</ele>
        <time>2022-03-10T13:12:12Z</time>
      </trkpt>
      <trkpt lat="46.64373" lon="6.01963">
        <ele>820.5</ele>
        <time>2022-03-10T13:12:16Z</time>
      </trkpt>
      <trkpt lat="46.64377" lon="6.01967">
        <ele>820.4</ele>
        <time>2022-03-10T13:12:20Z</time>
      </trkpt>
      <trkpt lat="46.64382" lon="6.0197">
        <ele>820</ele>
        <time>2022-03-10T13:12:25Z</time>
      </trkpt>
      <trkpt lat="46.64387" lon="6.01971">
        <ele>820.1</ele>
        <time>2022-03-10T13:12:32Z</time>
      </trkpt>
      <trkpt lat="46.64392" lon="6.01969">
        <ele>820.8</ele>
        <time>2022-03-10T13:12:38Z</time>
      </trkpt>
      <trkpt lat="46.64397" lon="6.01969">
        <ele>822.5</ele>
        <time>2022-03-10T13:12:46Z</time>
      </trkpt>
      <trkpt lat="46.64401" lon="6.01971">
        <ele>825.1</ele>
        <time>2022-03-10T13:12:58Z</time>
      </trkpt>
      <trkpt lat="46.64406" lon="6.01971">
        <ele>826.3</ele>
        <time>2022-03-10T13:13:04Z</time>
      </trkpt>
      <trkpt lat="46.6441" lon="6.01972">
        <ele>828.1</ele>
        <time>2022-03-10T13:13:12Z</time>
      </trkpt>
      <trkpt lat="46.64415" lon="6.01972">
        <ele>829.3</ele>
        <time>2022-03-10T13:13:19Z</time>
      </trkpt>
      <trkpt lat="46.6442" lon="6.01971">
        <ele>830.1</ele>
        <time>2022-03-10T13:13:26Z</time>
      </trkpt>
      <trkpt lat="46.64426" lon="6.0197">
        <ele>830.6</ele>
        <time>2022-03-10T13:13:32Z</time>
      </trkpt>
      <trkpt lat="46.64431" lon="6.01969">
        <ele>831.2</ele>
        <time>2022-03-10T13:13:37Z</time>
      </trkpt>
      <trkpt lat="46.64436" lon="6.01968">
        <ele>831.8</ele>
        <time>2022-03-10T13:13:42Z</time>
      </trkpt>
      <trkpt lat="46.64441" lon="6.01968">
        <ele>832.3</ele>
        <time>2022-03-10T13:13:47Z</time>
      </trkpt>
      <trkpt lat="46.64446" lon="6.01967">
        <ele>832.6</ele>
        <time>2022-03-10T13:13:52Z</time>
      </trkpt>
      <trkpt lat="46.64451" lon="6.01968">
        <ele>833</ele>
        <time>2022-03-10T13:13:58Z</time>
      </trkpt>
      <trkpt lat="46.64455" lon="6.01969">
        <ele>833.4</ele>
        <time>2022-03-10T13:14:02Z</time>
      </trkpt>
      <trkpt lat="46.6446" lon="6.01972">
        <ele>833.9</ele>
        <time>2022-03-10T13:14:06Z</time>
      </trkpt>
      <trkpt lat="46.64464" lon="6.01977">
        <ele>834.4</ele>
        <time>2022-03-10T13:14:10Z</time>
      </trkpt>
      <trkpt lat="46.64467" lon="6.01983">
        <ele>834.5</ele>
        <time>2022-03-10T13:14:14Z</time>
      </trkpt>
      <trkpt lat="46.6447" lon="6.01988">
        <ele>834.7</ele>
        <time>2022-03-10T13:14:18Z</time>
      </trkpt>
      <trkpt lat="46.64471" lon="6.01994">
        <ele>834.7</ele>
        <time>2022-03-10T13:14:22Z</time>
      </trkpt>
      <trkpt lat="46.6447" lon="6.02001">
        <ele>834.6</ele>
        <time>2022-03-10T13:14:27Z</time>
      </trkpt>
      <trkpt lat="46.64474" lon="6.02006">
        <ele>831.1</ele>
        <time>2022-03-10T13:14:38Z</time>
      </trkpt>
      <trkpt lat="46.64477" lon="6.02014">
        <ele>829.4</ele>
        <time>2022-03-10T13:15:07Z</time>
      </trkpt>
      <trkpt lat="46.6448" lon="6.0202">
        <ele>830.4</ele>
        <time>2022-03-10T13:15:10Z</time>
      </trkpt>
      <trkpt lat="46.64483" lon="6.02015">
        <ele>829.4</ele>
        <time>2022-03-10T13:16:07Z</time>
      </trkpt>
      <trkpt lat="46.64478" lon="6.02017">
        <ele>828.3</ele>
        <time>2022-03-10T13:17:10Z</time>
      </trkpt>
      <trkpt lat="46.64472" lon="6.02017">
        <ele>830</ele>
        <time>2022-03-10T13:17:56Z</time>
      </trkpt>
      <trkpt lat="46.64467" lon="6.02018">
        <ele>829.4</ele>
        <time>2022-03-10T13:18:01Z</time>
      </trkpt>
      <trkpt lat="46.64472" lon="6.0202">
        <ele>827.1</ele>
        <time>2022-03-10T13:18:41Z</time>
      </trkpt>
      <trkpt lat="46.64478" lon="6.02021">
        <ele>826.7</ele>
        <time>2022-03-10T13:18:44Z</time>
      </trkpt>
      <trkpt lat="46.64482" lon="6.02024">
        <ele>826.2</ele>
        <time>2022-03-10T13:18:52Z</time>
      </trkpt>
      <trkpt lat="46.64487" lon="6.02024">
        <ele>826.1</ele>
        <time>2022-03-10T13:19:07Z</time>
      </trkpt>
      <trkpt lat="46.64491" lon="6.0202">
        <ele>826</ele>
        <time>2022-03-10T13:19:15Z</time>
      </trkpt>
      <trkpt lat="46.64496" lon="6.02019">
        <ele>826.4</ele>
        <time>2022-03-10T13:19:20Z</time>
      </trkpt>
      <trkpt lat="46.645" lon="6.02018">
        <ele>827.2</ele>
        <time>2022-03-10T13:19:26Z</time>
      </trkpt>
      <trkpt lat="46.64505" lon="6.02015">
        <ele>827.9</ele>
        <time>2022-03-10T13:19:31Z</time>
      </trkpt>
      <trkpt lat="46.64509" lon="6.02012">
        <ele>828.2</ele>
        <time>2022-03-10T13:19:36Z</time>
      </trkpt>
      <trkpt lat="46.64514" lon="6.02007">
        <ele>828.1</ele>
        <time>2022-03-10T13:19:51Z</time>
      </trkpt>
      <trkpt lat="46.64519" lon="6.02006">
        <ele>828</ele>
        <time>2022-03-10T13:19:58Z</time>
      </trkpt>
      <trkpt lat="46.64524" lon="6.02004">
        <ele>827.7</ele>
        <time>2022-03-10T13:20:03Z</time>
      </trkpt>
      <trkpt lat="46.64529" lon="6.02004">
        <ele>827.3</ele>
        <time>2022-03-10T13:20:08Z</time>
      </trkpt>
      <trkpt lat="46.64534" lon="6.02004">
        <ele>827.1</ele>
        <time>2022-03-10T13:20:11Z</time>
      </trkpt>
      <trkpt lat="46.6454" lon="6.02003">
        <ele>826.8</ele>
        <time>2022-03-10T13:20:14Z</time>
      </trkpt>
      <trkpt lat="46.64545" lon="6.02003">
        <ele>826.2</ele>
        <time>2022-03-10T13:20:17Z</time>
      </trkpt>
      <trkpt lat="46.6455" lon="6.02">
        <ele>824.8</ele>
        <time>2022-03-10T13:20:23Z</time>
      </trkpt>
      <trkpt lat="46.64555" lon="6.02001">
        <ele>824.7</ele>
        <time>2022-03-10T13:20:27Z</time>
      </trkpt>
      <trkpt lat="46.6456" lon="6.02001">
        <ele>824.8</ele>
        <time>2022-03-10T13:20:32Z</time>
      </trkpt>
      <trkpt lat="46.64565" lon="6.02">
        <ele>824.8</ele>
        <time>2022-03-10T13:20:39Z</time>
      </trkpt>
      <trkpt lat="46.6457" lon="6.01997">
        <ele>825</ele>
        <time>2022-03-10T13:20:44Z</time>
      </trkpt>
      <trkpt lat="46.64575" lon="6.01995">
        <ele>825.6</ele>
        <time>2022-03-10T13:20:48Z</time>
      </trkpt>
      <trkpt lat="46.6458" lon="6.01993">
        <ele>826.8</ele>
        <time>2022-03-10T13:20:52Z</time>
      </trkpt>
      <trkpt lat="46.64584" lon="6.01992">
        <ele>828</ele>
        <time>2022-03-10T13:20:55Z</time>
      </trkpt>
      <trkpt lat="46.64589" lon="6.01988">
        <ele>829.2</ele>
        <time>2022-03-10T13:20:59Z</time>
      </trkpt>
      <trkpt lat="46.64594" lon="6.01986">
        <ele>830.2</ele>
        <time>2022-03-10T13:21:03Z</time>
      </trkpt>
      <trkpt lat="46.64598" lon="6.01984">
        <ele>831.2</ele>
        <time>2022-03-10T13:21:07Z</time>
      </trkpt>
      <trkpt lat="46.64603" lon="6.01983">
        <ele>832.1</ele>
        <time>2022-03-10T13:21:12Z</time>
      </trkpt>
      <trkpt lat="46.64608" lon="6.01984">
        <ele>832.5</ele>
        <time>2022-03-10T13:21:22Z</time>
      </trkpt>
      <trkpt lat="46.64613" lon="6.01982">
        <ele>832.9</ele>
        <time>2022-03-10T13:21:27Z</time>
      </trkpt>
      <trkpt lat="46.64618" lon="6.01979">
        <ele>833.4</ele>
        <time>2022-03-10T13:21:30Z</time>
      </trkpt>
      <trkpt lat="46.64624" lon="6.01977">
        <ele>833.9</ele>
        <time>2022-03-10T13:21:33Z</time>
      </trkpt>
      <trkpt lat="46.64628" lon="6.01976">
        <ele>834</ele>
        <time>2022-03-10T13:21:36Z</time>
      </trkpt>
      <trkpt lat="46.64633" lon="6.01974">
        <ele>833.5</ele>
        <time>2022-03-10T13:21:41Z</time>
      </trkpt>
      <trkpt lat="46.64637" lon="6.0197">
        <ele>831.4</ele>
        <time>2022-03-10T13:21:49Z</time>
      </trkpt>
      <trkpt lat="46.64641" lon="6.01967">
        <ele>829.8</ele>
        <time>2022-03-10T13:21:56Z</time>
      </trkpt>
      <trkpt lat="46.64646" lon="6.01963">
        <ele>829.1</ele>
        <time>2022-03-10T13:22:02Z</time>
      </trkpt>
      <trkpt lat="46.64651" lon="6.01961">
        <ele>828.4</ele>
        <time>2022-03-10T13:22:07Z</time>
      </trkpt>
      <trkpt lat="46.64656" lon="6.0196">
        <ele>827.5</ele>
        <time>2022-03-10T13:22:12Z</time>
      </trkpt>
      <trkpt lat="46.6466" lon="6.01956">
        <ele>826.5</ele>
        <time>2022-03-10T13:22:20Z</time>
      </trkpt>
      <trkpt lat="46.64664" lon="6.01952">
        <ele>825.5</ele>
        <time>2022-03-10T13:22:30Z</time>
      </trkpt>
      <trkpt lat="46.64669" lon="6.0195">
        <ele>824.7</ele>
        <time>2022-03-10T13:22:35Z</time>
      </trkpt>
      <trkpt lat="46.64673" lon="6.01947">
        <ele>823.2</ele>
        <time>2022-03-10T13:22:42Z</time>
      </trkpt>
      <trkpt lat="46.64675" lon="6.0194">
        <ele>821.2</ele>
        <time>2022-03-10T13:22:48Z</time>
      </trkpt>
      <trkpt lat="46.64677" lon="6.01933">
        <ele>819.7</ele>
        <time>2022-03-10T13:22:53Z</time>
      </trkpt>
      <trkpt lat="46.6468" lon="6.01927">
        <ele>818.6</ele>
        <time>2022-03-10T13:22:57Z</time>
      </trkpt>
      <trkpt lat="46.64682" lon="6.01922">
        <ele>817.5</ele>
        <time>2022-03-10T13:23:01Z</time>
      </trkpt>
      <trkpt lat="46.64685" lon="6.01916">
        <ele>816.2</ele>
        <time>2022-03-10T13:23:08Z</time>
      </trkpt>
      <trkpt lat="46.64689" lon="6.01911">
        <ele>815.8</ele>
        <time>2022-03-10T13:23:13Z</time>
      </trkpt>
      <trkpt lat="46.64691" lon="6.01904">
        <ele>815.2</ele>
        <time>2022-03-10T13:23:18Z</time>
      </trkpt>
      <trkpt lat="46.64694" lon="6.01898">
        <ele>814.3</ele>
        <time>2022-03-10T13:23:24Z</time>
      </trkpt>
      <trkpt lat="46.64696" lon="6.01892">
        <ele>812.7</ele>
        <time>2022-03-10T13:23:32Z</time>
      </trkpt>
      <trkpt lat="46.64699" lon="6.01888">
        <ele>811.4</ele>
        <time>2022-03-10T13:23:38Z</time>
      </trkpt>
      <trkpt lat="46.64704" lon="6.01883">
        <ele>810.4</ele>
        <time>2022-03-10T13:23:44Z</time>
      </trkpt>
      <trkpt lat="46.64707" lon="6.01877">
        <ele>809.5</ele>
        <time>2022-03-10T13:23:50Z</time>
      </trkpt>
      <trkpt lat="46.64711" lon="6.01873">
        <ele>809.1</ele>
        <time>2022-03-10T13:23:56Z</time>
      </trkpt>
      <trkpt lat="46.64714" lon="6.01868">
        <ele>808.9</ele>
        <time>2022-03-10T13:24:02Z</time>
      </trkpt>
      <trkpt lat="46.64719" lon="6.01866">
        <ele>808.7</ele>
        <time>2022-03-10T13:24:07Z</time>
      </trkpt>
      <trkpt lat="46.64724" lon="6.01867">
        <ele>808.2</ele>
        <time>2022-03-10T13:24:12Z</time>
      </trkpt>
      <trkpt lat="46.64728" lon="6.01873">
        <ele>806.5</ele>
        <time>2022-03-10T13:24:18Z</time>
      </trkpt>
      <trkpt lat="46.64728" lon="6.0188">
        <ele>804.9</ele>
        <time>2022-03-10T13:24:23Z</time>
      </trkpt>
      <trkpt lat="46.64727" lon="6.01887">
        <ele>803.8</ele>
        <time>2022-03-10T13:24:27Z</time>
      </trkpt>
      <trkpt lat="46.64725" lon="6.01893">
        <ele>802.2</ele>
        <time>2022-03-10T13:24:33Z</time>
      </trkpt>
      <trkpt lat="46.64722" lon="6.01898">
        <ele>800.8</ele>
        <time>2022-03-10T13:24:39Z</time>
      </trkpt>
      <trkpt lat="46.64719" lon="6.01904">
        <ele>799.7</ele>
        <time>2022-03-10T13:24:44Z</time>
      </trkpt>
      <trkpt lat="46.64715" lon="6.01909">
        <ele>798.7</ele>
        <time>2022-03-10T13:24:49Z</time>
      </trkpt>
      <trkpt lat="46.64712" lon="6.01913">
        <ele>797.6</ele>
        <time>2022-03-10T13:24:56Z</time>
      </trkpt>
      <trkpt lat="46.64709" lon="6.01919">
        <ele>796.9</ele>
        <time>2022-03-10T13:25:02Z</time>
      </trkpt>
      <trkpt lat="46.64707" lon="6.01925">
        <ele>796</ele>
        <time>2022-03-10T13:25:08Z</time>
      </trkpt>
      <trkpt lat="46.64704" lon="6.01931">
        <ele>794.8</ele>
        <time>2022-03-10T13:25:14Z</time>
      </trkpt>
      <trkpt lat="46.64702" lon="6.01938">
        <ele>794</ele>
        <time>2022-03-10T13:25:19Z</time>
      </trkpt>
      <trkpt lat="46.64699" lon="6.01943">
        <ele>793</ele>
        <time>2022-03-10T13:25:24Z</time>
      </trkpt>
      <trkpt lat="46.64697" lon="6.01948">
        <ele>792.1</ele>
        <time>2022-03-10T13:25:29Z</time>
      </trkpt>
      <trkpt lat="46.64694" lon="6.01953">
        <ele>791.4</ele>
        <time>2022-03-10T13:25:34Z</time>
      </trkpt>
      <trkpt lat="46.6469" lon="6.0196">
        <ele>790.8</ele>
        <time>2022-03-10T13:25:41Z</time>
      </trkpt>
      <trkpt lat="46.64687" lon="6.01966">
        <ele>790.6</ele>
        <time>2022-03-10T13:25:47Z</time>
      </trkpt>
      <trkpt lat="46.64685" lon="6.01971">
        <ele>789.8</ele>
        <time>2022-03-10T13:25:53Z</time>
      </trkpt>
      <trkpt lat="46.64682" lon="6.01976">
        <ele>788.8</ele>
        <time>2022-03-10T13:25:58Z</time>
      </trkpt>
      <trkpt lat="46.64678" lon="6.01982">
        <ele>788</ele>
        <time>2022-03-10T13:26:03Z</time>
      </trkpt>
      <trkpt lat="46.64675" lon="6.01988">
        <ele>787.4</ele>
        <time>2022-03-10T13:26:08Z</time>
      </trkpt>
      <trkpt lat="46.64672" lon="6.01993">
        <ele>787.1</ele>
        <time>2022-03-10T13:26:12Z</time>
      </trkpt>
      <trkpt lat="46.64671" lon="6.02">
        <ele>787.7</ele>
        <time>2022-03-10T13:26:18Z</time>
      </trkpt>
      <trkpt lat="46.64673" lon="6.02006">
        <ele>788.5</ele>
        <time>2022-03-10T13:26:26Z</time>
      </trkpt>
      <trkpt lat="46.64674" lon="6.02015">
        <ele>789.3</ele>
        <time>2022-03-10T13:26:30Z</time>
      </trkpt>
      <trkpt lat="46.64675" lon="6.02022">
        <ele>790.2</ele>
        <time>2022-03-10T13:26:33Z</time>
      </trkpt>
      <trkpt lat="46.64678" lon="6.02028">
        <ele>791.3</ele>
        <time>2022-03-10T13:26:36Z</time>
      </trkpt>
      <trkpt lat="46.64683" lon="6.02032">
        <ele>792.6</ele>
        <time>2022-03-10T13:26:39Z</time>
      </trkpt>
      <trkpt lat="46.64687" lon="6.02027">
        <ele>794.1</ele>
        <time>2022-03-10T13:26:44Z</time>
      </trkpt>
      <trkpt lat="46.64691" lon="6.02021">
        <ele>795</ele>
        <time>2022-03-10T13:26:48Z</time>
      </trkpt>
      <trkpt lat="46.64696" lon="6.02015">
        <ele>795.7</ele>
        <time>2022-03-10T13:26:52Z</time>
      </trkpt>
      <trkpt lat="46.647" lon="6.0201">
        <ele>796.3</ele>
        <time>2022-03-10T13:26:56Z</time>
      </trkpt>
      <trkpt lat="46.64702" lon="6.02004">
        <ele>797.1</ele>
        <time>2022-03-10T13:27:01Z</time>
      </trkpt>
      <trkpt lat="46.64705" lon="6.01997">
        <ele>797.5</ele>
        <time>2022-03-10T13:27:06Z</time>
      </trkpt>
      <trkpt lat="46.64708" lon="6.01992">
        <ele>796.9</ele>
        <time>2022-03-10T13:27:11Z</time>
      </trkpt>
      <trkpt lat="46.64713" lon="6.01992">
        <ele>795.3</ele>
        <time>2022-03-10T13:27:21Z</time>
      </trkpt>
      <trkpt lat="46.64717" lon="6.0199">
        <ele>792.6</ele>
        <time>2022-03-10T13:27:30Z</time>
      </trkpt>
      <trkpt lat="46.64721" lon="6.01985">
        <ele>791.2</ele>
        <time>2022-03-10T13:27:36Z</time>
      </trkpt>
      <trkpt lat="46.64726" lon="6.01983">
        <ele>789.9</ele>
        <time>2022-03-10T13:27:41Z</time>
      </trkpt>
      <trkpt lat="46.6473" lon="6.01982">
        <ele>788.4</ele>
        <time>2022-03-10T13:27:47Z</time>
      </trkpt>
      <trkpt lat="46.64735" lon="6.0198">
        <ele>787.2</ele>
        <time>2022-03-10T13:27:53Z</time>
      </trkpt>
      <trkpt lat="46.64738" lon="6.01976">
        <ele>785.5</ele>
        <time>2022-03-10T13:28:03Z</time>
      </trkpt>
      <trkpt lat="46.64743" lon="6.01973">
        <ele>784.1</ele>
        <time>2022-03-10T13:28:11Z</time>
      </trkpt>
      <trkpt lat="46.64748" lon="6.01971">
        <ele>782.1</ele>
        <time>2022-03-10T13:28:18Z</time>
      </trkpt>
      <trkpt lat="46.64752" lon="6.01968">
        <ele>780.5</ele>
        <time>2022-03-10T13:28:24Z</time>
      </trkpt>
      <trkpt lat="46.64756" lon="6.01963">
        <ele>778</ele>
        <time>2022-03-10T13:28:31Z</time>
      </trkpt>
      <trkpt lat="46.6476" lon="6.01961">
        <ele>775.5</ele>
        <time>2022-03-10T13:28:38Z</time>
      </trkpt>
      <trkpt lat="46.64764" lon="6.01957">
        <ele>773.8</ele>
        <time>2022-03-10T13:28:45Z</time>
      </trkpt>
      <trkpt lat="46.64769" lon="6.01953">
        <ele>773</ele>
        <time>2022-03-10T13:28:53Z</time>
      </trkpt>
      <trkpt lat="46.64774" lon="6.0195">
        <ele>772.6</ele>
        <time>2022-03-10T13:28:58Z</time>
      </trkpt>
      <trkpt lat="46.64777" lon="6.01946">
        <ele>772.4</ele>
        <time>2022-03-10T13:29:03Z</time>
      </trkpt>
      <trkpt lat="46.6478" lon="6.01941">
        <ele>771.8</ele>
        <time>2022-03-10T13:29:09Z</time>
      </trkpt>
      <trkpt lat="46.64785" lon="6.01938">
        <ele>771.2</ele>
        <time>2022-03-10T13:29:15Z</time>
      </trkpt>
      <trkpt lat="46.64789" lon="6.01935">
        <ele>770.7</ele>
        <time>2022-03-10T13:29:21Z</time>
      </trkpt>
      <trkpt lat="46.64795" lon="6.01934">
        <ele>770.2</ele>
        <time>2022-03-10T13:29:26Z</time>
      </trkpt>
      <trkpt lat="46.64799" lon="6.01935">
        <ele>770.1</ele>
        <time>2022-03-10T13:29:30Z</time>
      </trkpt>
      <trkpt lat="46.64804" lon="6.01936">
        <ele>770.2</ele>
        <time>2022-03-10T13:29:34Z</time>
      </trkpt>
      <trkpt lat="46.64809" lon="6.01938">
        <ele>770.2</ele>
        <time>2022-03-10T13:29:39Z</time>
      </trkpt>
      <trkpt lat="46.64814" lon="6.01942">
        <ele>769.6</ele>
        <time>2022-03-10T13:29:44Z</time>
      </trkpt>
      <trkpt lat="46.64815" lon="6.01948">
        <ele>768.8</ele>
        <time>2022-03-10T13:29:50Z</time>
      </trkpt>
      <trkpt lat="46.64819" lon="6.01952">
        <ele>768.1</ele>
        <time>2022-03-10T13:29:55Z</time>
      </trkpt>
      <trkpt lat="46.64825" lon="6.01953">
        <ele>767.3</ele>
        <time>2022-03-10T13:29:59Z</time>
      </trkpt>
      <trkpt lat="46.64829" lon="6.01954">
        <ele>766.9</ele>
        <time>2022-03-10T13:30:02Z</time>
      </trkpt>
      <trkpt lat="46.64834" lon="6.01953">
        <ele>766.7</ele>
        <time>2022-03-10T13:30:05Z</time>
      </trkpt>
      <trkpt lat="46.64839" lon="6.0195">
        <ele>766.2</ele>
        <time>2022-03-10T13:30:10Z</time>
      </trkpt>
      <trkpt lat="46.6484" lon="6.01943">
        <ele>765.2</ele>
        <time>2022-03-10T13:30:17Z</time>
      </trkpt>
      <trkpt lat="46.64842" lon="6.01937">
        <ele>764.5</ele>
        <time>2022-03-10T13:30:22Z</time>
      </trkpt>
      <trkpt lat="46.64841" lon="6.0193">
        <ele>763.7</ele>
        <time>2022-03-10T13:30:27Z</time>
      </trkpt>
      <trkpt lat="46.64839" lon="6.01923">
        <ele>762.6</ele>
        <time>2022-03-10T13:30:33Z</time>
      </trkpt>
      <trkpt lat="46.64837" lon="6.01916">
        <ele>762</ele>
        <time>2022-03-10T13:30:37Z</time>
      </trkpt>
      <trkpt lat="46.64834" lon="6.01911">
        <ele>761.7</ele>
        <time>2022-03-10T13:30:41Z</time>
      </trkpt>
      <trkpt lat="46.64833" lon="6.01904">
        <ele>760.8</ele>
        <time>2022-03-10T13:30:48Z</time>
      </trkpt>
      <trkpt lat="46.64835" lon="6.01897">
        <ele>760.1</ele>
        <time>2022-03-10T13:30:54Z</time>
      </trkpt>
      <trkpt lat="46.64834" lon="6.0189">
        <ele>759.6</ele>
        <time>2022-03-10T13:31:00Z</time>
      </trkpt>
      <trkpt lat="46.64833" lon="6.01883">
        <ele>759.5</ele>
        <time>2022-03-10T13:31:05Z</time>
      </trkpt>
      <trkpt lat="46.64832" lon="6.01876">
        <ele>759.2</ele>
        <time>2022-03-10T13:31:10Z</time>
      </trkpt>
      <trkpt lat="46.64833" lon="6.0187">
        <ele>758.7</ele>
        <time>2022-03-10T13:31:16Z</time>
      </trkpt>
      <trkpt lat="46.64832" lon="6.01862">
        <ele>758.4</ele>
        <time>2022-03-10T13:31:22Z</time>
      </trkpt>
      <trkpt lat="46.64832" lon="6.01854">
        <ele>758.1</ele>
        <time>2022-03-10T13:31:28Z</time>
      </trkpt>
      <trkpt lat="46.64832" lon="6.01847">
        <ele>757.4</ele>
        <time>2022-03-10T13:31:34Z</time>
      </trkpt>
      <trkpt lat="46.6483" lon="6.01841">
        <ele>756.8</ele>
        <time>2022-03-10T13:31:40Z</time>
      </trkpt>
      <trkpt lat="46.64825" lon="6.01836">
        <ele>756.3</ele>
        <time>2022-03-10T13:31:45Z</time>
      </trkpt>
      <trkpt lat="46.64822" lon="6.01831">
        <ele>755.8</ele>
        <time>2022-03-10T13:31:50Z</time>
      </trkpt>
      <trkpt lat="46.6482" lon="6.01825">
        <ele>755.3</ele>
        <time>2022-03-10T13:31:56Z</time>
      </trkpt>
      <trkpt lat="46.64819" lon="6.01818">
        <ele>754.3</ele>
        <time>2022-03-10T13:32:03Z</time>
      </trkpt>
      <trkpt lat="46.64816" lon="6.01813">
        <ele>753.5</ele>
        <time>2022-03-10T13:32:08Z</time>
      </trkpt>
      <trkpt lat="46.64815" lon="6.01805">
        <ele>752.8</ele>
        <time>2022-03-10T13:32:14Z</time>
      </trkpt>
      <trkpt lat="46.64815" lon="6.01798">
        <ele>752.5</ele>
        <time>2022-03-10T13:32:19Z</time>
      </trkpt>
      <trkpt lat="46.64815" lon="6.01791">
        <ele>752.3</ele>
        <time>2022-03-10T13:32:23Z</time>
      </trkpt>
      <trkpt lat="46.64814" lon="6.01783">
        <ele>752</ele>
        <time>2022-03-10T13:32:29Z</time>
      </trkpt>
      <trkpt lat="46.64814" lon="6.01776">
        <ele>752</ele>
        <time>2022-03-10T13:32:33Z</time>
      </trkpt>
      <trkpt lat="46.64816" lon="6.0177">
        <ele>751.5</ele>
        <time>2022-03-10T13:32:38Z</time>
      </trkpt>
      <trkpt lat="46.64817" lon="6.01763">
        <ele>751</ele>
        <time>2022-03-10T13:32:43Z</time>
      </trkpt>
      <trkpt lat="46.64819" lon="6.01756">
        <ele>750.4</ele>
        <time>2022-03-10T13:32:49Z</time>
      </trkpt>
      <trkpt lat="46.64821" lon="6.0175">
        <ele>749.6</ele>
        <time>2022-03-10T13:32:54Z</time>
      </trkpt>
      <trkpt lat="46.64823" lon="6.01744">
        <ele>748.6</ele>
        <time>2022-03-10T13:32:59Z</time>
      </trkpt>
      <trkpt lat="46.64825" lon="6.01738">
        <ele>747.7</ele>
        <time>2022-03-10T13:33:04Z</time>
      </trkpt>
      <trkpt lat="46.64827" lon="6.01731">
        <ele>746.5</ele>
        <time>2022-03-10T13:33:09Z</time>
      </trkpt>
      <trkpt lat="46.64831" lon="6.01726">
        <ele>745.3</ele>
        <time>2022-03-10T13:33:13Z</time>
      </trkpt>
      <trkpt lat="46.64834" lon="6.01721">
        <ele>743.8</ele>
        <time>2022-03-10T13:33:18Z</time>
      </trkpt>
      <trkpt lat="46.64836" lon="6.01714">
        <ele>743.2</ele>
        <time>2022-03-10T13:33:24Z</time>
      </trkpt>
      <trkpt lat="46.64835" lon="6.01706">
        <ele>743.2</ele>
        <time>2022-03-10T13:33:29Z</time>
      </trkpt>
      <trkpt lat="46.64836" lon="6.01699">
        <ele>742.8</ele>
        <time>2022-03-10T13:33:34Z</time>
      </trkpt>
      <trkpt lat="46.64838" lon="6.01692">
        <ele>742.2</ele>
        <time>2022-03-10T13:33:41Z</time>
      </trkpt>
      <trkpt lat="46.6484" lon="6.01686">
        <ele>739.9</ele>
        <time>2022-03-10T13:33:50Z</time>
      </trkpt>
      <trkpt lat="46.64841" lon="6.01678">
        <ele>737.8</ele>
        <time>2022-03-10T13:33:56Z</time>
      </trkpt>
      <trkpt lat="46.64844" lon="6.01673">
        <ele>736.6</ele>
        <time>2022-03-10T13:34:00Z</time>
      </trkpt>
      <trkpt lat="46.64848" lon="6.01669">
        <ele>735.4</ele>
        <time>2022-03-10T13:34:05Z</time>
      </trkpt>
      <trkpt lat="46.64852" lon="6.01665">
        <ele>734.6</ele>
        <time>2022-03-10T13:34:09Z</time>
      </trkpt>
      <trkpt lat="46.64856" lon="6.0166">
        <ele>733.9</ele>
        <time>2022-03-10T13:34:13Z</time>
      </trkpt>
      <trkpt lat="46.6486" lon="6.01655">
        <ele>733.3</ele>
        <time>2022-03-10T13:34:17Z</time>
      </trkpt>
      <trkpt lat="46.64864" lon="6.01649">
        <ele>732.7</ele>
        <time>2022-03-10T13:34:22Z</time>
      </trkpt>
      <trkpt lat="46.64865" lon="6.01643">
        <ele>731.4</ele>
        <time>2022-03-10T13:34:29Z</time>
      </trkpt>
      <trkpt lat="46.64867" lon="6.01635">
        <ele>730.7</ele>
        <time>2022-03-10T13:34:34Z</time>
      </trkpt>
      <trkpt lat="46.64869" lon="6.01629">
        <ele>730</ele>
        <time>2022-03-10T13:34:39Z</time>
      </trkpt>
      <trkpt lat="46.64873" lon="6.01623">
        <ele>729.3</ele>
        <time>2022-03-10T13:34:44Z</time>
      </trkpt>
      <trkpt lat="46.64875" lon="6.01618">
        <ele>729</ele>
        <time>2022-03-10T13:34:48Z</time>
      </trkpt>
      <trkpt lat="46.64878" lon="6.01611">
        <ele>729</ele>
        <time>2022-03-10T13:34:52Z</time>
      </trkpt>
      <trkpt lat="46.6488" lon="6.01603">
        <ele>729.1</ele>
        <time>2022-03-10T13:34:56Z</time>
      </trkpt>
      <trkpt lat="46.64883" lon="6.01597">
        <ele>728.9</ele>
        <time>2022-03-10T13:35:00Z</time>
      </trkpt>
      <trkpt lat="46.64886" lon="6.01591">
        <ele>728.2</ele>
        <time>2022-03-10T13:35:05Z</time>
      </trkpt>
      <trkpt lat="46.64888" lon="6.01585">
        <ele>728.2</ele>
        <time>2022-03-10T13:35:09Z</time>
      </trkpt>
      <trkpt lat="46.64891" lon="6.01577">
        <ele>728.6</ele>
        <time>2022-03-10T13:35:13Z</time>
      </trkpt>
      <trkpt lat="46.64894" lon="6.01572">
        <ele>728.7</ele>
        <time>2022-03-10T13:35:17Z</time>
      </trkpt>
      <trkpt lat="46.64897" lon="6.01565">
        <ele>728.9</ele>
        <time>2022-03-10T13:35:22Z</time>
      </trkpt>
      <trkpt lat="46.64899" lon="6.01558">
        <ele>729.1</ele>
        <time>2022-03-10T13:35:26Z</time>
      </trkpt>
      <trkpt lat="46.649" lon="6.01552">
        <ele>729.3</ele>
        <time>2022-03-10T13:35:30Z</time>
      </trkpt>
      <trkpt lat="46.64903" lon="6.01544">
        <ele>729.4</ele>
        <time>2022-03-10T13:35:35Z</time>
      </trkpt>
      <trkpt lat="46.64906" lon="6.01538">
        <ele>729.5</ele>
        <time>2022-03-10T13:35:39Z</time>
      </trkpt>
      <trkpt lat="46.64908" lon="6.01532">
        <ele>729.7</ele>
        <time>2022-03-10T13:35:43Z</time>
      </trkpt>
      <trkpt lat="46.6491" lon="6.01526">
        <ele>730</ele>
        <time>2022-03-10T13:35:47Z</time>
      </trkpt>
      <trkpt lat="46.64911" lon="6.01519">
        <ele>730.2</ele>
        <time>2022-03-10T13:35:51Z</time>
      </trkpt>
      <trkpt lat="46.64912" lon="6.01512">
        <ele>730.5</ele>
        <time>2022-03-10T13:35:56Z</time>
      </trkpt>
      <trkpt lat="46.64914" lon="6.01505">
        <ele>730.6</ele>
        <time>2022-03-10T13:36:01Z</time>
      </trkpt>
      <trkpt lat="46.64917" lon="6.01499">
        <ele>730.7</ele>
        <time>2022-03-10T13:36:05Z</time>
      </trkpt>
      <trkpt lat="46.6492" lon="6.01493">
        <ele>731.1</ele>
        <time>2022-03-10T13:36:10Z</time>
      </trkpt>
      <trkpt lat="46.64921" lon="6.01487">
        <ele>731.6</ele>
        <time>2022-03-10T13:36:16Z</time>
      </trkpt>
      <trkpt lat="46.64923" lon="6.0148">
        <ele>731.9</ele>
        <time>2022-03-10T13:36:20Z</time>
      </trkpt>
      <trkpt lat="46.64926" lon="6.01473">
        <ele>732.2</ele>
        <time>2022-03-10T13:36:24Z</time>
      </trkpt>
      <trkpt lat="46.64928" lon="6.01466">
        <ele>732.3</ele>
        <time>2022-03-10T13:36:28Z</time>
      </trkpt>
      <trkpt lat="46.6493" lon="6.01461">
        <ele>732.5</ele>
        <time>2022-03-10T13:36:32Z</time>
      </trkpt>
      <trkpt lat="46.64933" lon="6.01454">
        <ele>732.8</ele>
        <time>2022-03-10T13:36:37Z</time>
      </trkpt>
      <trkpt lat="46.64935" lon="6.01447">
        <ele>732.9</ele>
        <time>2022-03-10T13:36:42Z</time>
      </trkpt>
      <trkpt lat="46.64937" lon="6.0144">
        <ele>733.2</ele>
        <time>2022-03-10T13:36:47Z</time>
      </trkpt>
      <trkpt lat="46.6494" lon="6.01435">
        <ele>733.6</ele>
        <time>2022-03-10T13:36:51Z</time>
      </trkpt>
      <trkpt lat="46.64943" lon="6.01428">
        <ele>733.8</ele>
        <time>2022-03-10T13:36:56Z</time>
      </trkpt>
      <trkpt lat="46.64945" lon="6.01421">
        <ele>733.8</ele>
        <time>2022-03-10T13:37:01Z</time>
      </trkpt>
      <trkpt lat="46.64948" lon="6.01416">
        <ele>733.6</ele>
        <time>2022-03-10T13:37:06Z</time>
      </trkpt>
      <trkpt lat="46.64951" lon="6.0141">
        <ele>733.3</ele>
        <time>2022-03-10T13:37:10Z</time>
      </trkpt>
      <trkpt lat="46.64953" lon="6.01404">
        <ele>732.8</ele>
        <time>2022-03-10T13:37:14Z</time>
      </trkpt>
      <trkpt lat="46.64956" lon="6.01398">
        <ele>732</ele>
        <time>2022-03-10T13:37:19Z</time>
      </trkpt>
      <trkpt lat="46.64958" lon="6.01392">
        <ele>731.6</ele>
        <time>2022-03-10T13:37:23Z</time>
      </trkpt>
      <trkpt lat="46.64959" lon="6.01385">
        <ele>731.3</ele>
        <time>2022-03-10T13:37:28Z</time>
      </trkpt>
      <trkpt lat="46.6496" lon="6.01378">
        <ele>731.2</ele>
        <time>2022-03-10T13:37:34Z</time>
      </trkpt>
      <trkpt lat="46.64961" lon="6.01371">
        <ele>731.3</ele>
        <time>2022-03-10T13:37:39Z</time>
      </trkpt>
      <trkpt lat="46.64964" lon="6.01364">
        <ele>731.5</ele>
        <time>2022-03-10T13:37:45Z</time>
      </trkpt>
      <trkpt lat="46.64967" lon="6.01357">
        <ele>731.9</ele>
        <time>2022-03-10T13:37:50Z</time>
      </trkpt>
      <trkpt lat="46.64969" lon="6.01351">
        <ele>732.3</ele>
        <time>2022-03-10T13:37:55Z</time>
      </trkpt>
      <trkpt lat="46.64971" lon="6.01345">
        <ele>732.7</ele>
        <time>2022-03-10T13:37:59Z</time>
      </trkpt>
      <trkpt lat="46.64973" lon="6.01338">
        <ele>732.9</ele>
        <time>2022-03-10T13:38:03Z</time>
      </trkpt>
      <trkpt lat="46.64975" lon="6.01331">
        <ele>733.1</ele>
        <time>2022-03-10T13:38:07Z</time>
      </trkpt>
      <trkpt lat="46.64976" lon="6.01325">
        <ele>733.2</ele>
        <time>2022-03-10T13:38:12Z</time>
      </trkpt>
      <trkpt lat="46.64979" lon="6.01317">
        <ele>733.7</ele>
        <time>2022-03-10T13:38:17Z</time>
      </trkpt>
      <trkpt lat="46.64981" lon="6.01311">
        <ele>734</ele>
        <time>2022-03-10T13:38:21Z</time>
      </trkpt>
      <trkpt lat="46.64984" lon="6.01304">
        <ele>734.4</ele>
        <time>2022-03-10T13:38:25Z</time>
      </trkpt>
      <trkpt lat="46.64986" lon="6.01298">
        <ele>734.6</ele>
        <time>2022-03-10T13:38:29Z</time>
      </trkpt>
      <trkpt lat="46.64989" lon="6.01293">
        <ele>734.4</ele>
        <time>2022-03-10T13:38:34Z</time>
      </trkpt>
      <trkpt lat="46.64992" lon="6.01286">
        <ele>733.9</ele>
        <time>2022-03-10T13:38:39Z</time>
      </trkpt>
      <trkpt lat="46.64995" lon="6.0128">
        <ele>733.4</ele>
        <time>2022-03-10T13:38:44Z</time>
      </trkpt>
      <trkpt lat="46.64997" lon="6.01274">
        <ele>733</ele>
        <time>2022-03-10T13:38:49Z</time>
      </trkpt>
      <trkpt lat="46.64999" lon="6.01267">
        <ele>732.8</ele>
        <time>2022-03-10T13:38:54Z</time>
      </trkpt>
      <trkpt lat="46.65001" lon="6.0126">
        <ele>732.7</ele>
        <time>2022-03-10T13:38:59Z</time>
      </trkpt>
      <trkpt lat="46.65003" lon="6.01253">
        <ele>732.9</ele>
        <time>2022-03-10T13:39:04Z</time>
      </trkpt>
      <trkpt lat="46.65005" lon="6.01247">
        <ele>733.3</ele>
        <time>2022-03-10T13:39:09Z</time>
      </trkpt>
      <trkpt lat="46.65008" lon="6.0124">
        <ele>733.6</ele>
        <time>2022-03-10T13:39:14Z</time>
      </trkpt>
      <trkpt lat="46.6501" lon="6.01233">
        <ele>733.6</ele>
        <time>2022-03-10T13:39:19Z</time>
      </trkpt>
      <trkpt lat="46.65012" lon="6.01227">
        <ele>733.3</ele>
        <time>2022-03-10T13:39:23Z</time>
      </trkpt>
      <trkpt lat="46.65014" lon="6.01221">
        <ele>733.1</ele>
        <time>2022-03-10T13:39:27Z</time>
      </trkpt>
      <trkpt lat="46.65017" lon="6.01215">
        <ele>732.7</ele>
        <time>2022-03-10T13:39:32Z</time>
      </trkpt>
      <trkpt lat="46.65019" lon="6.01208">
        <ele>731.9</ele>
        <time>2022-03-10T13:39:37Z</time>
      </trkpt>
      <trkpt lat="46.65022" lon="6.01202">
        <ele>731.1</ele>
        <time>2022-03-10T13:39:42Z</time>
      </trkpt>
      <trkpt lat="46.65026" lon="6.01198">
        <ele>730.7</ele>
        <time>2022-03-10T13:39:47Z</time>
      </trkpt>
      <trkpt lat="46.65029" lon="6.01193">
        <ele>730.3</ele>
        <time>2022-03-10T13:39:53Z</time>
      </trkpt>
      <trkpt lat="46.65032" lon="6.01187">
        <ele>730.2</ele>
        <time>2022-03-10T13:39:57Z</time>
      </trkpt>
      <trkpt lat="46.65037" lon="6.01182">
        <ele>730.2</ele>
        <time>2022-03-10T13:40:01Z</time>
      </trkpt>
      <trkpt lat="46.65041" lon="6.01179">
        <ele>730.3</ele>
        <time>2022-03-10T13:40:05Z</time>
      </trkpt>
      <trkpt lat="46.65045" lon="6.01175">
        <ele>730.4</ele>
        <time>2022-03-10T13:40:10Z</time>
      </trkpt>
      <trkpt lat="46.65049" lon="6.01172">
        <ele>730.5</ele>
        <time>2022-03-10T13:40:14Z</time>
      </trkpt>
      <trkpt lat="46.65052" lon="6.01167">
        <ele>731.1</ele>
        <time>2022-03-10T13:40:19Z</time>
      </trkpt>
      <trkpt lat="46.65056" lon="6.01163">
        <ele>731.4</ele>
        <time>2022-03-10T13:40:23Z</time>
      </trkpt>
      <trkpt lat="46.6506" lon="6.01158">
        <ele>731.6</ele>
        <time>2022-03-10T13:40:28Z</time>
      </trkpt>
      <trkpt lat="46.65064" lon="6.01154">
        <ele>731.4</ele>
        <time>2022-03-10T13:40:33Z</time>
      </trkpt>
      <trkpt lat="46.65068" lon="6.0115">
        <ele>731.4</ele>
        <time>2022-03-10T13:40:38Z</time>
      </trkpt>
      <trkpt lat="46.65072" lon="6.01146">
        <ele>731.4</ele>
        <time>2022-03-10T13:40:42Z</time>
      </trkpt>
      <trkpt lat="46.65076" lon="6.01141">
        <ele>731.4</ele>
        <time>2022-03-10T13:40:46Z</time>
      </trkpt>
      <trkpt lat="46.65081" lon="6.01137">
        <ele>731.3</ele>
        <time>2022-03-10T13:40:50Z</time>
      </trkpt>
      <trkpt lat="46.65085" lon="6.01133">
        <ele>731.2</ele>
        <time>2022-03-10T13:40:54Z</time>
      </trkpt>
      <trkpt lat="46.6509" lon="6.0113">
        <ele>730.9</ele>
        <time>2022-03-10T13:40:58Z</time>
      </trkpt>
      <trkpt lat="46.65094" lon="6.01126">
        <ele>730.4</ele>
        <time>2022-03-10T13:41:03Z</time>
      </trkpt>
      <trkpt lat="46.65097" lon="6.01119">
        <ele>729.7</ele>
        <time>2022-03-10T13:41:09Z</time>
      </trkpt>
      <trkpt lat="46.65101" lon="6.01117">
        <ele>729.3</ele>
        <time>2022-03-10T13:41:14Z</time>
      </trkpt>
      <trkpt lat="46.65105" lon="6.01113">
        <ele>729.1</ele>
        <time>2022-03-10T13:41:19Z</time>
      </trkpt>
      <trkpt lat="46.65109" lon="6.0111">
        <ele>729.1</ele>
        <time>2022-03-10T13:41:23Z</time>
      </trkpt>
      <trkpt lat="46.65114" lon="6.01106">
        <ele>729</ele>
        <time>2022-03-10T13:41:27Z</time>
      </trkpt>
      <trkpt lat="46.65118" lon="6.01103">
        <ele>728.8</ele>
        <time>2022-03-10T13:41:31Z</time>
      </trkpt>
      <trkpt lat="46.65122" lon="6.011">
        <ele>728.8</ele>
        <time>2022-03-10T13:41:35Z</time>
      </trkpt>
      <trkpt lat="46.65126" lon="6.01097">
        <ele>729</ele>
        <time>2022-03-10T13:41:39Z</time>
      </trkpt>
      <trkpt lat="46.65131" lon="6.01094">
        <ele>729.2</ele>
        <time>2022-03-10T13:41:43Z</time>
      </trkpt>
      <trkpt lat="46.65135" lon="6.01091">
        <ele>729.2</ele>
        <time>2022-03-10T13:41:49Z</time>
      </trkpt>
      <trkpt lat="46.6514" lon="6.01089">
        <ele>728.6</ele>
        <time>2022-03-10T13:41:55Z</time>
      </trkpt>
      <trkpt lat="46.65145" lon="6.01088">
        <ele>727.9</ele>
        <time>2022-03-10T13:41:59Z</time>
      </trkpt>
      <trkpt lat="46.65149" lon="6.01085">
        <ele>727</ele>
        <time>2022-03-10T13:42:04Z</time>
      </trkpt>
      <trkpt lat="46.65154" lon="6.01082">
        <ele>725.9</ele>
        <time>2022-03-10T13:42:10Z</time>
      </trkpt>
      <trkpt lat="46.65159" lon="6.0108">
        <ele>725.5</ele>
        <time>2022-03-10T13:42:15Z</time>
      </trkpt>
      <trkpt lat="46.65164" lon="6.01078">
        <ele>725.5</ele>
        <time>2022-03-10T13:42:20Z</time>
      </trkpt>
      <trkpt lat="46.65168" lon="6.01075">
        <ele>725.7</ele>
        <time>2022-03-10T13:42:24Z</time>
      </trkpt>
      <trkpt lat="46.65172" lon="6.0107">
        <ele>725.6</ele>
        <time>2022-03-10T13:42:29Z</time>
      </trkpt>
      <trkpt lat="46.65177" lon="6.01066">
        <ele>725.6</ele>
        <time>2022-03-10T13:42:34Z</time>
      </trkpt>
      <trkpt lat="46.65181" lon="6.01062">
        <ele>725.1</ele>
        <time>2022-03-10T13:42:41Z</time>
      </trkpt>
      <trkpt lat="46.65186" lon="6.0106">
        <ele>724.2</ele>
        <time>2022-03-10T13:42:47Z</time>
      </trkpt>
      <trkpt lat="46.6519" lon="6.01055">
        <ele>723.3</ele>
        <time>2022-03-10T13:42:52Z</time>
      </trkpt>
      <trkpt lat="46.65193" lon="6.01049">
        <ele>722.7</ele>
        <time>2022-03-10T13:42:57Z</time>
      </trkpt>
      <trkpt lat="46.65195" lon="6.01044">
        <ele>722.5</ele>
        <time>2022-03-10T13:43:01Z</time>
      </trkpt>
      <trkpt lat="46.65198" lon="6.01038">
        <ele>722.3</ele>
        <time>2022-03-10T13:43:06Z</time>
      </trkpt>
      <trkpt lat="46.65201" lon="6.01031">
        <ele>722.3</ele>
        <time>2022-03-10T13:43:12Z</time>
      </trkpt>
      <trkpt lat="46.65203" lon="6.01025">
        <ele>722.1</ele>
        <time>2022-03-10T13:43:17Z</time>
      </trkpt>
      <trkpt lat="46.65206" lon="6.01019">
        <ele>721.3</ele>
        <time>2022-03-10T13:43:23Z</time>
      </trkpt>
      <trkpt lat="46.65206" lon="6.01012">
        <ele>720.5</ele>
        <time>2022-03-10T13:43:28Z</time>
      </trkpt>
      <trkpt lat="46.65207" lon="6.01005">
        <ele>720</ele>
        <time>2022-03-10T13:43:32Z</time>
      </trkpt>
      <trkpt lat="46.65208" lon="6.00998">
        <ele>719.7</ele>
        <time>2022-03-10T13:43:37Z</time>
      </trkpt>
      <trkpt lat="46.65212" lon="6.00994">
        <ele>719.5</ele>
        <time>2022-03-10T13:43:41Z</time>
      </trkpt>
      <trkpt lat="46.65216" lon="6.00992">
        <ele>719.4</ele>
        <time>2022-03-10T13:43:45Z</time>
      </trkpt>
      <trkpt lat="46.65221" lon="6.00989">
        <ele>719.2</ele>
        <time>2022-03-10T13:43:49Z</time>
      </trkpt>
      <trkpt lat="46.65225" lon="6.00985">
        <ele>718.9</ele>
        <time>2022-03-10T13:43:54Z</time>
      </trkpt>
      <trkpt lat="46.6523" lon="6.00983">
        <ele>718.6</ele>
        <time>2022-03-10T13:43:59Z</time>
      </trkpt>
      <trkpt lat="46.65234" lon="6.00979">
        <ele>718</ele>
        <time>2022-03-10T13:44:05Z</time>
      </trkpt>
      <trkpt lat="46.65239" lon="6.00976">
        <ele>717.2</ele>
        <time>2022-03-10T13:44:12Z</time>
      </trkpt>
      <trkpt lat="46.65244" lon="6.00974">
        <ele>716.6</ele>
        <time>2022-03-10T13:44:18Z</time>
      </trkpt>
      <trkpt lat="46.65249" lon="6.00972">
        <ele>716.1</ele>
        <time>2022-03-10T13:44:25Z</time>
      </trkpt>
      <trkpt lat="46.65253" lon="6.00972">
        <ele>715.7</ele>
        <time>2022-03-10T13:44:30Z</time>
      </trkpt>
      <trkpt lat="46.65258" lon="6.00971">
        <ele>715.2</ele>
        <time>2022-03-10T13:44:35Z</time>
      </trkpt>
      <trkpt lat="46.65263" lon="6.00969">
        <ele>714.7</ele>
        <time>2022-03-10T13:44:41Z</time>
      </trkpt>
      <trkpt lat="46.65268" lon="6.00968">
        <ele>714.1</ele>
        <time>2022-03-10T13:44:47Z</time>
      </trkpt>
      <trkpt lat="46.65272" lon="6.00968">
        <ele>713.5</ele>
        <time>2022-03-10T13:44:51Z</time>
      </trkpt>
      <trkpt lat="46.65277" lon="6.00968">
        <ele>713.3</ele>
        <time>2022-03-10T13:44:54Z</time>
      </trkpt>
      <trkpt lat="46.65282" lon="6.00968">
        <ele>713.6</ele>
        <time>2022-03-10T13:44:58Z</time>
      </trkpt>
      <trkpt lat="46.65287" lon="6.00967">
        <ele>714.2</ele>
        <time>2022-03-10T13:45:03Z</time>
      </trkpt>
      <trkpt lat="46.65292" lon="6.00966">
        <ele>714.7</ele>
        <time>2022-03-10T13:45:08Z</time>
      </trkpt>
      <trkpt lat="46.65297" lon="6.00964">
        <ele>715.3</ele>
        <time>2022-03-10T13:45:13Z</time>
      </trkpt>
      <trkpt lat="46.65302" lon="6.00961">
        <ele>715.8</ele>
        <time>2022-03-10T13:45:17Z</time>
      </trkpt>
      <trkpt lat="46.65306" lon="6.00959">
        <ele>715.8</ele>
        <time>2022-03-10T13:45:22Z</time>
      </trkpt>
      <trkpt lat="46.6531" lon="6.00957">
        <ele>715.8</ele>
        <time>2022-03-10T13:45:27Z</time>
      </trkpt>
      <trkpt lat="46.65315" lon="6.00953">
        <ele>715.7</ele>
        <time>2022-03-10T13:45:32Z</time>
      </trkpt>
      <trkpt lat="46.65319" lon="6.0095">
        <ele>715.5</ele>
        <time>2022-03-10T13:45:37Z</time>
      </trkpt>
      <trkpt lat="46.65324" lon="6.00947">
        <ele>715.5</ele>
        <time>2022-03-10T13:45:42Z</time>
      </trkpt>
      <trkpt lat="46.65329" lon="6.00946">
        <ele>715.4</ele>
        <time>2022-03-10T13:45:46Z</time>
      </trkpt>
      <trkpt lat="46.65334" lon="6.00944">
        <ele>715.3</ele>
        <time>2022-03-10T13:45:51Z</time>
      </trkpt>
      <trkpt lat="46.65339" lon="6.00941">
        <ele>715.2</ele>
        <time>2022-03-10T13:45:55Z</time>
      </trkpt>
      <trkpt lat="46.65343" lon="6.00938">
        <ele>715.1</ele>
        <time>2022-03-10T13:45:59Z</time>
      </trkpt>
      <trkpt lat="46.65348" lon="6.00934">
        <ele>715</ele>
        <time>2022-03-10T13:46:04Z</time>
      </trkpt>
      <trkpt lat="46.65352" lon="6.0093">
        <ele>714.6</ele>
        <time>2022-03-10T13:46:10Z</time>
      </trkpt>
      <trkpt lat="46.65357" lon="6.00927">
        <ele>713.9</ele>
        <time>2022-03-10T13:46:18Z</time>
      </trkpt>
      <trkpt lat="46.65362" lon="6.00926">
        <ele>713.3</ele>
        <time>2022-03-10T13:46:23Z</time>
      </trkpt>
      <trkpt lat="46.65366" lon="6.00922">
        <ele>712.6</ele>
        <time>2022-03-10T13:46:28Z</time>
      </trkpt>
      <trkpt lat="46.6537" lon="6.00926">
        <ele>713.6</ele>
        <time>2022-03-10T13:46:39Z</time>
      </trkpt>
      <trkpt lat="46.65376" lon="6.00924">
        <ele>715.5</ele>
        <time>2022-03-10T13:46:44Z</time>
      </trkpt>
      <trkpt lat="46.65377" lon="6.00931">
        <ele>718.1</ele>
        <time>2022-03-10T13:46:54Z</time>
      </trkpt>
      <trkpt lat="46.65378" lon="6.00939">
        <ele>718.5</ele>
        <time>2022-03-10T13:46:59Z</time>
      </trkpt>
      <trkpt lat="46.65377" lon="6.00946">
        <ele>718.3</ele>
        <time>2022-03-10T13:47:04Z</time>
      </trkpt>
      <trkpt lat="46.65378" lon="6.00953">
        <ele>717.6</ele>
        <time>2022-03-10T13:47:10Z</time>
      </trkpt>
      <trkpt lat="46.65383" lon="6.00956">
        <ele>716.5</ele>
        <time>2022-03-10T13:47:16Z</time>
      </trkpt>
      <trkpt lat="46.65388" lon="6.00959">
        <ele>715.8</ele>
        <time>2022-03-10T13:47:20Z</time>
      </trkpt>
      <trkpt lat="46.65393" lon="6.00961">
        <ele>715.2</ele>
        <time>2022-03-10T13:47:26Z</time>
      </trkpt>
      <trkpt lat="46.65395" lon="6.00967">
        <ele>715.1</ele>
        <time>2022-03-10T13:47:31Z</time>
      </trkpt>
      <trkpt lat="46.65395" lon="6.00976">
        <ele>715.1</ele>
        <time>2022-03-10T13:47:35Z</time>
      </trkpt>
      <trkpt lat="46.65395" lon="6.00983">
        <ele>714.9</ele>
        <time>2022-03-10T13:47:39Z</time>
      </trkpt>
      <trkpt lat="46.65396" lon="6.00989">
        <ele>714.2</ele>
        <time>2022-03-10T13:47:44Z</time>
      </trkpt>
      <trkpt lat="46.65396" lon="6.00996">
        <ele>713.9</ele>
        <time>2022-03-10T13:47:49Z</time>
      </trkpt>
      <trkpt lat="46.65398" lon="6.01003">
        <ele>712.9</ele>
        <time>2022-03-10T13:47:55Z</time>
      </trkpt>
      <trkpt lat="46.65399" lon="6.0101">
        <ele>712.2</ele>
        <time>2022-03-10T13:47:59Z</time>
      </trkpt>
      <trkpt lat="46.65397" lon="6.01017">
        <ele>711.2</ele>
        <time>2022-03-10T13:48:04Z</time>
      </trkpt>
      <trkpt lat="46.65398" lon="6.01024">
        <ele>710.7</ele>
        <time>2022-03-10T13:48:09Z</time>
      </trkpt>
      <trkpt lat="46.65401" lon="6.01029">
        <ele>710.2</ele>
        <time>2022-03-10T13:48:13Z</time>
      </trkpt>
      <trkpt lat="46.65405" lon="6.01034">
        <ele>709.5</ele>
        <time>2022-03-10T13:48:19Z</time>
      </trkpt>
      <trkpt lat="46.65408" lon="6.01041">
        <ele>708.9</ele>
        <time>2022-03-10T13:48:25Z</time>
      </trkpt>
      <trkpt lat="46.65409" lon="6.01048">
        <ele>708.6</ele>
        <time>2022-03-10T13:48:30Z</time>
      </trkpt>
      <trkpt lat="46.6541" lon="6.01054">
        <ele>708.2</ele>
        <time>2022-03-10T13:48:34Z</time>
      </trkpt>
      <trkpt lat="46.65412" lon="6.0106">
        <ele>707.8</ele>
        <time>2022-03-10T13:48:38Z</time>
      </trkpt>
      <trkpt lat="46.65413" lon="6.01068">
        <ele>707.2</ele>
        <time>2022-03-10T13:48:43Z</time>
      </trkpt>
      <trkpt lat="46.65417" lon="6.01074">
        <ele>706.8</ele>
        <time>2022-03-10T13:48:49Z</time>
      </trkpt>
      <trkpt lat="46.65418" lon="6.01081">
        <ele>706.4</ele>
        <time>2022-03-10T13:48:55Z</time>
      </trkpt>
      <trkpt lat="46.65419" lon="6.01088">
        <ele>706.3</ele>
        <time>2022-03-10T13:49:01Z</time>
      </trkpt>
      <trkpt lat="46.65421" lon="6.01094">
        <ele>706.1</ele>
        <time>2022-03-10T13:49:07Z</time>
      </trkpt>
      <trkpt lat="46.65424" lon="6.01099">
        <ele>705.2</ele>
        <time>2022-03-10T13:49:16Z</time>
      </trkpt>
      <trkpt lat="46.65421" lon="6.01108">
        <ele>704.4</ele>
        <time>2022-03-10T13:49:23Z</time>
      </trkpt>
      <trkpt lat="46.6542" lon="6.01121">
        <ele>703.5</ele>
        <time>2022-03-10T13:49:41Z</time>
      </trkpt>
      <trkpt lat="46.65419" lon="6.01129">
        <ele>703.1</ele>
        <time>2022-03-10T13:49:44Z</time>
      </trkpt>
      <trkpt lat="46.65419" lon="6.01137">
        <ele>702.6</ele>
        <time>2022-03-10T13:49:48Z</time>
      </trkpt>
      <trkpt lat="46.65416" lon="6.01145">
        <ele>702.1</ele>
        <time>2022-03-10T13:49:51Z</time>
      </trkpt>
      <trkpt lat="46.65415" lon="6.01152">
        <ele>701.3</ele>
        <time>2022-03-10T13:49:55Z</time>
      </trkpt>
      <trkpt lat="46.65414" lon="6.01159">
        <ele>700.7</ele>
        <time>2022-03-10T13:49:59Z</time>
      </trkpt>
      <trkpt lat="46.65414" lon="6.01167">
        <ele>700.1</ele>
        <time>2022-03-10T13:50:03Z</time>
      </trkpt>
      <trkpt lat="46.65414" lon="6.01174">
        <ele>699.7</ele>
        <time>2022-03-10T13:50:07Z</time>
      </trkpt>
      <trkpt lat="46.65414" lon="6.01181">
        <ele>699.5</ele>
        <time>2022-03-10T13:50:11Z</time>
      </trkpt>
      <trkpt lat="46.65414" lon="6.01188">
        <ele>699.1</ele>
        <time>2022-03-10T13:50:15Z</time>
      </trkpt>
      <trkpt lat="46.65414" lon="6.01195">
        <ele>697.9</ele>
        <time>2022-03-10T13:50:20Z</time>
      </trkpt>
      <trkpt lat="46.65413" lon="6.01201">
        <ele>696.4</ele>
        <time>2022-03-10T13:50:24Z</time>
      </trkpt>
      <trkpt lat="46.65413" lon="6.01209">
        <ele>694.6</ele>
        <time>2022-03-10T13:50:29Z</time>
      </trkpt>
      <trkpt lat="46.65414" lon="6.01216">
        <ele>692.7</ele>
        <time>2022-03-10T13:50:34Z</time>
      </trkpt>
      <trkpt lat="46.65413" lon="6.01222">
        <ele>690.7</ele>
        <time>2022-03-10T13:50:40Z</time>
      </trkpt>
      <trkpt lat="46.65412" lon="6.01229">
        <ele>688.7</ele>
        <time>2022-03-10T13:50:46Z</time>
      </trkpt>
      <trkpt lat="46.65412" lon="6.01236">
        <ele>686.9</ele>
        <time>2022-03-10T13:50:53Z</time>
      </trkpt>
      <trkpt lat="46.6541" lon="6.01243">
        <ele>684.7</ele>
        <time>2022-03-10T13:51:00Z</time>
      </trkpt>
      <trkpt lat="46.65408" lon="6.01249">
        <ele>681.4</ele>
        <time>2022-03-10T13:51:08Z</time>
      </trkpt>
      <trkpt lat="46.65408" lon="6.01256">
        <ele>678.3</ele>
        <time>2022-03-10T13:51:15Z</time>
      </trkpt>
      <trkpt lat="46.65409" lon="6.01263">
        <ele>675.9</ele>
        <time>2022-03-10T13:51:20Z</time>
      </trkpt>
      <trkpt lat="46.65409" lon="6.0127">
        <ele>673.5</ele>
        <time>2022-03-10T13:51:26Z</time>
      </trkpt>
      <trkpt lat="46.65405" lon="6.01276">
        <ele>671.8</ele>
        <time>2022-03-10T13:51:32Z</time>
      </trkpt>
      <trkpt lat="46.65402" lon="6.0128">
        <ele>670.9</ele>
        <time>2022-03-10T13:51:36Z</time>
      </trkpt>
      <trkpt lat="46.65399" lon="6.01285">
        <ele>670</ele>
        <time>2022-03-10T13:51:42Z</time>
      </trkpt>
      <trkpt lat="46.65397" lon="6.01292">
        <ele>669.8</ele>
        <time>2022-03-10T13:51:50Z</time>
      </trkpt>
      <trkpt lat="46.65401" lon="6.01298">
        <ele>671</ele>
        <time>2022-03-10T13:51:55Z</time>
      </trkpt>
      <trkpt lat="46.65405" lon="6.01301">
        <ele>672</ele>
        <time>2022-03-10T13:51:59Z</time>
      </trkpt>
      <trkpt lat="46.65409" lon="6.01303">
        <ele>672.7</ele>
        <time>2022-03-10T13:52:03Z</time>
      </trkpt>
      <trkpt lat="46.65414" lon="6.01303">
        <ele>674.4</ele>
        <time>2022-03-10T13:52:08Z</time>
      </trkpt>
      <trkpt lat="46.65419" lon="6.01303">
        <ele>676.1</ele>
        <time>2022-03-10T13:52:13Z</time>
      </trkpt>
      <trkpt lat="46.65424" lon="6.01303">
        <ele>677.2</ele>
        <time>2022-03-10T13:52:17Z</time>
      </trkpt>
      <trkpt lat="46.65428" lon="6.01301">
        <ele>677.9</ele>
        <time>2022-03-10T13:52:22Z</time>
      </trkpt>
      <trkpt lat="46.65434" lon="6.01299">
        <ele>678.8</ele>
        <time>2022-03-10T13:52:27Z</time>
      </trkpt>
      <trkpt lat="46.65439" lon="6.01298">
        <ele>679.6</ele>
        <time>2022-03-10T13:52:32Z</time>
      </trkpt>
      <trkpt lat="46.65443" lon="6.01294">
        <ele>680.2</ele>
        <time>2022-03-10T13:52:37Z</time>
      </trkpt>
      <trkpt lat="46.65447" lon="6.0129">
        <ele>680.8</ele>
        <time>2022-03-10T13:52:41Z</time>
      </trkpt>
      <trkpt lat="46.65449" lon="6.01284">
        <ele>681.3</ele>
        <time>2022-03-10T13:52:46Z</time>
      </trkpt>
      <trkpt lat="46.65451" lon="6.01277">
        <ele>682</ele>
        <time>2022-03-10T13:52:51Z</time>
      </trkpt>
      <trkpt lat="46.65452" lon="6.01269">
        <ele>682.8</ele>
        <time>2022-03-10T13:52:56Z</time>
      </trkpt>
      <trkpt lat="46.65454" lon="6.01263">
        <ele>683.4</ele>
        <time>2022-03-10T13:53:00Z</time>
      </trkpt>
      <trkpt lat="46.65455" lon="6.01253">
        <ele>683.8</ele>
        <time>2022-03-10T13:53:05Z</time>
      </trkpt>
      <trkpt lat="46.65455" lon="6.01244">
        <ele>684.5</ele>
        <time>2022-03-10T13:53:08Z</time>
      </trkpt>
      <trkpt lat="46.65453" lon="6.01236">
        <ele>685.7</ele>
        <time>2022-03-10T13:53:11Z</time>
      </trkpt>
      <trkpt lat="46.65453" lon="6.01229">
        <ele>687.4</ele>
        <time>2022-03-10T13:53:15Z</time>
      </trkpt>
      <trkpt lat="46.65452" lon="6.01222">
        <ele>688.3</ele>
        <time>2022-03-10T13:53:18Z</time>
      </trkpt>
      <trkpt lat="46.65452" lon="6.01214">
        <ele>689</ele>
        <time>2022-03-10T13:53:21Z</time>
      </trkpt>
      <trkpt lat="46.65451" lon="6.01206">
        <ele>689.2</ele>
        <time>2022-03-10T13:53:25Z</time>
      </trkpt>
      <trkpt lat="46.65452" lon="6.01199">
        <ele>689.5</ele>
        <time>2022-03-10T13:53:28Z</time>
      </trkpt>
      <trkpt lat="46.65452" lon="6.01192">
        <ele>690.1</ele>
        <time>2022-03-10T13:53:31Z</time>
      </trkpt>
      <trkpt lat="46.65452" lon="6.01184">
        <ele>690.8</ele>
        <time>2022-03-10T13:53:35Z</time>
      </trkpt>
      <trkpt lat="46.65452" lon="6.01176">
        <ele>691.2</ele>
        <time>2022-03-10T13:53:40Z</time>
      </trkpt>
      <trkpt lat="46.65451" lon="6.0117">
        <ele>691</ele>
        <time>2022-03-10T13:53:45Z</time>
      </trkpt>
      <trkpt lat="46.65452" lon="6.01163">
        <ele>690.8</ele>
        <time>2022-03-10T13:53:50Z</time>
      </trkpt>
      <trkpt lat="46.65453" lon="6.01155">
        <ele>690.9</ele>
        <time>2022-03-10T13:53:55Z</time>
      </trkpt>
      <trkpt lat="46.65455" lon="6.01148">
        <ele>691.4</ele>
        <time>2022-03-10T13:54:02Z</time>
      </trkpt>
      <trkpt lat="46.65455" lon="6.01142">
        <ele>691.3</ele>
        <time>2022-03-10T13:54:08Z</time>
      </trkpt>
      <trkpt lat="46.65457" lon="6.01134">
        <ele>690.5</ele>
        <time>2022-03-10T13:54:15Z</time>
      </trkpt>
      <trkpt lat="46.65458" lon="6.01126">
        <ele>690.1</ele>
        <time>2022-03-10T13:54:20Z</time>
      </trkpt>
      <trkpt lat="46.65457" lon="6.01118">
        <ele>689.8</ele>
        <time>2022-03-10T13:54:24Z</time>
      </trkpt>
      <trkpt lat="46.65457" lon="6.01112">
        <ele>689.8</ele>
        <time>2022-03-10T13:54:27Z</time>
      </trkpt>
      <trkpt lat="46.65459" lon="6.01104">
        <ele>689.9</ele>
        <time>2022-03-10T13:54:31Z</time>
      </trkpt>
      <trkpt lat="46.65461" lon="6.01097">
        <ele>690.2</ele>
        <time>2022-03-10T13:54:34Z</time>
      </trkpt>
      <trkpt lat="46.65462" lon="6.0109">
        <ele>690.5</ele>
        <time>2022-03-10T13:54:38Z</time>
      </trkpt>
      <trkpt lat="46.65465" lon="6.01084">
        <ele>690.9</ele>
        <time>2022-03-10T13:54:42Z</time>
      </trkpt>
      <trkpt lat="46.65468" lon="6.0108">
        <ele>691.8</ele>
        <time>2022-03-10T13:54:46Z</time>
      </trkpt>
      <trkpt lat="46.65472" lon="6.01074">
        <ele>692.9</ele>
        <time>2022-03-10T13:54:52Z</time>
      </trkpt>
      <trkpt lat="46.65475" lon="6.01069">
        <ele>693.8</ele>
        <time>2022-03-10T13:54:57Z</time>
      </trkpt>
      <trkpt lat="46.65478" lon="6.01064">
        <ele>694.7</ele>
        <time>2022-03-10T13:55:02Z</time>
      </trkpt>
      <trkpt lat="46.65482" lon="6.01059">
        <ele>695.2</ele>
        <time>2022-03-10T13:55:07Z</time>
      </trkpt>
      <trkpt lat="46.65486" lon="6.01054">
        <ele>695.5</ele>
        <time>2022-03-10T13:55:12Z</time>
      </trkpt>
      <trkpt lat="46.65489" lon="6.01049">
        <ele>695.8</ele>
        <time>2022-03-10T13:55:16Z</time>
      </trkpt>
      <trkpt lat="46.65493" lon="6.01042">
        <ele>696.3</ele>
        <time>2022-03-10T13:55:20Z</time>
      </trkpt>
      <trkpt lat="46.65495" lon="6.01036">
        <ele>696.6</ele>
        <time>2022-03-10T13:55:23Z</time>
      </trkpt>
      <trkpt lat="46.65498" lon="6.0103">
        <ele>697.7</ele>
        <time>2022-03-10T13:55:26Z</time>
      </trkpt>
      <trkpt lat="46.65501" lon="6.01024">
        <ele>699.6</ele>
        <time>2022-03-10T13:55:30Z</time>
      </trkpt>
      <trkpt lat="46.65504" lon="6.01017">
        <ele>701.4</ele>
        <time>2022-03-10T13:55:34Z</time>
      </trkpt>
      <trkpt lat="46.65507" lon="6.01012">
        <ele>702.6</ele>
        <time>2022-03-10T13:55:37Z</time>
      </trkpt>
      <trkpt lat="46.65512" lon="6.01008">
        <ele>704.3</ele>
        <time>2022-03-10T13:55:41Z</time>
      </trkpt>
      <trkpt lat="46.65516" lon="6.01003">
        <ele>707.2</ele>
        <time>2022-03-10T13:55:46Z</time>
      </trkpt>
      <trkpt lat="46.65521" lon="6.00999">
        <ele>710.3</ele>
        <time>2022-03-10T13:55:51Z</time>
      </trkpt>
      <trkpt lat="46.65526" lon="6.00997">
        <ele>712.4</ele>
        <time>2022-03-10T13:55:55Z</time>
      </trkpt>
      <trkpt lat="46.6553" lon="6.00994">
        <ele>714.2</ele>
        <time>2022-03-10T13:55:59Z</time>
      </trkpt>
      <trkpt lat="46.65535" lon="6.00991">
        <ele>715.9</ele>
        <time>2022-03-10T13:56:03Z</time>
      </trkpt>
      <trkpt lat="46.65539" lon="6.00989">
        <ele>717.5</ele>
        <time>2022-03-10T13:56:07Z</time>
      </trkpt>
      <trkpt lat="46.65543" lon="6.00989">
        <ele>719.5</ele>
        <time>2022-03-10T13:56:12Z</time>
      </trkpt>
      <trkpt lat="46.65548" lon="6.00987">
        <ele>721.8</ele>
        <time>2022-03-10T13:56:18Z</time>
      </trkpt>
      <trkpt lat="46.65554" lon="6.00985">
        <ele>723.5</ele>
        <time>2022-03-10T13:56:22Z</time>
      </trkpt>
      <trkpt lat="46.6556" lon="6.00984">
        <ele>724.9</ele>
        <time>2022-03-10T13:56:26Z</time>
      </trkpt>
      <trkpt lat="46.65565" lon="6.00983">
        <ele>726.3</ele>
        <time>2022-03-10T13:56:31Z</time>
      </trkpt>
      <trkpt lat="46.6557" lon="6.00982">
        <ele>727.3</ele>
        <time>2022-03-10T13:56:36Z</time>
      </trkpt>
      <trkpt lat="46.65574" lon="6.00981">
        <ele>728</ele>
        <time>2022-03-10T13:56:40Z</time>
      </trkpt>
      <trkpt lat="46.65579" lon="6.0098">
        <ele>728.8</ele>
        <time>2022-03-10T13:56:44Z</time>
      </trkpt>
      <trkpt lat="46.65584" lon="6.00978">
        <ele>729.7</ele>
        <time>2022-03-10T13:56:48Z</time>
      </trkpt>
      <trkpt lat="46.65588" lon="6.00974">
        <ele>730.8</ele>
        <time>2022-03-10T13:56:54Z</time>
      </trkpt>
      <trkpt lat="46.65593" lon="6.00972">
        <ele>731.7</ele>
        <time>2022-03-10T13:57:00Z</time>
      </trkpt>
      <trkpt lat="46.65598" lon="6.00972">
        <ele>732.2</ele>
        <time>2022-03-10T13:57:05Z</time>
      </trkpt>
      <trkpt lat="46.65603" lon="6.00972">
        <ele>731.8</ele>
        <time>2022-03-10T13:57:11Z</time>
      </trkpt>
      <trkpt lat="46.65608" lon="6.00971">
        <ele>731.5</ele>
        <time>2022-03-10T13:57:16Z</time>
      </trkpt>
      <trkpt lat="46.65613" lon="6.0097">
        <ele>731.4</ele>
        <time>2022-03-10T13:57:21Z</time>
      </trkpt>
      <trkpt lat="46.65618" lon="6.00969">
        <ele>730.9</ele>
        <time>2022-03-10T13:57:26Z</time>
      </trkpt>
      <trkpt lat="46.65622" lon="6.00969">
        <ele>730</ele>
        <time>2022-03-10T13:57:30Z</time>
      </trkpt>
      <trkpt lat="46.65628" lon="6.00969">
        <ele>728.6</ele>
        <time>2022-03-10T13:57:34Z</time>
      </trkpt>
      <trkpt lat="46.65633" lon="6.0097">
        <ele>727.2</ele>
        <time>2022-03-10T13:57:39Z</time>
      </trkpt>
      <trkpt lat="46.65638" lon="6.0097">
        <ele>725.8</ele>
        <time>2022-03-10T13:57:45Z</time>
      </trkpt>
      <trkpt lat="46.65643" lon="6.00969">
        <ele>724.6</ele>
        <time>2022-03-10T13:57:50Z</time>
      </trkpt>
    </trkseg>
  </trk>
</gpx>